<?xml version='1.0' encoding='UTF-8'?><gpx version="1.1" creator="JPX - https://github.com/jenetics/jpx" xmlns="http://www.topografix.com/GPX/1/1"><trk><trkseg><trkpt lat="39.889948765807404" lon="18.110652385366365"><ele>-2.0</ele><time>2026-04-19T09:19:07.613Z</time></trkpt><trkpt lat="39.88997754485415" lon="18.110745218433927"><ele>-2.0</ele><time>2026-04-19T09:19:10.613Z</time></trkpt><trkpt lat="39.89005298002946" lon="18.11067848662991"><ele>-2.0</ele><time>2026-04-19T09:19:13.613Z</time></trkpt><trkpt lat="39.89012318662514" lon="18.11059332671699"><ele>-2.0</ele><time>2026-04-19T09:19:15.613Z</time></trkpt><trkpt lat="39.89022463544371" lon="18.110471866459424"><ele>-2.0</ele><time>2026-04-19T09:19:17.613Z</time></trkpt><trkpt lat="39.89027296362494" lon="18.11039952565732"><ele>-1.6</ele><time>2026-04-19T09:19:18.613Z</time></trkpt><trkpt lat="39.89031993077349" lon="18.110344138134156"><ele>-1.2000000000000002</ele><time>2026-04-19T09:19:19.613Z</time></trkpt><trkpt lat="39.89039759327476" lon="18.11024487461303"><ele>-0.8</ele><time>2026-04-19T09:19:21.613Z</time></trkpt><trkpt lat="39.89047794941731" lon="18.110146981728356"><ele>-0.4</ele><time>2026-04-19T09:19:23.613Z</time></trkpt><trkpt lat="39.890537841297444" lon="18.1100618373869"><ele>0.0</ele><time>2026-04-19T09:19:25.613Z</time></trkpt><trkpt lat="39.89060243950231" lon="18.10997637467308"><ele>-0.2</ele><time>2026-04-19T09:19:27.613Z</time></trkpt><trkpt lat="39.89066493353105" lon="18.10988574539921"><ele>-0.4</ele><time>2026-04-19T09:19:29.613Z</time></trkpt><trkpt lat="39.89073243357006" lon="18.109795707139554"><ele>-0.6000000000000001</ele><time>2026-04-19T09:19:31.613Z</time></trkpt><trkpt lat="39.89080236940044" lon="18.10968013929434"><ele>-0.8</ele><time>2026-04-19T09:19:33.613Z</time></trkpt><trkpt lat="39.89084276897833" lon="18.10961712471283"><ele>-1.0</ele><time>2026-04-19T09:19:34.613Z</time></trkpt><trkpt lat="39.89090078400171" lon="18.109493012500046"><ele>-0.8333333333333333</ele><time>2026-04-19T09:19:36.613Z</time></trkpt><trkpt lat="39.890928367724776" lon="18.10941597871176"><ele>-0.6666666666666666</ele><time>2026-04-19T09:19:37.613Z</time></trkpt><trkpt lat="39.89094853337672" lon="18.109337592671153"><ele>-0.5</ele><time>2026-04-19T09:19:38.613Z</time></trkpt><trkpt lat="39.89097357367146" lon="18.109176598256308"><ele>-0.3333333333333333</ele><time>2026-04-19T09:19:40.613Z</time></trkpt><trkpt lat="39.89098625605458" lon="18.109089704695737"><ele>-0.16666666666666666</ele><time>2026-04-19T09:19:41.613Z</time></trkpt><trkpt lat="39.890993582840046" lon="18.109005433191978"><ele>0.0</ele><time>2026-04-19T09:19:42.613Z</time></trkpt><trkpt lat="39.89099971794798" lon="18.108853566697647"><ele>0.0</ele><time>2026-04-19T09:19:44.613Z</time></trkpt><trkpt lat="39.89099735662906" lon="18.108712082822013"><ele>0.0</ele><time>2026-04-19T09:19:46.613Z</time></trkpt><trkpt lat="39.89100514122031" lon="18.10854956640362"><ele>0.0</ele><time>2026-04-19T09:19:48.613Z</time></trkpt><trkpt lat="39.89101534365955" lon="18.10846713184871"><ele>0.0</ele><time>2026-04-19T09:19:49.613Z</time></trkpt><trkpt lat="39.89102088493961" lon="18.108384976123105"><ele>0.0</ele><time>2026-04-19T09:19:50.613Z</time></trkpt><trkpt lat="39.89102497202775" lon="18.10830076120634"><ele>0.0</ele><time>2026-04-19T09:19:51.613Z</time></trkpt><trkpt lat="39.89103918300934" lon="18.108217152856565"><ele>0.16666666666666666</ele><time>2026-04-19T09:19:52.613Z</time></trkpt><trkpt lat="39.89105822218522" lon="18.108137703258556"><ele>0.3333333333333333</ele><time>2026-04-19T09:19:53.613Z</time></trkpt><trkpt lat="39.89108851767005" lon="18.108061476253848"><ele>0.5</ele><time>2026-04-19T09:19:54.613Z</time></trkpt><trkpt lat="39.89113446115652" lon="18.107998295305986"><ele>0.6666666666666666</ele><time>2026-04-19T09:19:55.613Z</time></trkpt><trkpt lat="39.89121822712779" lon="18.107881907351917"><ele>0.8333333333333333</ele><time>2026-04-19T09:19:57.613Z</time></trkpt><trkpt lat="39.89126414901536" lon="18.107813234227358"><ele>1.0</ele><time>2026-04-19T09:19:58.613Z</time></trkpt><trkpt lat="39.89131719912473" lon="18.107758507035307"><ele>0.9999999999999999</ele><time>2026-04-19T09:19:59.613Z</time></trkpt><trkpt lat="39.891372125201734" lon="18.107714763017363"><ele>1.0</ele><time>2026-04-19T09:20:00.613Z</time></trkpt><trkpt lat="39.891415563285186" lon="18.107649754642537"><ele>1.0</ele><time>2026-04-19T09:20:01.613Z</time></trkpt><trkpt lat="39.89146625763283" lon="18.107591838522872"><ele>1.0</ele><time>2026-04-19T09:20:02.613Z</time></trkpt><trkpt lat="39.891564452218994" lon="18.107501634509713"><ele>0.9999999999999999</ele><time>2026-04-19T09:20:04.613Z</time></trkpt><trkpt lat="39.89165912779904" lon="18.107390565363804"><ele>1.0</ele><time>2026-04-19T09:20:06.613Z</time></trkpt><trkpt lat="39.89170419953699" lon="18.10733217167659"><ele>0.6000000000000001</ele><time>2026-04-19T09:20:07.613Z</time></trkpt><trkpt lat="39.89179510657958" lon="18.107224016861487"><ele>0.20000000000000007</ele><time>2026-04-19T09:20:09.613Z</time></trkpt><trkpt lat="39.89188750851676" lon="18.10711126034792"><ele>-0.20000000000000007</ele><time>2026-04-19T09:20:11.613Z</time></trkpt><trkpt lat="39.891934244149034" lon="18.107053688522424"><ele>-0.6000000000000001</ele><time>2026-04-19T09:20:12.613Z</time></trkpt><trkpt lat="39.892012114834095" lon="18.106970903720473"><ele>-1.0</ele><time>2026-04-19T09:20:14.613Z</time></trkpt><trkpt lat="39.89207701237881" lon="18.106904317477845"><ele>-1.0</ele><time>2026-04-19T09:20:16.613Z</time></trkpt><trkpt lat="39.89213579973155" lon="18.106833063861334"><ele>-1.0</ele><time>2026-04-19T09:20:18.613Z</time></trkpt><trkpt lat="39.89221858912299" lon="18.10673662505324"><ele>-1.0</ele><time>2026-04-19T09:20:20.613Z</time></trkpt><trkpt lat="39.89228130912677" lon="18.106654452832633"><ele>-1.0</ele><time>2026-04-19T09:20:21.613Z</time></trkpt><trkpt lat="39.89237330531935" lon="18.106544715179265"><ele>-1.0</ele><time>2026-04-19T09:20:22.613Z</time></trkpt><trkpt lat="39.89245554497974" lon="18.106441177733466"><ele>-1.0</ele><time>2026-04-19T09:20:23.613Z</time></trkpt><trkpt lat="39.892532252262136" lon="18.106349836311654"><ele>-1.0</ele><time>2026-04-19T09:20:24.613Z</time></trkpt><trkpt lat="39.89263053938113" lon="18.10623647714086"><ele>-1.0</ele><time>2026-04-19T09:20:25.613Z</time></trkpt><trkpt lat="39.89275160323315" lon="18.106097592770055"><ele>-1.0</ele><time>2026-04-19T09:20:26.613Z</time></trkpt><trkpt lat="39.892855967861784" lon="18.10596514473318"><ele>-1.0</ele><time>2026-04-19T09:20:27.613Z</time></trkpt><trkpt lat="39.8929556018279" lon="18.10585212159666"><ele>-1.0</ele><time>2026-04-19T09:20:28.613Z</time></trkpt><trkpt lat="39.89304891612526" lon="18.105740830449047"><ele>-1.0</ele><time>2026-04-19T09:20:29.613Z</time></trkpt><trkpt lat="39.893147128648415" lon="18.10563374154089"><ele>-1.0</ele><time>2026-04-19T09:20:30.613Z</time></trkpt><trkpt lat="39.893245569778024" lon="18.105519689555237"><ele>-0.75</ele><time>2026-04-19T09:20:31.613Z</time></trkpt><trkpt lat="39.893345009783204" lon="18.10540120984927"><ele>-0.5</ele><time>2026-04-19T09:20:32.613Z</time></trkpt><trkpt lat="39.893444725206976" lon="18.105279076898718"><ele>-0.25</ele><time>2026-04-19T09:20:33.613Z</time></trkpt><trkpt lat="39.89354487753227" lon="18.105163001069467"><ele>0.0</ele><time>2026-04-19T09:20:34.612Z</time></trkpt><trkpt lat="39.89365310611727" lon="18.105036484345238"><ele>0.5</ele><time>2026-04-19T09:20:35.612Z</time></trkpt><trkpt lat="39.89376549547713" lon="18.104912066967717"><ele>1.0</ele><time>2026-04-19T09:20:36.612Z</time></trkpt><trkpt lat="39.89386434792494" lon="18.10479644531566"><ele>1.5</ele><time>2026-04-19T09:20:37.612Z</time></trkpt><trkpt lat="39.893949601874" lon="18.104653720060465"><ele>2.0</ele><time>2026-04-19T09:20:38.612Z</time></trkpt><trkpt lat="39.89403841044272" lon="18.10449685879209"><ele>2.0</ele><time>2026-04-19T09:20:39.613Z</time></trkpt><trkpt lat="39.894121059854065" lon="18.10432747890391"><ele>2.0</ele><time>2026-04-19T09:20:40.612Z</time></trkpt><trkpt lat="39.89419878301926" lon="18.104137801879705"><ele>2.0</ele><time>2026-04-19T09:20:41.612Z</time></trkpt><trkpt lat="39.89427543976143" lon="18.103930847631204"><ele>2.25</ele><time>2026-04-19T09:20:42.613Z</time></trkpt><trkpt lat="39.894342386166954" lon="18.10373149501113"><ele>2.5</ele><time>2026-04-19T09:20:43.612Z</time></trkpt><trkpt lat="39.894404614244756" lon="18.10356778146434"><ele>2.75</ele><time>2026-04-19T09:20:44.612Z</time></trkpt><trkpt lat="39.8944470888416" lon="18.103435620183113"><ele>3.0</ele><time>2026-04-19T09:20:45.612Z</time></trkpt><trkpt lat="39.89449078377846" lon="18.103314618821855"><ele>3.0</ele><time>2026-04-19T09:20:46.612Z</time></trkpt><trkpt lat="39.89452557507468" lon="18.103214881926935"><ele>3.0</ele><time>2026-04-19T09:20:47.612Z</time></trkpt><trkpt lat="39.894558773555694" lon="18.103125405078462"><ele>3.0</ele><time>2026-04-19T09:20:48.612Z</time></trkpt><trkpt lat="39.8945931404933" lon="18.103026890476485"><ele>3.0</ele><time>2026-04-19T09:20:49.612Z</time></trkpt><trkpt lat="39.89464139276225" lon="18.102902375633686"><ele>3.0</ele><time>2026-04-19T09:20:50.612Z</time></trkpt><trkpt lat="39.89470265029755" lon="18.102743500174384"><ele>3.0</ele><time>2026-04-19T09:20:51.612Z</time></trkpt><trkpt lat="39.89477310997365" lon="18.102565229638877"><ele>3.0</ele><time>2026-04-19T09:20:52.612Z</time></trkpt><trkpt lat="39.894847466403775" lon="18.10236214702169"><ele>3.0</ele><time>2026-04-19T09:20:53.612Z</time></trkpt><trkpt lat="39.894926295305346" lon="18.10214683653992"><ele>2.6666666666666665</ele><time>2026-04-19T09:20:54.612Z</time></trkpt><trkpt lat="39.89500305615734" lon="18.101932154384514"><ele>2.333333333333333</ele><time>2026-04-19T09:20:55.612Z</time></trkpt><trkpt lat="39.89507796852361" lon="18.10173005447929"><ele>2.0</ele><time>2026-04-19T09:20:56.612Z</time></trkpt><trkpt lat="39.895154290665666" lon="18.10151735230403"><ele>4.0</ele><time>2026-04-19T09:20:57.612Z</time></trkpt><trkpt lat="39.89523226634454" lon="18.101305095582006"><ele>6.0</ele><time>2026-04-19T09:20:58.612Z</time></trkpt><trkpt lat="39.89530251459241" lon="18.10111471515674"><ele>8.0</ele><time>2026-04-19T09:20:59.612Z</time></trkpt><trkpt lat="39.89536432018419" lon="18.10095269803801"><ele>8.0</ele><time>2026-04-19T09:21:00.612Z</time></trkpt><trkpt lat="39.89541589350138" lon="18.100803306883165"><ele>8.0</ele><time>2026-04-19T09:21:01.612Z</time></trkpt><trkpt lat="39.895465199670944" lon="18.10066439581501"><ele>8.0</ele><time>2026-04-19T09:21:02.612Z</time></trkpt><trkpt lat="39.89552166341415" lon="18.10053287755785"><ele>8.0</ele><time>2026-04-19T09:21:03.612Z</time></trkpt><trkpt lat="39.89557921130258" lon="18.10042083165259"><ele>7.0</ele><time>2026-04-19T09:21:04.612Z</time></trkpt><trkpt lat="39.89565270539021" lon="18.100325139655517"><ele>6.0</ele><time>2026-04-19T09:21:05.612Z</time></trkpt><trkpt lat="39.89573937053409" lon="18.100239411847713"><ele>5.0</ele><time>2026-04-19T09:21:06.612Z</time></trkpt><trkpt lat="39.89584600291844" lon="18.100150046972438"><ele>4.0</ele><time>2026-04-19T09:21:07.612Z</time></trkpt><trkpt lat="39.89597510860261" lon="18.100073438006337"><ele>4.0</ele><time>2026-04-19T09:21:08.612Z</time></trkpt><trkpt lat="39.89612371705283" lon="18.099986060295024"><ele>4.0</ele><time>2026-04-19T09:21:09.612Z</time></trkpt><trkpt lat="39.89625429778095" lon="18.099900861738114"><ele>4.0</ele><time>2026-04-19T09:21:10.612Z</time></trkpt><trkpt lat="39.896357454190756" lon="18.099802603567394"><ele>4.0</ele><time>2026-04-19T09:21:11.612Z</time></trkpt><trkpt lat="39.89643893500146" lon="18.099664265887014"><ele>4.0</ele><time>2026-04-19T09:21:12.612Z</time></trkpt><trkpt lat="39.89652204157994" lon="18.099483464236734"><ele>4.0</ele><time>2026-04-19T09:21:13.612Z</time></trkpt><trkpt lat="39.89659908194382" lon="18.09927789472994"><ele>4.0</ele><time>2026-04-19T09:21:14.612Z</time></trkpt><trkpt lat="39.89667453471959" lon="18.09905077495123"><ele>3.25</ele><time>2026-04-19T09:21:15.612Z</time></trkpt><trkpt lat="39.89674234604731" lon="18.09885273366887"><ele>2.5</ele><time>2026-04-19T09:21:16.612Z</time></trkpt><trkpt lat="39.89679960169276" lon="18.09868686403756"><ele>1.75</ele><time>2026-04-19T09:21:17.612Z</time></trkpt><trkpt lat="39.89685796094171" lon="18.098538121628632"><ele>1.0</ele><time>2026-04-19T09:21:18.612Z</time></trkpt><trkpt lat="39.89691208161205" lon="18.09839887059791"><ele>1.4</ele><time>2026-04-19T09:21:19.612Z</time></trkpt><trkpt lat="39.89696589648334" lon="18.098279458364427"><ele>1.8</ele><time>2026-04-19T09:21:20.612Z</time></trkpt><trkpt lat="39.89702017623178" lon="18.098166226665736"><ele>2.1999999999999997</ele><time>2026-04-19T09:21:21.612Z</time></trkpt><trkpt lat="39.89707332670889" lon="18.098056482751325"><ele>2.6</ele><time>2026-04-19T09:21:22.612Z</time></trkpt><trkpt lat="39.897127062134274" lon="18.09796923861801"><ele>3.0</ele><time>2026-04-19T09:21:23.612Z</time></trkpt><trkpt lat="39.8971851534945" lon="18.097906415807017"><ele>3.0</ele><time>2026-04-19T09:21:24.612Z</time></trkpt><trkpt lat="39.89724039924677" lon="18.097806066285585"><ele>3.0</ele><time>2026-04-19T09:21:26.612Z</time></trkpt><trkpt lat="39.897324394625336" lon="18.097652892503202"><ele>3.0</ele><time>2026-04-19T09:21:28.612Z</time></trkpt><trkpt lat="39.89738972630943" lon="18.09754685001682"><ele>3.0</ele><time>2026-04-19T09:21:29.612Z</time></trkpt><trkpt lat="39.89746217217637" lon="18.09741698139615"><ele>3.2</ele><time>2026-04-19T09:21:30.612Z</time></trkpt><trkpt lat="39.89753326193847" lon="18.097293713363417"><ele>3.4</ele><time>2026-04-19T09:21:31.612Z</time></trkpt><trkpt lat="39.89759663142642" lon="18.097184617173667"><ele>3.6000000000000005</ele><time>2026-04-19T09:21:32.612Z</time></trkpt><trkpt lat="39.89765536691114" lon="18.09709206499573"><ele>3.8000000000000003</ele><time>2026-04-19T09:21:33.612Z</time></trkpt><trkpt lat="39.89771046517156" lon="18.09699344951789"><ele>4.0</ele><time>2026-04-19T09:21:34.612Z</time></trkpt><trkpt lat="39.897778094313225" lon="18.096885481305847"><ele>4.0</ele><time>2026-04-19T09:21:35.612Z</time></trkpt><trkpt lat="39.897851214869824" lon="18.096754342971646"><ele>4.0</ele><time>2026-04-19T09:21:36.612Z</time></trkpt><trkpt lat="39.89793437954482" lon="18.096596857095353"><ele>4.0</ele><time>2026-04-19T09:21:37.612Z</time></trkpt><trkpt lat="39.898036852127184" lon="18.096411786387037"><ele>4.0</ele><time>2026-04-19T09:21:38.612Z</time></trkpt><trkpt lat="39.89816500866059" lon="18.096204114132842"><ele>4.0</ele><time>2026-04-19T09:21:39.612Z</time></trkpt><trkpt lat="39.89830273383092" lon="18.095979713846923"><ele>4.0</ele><time>2026-04-19T09:21:40.612Z</time></trkpt><trkpt lat="39.89844041002248" lon="18.095749224417208"><ele>4.0</ele><time>2026-04-19T09:21:41.612Z</time></trkpt><trkpt lat="39.89856437629447" lon="18.095545449353196"><ele>4.0</ele><time>2026-04-19T09:21:42.612Z</time></trkpt><trkpt lat="39.898669651368564" lon="18.095381259097323"><ele>4.0</ele><time>2026-04-19T09:21:43.612Z</time></trkpt><trkpt lat="39.89876748474474" lon="18.095228113745023"><ele>4.0</ele><time>2026-04-19T09:21:44.612Z</time></trkpt><trkpt lat="39.89885943974846" lon="18.095074486086983"><ele>3.6666666666666665</ele><time>2026-04-19T09:21:45.612Z</time></trkpt><trkpt lat="39.898948013724976" lon="18.094917541906607"><ele>3.333333333333333</ele><time>2026-04-19T09:21:46.612Z</time></trkpt><trkpt lat="39.8990362198006" lon="18.094747896577573"><ele>3.0</ele><time>2026-04-19T09:21:47.612Z</time></trkpt><trkpt lat="39.89911776688614" lon="18.094568599473288"><ele>3.0</ele><time>2026-04-19T09:21:48.612Z</time></trkpt><trkpt lat="39.89918514150831" lon="18.09436197195965"><ele>3.0</ele><time>2026-04-19T09:21:49.612Z</time></trkpt><trkpt lat="39.89925636130644" lon="18.094141360276005"><ele>3.0</ele><time>2026-04-19T09:21:50.612Z</time></trkpt><trkpt lat="39.89932770979517" lon="18.09391013718064"><ele>3.333333333333333</ele><time>2026-04-19T09:21:51.612Z</time></trkpt><trkpt lat="39.899398840382254" lon="18.09367567147297"><ele>3.6666666666666665</ele><time>2026-04-19T09:21:52.612Z</time></trkpt><trkpt lat="39.89948452274083" lon="18.09342797626135"><ele>4.0</ele><time>2026-04-19T09:21:53.612Z</time></trkpt><trkpt lat="39.89956115975252" lon="18.09320934546995"><ele>4.0</ele><time>2026-04-19T09:21:54.612Z</time></trkpt><trkpt lat="39.89962832354741" lon="18.093012237087194"><ele>4.0</ele><time>2026-04-19T09:21:55.612Z</time></trkpt><trkpt lat="39.89968715709238" lon="18.092842870205935"><ele>4.0</ele><time>2026-04-19T09:21:56.612Z</time></trkpt><trkpt lat="39.89973044601541" lon="18.092692272771988"><ele>4.0</ele><time>2026-04-19T09:21:57.612Z</time></trkpt><trkpt lat="39.89976507530121" lon="18.092553386961608"><ele>4.25</ele><time>2026-04-19T09:21:58.612Z</time></trkpt><trkpt lat="39.89979102604655" lon="18.09240874468358"><ele>4.5</ele><time>2026-04-19T09:21:59.612Z</time></trkpt><trkpt lat="39.89979363575252" lon="18.09226054395457"><ele>4.75</ele><time>2026-04-19T09:22:00.612Z</time></trkpt><trkpt lat="39.89978790235177" lon="18.092103155000725"><ele>5.0</ele><time>2026-04-19T09:22:01.612Z</time></trkpt><trkpt lat="39.8997695291288" lon="18.09194089655139"><ele>5.0</ele><time>2026-04-19T09:22:02.612Z</time></trkpt><trkpt lat="39.89975881919174" lon="18.091757468065694"><ele>5.0</ele><time>2026-04-19T09:22:03.612Z</time></trkpt><trkpt lat="39.89974788219653" lon="18.091585267400276"><ele>5.0</ele><time>2026-04-19T09:22:04.612Z</time></trkpt><trkpt lat="39.89973467956494" lon="18.091425088811445"><ele>5.0</ele><time>2026-04-19T09:22:05.612Z</time></trkpt><trkpt lat="39.89972436919029" lon="18.091259261460205"><ele>5.0</ele><time>2026-04-19T09:22:06.612Z</time></trkpt><trkpt lat="39.89971725948334" lon="18.09109284687773"><ele>5.0</ele><time>2026-04-19T09:22:07.612Z</time></trkpt><trkpt lat="39.899714078793366" lon="18.090929869090026"><ele>5.0</ele><time>2026-04-19T09:22:08.612Z</time></trkpt><trkpt lat="39.89971514440825" lon="18.090785289916578"><ele>5.0</ele><time>2026-04-19T09:22:09.612Z</time></trkpt><trkpt lat="39.89971912509319" lon="18.090630486573694"><ele>4.75</ele><time>2026-04-19T09:22:10.612Z</time></trkpt><trkpt lat="39.89974283189722" lon="18.09046551264639"><ele>4.5</ele><time>2026-04-19T09:22:11.612Z</time></trkpt><trkpt lat="39.89978096082393" lon="18.09029484680405"><ele>4.25</ele><time>2026-04-19T09:22:12.612Z</time></trkpt><trkpt lat="39.8998320657921" lon="18.090130218789753"><ele>4.0</ele><time>2026-04-19T09:22:13.612Z</time></trkpt><trkpt lat="39.8998925257137" lon="18.089966025677384"><ele>4.25</ele><time>2026-04-19T09:22:14.612Z</time></trkpt><trkpt lat="39.8999527840899" lon="18.089821948969796"><ele>4.5</ele><time>2026-04-19T09:22:15.612Z</time></trkpt><trkpt lat="39.900010662451926" lon="18.08969116764482"><ele>4.75</ele><time>2026-04-19T09:22:16.612Z</time></trkpt><trkpt lat="39.90006492381376" lon="18.089566762413117"><ele>5.0</ele><time>2026-04-19T09:22:17.612Z</time></trkpt><trkpt lat="39.90011624268292" lon="18.089450083306268"><ele>5.0</ele><time>2026-04-19T09:22:18.612Z</time></trkpt><trkpt lat="39.900161432573114" lon="18.08933833654796"><ele>5.0</ele><time>2026-04-19T09:22:19.612Z</time></trkpt><trkpt lat="39.900206298339334" lon="18.089228794192486"><ele>5.0</ele><time>2026-04-19T09:22:20.612Z</time></trkpt><trkpt lat="39.90025392633819" lon="18.089116885762454"><ele>5.0</ele><time>2026-04-19T09:22:21.612Z</time></trkpt><trkpt lat="39.90030122345727" lon="18.088998548104858"><ele>5.0</ele><time>2026-04-19T09:22:22.612Z</time></trkpt><trkpt lat="39.90034196735167" lon="18.088871807085255"><ele>4.666666666666667</ele><time>2026-04-19T09:22:23.612Z</time></trkpt><trkpt lat="39.90038382179161" lon="18.08876708997345"><ele>4.333333333333334</ele><time>2026-04-19T09:22:24.612Z</time></trkpt><trkpt lat="39.90042365455312" lon="18.08867485946674"><ele>4.0</ele><time>2026-04-19T09:22:25.612Z</time></trkpt><trkpt lat="39.90045783782812" lon="18.088583344631385"><ele>3.666666666666667</ele><time>2026-04-19T09:22:26.612Z</time></trkpt><trkpt lat="39.900503991945186" lon="18.088490363448457"><ele>3.3333333333333335</ele><time>2026-04-19T09:22:27.612Z</time></trkpt><trkpt lat="39.90055123567474" lon="18.08840046019976"><ele>3.0</ele><time>2026-04-19T09:22:28.612Z</time></trkpt><trkpt lat="39.90058912477214" lon="18.088317682285883"><ele>2.8333333333333335</ele><time>2026-04-19T09:22:29.612Z</time></trkpt><trkpt lat="39.900628427598825" lon="18.088235949487412"><ele>2.6666666666666665</ele><time>2026-04-19T09:22:30.612Z</time></trkpt><trkpt lat="39.9006316085947" lon="18.088135638756842"><ele>2.5</ele><time>2026-04-19T09:22:31.612Z</time></trkpt><trkpt lat="39.900654333948594" lon="18.088044580907354"><ele>2.333333333333333</ele><time>2026-04-19T09:22:32.612Z</time></trkpt><trkpt lat="39.900682380567574" lon="18.08794956797998"><ele>2.1666666666666665</ele><time>2026-04-19T09:22:33.612Z</time></trkpt><trkpt lat="39.90072792871705" lon="18.08784008741026"><ele>2.0</ele><time>2026-04-19T09:22:34.612Z</time></trkpt><trkpt lat="39.90078042612075" lon="18.08772562997165"><ele>2.0</ele><time>2026-04-19T09:22:35.612Z</time></trkpt><trkpt lat="39.90083592578717" lon="18.087603117965998"><ele>2.0</ele><time>2026-04-19T09:22:36.613Z</time></trkpt><trkpt lat="39.90088837521168" lon="18.087479477547006"><ele>2.0</ele><time>2026-04-19T09:22:37.613Z</time></trkpt><trkpt lat="39.90093723349849" lon="18.08735322408225"><ele>2.0</ele><time>2026-04-19T09:22:38.613Z</time></trkpt><trkpt lat="39.90097973994465" lon="18.0872388361945"><ele>2.0</ele><time>2026-04-19T09:22:39.612Z</time></trkpt><trkpt lat="39.901017105144426" lon="18.087135157003253"><ele>2.0</ele><time>2026-04-19T09:22:40.612Z</time></trkpt><trkpt lat="39.90105766103547" lon="18.08703255660322"><ele>2.0</ele><time>2026-04-19T09:22:41.612Z</time></trkpt><trkpt lat="39.90109929433018" lon="18.086929006045153"><ele>2.0</ele><time>2026-04-19T09:22:42.613Z</time></trkpt><trkpt lat="39.90114737707301" lon="18.086809304565087"><ele>2.0</ele><time>2026-04-19T09:22:43.612Z</time></trkpt><trkpt lat="39.90119443536796" lon="18.086695171217247"><ele>2.0</ele><time>2026-04-19T09:22:44.612Z</time></trkpt><trkpt lat="39.901245760398446" lon="18.086595185058492"><ele>1.6</ele><time>2026-04-19T09:22:45.612Z</time></trkpt><trkpt lat="39.901304572403845" lon="18.08649511758723"><ele>1.2000000000000002</ele><time>2026-04-19T09:22:46.612Z</time></trkpt><trkpt lat="39.901376406774126" lon="18.086399667799352"><ele>0.8</ele><time>2026-04-19T09:22:47.612Z</time></trkpt><trkpt lat="39.90145499440033" lon="18.086316059870068"><ele>0.4</ele><time>2026-04-19T09:22:48.612Z</time></trkpt><trkpt lat="39.901537543847546" lon="18.08624185959476"><ele>0.0</ele><time>2026-04-19T09:22:49.612Z</time></trkpt><trkpt lat="39.901630870536835" lon="18.08617801479011"><ele>0.0</ele><time>2026-04-19T09:22:50.612Z</time></trkpt><trkpt lat="39.90171989652554" lon="18.086115553346303"><ele>0.0</ele><time>2026-04-19T09:22:51.612Z</time></trkpt><trkpt lat="39.901800845555435" lon="18.08605976461523"><ele>0.0</ele><time>2026-04-19T09:22:52.612Z</time></trkpt><trkpt lat="39.901882738643195" lon="18.08599848679821"><ele>0.0</ele><time>2026-04-19T09:22:53.612Z</time></trkpt><trkpt lat="39.90195996132099" lon="18.085940313697755"><ele>0.0</ele><time>2026-04-19T09:22:54.612Z</time></trkpt><trkpt lat="39.90203523695548" lon="18.085882141530465"><ele>0.2</ele><time>2026-04-19T09:22:55.612Z</time></trkpt><trkpt lat="39.90210976513107" lon="18.085822134044587"><ele>0.4</ele><time>2026-04-19T09:22:56.612Z</time></trkpt><trkpt lat="39.90219030385744" lon="18.085759321909887"><ele>0.6000000000000001</ele><time>2026-04-19T09:22:57.612Z</time></trkpt><trkpt lat="39.902268363357244" lon="18.085704052256883"><ele>0.8</ele><time>2026-04-19T09:22:58.612Z</time></trkpt><trkpt lat="39.90234901021909" lon="18.085644365231573"><ele>1.0</ele><time>2026-04-19T09:22:59.612Z</time></trkpt><trkpt lat="39.90242967780177" lon="18.08558689754351"><ele>1.1666666666666665</ele><time>2026-04-19T09:23:00.612Z</time></trkpt><trkpt lat="39.90250817326929" lon="18.085527844548597"><ele>1.3333333333333333</ele><time>2026-04-19T09:23:01.612Z</time></trkpt><trkpt lat="39.90258583900613" lon="18.085469620113866"><ele>1.5</ele><time>2026-04-19T09:23:02.612Z</time></trkpt><trkpt lat="39.902661577978535" lon="18.085413015015675"><ele>1.6666666666666665</ele><time>2026-04-19T09:23:03.612Z</time></trkpt><trkpt lat="39.902742899887095" lon="18.085358110551695"><ele>1.8333333333333333</ele><time>2026-04-19T09:23:04.612Z</time></trkpt><trkpt lat="39.90281685129841" lon="18.085302130349316"><ele>2.0</ele><time>2026-04-19T09:23:05.612Z</time></trkpt><trkpt lat="39.902893602160276" lon="18.08524184402419"><ele>1.9999999999999998</ele><time>2026-04-19T09:23:06.612Z</time></trkpt><trkpt lat="39.90296978941024" lon="18.085184569686707"><ele>2.0</ele><time>2026-04-19T09:23:07.612Z</time></trkpt><trkpt lat="39.903044369666866" lon="18.085127623475366"><ele>2.0</ele><time>2026-04-19T09:23:08.612Z</time></trkpt><trkpt lat="39.90311634543571" lon="18.085070608766593"><ele>2.0</ele><time>2026-04-19T09:23:09.612Z</time></trkpt><trkpt lat="39.90318452732011" lon="18.08501871508775"><ele>1.9999999999999998</ele><time>2026-04-19T09:23:10.612Z</time></trkpt><trkpt lat="39.90325773649671" lon="18.08496524157341"><ele>2.0</ele><time>2026-04-19T09:23:11.612Z</time></trkpt><trkpt lat="39.903332162492646" lon="18.084909659631457"><ele>2.2</ele><time>2026-04-19T09:23:12.612Z</time></trkpt><trkpt lat="39.90341091250248" lon="18.084849940914903"><ele>2.4000000000000004</ele><time>2026-04-19T09:23:13.612Z</time></trkpt><trkpt lat="39.903493073100975" lon="18.084785954006822"><ele>2.5999999999999996</ele><time>2026-04-19T09:23:14.612Z</time></trkpt><trkpt lat="39.90357183075352" lon="18.084728678927526"><ele>2.8</ele><time>2026-04-19T09:23:15.612Z</time></trkpt><trkpt lat="39.903647078387664" lon="18.084674042408892"><ele>3.0</ele><time>2026-04-19T09:23:16.612Z</time></trkpt><trkpt lat="39.90372521406803" lon="18.084618199209743"><ele>3.0</ele><time>2026-04-19T09:23:17.612Z</time></trkpt><trkpt lat="39.90379958955318" lon="18.084563087999562"><ele>3.0</ele><time>2026-04-19T09:23:18.612Z</time></trkpt><trkpt lat="39.90387036444061" lon="18.084510625992817"><ele>3.0</ele><time>2026-04-19T09:23:19.612Z</time></trkpt><trkpt lat="39.90393910439432" lon="18.08445366852898"><ele>3.0</ele><time>2026-04-19T09:23:20.612Z</time></trkpt><trkpt lat="39.904006247438595" lon="18.084383273410438"><ele>3.0</ele><time>2026-04-19T09:23:21.612Z</time></trkpt><trkpt lat="39.90407011691555" lon="18.084303712923113"><ele>3.0</ele><time>2026-04-19T09:23:22.612Z</time></trkpt><trkpt lat="39.904132053523455" lon="18.084203127969825"><ele>2.5</ele><time>2026-04-19T09:23:23.612Z</time></trkpt><trkpt lat="39.90418898856503" lon="18.08408013650645"><ele>2.0</ele><time>2026-04-19T09:23:24.612Z</time></trkpt><trkpt lat="39.904242065055556" lon="18.083935514590546"><ele>1.5</ele><time>2026-04-19T09:23:25.612Z</time></trkpt><trkpt lat="39.90429891911695" lon="18.083767348010024"><ele>1.0</ele><time>2026-04-19T09:23:26.612Z</time></trkpt><trkpt lat="39.904366475624876" lon="18.083577512322506"><ele>1.6666666666666665</ele><time>2026-04-19T09:23:27.612Z</time></trkpt><trkpt lat="39.90444592850211" lon="18.083371503575524"><ele>2.3333333333333335</ele><time>2026-04-19T09:23:28.612Z</time></trkpt><trkpt lat="39.904533681997165" lon="18.083162313719626"><ele>3.0</ele><time>2026-04-19T09:23:29.612Z</time></trkpt><trkpt lat="39.90462495804248" lon="18.082950592357196"><ele>3.0</ele><time>2026-04-19T09:23:30.612Z</time></trkpt><trkpt lat="39.904718474341145" lon="18.082730501438572"><ele>3.0</ele><time>2026-04-19T09:23:31.612Z</time></trkpt><trkpt lat="39.90480410994406" lon="18.08252970151782"><ele>3.0</ele><time>2026-04-19T09:23:32.612Z</time></trkpt><trkpt lat="39.9048875673768" lon="18.08232334641551"><ele>3.333333333333333</ele><time>2026-04-19T09:23:33.612Z</time></trkpt><trkpt lat="39.90496382109083" lon="18.08210444377985"><ele>3.6666666666666665</ele><time>2026-04-19T09:23:34.612Z</time></trkpt><trkpt lat="39.905044533906306" lon="18.081889827057363"><ele>4.0</ele><time>2026-04-19T09:23:35.612Z</time></trkpt><trkpt lat="39.90512386548829" lon="18.08166984590264"><ele>3.333333333333333</ele><time>2026-04-19T09:23:36.612Z</time></trkpt><trkpt lat="39.90520381820371" lon="18.08145108560516"><ele>2.6666666666666665</ele><time>2026-04-19T09:23:37.612Z</time></trkpt><trkpt lat="39.90528410632654" lon="18.08124724832536"><ele>2.0</ele><time>2026-04-19T09:23:38.612Z</time></trkpt><trkpt lat="39.90536362731178" lon="18.08104491290457"><ele>2.0</ele><time>2026-04-19T09:23:39.612Z</time></trkpt><trkpt lat="39.905458614895956" lon="18.08082933853452"><ele>2.0</ele><time>2026-04-19T09:23:40.612Z</time></trkpt><trkpt lat="39.90557884922064" lon="18.0806030341589"><ele>2.0</ele><time>2026-04-19T09:23:41.612Z</time></trkpt><trkpt lat="39.90572060030891" lon="18.08036882524065"><ele>1.5</ele><time>2026-04-19T09:23:42.612Z</time></trkpt><trkpt lat="39.905881299932666" lon="18.08013179058355"><ele>1.0</ele><time>2026-04-19T09:23:43.612Z</time></trkpt><trkpt lat="39.90604863509472" lon="18.079879218249047"><ele>1.0</ele><time>2026-04-19T09:23:44.612Z</time></trkpt><trkpt lat="39.90621798998026" lon="18.079614927828924"><ele>1.0</ele><time>2026-04-19T09:23:45.612Z</time></trkpt><trkpt lat="39.906399057163625" lon="18.079342048333938"><ele>0.5</ele><time>2026-04-19T09:23:46.612Z</time></trkpt><trkpt lat="39.90656062981888" lon="18.07907640394117"><ele>0.0</ele><time>2026-04-19T09:23:47.612Z</time></trkpt><trkpt lat="39.906688021658674" lon="18.07883236235746"><ele>-0.3333333333333333</ele><time>2026-04-19T09:23:48.612Z</time></trkpt><trkpt lat="39.90678841941867" lon="18.078634445095336"><ele>-0.6666666666666666</ele><time>2026-04-19T09:23:49.612Z</time></trkpt><trkpt lat="39.90685769427676" lon="18.078451169573583"><ele>-1.0</ele><time>2026-04-19T09:23:50.612Z</time></trkpt><trkpt lat="39.90717847017605" lon="18.0781310026599"><ele>-1.0</ele><time>2026-04-19T09:23:51.612Z</time></trkpt><trkpt lat="39.90729482358773" lon="18.077961292076928"><ele>-1.0</ele><time>2026-04-19T09:23:52.612Z</time></trkpt><trkpt lat="39.907403763463144" lon="18.077813208613435"><ele>-1.0</ele><time>2026-04-19T09:23:53.612Z</time></trkpt><trkpt lat="39.90752389086753" lon="18.077687586464844"><ele>-1.0</ele><time>2026-04-19T09:23:54.612Z</time></trkpt><trkpt lat="39.90767324544009" lon="18.077570162494712"><ele>-1.0</ele><time>2026-04-19T09:23:55.612Z</time></trkpt><trkpt lat="39.907853383710375" lon="18.07744769093832"><ele>-1.0</ele><time>2026-04-19T09:23:56.612Z</time></trkpt><trkpt lat="39.90805606228159" lon="18.07732062863046"><ele>-1.0</ele><time>2026-04-19T09:23:57.612Z</time></trkpt><trkpt lat="39.90828731636857" lon="18.077176929282047"><ele>-1.0</ele><time>2026-04-19T09:23:58.612Z</time></trkpt><trkpt lat="39.90852540629703" lon="18.077026639420865"><ele>-0.5</ele><time>2026-04-19T09:23:59.612Z</time></trkpt><trkpt lat="39.90876545150983" lon="18.076870151896866"><ele>0.0</ele><time>2026-04-19T09:24:00.612Z</time></trkpt><trkpt lat="39.90901568920105" lon="18.076712237019745"><ele>0.0</ele><time>2026-04-19T09:24:01.612Z</time></trkpt><trkpt lat="39.90927558457896" lon="18.076544569853645"><ele>0.0</ele><time>2026-04-19T09:24:02.612Z</time></trkpt><trkpt lat="39.909546610419625" lon="18.076362985999314"><ele>0.0</ele><time>2026-04-19T09:24:03.612Z</time></trkpt><trkpt lat="39.90982874194843" lon="18.0761788720513"><ele>0.0</ele><time>2026-04-19T09:24:04.612Z</time></trkpt><trkpt lat="39.910117633728944" lon="18.07600063352859"><ele>-1.0</ele><time>2026-04-19T09:24:05.612Z</time></trkpt><trkpt lat="39.91042244088206" lon="18.075828479866914"><ele>-2.0</ele><time>2026-04-19T09:24:06.612Z</time></trkpt><trkpt lat="39.91074536894788" lon="18.075683231707654"><ele>1.0</ele><time>2026-04-19T09:24:07.612Z</time></trkpt><trkpt lat="39.91105757446794" lon="18.075558491877665"><ele>4.0</ele><time>2026-04-19T09:24:08.612Z</time></trkpt><trkpt lat="39.911327700730354" lon="18.07545857797371"><ele>4.0</ele><time>2026-04-19T09:24:09.612Z</time></trkpt><trkpt lat="39.91156012908542" lon="18.075368747397306"><ele>4.0</ele><time>2026-04-19T09:24:10.612Z</time></trkpt><trkpt lat="39.91175565624538" lon="18.075291684745157"><ele>4.0</ele><time>2026-04-19T09:24:11.612Z</time></trkpt><trkpt lat="39.91193077371348" lon="18.075227954381113"><ele>4.0</ele><time>2026-04-19T09:24:12.612Z</time></trkpt><trkpt lat="39.9120872061999" lon="18.075163277759827"><ele>4.0</ele><time>2026-04-19T09:24:13.612Z</time></trkpt><trkpt lat="39.91220856589609" lon="18.075112704723853"><ele>4.0</ele><time>2026-04-19T09:24:14.612Z</time></trkpt><trkpt lat="39.91231832691088" lon="18.0750315077014"><ele>4.0</ele><time>2026-04-19T09:24:15.612Z</time></trkpt><trkpt lat="39.912406937217234" lon="18.074926339710363"><ele>4.333333333333333</ele><time>2026-04-19T09:24:16.612Z</time></trkpt><trkpt lat="39.91249281670338" lon="18.074782700795073"><ele>4.666666666666667</ele><time>2026-04-19T09:24:17.612Z</time></trkpt><trkpt lat="39.91255771720391" lon="18.074594699553405"><ele>5.0</ele><time>2026-04-19T09:24:18.612Z</time></trkpt><trkpt lat="39.9126058256321" lon="18.074356672534176"><ele>4.333333333333334</ele><time>2026-04-19T09:24:19.612Z</time></trkpt><trkpt lat="39.91264775055293" lon="18.074102770908926"><ele>3.666666666666667</ele><time>2026-04-19T09:24:20.612Z</time></trkpt><trkpt lat="39.912687233380225" lon="18.07386779571345"><ele>3.0</ele><time>2026-04-19T09:24:21.612Z</time></trkpt><trkpt lat="39.91272516346727" lon="18.073692197985213"><ele>3.0</ele><time>2026-04-19T09:24:22.612Z</time></trkpt><trkpt lat="39.91279513204926" lon="18.07352129586755"><ele>3.0</ele><time>2026-04-19T09:24:23.611Z</time></trkpt><trkpt lat="39.9129054667489" lon="18.073338461421923"><ele>3.0</ele><time>2026-04-19T09:24:24.611Z</time></trkpt><trkpt lat="39.91305261640095" lon="18.07313246938088"><ele>2.3333333333333335</ele><time>2026-04-19T09:24:25.611Z</time></trkpt><trkpt lat="39.91320830967356" lon="18.07292518180893"><ele>1.6666666666666665</ele><time>2026-04-19T09:24:26.611Z</time></trkpt><trkpt lat="39.91336692692957" lon="18.072724766006907"><ele>1.0</ele><time>2026-04-19T09:24:27.611Z</time></trkpt><trkpt lat="39.91350803553266" lon="18.07255860454314"><ele>1.5</ele><time>2026-04-19T09:24:28.611Z</time></trkpt><trkpt lat="39.913622753509294" lon="18.072421548914"><ele>2.0</ele><time>2026-04-19T09:24:29.611Z</time></trkpt><trkpt lat="39.9137254779622" lon="18.07229580501132"><ele>2.5</ele><time>2026-04-19T09:24:30.611Z</time></trkpt><trkpt lat="39.913811727441434" lon="18.072182761330208"><ele>3.0</ele><time>2026-04-19T09:24:31.611Z</time></trkpt><trkpt lat="39.913895838276275" lon="18.0720677008784"><ele>3.0</ele><time>2026-04-19T09:24:32.611Z</time></trkpt><trkpt lat="39.913987180376225" lon="18.071945201339123"><ele>3.0</ele><time>2026-04-19T09:24:33.611Z</time></trkpt><trkpt lat="39.91408545818778" lon="18.071822389237628"><ele>3.0</ele><time>2026-04-19T09:24:34.611Z</time></trkpt><trkpt lat="39.91418777292284" lon="18.071694013600638"><ele>3.0</ele><time>2026-04-19T09:24:35.611Z</time></trkpt><trkpt lat="39.914288811704324" lon="18.071563739766567"><ele>2.75</ele><time>2026-04-19T09:24:36.611Z</time></trkpt><trkpt lat="39.91439474465124" lon="18.071433653121787"><ele>2.5</ele><time>2026-04-19T09:24:37.611Z</time></trkpt><trkpt lat="39.914495327218546" lon="18.071308969320114"><ele>2.25</ele><time>2026-04-19T09:24:38.611Z</time></trkpt><trkpt lat="39.91458299208863" lon="18.071200129625687"><ele>2.0</ele><time>2026-04-19T09:24:39.611Z</time></trkpt><trkpt lat="39.914652547041705" lon="18.07110444503048"><ele>2.0</ele><time>2026-04-19T09:24:40.611Z</time></trkpt><trkpt lat="39.91472394703314" lon="18.07102239525537"><ele>2.0</ele><time>2026-04-19T09:24:41.612Z</time></trkpt><trkpt lat="39.914804595818765" lon="18.07095361715699"><ele>2.0</ele><time>2026-04-19T09:24:42.612Z</time></trkpt><trkpt lat="39.914874685716406" lon="18.070900788573944"><ele>2.0</ele><time>2026-04-19T09:24:43.612Z</time></trkpt><trkpt lat="39.91495820403401" lon="18.070851344447373"><ele>2.0</ele><time>2026-04-19T09:24:44.612Z</time></trkpt><trkpt lat="39.9150449742203" lon="18.07080867535758"><ele>1.75</ele><time>2026-04-19T09:24:45.611Z</time></trkpt><trkpt lat="39.915140502968804" lon="18.07076882192402"><ele>1.5</ele><time>2026-04-19T09:24:46.611Z</time></trkpt><trkpt lat="39.915247526950544" lon="18.070725534580543"><ele>1.25</ele><time>2026-04-19T09:24:47.612Z</time></trkpt><trkpt lat="39.91537883456629" lon="18.070680326240478"><ele>1.0</ele><time>2026-04-19T09:24:48.612Z</time></trkpt><trkpt lat="39.915515566397154" lon="18.07063135211417"><ele>1.0</ele><time>2026-04-19T09:24:49.612Z</time></trkpt><trkpt lat="39.9156404857391" lon="18.070591516647635"><ele>1.0</ele><time>2026-04-19T09:24:50.612Z</time></trkpt><trkpt lat="39.91575589099818" lon="18.070556646239893"><ele>1.0</ele><time>2026-04-19T09:24:51.611Z</time></trkpt><trkpt lat="39.91589084828191" lon="18.07050992495721"><ele>1.0</ele><time>2026-04-19T09:24:52.611Z</time></trkpt><trkpt lat="39.91603606323296" lon="18.070457788568014"><ele>1.25</ele><time>2026-04-19T09:24:53.612Z</time></trkpt><trkpt lat="39.91616983695913" lon="18.070416462110828"><ele>1.5</ele><time>2026-04-19T09:24:54.612Z</time></trkpt><trkpt lat="39.916275965654386" lon="18.07037955063295"><ele>1.75</ele><time>2026-04-19T09:24:55.612Z</time></trkpt><trkpt lat="39.91637626440376" lon="18.07034486393553"><ele>2.0</ele><time>2026-04-19T09:24:56.612Z</time></trkpt><trkpt lat="39.91647383014792" lon="18.070307621979122"><ele>2.0</ele><time>2026-04-19T09:24:57.612Z</time></trkpt><trkpt lat="39.9165732138999" lon="18.07027096973574"><ele>2.0</ele><time>2026-04-19T09:24:58.612Z</time></trkpt><trkpt lat="39.916670780790724" lon="18.07023672793281"><ele>2.0</ele><time>2026-04-19T09:24:59.612Z</time></trkpt><trkpt lat="39.916770628619126" lon="18.07020284054699"><ele>2.0</ele><time>2026-04-19T09:25:00.612Z</time></trkpt><trkpt lat="39.91687347014086" lon="18.070166716481893"><ele>2.0</ele><time>2026-04-19T09:25:01.612Z</time></trkpt><trkpt lat="39.91697833067749" lon="18.0701321872103"><ele>2.5</ele><time>2026-04-19T09:25:02.612Z</time></trkpt><trkpt lat="39.91708894154764" lon="18.070092053333443"><ele>3.0</ele><time>2026-04-19T09:25:03.612Z</time></trkpt><trkpt lat="39.917206187913614" lon="18.070045288310965"><ele>3.5</ele><time>2026-04-19T09:25:04.612Z</time></trkpt><trkpt lat="39.917329590167206" lon="18.069996943797037"><ele>4.0</ele><time>2026-04-19T09:25:05.612Z</time></trkpt><trkpt lat="39.91746166447227" lon="18.069947991932217"><ele>3.0</ele><time>2026-04-19T09:25:06.612Z</time></trkpt><trkpt lat="39.91758480080272" lon="18.06990914079841"><ele>2.0</ele><time>2026-04-19T09:25:07.612Z</time></trkpt><trkpt lat="39.91769892073664" lon="18.069870425249672"><ele>1.0</ele><time>2026-04-19T09:25:08.612Z</time></trkpt><trkpt lat="39.91780769319149" lon="18.069826730813276"><ele>0.0</ele><time>2026-04-19T09:25:09.612Z</time></trkpt><trkpt lat="39.917910557129815" lon="18.069781024350753"><ele>0.0</ele><time>2026-04-19T09:25:10.612Z</time></trkpt><trkpt lat="39.9180037202138" lon="18.069750510330785"><ele>0.0</ele><time>2026-04-19T09:25:11.612Z</time></trkpt><trkpt lat="39.91808591129938" lon="18.069723293387295"><ele>0.0</ele><time>2026-04-19T09:25:12.612Z</time></trkpt><trkpt lat="39.91815988424442" lon="18.069698616467694"><ele>0.0</ele><time>2026-04-19T09:25:13.612Z</time></trkpt><trkpt lat="39.91824112154931" lon="18.06966795612252"><ele>0.0</ele><time>2026-04-19T09:25:14.612Z</time></trkpt><trkpt lat="39.91832275557383" lon="18.06964029377238"><ele>0.0</ele><time>2026-04-19T09:25:15.612Z</time></trkpt><trkpt lat="39.91841689391447" lon="18.06960373491783"><ele>0.8</ele><time>2026-04-19T09:25:16.612Z</time></trkpt><trkpt lat="39.91850971611091" lon="18.069568210474277"><ele>1.6</ele><time>2026-04-19T09:25:17.612Z</time></trkpt><trkpt lat="39.918605321860724" lon="18.069538147905305"><ele>2.4000000000000004</ele><time>2026-04-19T09:25:18.612Z</time></trkpt><trkpt lat="39.91868926710429" lon="18.069507398041385"><ele>3.2</ele><time>2026-04-19T09:25:19.612Z</time></trkpt><trkpt lat="39.91878405902425" lon="18.069485472198803"><ele>4.0</ele><time>2026-04-19T09:25:20.612Z</time></trkpt><trkpt lat="39.91888140424767" lon="18.06947086718248"><ele>3.9999999999999996</ele><time>2026-04-19T09:25:21.612Z</time></trkpt><trkpt lat="39.91897745387355" lon="18.069466082137033"><ele>4.0</ele><time>2026-04-19T09:25:22.612Z</time></trkpt><trkpt lat="39.91906448049958" lon="18.069462331950756"><ele>4.0</ele><time>2026-04-19T09:25:23.612Z</time></trkpt><trkpt lat="39.919142381086466" lon="18.06945758121548"><ele>4.0</ele><time>2026-04-19T09:25:24.612Z</time></trkpt><trkpt lat="39.91921435735926" lon="18.06945382525083"><ele>3.9999999999999996</ele><time>2026-04-19T09:25:25.612Z</time></trkpt><trkpt lat="39.919283169028354" lon="18.069449960529823"><ele>4.0</ele><time>2026-04-19T09:25:26.612Z</time></trkpt><trkpt lat="39.9193504066727" lon="18.069444826767707"><ele>4.6</ele><time>2026-04-19T09:25:27.612Z</time></trkpt><trkpt lat="39.91946614980031" lon="18.069429629270235"><ele>5.2</ele><time>2026-04-19T09:25:29.612Z</time></trkpt><trkpt lat="39.91954866709486" lon="18.06938730890551"><ele>5.799999999999999</ele><time>2026-04-19T09:25:31.612Z</time></trkpt><trkpt lat="39.919606453917204" lon="18.06932227466075"><ele>6.3999999999999995</ele><time>2026-04-19T09:25:34.612Z</time></trkpt><trkpt lat="39.91963457472874" lon="18.06923091140051"><ele>7.0</ele><time>2026-04-19T09:25:37.612Z</time></trkpt><trkpt lat="39.91957325811608" lon="18.069066579369707"><ele>7.0</ele><time>2026-04-19T09:25:39.612Z</time></trkpt><trkpt lat="39.9195134309861" lon="18.068957610575865"><ele>6.999999999999999</ele><time>2026-04-19T09:25:40.612Z</time></trkpt><trkpt lat="39.91945360059678" lon="18.068862456764563"><ele>6.999999999999999</ele><time>2026-04-19T09:25:41.612Z</time></trkpt><trkpt lat="39.919427324934674" lon="18.068776812191686"><ele>7.0</ele><time>2026-04-19T09:25:42.612Z</time></trkpt><trkpt lat="39.919459817786176" lon="18.068647531604803"><ele>7.0</ele><time>2026-04-19T09:25:44.612Z</time></trkpt><trkpt lat="39.919511196851715" lon="18.068555193250486"><ele>7.0</ele><time>2026-04-19T09:25:45.612Z</time></trkpt><trkpt lat="39.919600545209775" lon="18.06838966439459"><ele>7.0</ele><time>2026-04-19T09:25:46.612Z</time></trkpt><trkpt lat="39.91968358363487" lon="18.068199764686046"><ele>7.0</ele><time>2026-04-19T09:25:47.612Z</time></trkpt><trkpt lat="39.91973984720681" lon="18.067970887959223"><ele>6.75</ele><time>2026-04-19T09:25:48.612Z</time></trkpt><trkpt lat="39.91977236762656" lon="18.06779002388561"><ele>6.5</ele><time>2026-04-19T09:25:49.612Z</time></trkpt><trkpt lat="39.91980089777698" lon="18.06764411475609"><ele>6.25</ele><time>2026-04-19T09:25:50.612Z</time></trkpt><trkpt lat="39.91982429064374" lon="18.067521522538783"><ele>6.0</ele><time>2026-04-19T09:25:51.612Z</time></trkpt><trkpt lat="39.91985254581507" lon="18.067397691026304"><ele>5.6</ele><time>2026-04-19T09:25:52.611Z</time></trkpt><trkpt lat="39.91987573153147" lon="18.067279875765564"><ele>5.199999999999999</ele><time>2026-04-19T09:25:53.611Z</time></trkpt><trkpt lat="39.919906731813896" lon="18.06715929286444"><ele>4.800000000000001</ele><time>2026-04-19T09:25:54.611Z</time></trkpt><trkpt lat="39.91993250285942" lon="18.067047550492312"><ele>4.4</ele><time>2026-04-19T09:25:55.611Z</time></trkpt><trkpt lat="39.91993980872812" lon="18.06692521513136"><ele>4.0</ele><time>2026-04-19T09:25:56.611Z</time></trkpt><trkpt lat="39.919976216114" lon="18.066794335662784"><ele>4.0</ele><time>2026-04-19T09:25:57.611Z</time></trkpt><trkpt lat="39.920015690374" lon="18.066660883614702"><ele>4.0</ele><time>2026-04-19T09:25:58.611Z</time></trkpt><trkpt lat="39.92005194421855" lon="18.066535931231222"><ele>4.0</ele><time>2026-04-19T09:25:59.611Z</time></trkpt><trkpt lat="39.92009874925632" lon="18.06640995901986"><ele>4.0</ele><time>2026-04-19T09:26:00.611Z</time></trkpt><trkpt lat="39.92014892388849" lon="18.06628546357334"><ele>4.0</ele><time>2026-04-19T09:26:01.611Z</time></trkpt><trkpt lat="39.92019730294359" lon="18.066163578002367"><ele>4.0</ele><time>2026-04-19T09:26:02.611Z</time></trkpt><trkpt lat="39.92025351881531" lon="18.066047241169414"><ele>4.0</ele><time>2026-04-19T09:26:03.611Z</time></trkpt><trkpt lat="39.92031905629904" lon="18.065932974556482"><ele>4.0</ele><time>2026-04-19T09:26:04.611Z</time></trkpt><trkpt lat="39.920373882271406" lon="18.06583269774445"><ele>4.0</ele><time>2026-04-19T09:26:05.611Z</time></trkpt><trkpt lat="39.92042870604687" lon="18.065741355427328"><ele>4.0</ele><time>2026-04-19T09:26:06.611Z</time></trkpt><trkpt lat="39.92048666066542" lon="18.065653470927792"><ele>3.4999999999999996</ele><time>2026-04-19T09:26:07.611Z</time></trkpt><trkpt lat="39.92054252519863" lon="18.065566638356238"><ele>3.0</ele><time>2026-04-19T09:26:08.611Z</time></trkpt><trkpt lat="39.920595640467226" lon="18.06548164681775"><ele>2.5</ele><time>2026-04-19T09:26:09.611Z</time></trkpt><trkpt lat="39.92064666261872" lon="18.065399124964976"><ele>2.0</ele><time>2026-04-19T09:26:10.611Z</time></trkpt><trkpt lat="39.92069561032155" lon="18.06531448608834"><ele>1.5</ele><time>2026-04-19T09:26:11.611Z</time></trkpt><trkpt lat="39.92074774615624" lon="18.065226963965028"><ele>1.0</ele><time>2026-04-19T09:26:12.611Z</time></trkpt><trkpt lat="39.920801052162986" lon="18.065147378979987"><ele>1.0</ele><time>2026-04-19T09:26:13.611Z</time></trkpt><trkpt lat="39.92085760391769" lon="18.06507210847912"><ele>0.9999999999999999</ele><time>2026-04-19T09:26:14.611Z</time></trkpt><trkpt lat="39.92090291826028" lon="18.06500374328774"><ele>1.0</ele><time>2026-04-19T09:26:15.611Z</time></trkpt><trkpt lat="39.92094618295667" lon="18.06493164825983"><ele>1.0</ele><time>2026-04-19T09:26:16.611Z</time></trkpt><trkpt lat="39.92099098416165" lon="18.064865861935218"><ele>0.9999999999999999</ele><time>2026-04-19T09:26:17.611Z</time></trkpt><trkpt lat="39.921043639382795" lon="18.064792660489058"><ele>1.0</ele><time>2026-04-19T09:26:18.611Z</time></trkpt><trkpt lat="39.92109191425425" lon="18.064714626498432"><ele>1.0</ele><time>2026-04-19T09:26:19.611Z</time></trkpt><trkpt lat="39.92114034298329" lon="18.064638561354958"><ele>1.1666666666666665</ele><time>2026-04-19T09:26:20.611Z</time></trkpt><trkpt lat="39.92118710035336" lon="18.06456579433009"><ele>1.3333333333333333</ele><time>2026-04-19T09:26:21.611Z</time></trkpt><trkpt lat="39.921232966656646" lon="18.06450406382722"><ele>1.5</ele><time>2026-04-19T09:26:22.611Z</time></trkpt><trkpt lat="39.92127997564776" lon="18.064442775641503"><ele>1.6666666666666665</ele><time>2026-04-19T09:26:23.611Z</time></trkpt><trkpt lat="39.921345615528665" lon="18.064363061510367"><ele>1.8333333333333333</ele><time>2026-04-19T09:26:24.611Z</time></trkpt><trkpt lat="39.921410108367155" lon="18.06428800758631"><ele>2.0</ele><time>2026-04-19T09:26:25.611Z</time></trkpt><trkpt lat="39.921474141588035" lon="18.064225779308185"><ele>1.9999999999999998</ele><time>2026-04-19T09:26:26.611Z</time></trkpt><trkpt lat="39.92153228912527" lon="18.064177282369794"><ele>2.0</ele><time>2026-04-19T09:26:27.611Z</time></trkpt><trkpt lat="39.921599097817754" lon="18.064131961393382"><ele>2.0</ele><time>2026-04-19T09:26:29.611Z</time></trkpt><trkpt lat="39.92166084152654" lon="18.06410393895043"><ele>2.0</ele><time>2026-04-19T09:26:34.611Z</time></trkpt><trkpt lat="39.921735032495675" lon="18.06403305152939"><ele>1.9999999999999998</ele><time>2026-04-19T09:26:36.611Z</time></trkpt><trkpt lat="39.92175029184188" lon="18.063942106956514"><ele>2.0</ele><time>2026-04-19T09:26:37.611Z</time></trkpt><trkpt lat="39.92176281535928" lon="18.063826195379576"><ele>2.5</ele><time>2026-04-19T09:26:38.611Z</time></trkpt><trkpt lat="39.921781509117025" lon="18.0636979140794"><ele>3.0</ele><time>2026-04-19T09:26:39.611Z</time></trkpt><trkpt lat="39.921821216632935" lon="18.063573257273752"><ele>3.5</ele><time>2026-04-19T09:26:40.611Z</time></trkpt><trkpt lat="39.921887181736025" lon="18.063433091877815"><ele>4.0</ele><time>2026-04-19T09:26:41.611Z</time></trkpt><trkpt lat="39.92197946965649" lon="18.063297615856218"><ele>3.5</ele><time>2026-04-19T09:26:42.611Z</time></trkpt><trkpt lat="39.92206914170329" lon="18.06314943696667"><ele>3.0</ele><time>2026-04-19T09:26:43.611Z</time></trkpt><trkpt lat="39.922156386815416" lon="18.063016938428696"><ele>2.5</ele><time>2026-04-19T09:26:44.611Z</time></trkpt><trkpt lat="39.92224307900357" lon="18.062902011405484"><ele>2.0</ele><time>2026-04-19T09:26:45.611Z</time></trkpt><trkpt lat="39.92232026585036" lon="18.062790814495923"><ele>2.0</ele><time>2026-04-19T09:26:46.611Z</time></trkpt><trkpt lat="39.922394829144714" lon="18.06268684012513"><ele>2.0</ele><time>2026-04-19T09:26:47.612Z</time></trkpt><trkpt lat="39.92247073823327" lon="18.06257777676235"><ele>2.0</ele><time>2026-04-19T09:26:48.612Z</time></trkpt><trkpt lat="39.92254905442113" lon="18.062468467164518"><ele>2.0</ele><time>2026-04-19T09:26:49.612Z</time></trkpt><trkpt lat="39.92261819457855" lon="18.062362761389316"><ele>2.0</ele><time>2026-04-19T09:26:50.611Z</time></trkpt><trkpt lat="39.9226824097698" lon="18.062245546931436"><ele>3.25</ele><time>2026-04-19T09:26:51.611Z</time></trkpt><trkpt lat="39.922750924708936" lon="18.062127251152006"><ele>4.5</ele><time>2026-04-19T09:26:52.611Z</time></trkpt><trkpt lat="39.922815640597406" lon="18.061996353556882"><ele>5.75</ele><time>2026-04-19T09:26:53.611Z</time></trkpt><trkpt lat="39.92286721773357" lon="18.061856385598105"><ele>7.0</ele><time>2026-04-19T09:26:54.612Z</time></trkpt><trkpt lat="39.92290908717954" lon="18.061721743502755"><ele>6.199999999999999</ele><time>2026-04-19T09:26:55.612Z</time></trkpt><trkpt lat="39.92294674807802" lon="18.061590091623508"><ele>5.3999999999999995</ele><time>2026-04-19T09:26:56.612Z</time></trkpt><trkpt lat="39.922981372334476" lon="18.06146007620514"><ele>4.6</ele><time>2026-04-19T09:26:57.612Z</time></trkpt><trkpt lat="39.92301389131216" lon="18.061338393856364"><ele>3.8</ele><time>2026-04-19T09:26:58.612Z</time></trkpt><trkpt lat="39.92303275353135" lon="18.06122177979709"><ele>3.0</ele><time>2026-04-19T09:26:59.612Z</time></trkpt><trkpt lat="39.923052573113104" lon="18.06111991217619"><ele>3.0</ele><time>2026-04-19T09:27:00.612Z</time></trkpt><trkpt lat="39.92307095959672" lon="18.06102525466673"><ele>3.0</ele><time>2026-04-19T09:27:01.612Z</time></trkpt><trkpt lat="39.92308911234045" lon="18.060942179942103"><ele>3.0</ele><time>2026-04-19T09:27:02.612Z</time></trkpt><trkpt lat="39.92310575510354" lon="18.060860762154462"><ele>3.0</ele><time>2026-04-19T09:27:03.612Z</time></trkpt><trkpt lat="39.923143034454895" lon="18.060711530783042"><ele>3.0</ele><time>2026-04-19T09:27:05.612Z</time></trkpt><trkpt lat="39.92322017319712" lon="18.060593439752985"><ele>3.0</ele><time>2026-04-19T09:27:07.612Z</time></trkpt><trkpt lat="39.92328956717848" lon="18.060523542264477"><ele>2.6666666666666665</ele><time>2026-04-19T09:27:09.612Z</time></trkpt><trkpt lat="39.92330890917172" lon="18.06042095291564"><ele>2.3333333333333335</ele><time>2026-04-19T09:27:11.612Z</time></trkpt><trkpt lat="39.92328669919813" lon="18.06033605048046"><ele>2.0</ele><time>2026-04-19T09:27:12.612Z</time></trkpt><trkpt lat="39.92326971003667" lon="18.060251812893085"><ele>1.6666666666666665</ele><time>2026-04-19T09:27:13.612Z</time></trkpt><trkpt lat="39.923271806116944" lon="18.06007253427348"><ele>1.3333333333333333</ele><time>2026-04-19T09:27:15.612Z</time></trkpt><trkpt lat="39.92329810476874" lon="18.05996000823448"><ele>1.0</ele><time>2026-04-19T09:27:16.612Z</time></trkpt><trkpt lat="39.92333052337152" lon="18.05983240475504"><ele>1.2000000000000002</ele><time>2026-04-19T09:27:17.612Z</time></trkpt><trkpt lat="39.92336851078416" lon="18.059712621971336"><ele>1.4000000000000001</ele><time>2026-04-19T09:27:18.612Z</time></trkpt><trkpt lat="39.923407273467404" lon="18.05960097120812"><ele>1.6</ele><time>2026-04-19T09:27:19.612Z</time></trkpt><trkpt lat="39.92344821299703" lon="18.05949464841008"><ele>1.8</ele><time>2026-04-19T09:27:20.612Z</time></trkpt><trkpt lat="39.92349567660356" lon="18.05937459870254"><ele>2.0</ele><time>2026-04-19T09:27:21.612Z</time></trkpt><trkpt lat="39.92354849941774" lon="18.05925802144714"><ele>2.0</ele><time>2026-04-19T09:27:22.612Z</time></trkpt><trkpt lat="39.92361010008992" lon="18.059141872424394"><ele>2.0</ele><time>2026-04-19T09:27:23.612Z</time></trkpt><trkpt lat="39.92367222128725" lon="18.059024704842766"><ele>2.0</ele><time>2026-04-19T09:27:24.612Z</time></trkpt><trkpt lat="39.92372817515606" lon="18.058919475267896"><ele>2.0</ele><time>2026-04-19T09:27:25.612Z</time></trkpt><trkpt lat="39.92379371543279" lon="18.058801406205653"><ele>2.0</ele><time>2026-04-19T09:27:26.612Z</time></trkpt><trkpt lat="39.92387064456716" lon="18.058656782850132"><ele>1.6666666666666665</ele><time>2026-04-19T09:27:27.612Z</time></trkpt><trkpt lat="39.923978202619054" lon="18.058492511021832"><ele>1.3333333333333333</ele><time>2026-04-19T09:27:28.612Z</time></trkpt><trkpt lat="39.92411736624869" lon="18.058312950294876"><ele>1.0</ele><time>2026-04-19T09:27:29.612Z</time></trkpt><trkpt lat="39.92425552811773" lon="18.058152938263106"><ele>1.0</ele><time>2026-04-19T09:27:30.612Z</time></trkpt><trkpt lat="39.92436221563014" lon="18.058022059727072"><ele>1.0</ele><time>2026-04-19T09:27:31.612Z</time></trkpt><trkpt lat="39.92445525588506" lon="18.057905026886452"><ele>1.0</ele><time>2026-04-19T09:27:32.612Z</time></trkpt><trkpt lat="39.92453177657393" lon="18.05778701155837"><ele>1.0</ele><time>2026-04-19T09:27:33.612Z</time></trkpt><trkpt lat="39.92460388794553" lon="18.057676130304298"><ele>1.0</ele><time>2026-04-19T09:27:34.612Z</time></trkpt><trkpt lat="39.92467549818847" lon="18.057564659541523"><ele>1.0</ele><time>2026-04-19T09:27:35.612Z</time></trkpt><trkpt lat="39.92474338560974" lon="18.057456393716244"><ele>1.0</ele><time>2026-04-19T09:27:36.612Z</time></trkpt><trkpt lat="39.92481903132209" lon="18.05734989448419"><ele>1.0</ele><time>2026-04-19T09:27:37.612Z</time></trkpt><trkpt lat="39.9249013466485" lon="18.0572490661754"><ele>1.0</ele><time>2026-04-19T09:27:38.612Z</time></trkpt><trkpt lat="39.924979537061525" lon="18.057145384160737"><ele>0.6000000000000001</ele><time>2026-04-19T09:27:39.612Z</time></trkpt><trkpt lat="39.92505687771514" lon="18.057035965893963"><ele>0.20000000000000007</ele><time>2026-04-19T09:27:40.612Z</time></trkpt><trkpt lat="39.9251369130747" lon="18.056924433082642"><ele>-0.20000000000000007</ele><time>2026-04-19T09:27:41.612Z</time></trkpt><trkpt lat="39.925207302507005" lon="18.056821519368388"><ele>-0.6000000000000001</ele><time>2026-04-19T09:27:42.612Z</time></trkpt><trkpt lat="39.925283151338604" lon="18.05672309430254"><ele>-1.0</ele><time>2026-04-19T09:27:43.612Z</time></trkpt><trkpt lat="39.92535699943465" lon="18.05662047193557"><ele>-0.25</ele><time>2026-04-19T09:27:44.612Z</time></trkpt><trkpt lat="39.92543074736497" lon="18.05651284886101"><ele>0.5</ele><time>2026-04-19T09:27:45.612Z</time></trkpt><trkpt lat="39.92550570892488" lon="18.056403740861878"><ele>1.25</ele><time>2026-04-19T09:27:46.612Z</time></trkpt><trkpt lat="39.92558309089217" lon="18.056271925008076"><ele>2.0</ele><time>2026-04-19T09:27:47.612Z</time></trkpt><trkpt lat="39.92566878290378" lon="18.056121591913154"><ele>2.0</ele><time>2026-04-19T09:27:48.612Z</time></trkpt><trkpt lat="39.925767532395284" lon="18.055975664745098"><ele>2.0</ele><time>2026-04-19T09:27:49.612Z</time></trkpt><trkpt lat="39.925872945328244" lon="18.05584661037995"><ele>2.0</ele><time>2026-04-19T09:27:50.612Z</time></trkpt><trkpt lat="39.92597524714072" lon="18.055722983767808"><ele>2.0</ele><time>2026-04-19T09:27:51.612Z</time></trkpt><trkpt lat="39.92607351243876" lon="18.055602104436844"><ele>2.0</ele><time>2026-04-19T09:27:52.612Z</time></trkpt><trkpt lat="39.92617276520135" lon="18.055483629585016"><ele>2.0</ele><time>2026-04-19T09:27:53.612Z</time></trkpt><trkpt lat="39.92626645911801" lon="18.055372751000444"><ele>2.0</ele><time>2026-04-19T09:27:54.612Z</time></trkpt><trkpt lat="39.926355937827424" lon="18.05525514290563"><ele>2.0</ele><time>2026-04-19T09:27:55.612Z</time></trkpt><trkpt lat="39.926438474610364" lon="18.055149843631213"><ele>2.0</ele><time>2026-04-19T09:27:56.612Z</time></trkpt><trkpt lat="39.926524730256496" lon="18.055068122267162"><ele>2.0</ele><time>2026-04-19T09:27:57.611Z</time></trkpt><trkpt lat="39.92660665427842" lon="18.054948008128694"><ele>2.0</ele><time>2026-04-19T09:27:58.611Z</time></trkpt><trkpt lat="39.92671885216717" lon="18.05480266591409"><ele>2.0</ele><time>2026-04-19T09:27:59.611Z</time></trkpt><trkpt lat="39.92683858258316" lon="18.054637355810186"><ele>2.0</ele><time>2026-04-19T09:28:00.611Z</time></trkpt><trkpt lat="39.92695982328123" lon="18.054448018624317"><ele>2.0</ele><time>2026-04-19T09:28:01.611Z</time></trkpt><trkpt lat="39.92709290191562" lon="18.05424649715759"><ele>2.0</ele><time>2026-04-19T09:28:02.611Z</time></trkpt><trkpt lat="39.92723797159418" lon="18.05405134121771"><ele>2.6666666666666665</ele><time>2026-04-19T09:28:03.611Z</time></trkpt><trkpt lat="39.9273777332226" lon="18.053845001530647"><ele>3.333333333333333</ele><time>2026-04-19T09:28:04.611Z</time></trkpt><trkpt lat="39.92751949138988" lon="18.05363397042547"><ele>4.0</ele><time>2026-04-19T09:28:05.611Z</time></trkpt><trkpt lat="39.9276639500138" lon="18.053422979905026"><ele>3.6666666666666665</ele><time>2026-04-19T09:28:06.611Z</time></trkpt><trkpt lat="39.92779775764654" lon="18.053241378233093"><ele>3.333333333333333</ele><time>2026-04-19T09:28:07.611Z</time></trkpt><trkpt lat="39.92790923604694" lon="18.053074430293385"><ele>3.0</ele><time>2026-04-19T09:28:08.611Z</time></trkpt><trkpt lat="39.92800149110547" lon="18.052920242155032"><ele>3.0</ele><time>2026-04-19T09:28:09.611Z</time></trkpt><trkpt lat="39.92806842371609" lon="18.05277541123946"><ele>3.0</ele><time>2026-04-19T09:28:10.611Z</time></trkpt><trkpt lat="39.928104512137956" lon="18.05263686117955"><ele>3.0</ele><time>2026-04-19T09:28:11.611Z</time></trkpt><trkpt lat="39.928108470853" lon="18.05250457593588"><ele>3.0</ele><time>2026-04-19T09:28:12.611Z</time></trkpt><trkpt lat="39.928094090934586" lon="18.05236737149053"><ele>2.5</ele><time>2026-04-19T09:28:13.611Z</time></trkpt><trkpt lat="39.92808250113115" lon="18.052220436822264"><ele>2.0</ele><time>2026-04-19T09:28:14.611Z</time></trkpt><trkpt lat="39.928066386337264" lon="18.052059513385004"><ele>1.5</ele><time>2026-04-19T09:28:15.611Z</time></trkpt><trkpt lat="39.92803011298096" lon="18.05188438535492"><ele>1.0</ele><time>2026-04-19T09:28:16.611Z</time></trkpt><trkpt lat="39.92793513333075" lon="18.051681010167407"><ele>1.3333333333333333</ele><time>2026-04-19T09:28:17.611Z</time></trkpt><trkpt lat="39.927826217790134" lon="18.05147393440829"><ele>1.6666666666666665</ele><time>2026-04-19T09:28:18.611Z</time></trkpt><trkpt lat="39.92771077151263" lon="18.05122879661397"><ele>2.0</ele><time>2026-04-19T09:28:19.611Z</time></trkpt><trkpt lat="39.92857869288205" lon="18.051055887738197"><ele>2.333333333333333</ele><time>2026-04-19T09:28:20.611Z</time></trkpt><trkpt lat="39.92863031168348" lon="18.050778398001533"><ele>2.6666666666666665</ele><time>2026-04-19T09:28:21.611Z</time></trkpt><trkpt lat="39.9286836228934" lon="18.050489241051334"><ele>3.0</ele><time>2026-04-19T09:28:22.611Z</time></trkpt><trkpt lat="39.92874062619868" lon="18.05018196759537"><ele>2.6666666666666665</ele><time>2026-04-19T09:28:23.611Z</time></trkpt><trkpt lat="39.928795980074625" lon="18.049888676107347"><ele>2.333333333333333</ele><time>2026-04-19T09:28:24.611Z</time></trkpt><trkpt lat="39.92884938095716" lon="18.04961689789861"><ele>2.0</ele><time>2026-04-19T09:28:25.611Z</time></trkpt><trkpt lat="39.92889817734847" lon="18.049368336427438"><ele>2.0</ele><time>2026-04-19T09:28:26.611Z</time></trkpt><trkpt lat="39.92894210017344" lon="18.049136652181154"><ele>2.0</ele><time>2026-04-19T09:28:27.611Z</time></trkpt><trkpt lat="39.928987761992204" lon="18.04890466532119"><ele>2.0</ele><time>2026-04-19T09:28:28.611Z</time></trkpt><trkpt lat="39.92904443483772" lon="18.04868118478053"><ele>1.3333333333333333</ele><time>2026-04-19T09:28:29.611Z</time></trkpt><trkpt lat="39.92912862152545" lon="18.04846589296694"><ele>0.6666666666666666</ele><time>2026-04-19T09:28:30.611Z</time></trkpt><trkpt lat="39.929234905452034" lon="18.048257364444733"><ele>0.0</ele><time>2026-04-19T09:28:31.611Z</time></trkpt><trkpt lat="39.92935594960687" lon="18.048062245702116"><ele>-0.3333333333333333</ele><time>2026-04-19T09:28:32.611Z</time></trkpt><trkpt lat="39.9294819303053" lon="18.047884934172686"><ele>-0.6666666666666666</ele><time>2026-04-19T09:28:33.611Z</time></trkpt><trkpt lat="39.92961277898638" lon="18.047741578368615"><ele>-1.0</ele><time>2026-04-19T09:28:34.611Z</time></trkpt><trkpt lat="39.92976204284924" lon="18.04763235839003"><ele>-1.0</ele><time>2026-04-19T09:28:35.611Z</time></trkpt><trkpt lat="39.929935906466184" lon="18.047520557446685"><ele>-1.0</ele><time>2026-04-19T09:28:36.611Z</time></trkpt><trkpt lat="39.93012554760129" lon="18.047418983790273"><ele>-1.0</ele><time>2026-04-19T09:28:37.611Z</time></trkpt><trkpt lat="39.93031673765691" lon="18.04732178858474"><ele>-0.6666666666666666</ele><time>2026-04-19T09:28:38.611Z</time></trkpt><trkpt lat="39.93051868608313" lon="18.04721195452402"><ele>-0.3333333333333333</ele><time>2026-04-19T09:28:39.611Z</time></trkpt><trkpt lat="39.93071734921554" lon="18.047097202356582"><ele>0.0</ele><time>2026-04-19T09:28:40.611Z</time></trkpt><trkpt lat="39.93089281128032" lon="18.046998490072816"><ele>0.3333333333333333</ele><time>2026-04-19T09:28:41.611Z</time></trkpt><trkpt lat="39.93106610811279" lon="18.046915092312037"><ele>0.6666666666666666</ele><time>2026-04-19T09:28:42.611Z</time></trkpt><trkpt lat="39.93126896421886" lon="18.04691742615427"><ele>1.0</ele><time>2026-04-19T09:28:43.611Z</time></trkpt><trkpt lat="39.931458759774905" lon="18.046866092865617"><ele>1.0</ele><time>2026-04-19T09:28:44.611Z</time></trkpt><trkpt lat="39.93165150358502" lon="18.04684398011775"><ele>1.0</ele><time>2026-04-19T09:28:45.611Z</time></trkpt><trkpt lat="39.93184385576937" lon="18.046846909691094"><ele>1.0</ele><time>2026-04-19T09:28:46.611Z</time></trkpt><trkpt lat="39.93205352455418" lon="18.04689864758591"><ele>0.0</ele><time>2026-04-19T09:28:47.611Z</time></trkpt><trkpt lat="39.932286921543096" lon="18.046954924529576"><ele>-1.0</ele><time>2026-04-19T09:28:48.611Z</time></trkpt><trkpt lat="39.93252137358812" lon="18.046997198561826"><ele>-1.6666666666666665</ele><time>2026-04-19T09:28:49.611Z</time></trkpt><trkpt lat="39.93273062286727" lon="18.04703856591224"><ele>-2.3333333333333335</ele><time>2026-04-19T09:28:50.611Z</time></trkpt><trkpt lat="39.932920644853084" lon="18.047079763183326"><ele>-3.0</ele><time>2026-04-19T09:28:51.611Z</time></trkpt><trkpt lat="39.93309908073566" lon="18.047104931618463"><ele>-3.0</ele><time>2026-04-19T09:28:52.611Z</time></trkpt><trkpt lat="39.933277072284156" lon="18.047098786782147"><ele>-3.0</ele><time>2026-04-19T09:28:53.611Z</time></trkpt><trkpt lat="39.933461204631215" lon="18.0470556197687"><ele>-3.0</ele><time>2026-04-19T09:28:54.611Z</time></trkpt><trkpt lat="39.93364789266751" lon="18.046980203809234"><ele>-3.0</ele><time>2026-04-19T09:28:55.611Z</time></trkpt><trkpt lat="39.93383816670074" lon="18.046886052117728"><ele>-3.0</ele><time>2026-04-19T09:28:56.611Z</time></trkpt><trkpt lat="39.93402731692414" lon="18.046776774992345"><ele>-3.0</ele><time>2026-04-19T09:28:57.611Z</time></trkpt><trkpt lat="39.93421669042736" lon="18.04665016883259"><ele>-2.3333333333333335</ele><time>2026-04-19T09:28:58.611Z</time></trkpt><trkpt lat="39.93439996162166" lon="18.046528624754774"><ele>-1.6666666666666665</ele><time>2026-04-19T09:28:59.611Z</time></trkpt><trkpt lat="39.93456536289716" lon="18.046418184830976"><ele>-1.0</ele><time>2026-04-19T09:29:00.611Z</time></trkpt><trkpt lat="39.934716775185514" lon="18.046317628798388"><ele>-1.0</ele><time>2026-04-19T09:29:01.611Z</time></trkpt><trkpt lat="39.93485919992831" lon="18.046219896804384"><ele>-1.0</ele><time>2026-04-19T09:29:02.611Z</time></trkpt><trkpt lat="39.93498765889811" lon="18.04613615961158"><ele>-1.0</ele><time>2026-04-19T09:29:03.611Z</time></trkpt><trkpt lat="39.93511343795235" lon="18.046055716906928"><ele>-1.0</ele><time>2026-04-19T09:29:04.611Z</time></trkpt><trkpt lat="39.93523470060028" lon="18.0459765812243"><ele>-0.75</ele><time>2026-04-19T09:29:05.611Z</time></trkpt><trkpt lat="39.93535790045798" lon="18.04590347706093"><ele>-0.5</ele><time>2026-04-19T09:29:06.611Z</time></trkpt><trkpt lat="39.935483231997" lon="18.04581972552742"><ele>-0.25</ele><time>2026-04-19T09:29:07.611Z</time></trkpt><trkpt lat="39.93561317530319" lon="18.045735567346487"><ele>0.0</ele><time>2026-04-19T09:29:08.611Z</time></trkpt><trkpt lat="39.93573342893752" lon="18.045658363741037"><ele>0.0</ele><time>2026-04-19T09:29:09.611Z</time></trkpt><trkpt lat="39.93584147005272" lon="18.045585759209267"><ele>0.0</ele><time>2026-04-19T09:29:10.611Z</time></trkpt><trkpt lat="39.93594236001644" lon="18.04552721456678"><ele>0.0</ele><time>2026-04-19T09:29:11.611Z</time></trkpt><trkpt lat="39.93604027966536" lon="18.04545347353801"><ele>0.0</ele><time>2026-04-19T09:29:12.611Z</time></trkpt><trkpt lat="39.93616527752547" lon="18.045363239630515"><ele>0.0</ele><time>2026-04-19T09:29:13.611Z</time></trkpt><trkpt lat="39.93631140406715" lon="18.045257274906948"><ele>0.0</ele><time>2026-04-19T09:29:14.611Z</time></trkpt><trkpt lat="39.936494469753576" lon="18.04514367393526"><ele>0.0</ele><time>2026-04-19T09:29:15.611Z</time></trkpt><trkpt lat="39.93667734528845" lon="18.04503202689186"><ele>0.6666666666666666</ele><time>2026-04-19T09:29:16.611Z</time></trkpt><trkpt lat="39.936826477796544" lon="18.04493092255597"><ele>1.3333333333333333</ele><time>2026-04-19T09:29:17.611Z</time></trkpt><trkpt lat="39.93695928791616" lon="18.044845185528644"><ele>2.0</ele><time>2026-04-19T09:29:18.611Z</time></trkpt><trkpt lat="39.93709099843241" lon="18.044759996489912"><ele>2.0</ele><time>2026-04-19T09:29:19.611Z</time></trkpt><trkpt lat="39.937238723222706" lon="18.044660924512524"><ele>2.0</ele><time>2026-04-19T09:29:20.611Z</time></trkpt><trkpt lat="39.93742259034688" lon="18.044536534064072"><ele>2.0</ele><time>2026-04-19T09:29:21.611Z</time></trkpt><trkpt lat="39.93761113808099" lon="18.044408959997686"><ele>2.6666666666666665</ele><time>2026-04-19T09:29:22.611Z</time></trkpt><trkpt lat="39.93778784462274" lon="18.044288236529347"><ele>3.333333333333333</ele><time>2026-04-19T09:29:23.611Z</time></trkpt><trkpt lat="39.93795772018606" lon="18.0441742851174"><ele>4.0</ele><time>2026-04-19T09:29:24.611Z</time></trkpt><trkpt lat="39.938124128144615" lon="18.04407127020349"><ele>4.0</ele><time>2026-04-19T09:29:25.611Z</time></trkpt><trkpt lat="39.938295958024035" lon="18.04395640926904"><ele>4.0</ele><time>2026-04-19T09:29:26.611Z</time></trkpt><trkpt lat="39.93848132579048" lon="18.04383577758738"><ele>4.0</ele><time>2026-04-19T09:29:27.611Z</time></trkpt><trkpt lat="39.93866041151919" lon="18.043721100861056"><ele>4.666666666666666</ele><time>2026-04-19T09:29:28.611Z</time></trkpt><trkpt lat="39.938837578188846" lon="18.04360743668926"><ele>5.333333333333333</ele><time>2026-04-19T09:29:29.611Z</time></trkpt><trkpt lat="39.93902101112143" lon="18.043483802807817"><ele>6.0</ele><time>2026-04-19T09:29:30.611Z</time></trkpt><trkpt lat="39.93919700283061" lon="18.043361926415848"><ele>6.0</ele><time>2026-04-19T09:29:31.611Z</time></trkpt><trkpt lat="39.939356753410706" lon="18.04323686743775"><ele>6.0</ele><time>2026-04-19T09:29:32.611Z</time></trkpt><trkpt lat="39.939506158198796" lon="18.043105231781784"><ele>6.0</ele><time>2026-04-19T09:29:33.611Z</time></trkpt><trkpt lat="39.939654501921105" lon="18.04295882081437"><ele>6.0</ele><time>2026-04-19T09:29:34.611Z</time></trkpt><trkpt lat="39.939802770302" lon="18.042789301264612"><ele>6.0</ele><time>2026-04-19T09:29:35.611Z</time></trkpt><trkpt lat="39.93995529906445" lon="18.042627457990186"><ele>6.0</ele><time>2026-04-19T09:29:36.611Z</time></trkpt><trkpt lat="39.94011942517969" lon="18.04246302946874"><ele>6.333333333333334</ele><time>2026-04-19T09:29:37.611Z</time></trkpt><trkpt lat="39.94027898123913" lon="18.04229299896685"><ele>6.666666666666667</ele><time>2026-04-19T09:29:38.611Z</time></trkpt><trkpt lat="39.9404330983616" lon="18.0421298593557"><ele>7.0</ele><time>2026-04-19T09:29:39.611Z</time></trkpt><trkpt lat="39.940579773376044" lon="18.041973212378718"><ele>7.0</ele><time>2026-04-19T09:29:40.611Z</time></trkpt><trkpt lat="39.94073087956623" lon="18.041816301968016"><ele>7.0</ele><time>2026-04-19T09:29:41.611Z</time></trkpt><trkpt lat="39.94088464407332" lon="18.04165576477404"><ele>7.0</ele><time>2026-04-19T09:29:42.611Z</time></trkpt><trkpt lat="39.94103549838876" lon="18.041497708012265"><ele>7.333333333333334</ele><time>2026-04-19T09:29:43.611Z</time></trkpt><trkpt lat="39.94118554755257" lon="18.04135095291127"><ele>7.666666666666666</ele><time>2026-04-19T09:29:44.611Z</time></trkpt><trkpt lat="39.941342929300255" lon="18.041194911963775"><ele>8.0</ele><time>2026-04-19T09:29:45.611Z</time></trkpt><trkpt lat="39.94150731932889" lon="18.041028713318696"><ele>8.0</ele><time>2026-04-19T09:29:46.611Z</time></trkpt><trkpt lat="39.941662027966096" lon="18.040868563252335"><ele>8.0</ele><time>2026-04-19T09:29:47.611Z</time></trkpt><trkpt lat="39.941803219258105" lon="18.040724572803203"><ele>8.0</ele><time>2026-04-19T09:29:48.611Z</time></trkpt><trkpt lat="39.94192810298438" lon="18.040597225361086"><ele>8.0</ele><time>2026-04-19T09:29:49.611Z</time></trkpt><trkpt lat="39.94204299092791" lon="18.040480564856047"><ele>8.0</ele><time>2026-04-19T09:29:50.611Z</time></trkpt><trkpt lat="39.942147898288574" lon="18.04036038123632"><ele>8.0</ele><time>2026-04-19T09:29:51.611Z</time></trkpt><trkpt lat="39.942253502571916" lon="18.040254393794545"><ele>8.0</ele><time>2026-04-19T09:29:52.611Z</time></trkpt><trkpt lat="39.94235035274082" lon="18.040161008298433"><ele>8.0</ele><time>2026-04-19T09:29:53.611Z</time></trkpt><trkpt lat="39.94243134994953" lon="18.04007431276068"><ele>8.0</ele><time>2026-04-19T09:29:54.611Z</time></trkpt><trkpt lat="39.94250322114745" lon="18.040005905123216"><ele>8.0</ele><time>2026-04-19T09:29:55.611Z</time></trkpt><trkpt lat="39.94255212418505" lon="18.039947594030277"><ele>8.0</ele><time>2026-04-19T09:29:56.611Z</time></trkpt><trkpt lat="39.94264295993536" lon="18.039847929450634"><ele>8.0</ele><time>2026-04-19T09:29:58.611Z</time></trkpt><trkpt lat="39.94271022740226" lon="18.039768875239563"><ele>8.0</ele><time>2026-04-19T09:29:59.611Z</time></trkpt><trkpt lat="39.94279256999251" lon="18.039683290587764"><ele>8.0</ele><time>2026-04-19T09:30:00.611Z</time></trkpt><trkpt lat="39.94288856852751" lon="18.03959062000603"><ele>8.0</ele><time>2026-04-19T09:30:01.611Z</time></trkpt><trkpt lat="39.94298495892691" lon="18.039488167969804"><ele>8.0</ele><time>2026-04-19T09:30:02.611Z</time></trkpt><trkpt lat="39.943085519158146" lon="18.039383281870414"><ele>8.0</ele><time>2026-04-19T09:30:03.611Z</time></trkpt><trkpt lat="39.94318918419888" lon="18.03927429549401"><ele>8.0</ele><time>2026-04-19T09:30:04.611Z</time></trkpt><trkpt lat="39.94330508389737" lon="18.039157581367277"><ele>8.0</ele><time>2026-04-19T09:30:05.611Z</time></trkpt><trkpt lat="39.943422531293635" lon="18.039034832778967"><ele>8.0</ele><time>2026-04-19T09:30:06.611Z</time></trkpt><trkpt lat="39.943534955635336" lon="18.038929635438894"><ele>8.333333333333332</ele><time>2026-04-19T09:30:07.611Z</time></trkpt><trkpt lat="39.943655879382945" lon="18.038797915743682"><ele>8.666666666666666</ele><time>2026-04-19T09:30:08.611Z</time></trkpt><trkpt lat="39.94377296908356" lon="18.038675500352195"><ele>9.0</ele><time>2026-04-19T09:30:09.611Z</time></trkpt><trkpt lat="39.943891277159494" lon="18.038550552961844"><ele>9.0</ele><time>2026-04-19T09:30:10.611Z</time></trkpt><trkpt lat="39.944005416894065" lon="18.038430330189687"><ele>9.0</ele><time>2026-04-19T09:30:11.611Z</time></trkpt><trkpt lat="39.944116120912355" lon="18.03832177175641"><ele>9.0</ele><time>2026-04-19T09:30:12.611Z</time></trkpt><trkpt lat="39.94424445431017" lon="18.038192430367403"><ele>9.0</ele><time>2026-04-19T09:30:13.611Z</time></trkpt><trkpt lat="39.944376597104295" lon="18.038053805829513"><ele>9.0</ele><time>2026-04-19T09:30:14.611Z</time></trkpt><trkpt lat="39.94452391794613" lon="18.037892568782123"><ele>9.0</ele><time>2026-04-19T09:30:15.611Z</time></trkpt><trkpt lat="39.9446734331344" lon="18.03773614421585"><ele>9.0</ele><time>2026-04-19T09:30:16.611Z</time></trkpt><trkpt lat="39.9448095411868" lon="18.037602360655033"><ele>9.0</ele><time>2026-04-19T09:30:17.611Z</time></trkpt><trkpt lat="39.94493333669618" lon="18.037478477853373"><ele>9.0</ele><time>2026-04-19T09:30:18.611Z</time></trkpt><trkpt lat="39.945043818680226" lon="18.037362661147288"><ele>9.0</ele><time>2026-04-19T09:30:19.611Z</time></trkpt><trkpt lat="39.9451394710089" lon="18.037257269923458"><ele>9.0</ele><time>2026-04-19T09:30:20.611Z</time></trkpt><trkpt lat="39.94522640664933" lon="18.037165902932657"><ele>9.0</ele><time>2026-04-19T09:30:21.611Z</time></trkpt><trkpt lat="39.94530293508176" lon="18.037091012652276"><ele>9.0</ele><time>2026-04-19T09:30:22.611Z</time></trkpt><trkpt lat="39.9453824594334" lon="18.03702490658999"><ele>9.0</ele><time>2026-04-19T09:30:24.611Z</time></trkpt><trkpt lat="39.94545828130507" lon="18.036928489225915"><ele>9.0</ele><time>2026-04-19T09:30:27.611Z</time></trkpt><trkpt lat="39.945529612570034" lon="18.036853467271737"><ele>9.0</ele><time>2026-04-19T09:30:28.611Z</time></trkpt><trkpt lat="39.9456147279733" lon="18.036761698661664"><ele>9.0</ele><time>2026-04-19T09:30:29.611Z</time></trkpt><trkpt lat="39.94572641395397" lon="18.03664071124643"><ele>9.0</ele><time>2026-04-19T09:30:30.611Z</time></trkpt><trkpt lat="39.94585227762695" lon="18.036510357462085"><ele>9.0</ele><time>2026-04-19T09:30:31.611Z</time></trkpt><trkpt lat="39.94597895009759" lon="18.0363836129742"><ele>8.75</ele><time>2026-04-19T09:30:32.611Z</time></trkpt><trkpt lat="39.94609685513705" lon="18.036249860946313"><ele>8.5</ele><time>2026-04-19T09:30:33.611Z</time></trkpt><trkpt lat="39.94620401044859" lon="18.03614495325164"><ele>8.25</ele><time>2026-04-19T09:30:34.611Z</time></trkpt><trkpt lat="39.94628989139591" lon="18.036055119442043"><ele>8.0</ele><time>2026-04-19T09:30:35.611Z</time></trkpt><trkpt lat="39.94637535248997" lon="18.035979994457573"><ele>8.0</ele><time>2026-04-19T09:30:36.611Z</time></trkpt><trkpt lat="39.94645409885627" lon="18.035899663367527"><ele>8.0</ele><time>2026-04-19T09:30:37.611Z</time></trkpt><trkpt lat="39.94651868552686" lon="18.03581230703668"><ele>8.0</ele><time>2026-04-19T09:30:38.611Z</time></trkpt><trkpt lat="39.946589345217674" lon="18.035735331467855"><ele>8.0</ele><time>2026-04-19T09:30:39.611Z</time></trkpt><trkpt lat="39.94665407814553" lon="18.03566782921527"><ele>8.0</ele><time>2026-04-19T09:30:40.611Z</time></trkpt><trkpt lat="39.94672362711455" lon="18.035601115918997"><ele>7.666666666666666</ele><time>2026-04-19T09:30:41.611Z</time></trkpt><trkpt lat="39.94678672476144" lon="18.035535624466007"><ele>7.333333333333333</ele><time>2026-04-19T09:30:42.611Z</time></trkpt><trkpt lat="39.94684735489893" lon="18.035473927307105"><ele>7.0</ele><time>2026-04-19T09:30:43.611Z</time></trkpt><trkpt lat="39.94691864819292" lon="18.035413248991308"><ele>6.666666666666666</ele><time>2026-04-19T09:30:44.611Z</time></trkpt><trkpt lat="39.9469997362539" lon="18.035334959802512"><ele>6.333333333333333</ele><time>2026-04-19T09:30:45.611Z</time></trkpt><trkpt lat="39.947079977429105" lon="18.03525051405815"><ele>6.0</ele><time>2026-04-19T09:30:46.611Z</time></trkpt><trkpt lat="39.94716216213524" lon="18.035157956534835"><ele>6.0</ele><time>2026-04-19T09:30:47.611Z</time></trkpt><trkpt lat="39.9472489884343" lon="18.035062671038762"><ele>6.0</ele><time>2026-04-19T09:30:48.611Z</time></trkpt><trkpt lat="39.947341393339" lon="18.03495931072348"><ele>6.0</ele><time>2026-04-19T09:30:49.611Z</time></trkpt><trkpt lat="39.94744043941681" lon="18.03486193665838"><ele>6.0</ele><time>2026-04-19T09:30:50.611Z</time></trkpt><trkpt lat="39.947529412414234" lon="18.034767116406645"><ele>5.8</ele><time>2026-04-19T09:30:51.611Z</time></trkpt><trkpt lat="39.94761058182123" lon="18.034679556083738"><ele>5.6</ele><time>2026-04-19T09:30:52.611Z</time></trkpt><trkpt lat="39.94769165428465" lon="18.03460434527281"><ele>5.4</ele><time>2026-04-19T09:30:53.611Z</time></trkpt><trkpt lat="39.94777083642289" lon="18.0345216072168"><ele>5.2</ele><time>2026-04-19T09:30:54.611Z</time></trkpt><trkpt lat="39.94786000346679" lon="18.034435776431998"><ele>5.0</ele><time>2026-04-19T09:30:55.611Z</time></trkpt><trkpt lat="39.94795115288236" lon="18.034347694349485"><ele>5.0</ele><time>2026-04-19T09:30:56.611Z</time></trkpt><trkpt lat="39.94804962254796" lon="18.034255430467304"><ele>5.0</ele><time>2026-04-19T09:30:57.611Z</time></trkpt><trkpt lat="39.948145838803995" lon="18.034179315444884"><ele>5.0</ele><time>2026-04-19T09:30:58.611Z</time></trkpt><trkpt lat="39.948232968045794" lon="18.034116001327426"><ele>5.0</ele><time>2026-04-19T09:30:59.611Z</time></trkpt><trkpt lat="39.9483231792233" lon="18.034061460646313"><ele>5.0</ele><time>2026-04-19T09:31:00.611Z</time></trkpt><trkpt lat="39.94841990656182" lon="18.034018366231866"><ele>4.4</ele><time>2026-04-19T09:31:01.611Z</time></trkpt><trkpt lat="39.94851649294919" lon="18.033975854290176"><ele>3.8</ele><time>2026-04-19T09:31:02.61Z</time></trkpt><trkpt lat="39.94861286883291" lon="18.033937983139293"><ele>3.2</ele><time>2026-04-19T09:31:03.611Z</time></trkpt><trkpt lat="39.94871502585269" lon="18.033905970762774"><ele>2.6</ele><time>2026-04-19T09:31:04.611Z</time></trkpt><trkpt lat="39.94881270188847" lon="18.03387163359097"><ele>2.0</ele><time>2026-04-19T09:31:05.611Z</time></trkpt><trkpt lat="39.948912550449535" lon="18.033844865789405"><ele>2.0</ele><time>2026-04-19T09:31:06.61Z</time></trkpt><trkpt lat="39.94901284304782" lon="18.03380439209518"><ele>2.0</ele><time>2026-04-19T09:31:07.61Z</time></trkpt><trkpt lat="39.94911503385001" lon="18.033767175160442"><ele>2.0</ele><time>2026-04-19T09:31:08.611Z</time></trkpt><trkpt lat="39.94921398967704" lon="18.03372445836911"><ele>2.0</ele><time>2026-04-19T09:31:09.61Z</time></trkpt><trkpt lat="39.94930878645146" lon="18.03368265292204"><ele>2.0</ele><time>2026-04-19T09:31:10.61Z</time></trkpt><trkpt lat="39.949407553618876" lon="18.033636159987836"><ele>2.8</ele><time>2026-04-19T09:31:11.61Z</time></trkpt><trkpt lat="39.94950266684415" lon="18.033580073939042"><ele>3.6</ele><time>2026-04-19T09:31:12.611Z</time></trkpt><trkpt lat="39.94959903363448" lon="18.033516757076256"><ele>4.3999999999999995</ele><time>2026-04-19T09:31:13.611Z</time></trkpt><trkpt lat="39.94969549675595" lon="18.033437279497313"><ele>5.2</ele><time>2026-04-19T09:31:14.611Z</time></trkpt><trkpt lat="39.94978372052619" lon="18.03335692966604"><ele>6.0</ele><time>2026-04-19T09:31:15.611Z</time></trkpt><trkpt lat="39.94986305763107" lon="18.033277188259913"><ele>6.0</ele><time>2026-04-19T09:31:16.611Z</time></trkpt><trkpt lat="39.94993355702776" lon="18.033190588210026"><ele>6.0</ele><time>2026-04-19T09:31:17.611Z</time></trkpt><trkpt lat="39.949999039426054" lon="18.03309578440203"><ele>6.0</ele><time>2026-04-19T09:31:18.611Z</time></trkpt><trkpt lat="39.95005900791765" lon="18.033000870432705"><ele>6.0</ele><time>2026-04-19T09:31:19.611Z</time></trkpt><trkpt lat="39.950106245912856" lon="18.03291913554087"><ele>6.0</ele><time>2026-04-19T09:31:20.611Z</time></trkpt><trkpt lat="39.950147984467144" lon="18.032843457219343"><ele>6.0</ele><time>2026-04-19T09:31:21.611Z</time></trkpt><trkpt lat="39.95022189770961" lon="18.032736677837082"><ele>6.0</ele><time>2026-04-19T09:31:23.611Z</time></trkpt><trkpt lat="39.950308337966334" lon="18.03269311306877"><ele>6.0</ele><time>2026-04-19T09:31:25.611Z</time></trkpt><trkpt lat="39.95041823510664" lon="18.03268815504513"><ele>6.0</ele><time>2026-04-19T09:31:27.611Z</time></trkpt><trkpt lat="39.950502339883876" lon="18.032614013301956"><ele>6.0</ele><time>2026-04-19T09:31:29.611Z</time></trkpt><trkpt lat="39.95054162280641" lon="18.032545642388456"><ele>6.0</ele><time>2026-04-19T09:31:30.611Z</time></trkpt><trkpt lat="39.9505932554874" lon="18.03248555303799"><ele>6.0</ele><time>2026-04-19T09:31:31.611Z</time></trkpt><trkpt lat="39.950656210352406" lon="18.03244345806559"><ele>6.0</ele><time>2026-04-19T09:31:32.611Z</time></trkpt><trkpt lat="39.95072335882414" lon="18.032412579939766"><ele>6.0</ele><time>2026-04-19T09:31:33.611Z</time></trkpt><trkpt lat="39.950811866939" lon="18.032379076749706"><ele>6.0</ele><time>2026-04-19T09:31:34.611Z</time></trkpt><trkpt lat="39.950904004868946" lon="18.032348750849632"><ele>6.0</ele><time>2026-04-19T09:31:35.611Z</time></trkpt><trkpt lat="39.95101801449862" lon="18.032310745280085"><ele>6.0</ele><time>2026-04-19T09:31:36.611Z</time></trkpt><trkpt lat="39.95116005100333" lon="18.032269724202596"><ele>6.0</ele><time>2026-04-19T09:31:37.611Z</time></trkpt><trkpt lat="39.95132297260116" lon="18.032227925157944"><ele>6.0</ele><time>2026-04-19T09:31:38.611Z</time></trkpt><trkpt lat="39.951494114304644" lon="18.032180600795133"><ele>6.0</ele><time>2026-04-19T09:31:39.611Z</time></trkpt><trkpt lat="39.95166715022783" lon="18.03213631023194"><ele>6.333333333333334</ele><time>2026-04-19T09:31:40.611Z</time></trkpt><trkpt lat="39.95184166665446" lon="18.032094466682864"><ele>6.666666666666667</ele><time>2026-04-19T09:31:41.611Z</time></trkpt><trkpt lat="39.95201864964651" lon="18.032051082177333"><ele>7.0</ele><time>2026-04-19T09:31:42.611Z</time></trkpt><trkpt lat="39.95219412282723" lon="18.032005978450904"><ele>7.0</ele><time>2026-04-19T09:31:43.611Z</time></trkpt><trkpt lat="39.952377643423425" lon="18.03195815062676"><ele>7.0</ele><time>2026-04-19T09:31:44.611Z</time></trkpt><trkpt lat="39.95255998280411" lon="18.0319131667433"><ele>7.0</ele><time>2026-04-19T09:31:45.611Z</time></trkpt><trkpt lat="39.952733284545396" lon="18.031862450944523"><ele>7.0</ele><time>2026-04-19T09:31:46.611Z</time></trkpt><trkpt lat="39.95291269804913" lon="18.031815268391927"><ele>7.0</ele><time>2026-04-19T09:31:47.611Z</time></trkpt><trkpt lat="39.9530920571385" lon="18.031766364156105"><ele>7.0</ele><time>2026-04-19T09:31:48.611Z</time></trkpt><trkpt lat="39.95327147331613" lon="18.03171711422633"><ele>7.0</ele><time>2026-04-19T09:31:49.611Z</time></trkpt><trkpt lat="39.95344768132764" lon="18.031663855659524"><ele>7.0</ele><time>2026-04-19T09:31:50.611Z</time></trkpt><trkpt lat="39.953625857182416" lon="18.031631889754088"><ele>7.0</ele><time>2026-04-19T09:31:51.611Z</time></trkpt><trkpt lat="39.95378661877636" lon="18.03158861388395"><ele>6.333333333333334</ele><time>2026-04-19T09:31:52.611Z</time></trkpt><trkpt lat="39.95394119786753" lon="18.031556143900776"><ele>5.666666666666667</ele><time>2026-04-19T09:31:53.611Z</time></trkpt><trkpt lat="39.95409736426456" lon="18.031514712261824"><ele>5.0</ele><time>2026-04-19T09:31:54.611Z</time></trkpt><trkpt lat="39.95425442643239" lon="18.03147386622174"><ele>5.0</ele><time>2026-04-19T09:31:55.611Z</time></trkpt><trkpt lat="39.954416032170435" lon="18.031432956453575"><ele>5.0</ele><time>2026-04-19T09:31:56.611Z</time></trkpt><trkpt lat="39.954585865794776" lon="18.03139281351474"><ele>5.0</ele><time>2026-04-19T09:31:57.611Z</time></trkpt><trkpt lat="39.9547448344744" lon="18.03135702853111"><ele>5.0</ele><time>2026-04-19T09:31:58.611Z</time></trkpt><trkpt lat="39.95490609635017" lon="18.03134267032138"><ele>5.0</ele><time>2026-04-19T09:31:59.611Z</time></trkpt><trkpt lat="39.95506561483599" lon="18.031317658329115"><ele>5.0</ele><time>2026-04-19T09:32:00.611Z</time></trkpt><trkpt lat="39.95522300316566" lon="18.03129023403292"><ele>5.5</ele><time>2026-04-19T09:32:01.611Z</time></trkpt><trkpt lat="39.95536509926882" lon="18.031273378750143"><ele>6.0</ele><time>2026-04-19T09:32:02.611Z</time></trkpt><trkpt lat="39.95550003193768" lon="18.03124645724561"><ele>6.5</ele><time>2026-04-19T09:32:03.611Z</time></trkpt><trkpt lat="39.95562228849384" lon="18.031225582526265"><ele>7.0</ele><time>2026-04-19T09:32:04.611Z</time></trkpt><trkpt lat="39.95575303197269" lon="18.03120329956869"><ele>6.75</ele><time>2026-04-19T09:32:05.611Z</time></trkpt><trkpt lat="39.95588599265755" lon="18.031165162835787"><ele>6.5</ele><time>2026-04-19T09:32:06.611Z</time></trkpt><trkpt lat="39.956007862147544" lon="18.03112991000958"><ele>6.25</ele><time>2026-04-19T09:32:07.611Z</time></trkpt><trkpt lat="39.95611947319133" lon="18.031096385231944"><ele>6.0</ele><time>2026-04-19T09:32:08.611Z</time></trkpt><trkpt lat="39.95622697850574" lon="18.03106363937331"><ele>6.0</ele><time>2026-04-19T09:32:09.611Z</time></trkpt><trkpt lat="39.95632375416177" lon="18.031035607542066"><ele>6.0</ele><time>2026-04-19T09:32:10.611Z</time></trkpt><trkpt lat="39.956416480366066" lon="18.031010587946728"><ele>6.0</ele><time>2026-04-19T09:32:11.611Z</time></trkpt><trkpt lat="39.95650485582876" lon="18.030990210910037"><ele>6.0</ele><time>2026-04-19T09:32:12.611Z</time></trkpt><trkpt lat="39.95659365908143" lon="18.030970504813318"><ele>6.0</ele><time>2026-04-19T09:32:13.611Z</time></trkpt><trkpt lat="39.95667435018261" lon="18.030956057987865"><ele>6.0</ele><time>2026-04-19T09:32:14.611Z</time></trkpt><trkpt lat="39.95674772739805" lon="18.030942997896545"><ele>6.0</ele><time>2026-04-19T09:32:15.611Z</time></trkpt><trkpt lat="39.95681762755637" lon="18.03092197094912"><ele>6.0</ele><time>2026-04-19T09:32:16.611Z</time></trkpt><trkpt lat="39.95688128919871" lon="18.030901587894924"><ele>6.0</ele><time>2026-04-19T09:32:17.611Z</time></trkpt><trkpt lat="39.95700796658846" lon="18.030868329556796"><ele>6.0</ele><time>2026-04-19T09:32:19.611Z</time></trkpt><trkpt lat="39.95708004915697" lon="18.030855743241183"><ele>6.0</ele><time>2026-04-19T09:32:20.611Z</time></trkpt><trkpt lat="39.957154146501864" lon="18.03084484136386"><ele>6.0</ele><time>2026-04-19T09:32:21.611Z</time></trkpt><trkpt lat="39.95722770292628" lon="18.03082909087239"><ele>6.0</ele><time>2026-04-19T09:32:22.611Z</time></trkpt><trkpt lat="39.95733411128244" lon="18.030813718625776"><ele>6.0</ele><time>2026-04-19T09:32:24.611Z</time></trkpt><trkpt lat="39.95739705219109" lon="18.030784787627823"><ele>6.0</ele><time>2026-04-19T09:32:27.611Z</time></trkpt><trkpt lat="39.957479848045466" lon="18.03076994017019"><ele>6.0</ele><time>2026-04-19T09:32:29.611Z</time></trkpt><trkpt lat="39.957586744507786" lon="18.030735075880937"><ele>6.0</ele><time>2026-04-19T09:32:31.611Z</time></trkpt><trkpt lat="39.957664248849404" lon="18.030649215386777"><ele>6.0</ele><time>2026-04-19T09:32:33.611Z</time></trkpt><trkpt lat="39.957697810849" lon="18.030509527035193"><ele>6.0</ele><time>2026-04-19T09:32:35.611Z</time></trkpt><trkpt lat="39.957686368173746" lon="18.03041623096973"><ele>6.0</ele><time>2026-04-19T09:32:36.611Z</time></trkpt><trkpt lat="39.95764472238924" lon="18.030323548091804"><ele>6.0</ele><time>2026-04-19T09:32:37.611Z</time></trkpt><trkpt lat="39.957621169443506" lon="18.030234875603096"><ele>6.0</ele><time>2026-04-19T09:32:38.611Z</time></trkpt><trkpt lat="39.957622951312516" lon="18.030151143376607"><ele>6.0</ele><time>2026-04-19T09:32:39.611Z</time></trkpt><trkpt lat="39.95764425615444" lon="18.030064611559578"><ele>5.3999999999999995</ele><time>2026-04-19T09:32:40.611Z</time></trkpt><trkpt lat="39.957695697641746" lon="18.02996691839499"><ele>4.8</ele><time>2026-04-19T09:32:41.611Z</time></trkpt><trkpt lat="39.95776274908806" lon="18.029872228411104"><ele>4.199999999999999</ele><time>2026-04-19T09:32:42.611Z</time></trkpt><trkpt lat="39.95783328962559" lon="18.029779406241975"><ele>3.5999999999999996</ele><time>2026-04-19T09:32:43.611Z</time></trkpt><trkpt lat="39.95791472106242" lon="18.029691111596588"><ele>3.0</ele><time>2026-04-19T09:32:44.611Z</time></trkpt><trkpt lat="39.95800805905009" lon="18.029597271285397"><ele>3.0</ele><time>2026-04-19T09:32:45.611Z</time></trkpt><trkpt lat="39.9581095808893" lon="18.029496493385704"><ele>3.0</ele><time>2026-04-19T09:32:46.611Z</time></trkpt><trkpt lat="39.95821197866147" lon="18.02938376977407"><ele>3.0</ele><time>2026-04-19T09:32:47.611Z</time></trkpt><trkpt lat="39.95831883700604" lon="18.02926629471056"><ele>3.0</ele><time>2026-04-19T09:32:48.611Z</time></trkpt><trkpt lat="39.95843117554425" lon="18.02914748759106"><ele>2.75</ele><time>2026-04-19T09:32:49.611Z</time></trkpt><trkpt lat="39.9585465889" lon="18.029027219751704"><ele>2.5</ele><time>2026-04-19T09:32:50.611Z</time></trkpt><trkpt lat="39.95866100148133" lon="18.028913013381672"><ele>2.25</ele><time>2026-04-19T09:32:51.611Z</time></trkpt><trkpt lat="39.95877231930972" lon="18.028799818827967"><ele>2.0</ele><time>2026-04-19T09:32:52.611Z</time></trkpt><trkpt lat="39.95887848989562" lon="18.028687372681684"><ele>2.0</ele><time>2026-04-19T09:32:53.611Z</time></trkpt><trkpt lat="39.95897532471984" lon="18.02858296293935"><ele>2.0</ele><time>2026-04-19T09:32:54.611Z</time></trkpt><trkpt lat="39.95907250706214" lon="18.02847659371994"><ele>2.0</ele><time>2026-04-19T09:32:55.611Z</time></trkpt><trkpt lat="39.95917499132492" lon="18.028366240923667"><ele>2.0</ele><time>2026-04-19T09:32:56.611Z</time></trkpt><trkpt lat="39.95928191940614" lon="18.028251032554895"><ele>2.0</ele><time>2026-04-19T09:32:57.611Z</time></trkpt><trkpt lat="39.95937904122361" lon="18.02814311809561"><ele>2.0</ele><time>2026-04-19T09:32:58.611Z</time></trkpt><trkpt lat="39.9594745077985" lon="18.028050488794335"><ele>2.0</ele><time>2026-04-19T09:32:59.611Z</time></trkpt><trkpt lat="39.95956635130978" lon="18.02797514480859"><ele>2.0</ele><time>2026-04-19T09:33:00.611Z</time></trkpt><trkpt lat="39.95967005828476" lon="18.027910668818215"><ele>2.0</ele><time>2026-04-19T09:33:01.611Z</time></trkpt><trkpt lat="39.959779406769734" lon="18.02785279728813"><ele>2.0</ele><time>2026-04-19T09:33:02.611Z</time></trkpt><trkpt lat="39.959888466375645" lon="18.027808549320607"><ele>2.0</ele><time>2026-04-19T09:33:03.611Z</time></trkpt><trkpt lat="39.960010542998276" lon="18.027769553889584"><ele>2.0</ele><time>2026-04-19T09:33:04.611Z</time></trkpt><trkpt lat="39.96012264197465" lon="18.027747996263095"><ele>1.8</ele><time>2026-04-19T09:33:05.61Z</time></trkpt><trkpt lat="39.960223213775556" lon="18.027743216461058"><ele>1.6</ele><time>2026-04-19T09:33:06.61Z</time></trkpt><trkpt lat="39.960317511412555" lon="18.027749123314642"><ele>1.4000000000000001</ele><time>2026-04-19T09:33:07.61Z</time></trkpt><trkpt lat="39.96040545617067" lon="18.027760531245523"><ele>1.2000000000000002</ele><time>2026-04-19T09:33:08.61Z</time></trkpt><trkpt lat="39.96050071216932" lon="18.027778216187656"><ele>1.0</ele><time>2026-04-19T09:33:09.61Z</time></trkpt><trkpt lat="39.96060100543696" lon="18.027795485094238"><ele>1.0</ele><time>2026-04-19T09:33:10.61Z</time></trkpt><trkpt lat="39.960700899448845" lon="18.02781870249008"><ele>1.0</ele><time>2026-04-19T09:33:11.61Z</time></trkpt><trkpt lat="39.96079112472164" lon="18.02783217090597"><ele>1.0</ele><time>2026-04-19T09:33:12.61Z</time></trkpt><trkpt lat="39.96088123963156" lon="18.027851363641506"><ele>1.0</ele><time>2026-04-19T09:33:13.61Z</time></trkpt><trkpt lat="39.96097136838849" lon="18.027867792416906"><ele>1.0</ele><time>2026-04-19T09:33:14.61Z</time></trkpt><trkpt lat="39.96106608255307" lon="18.027884763330782"><ele>1.6</ele><time>2026-04-19T09:33:15.61Z</time></trkpt><trkpt lat="39.96115945698339" lon="18.027898527832974"><ele>2.2</ele><time>2026-04-19T09:33:16.61Z</time></trkpt><trkpt lat="39.96124860842236" lon="18.027909826669664"><ele>2.8000000000000003</ele><time>2026-04-19T09:33:17.609Z</time></trkpt><trkpt lat="39.96133784743067" lon="18.027906391153415"><ele>3.4000000000000004</ele><time>2026-04-19T09:33:18.611Z</time></trkpt><trkpt lat="39.96142827055735" lon="18.02788383688441"><ele>4.0</ele><time>2026-04-19T09:33:19.611Z</time></trkpt><trkpt lat="39.96152363077582" lon="18.027838467259187"><ele>4.0</ele><time>2026-04-19T09:33:20.611Z</time></trkpt><trkpt lat="39.96161878303991" lon="18.027771323796433"><ele>4.0</ele><time>2026-04-19T09:33:21.611Z</time></trkpt><trkpt lat="39.96170810610103" lon="18.027690607051568"><ele>4.0</ele><time>2026-04-19T09:33:22.611Z</time></trkpt><trkpt lat="39.96179154134301" lon="18.027594537236723"><ele>4.0</ele><time>2026-04-19T09:33:23.611Z</time></trkpt><trkpt lat="39.96187428071461" lon="18.027484546171053"><ele>4.0</ele><time>2026-04-19T09:33:24.611Z</time></trkpt><trkpt lat="39.961954633358886" lon="18.027388180451286"><ele>4.0</ele><time>2026-04-19T09:33:25.611Z</time></trkpt><trkpt lat="39.96202463070968" lon="18.02730238443839"><ele>4.0</ele><time>2026-04-19T09:33:26.611Z</time></trkpt><trkpt lat="39.96209889922272" lon="18.027224150458707"><ele>4.0</ele><time>2026-04-19T09:33:27.611Z</time></trkpt><trkpt lat="39.962167986441756" lon="18.02715067817067"><ele>4.0</ele><time>2026-04-19T09:33:28.611Z</time></trkpt><trkpt lat="39.96224359894827" lon="18.027083710816083"><ele>4.0</ele><time>2026-04-19T09:33:29.611Z</time></trkpt><trkpt lat="39.96232179708292" lon="18.02702990449878"><ele>4.0</ele><time>2026-04-19T09:33:30.611Z</time></trkpt><trkpt lat="39.962394720395466" lon="18.026971727853365"><ele>4.0</ele><time>2026-04-19T09:33:31.61Z</time></trkpt><trkpt lat="39.96246302503175" lon="18.0269201086997"><ele>4.0</ele><time>2026-04-19T09:33:32.61Z</time></trkpt><trkpt lat="39.96254335021859" lon="18.026870344524994"><ele>4.0</ele><time>2026-04-19T09:33:33.61Z</time></trkpt><trkpt lat="39.96264876992055" lon="18.02680884952425"><ele>4.0</ele><time>2026-04-19T09:33:34.61Z</time></trkpt><trkpt lat="39.962778347501725" lon="18.02673303019009"><ele>3.333333333333333</ele><time>2026-04-19T09:33:35.61Z</time></trkpt><trkpt lat="39.962932634774056" lon="18.026635076463876"><ele>2.6666666666666665</ele><time>2026-04-19T09:33:36.61Z</time></trkpt><trkpt lat="39.96308900052358" lon="18.026538044057983"><ele>2.0</ele><time>2026-04-19T09:33:37.61Z</time></trkpt><trkpt lat="39.9632171539972" lon="18.026446628821862"><ele>2.0</ele><time>2026-04-19T09:33:38.61Z</time></trkpt><trkpt lat="39.96331902155013" lon="18.026343049269165"><ele>2.0</ele><time>2026-04-19T09:33:39.61Z</time></trkpt><trkpt lat="39.96339953549485" lon="18.02623429997545"><ele>2.0</ele><time>2026-04-19T09:33:40.61Z</time></trkpt><trkpt lat="39.96347264234088" lon="18.026139625792585"><ele>2.0</ele><time>2026-04-19T09:33:41.61Z</time></trkpt><trkpt lat="39.96353820559729" lon="18.02603044666679"><ele>2.0</ele><time>2026-04-19T09:33:42.61Z</time></trkpt><trkpt lat="39.963611912293686" lon="18.025939818236132"><ele>2.0</ele><time>2026-04-19T09:33:43.61Z</time></trkpt><trkpt lat="39.96369258631306" lon="18.025846300310032"><ele>2.0</ele><time>2026-04-19T09:33:44.61Z</time></trkpt><trkpt lat="39.96378694618686" lon="18.025782657896745"><ele>2.0</ele><time>2026-04-19T09:33:45.61Z</time></trkpt><trkpt lat="39.96388620997089" lon="18.025719476229636"><ele>2.0</ele><time>2026-04-19T09:33:46.61Z</time></trkpt><trkpt lat="39.96399432613119" lon="18.025687168953304"><ele>1.9999999999999998</ele><time>2026-04-19T09:33:47.61Z</time></trkpt><trkpt lat="39.96408343243263" lon="18.025649455828656"><ele>2.0</ele><time>2026-04-19T09:33:48.61Z</time></trkpt><trkpt lat="39.964162873695074" lon="18.025593482039863"><ele>2.0</ele><time>2026-04-19T09:33:49.61Z</time></trkpt><trkpt lat="39.96423896921553" lon="18.025526747842466"><ele>2.0</ele><time>2026-04-19T09:33:50.61Z</time></trkpt><trkpt lat="39.96431110514652" lon="18.025470532537714"><ele>1.9999999999999998</ele><time>2026-04-19T09:33:51.61Z</time></trkpt><trkpt lat="39.96437993827141" lon="18.025413150047314"><ele>2.0</ele><time>2026-04-19T09:33:52.61Z</time></trkpt><trkpt lat="39.96444523342563" lon="18.02534469778335"><ele>2.8</ele><time>2026-04-19T09:33:53.61Z</time></trkpt><trkpt lat="39.96452165112347" lon="18.025258957007576"><ele>3.6</ele><time>2026-04-19T09:33:54.61Z</time></trkpt><trkpt lat="39.96460565279925" lon="18.025182411941245"><ele>4.3999999999999995</ele><time>2026-04-19T09:33:55.61Z</time></trkpt><trkpt lat="39.96468241629988" lon="18.02510398453405"><ele>5.2</ele><time>2026-04-19T09:33:56.61Z</time></trkpt><trkpt lat="39.964756422763934" lon="18.02503207302414"><ele>6.0</ele><time>2026-04-19T09:33:57.61Z</time></trkpt><trkpt lat="39.96482727464073" lon="18.024967031152958"><ele>6.0</ele><time>2026-04-19T09:33:58.61Z</time></trkpt><trkpt lat="39.96489321529551" lon="18.02490320363303"><ele>6.0</ele><time>2026-04-19T09:33:59.61Z</time></trkpt><trkpt lat="39.96496608901451" lon="18.02483800916107"><ele>6.0</ele><time>2026-04-19T09:34:00.61Z</time></trkpt><trkpt lat="39.96504545954886" lon="18.024762319202132"><ele>6.0</ele><time>2026-04-19T09:34:01.61Z</time></trkpt><trkpt lat="39.965124478002" lon="18.02468236780686"><ele>6.0</ele><time>2026-04-19T09:34:02.61Z</time></trkpt><trkpt lat="39.96520985347127" lon="18.024612133283274"><ele>7.0</ele><time>2026-04-19T09:34:03.61Z</time></trkpt><trkpt lat="39.965295760925926" lon="18.02455152855906"><ele>8.0</ele><time>2026-04-19T09:34:04.61Z</time></trkpt><trkpt lat="39.96538497654082" lon="18.024500442636747"><ele>9.0</ele><time>2026-04-19T09:34:05.61Z</time></trkpt><trkpt lat="39.965476317068074" lon="18.02445278540891"><ele>10.0</ele><time>2026-04-19T09:34:06.61Z</time></trkpt><trkpt lat="39.965565495993076" lon="18.0244112188228"><ele>11.0</ele><time>2026-04-19T09:34:07.61Z</time></trkpt><trkpt lat="39.96564617459983" lon="18.02437364120118"><ele>11.0</ele><time>2026-04-19T09:34:08.61Z</time></trkpt><trkpt lat="39.96572340476367" lon="18.024334683909206"><ele>11.0</ele><time>2026-04-19T09:34:09.61Z</time></trkpt><trkpt lat="39.96580407990471" lon="18.024281579314856"><ele>11.0</ele><time>2026-04-19T09:34:10.61Z</time></trkpt><trkpt lat="39.965892747795614" lon="18.024230744006708"><ele>11.0</ele><time>2026-04-19T09:34:11.61Z</time></trkpt><trkpt lat="39.9659814665826" lon="18.024175908793662"><ele>11.0</ele><time>2026-04-19T09:34:12.61Z</time></trkpt><trkpt lat="39.96606375789307" lon="18.024118992318776"><ele>10.8</ele><time>2026-04-19T09:34:13.61Z</time></trkpt><trkpt lat="39.96614675934219" lon="18.02405894410308"><ele>10.600000000000001</ele><time>2026-04-19T09:34:14.61Z</time></trkpt><trkpt lat="39.966235566561046" lon="18.02399131141392"><ele>10.4</ele><time>2026-04-19T09:34:15.61Z</time></trkpt><trkpt lat="39.96633028258326" lon="18.02391327737014"><ele>10.2</ele><time>2026-04-19T09:34:16.61Z</time></trkpt><trkpt lat="39.96642330071281" lon="18.02382331785196"><ele>10.0</ele><time>2026-04-19T09:34:17.61Z</time></trkpt><trkpt lat="39.966500080991786" lon="18.023753151843994"><ele>10.0</ele><time>2026-04-19T09:34:18.61Z</time></trkpt><trkpt lat="39.96656510741165" lon="18.023681492979897"><ele>10.0</ele><time>2026-04-19T09:34:19.61Z</time></trkpt><trkpt lat="39.96665660226667" lon="18.023632947998767"><ele>10.0</ele><time>2026-04-19T09:34:20.61Z</time></trkpt><trkpt lat="39.96672013153776" lon="18.023550975659788"><ele>10.0</ele><time>2026-04-19T09:34:21.61Z</time></trkpt><trkpt lat="39.96679200104898" lon="18.02347565867452"><ele>10.0</ele><time>2026-04-19T09:34:22.61Z</time></trkpt><trkpt lat="39.9668751277248" lon="18.023388464367965"><ele>9.6</ele><time>2026-04-19T09:34:23.61Z</time></trkpt><trkpt lat="39.966965497438764" lon="18.02330482948463"><ele>9.2</ele><time>2026-04-19T09:34:24.61Z</time></trkpt><trkpt lat="39.96705336719165" lon="18.023219772950803"><ele>8.8</ele><time>2026-04-19T09:34:25.61Z</time></trkpt><trkpt lat="39.96712854292394" lon="18.023134421487388"><ele>8.4</ele><time>2026-04-19T09:34:26.61Z</time></trkpt><trkpt lat="39.9671954542387" lon="18.023056127978855"><ele>8.0</ele><time>2026-04-19T09:34:27.61Z</time></trkpt><trkpt lat="39.96726163145186" lon="18.02297786824726"><ele>8.0</ele><time>2026-04-19T09:34:28.61Z</time></trkpt><trkpt lat="39.9673319864361" lon="18.022893885802276"><ele>8.0</ele><time>2026-04-19T09:34:29.61Z</time></trkpt><trkpt lat="39.96740726203685" lon="18.022819683342306"><ele>8.0</ele><time>2026-04-19T09:34:30.61Z</time></trkpt><trkpt lat="39.967488658343086" lon="18.022737006010562"><ele>8.0</ele><time>2026-04-19T09:34:31.61Z</time></trkpt><trkpt lat="39.967563466945826" lon="18.022644845014046"><ele>8.0</ele><time>2026-04-19T09:34:32.61Z</time></trkpt><trkpt lat="39.96763576621771" lon="18.02256186634281"><ele>8.200000000000001</ele><time>2026-04-19T09:34:33.61Z</time></trkpt><trkpt lat="39.96771009160022" lon="18.022481743234408"><ele>8.4</ele><time>2026-04-19T09:34:34.61Z</time></trkpt><trkpt lat="39.967783452242145" lon="18.022404485903767"><ele>8.600000000000001</ele><time>2026-04-19T09:34:35.61Z</time></trkpt><trkpt lat="39.9678551473638" lon="18.022332405034394"><ele>8.8</ele><time>2026-04-19T09:34:36.61Z</time></trkpt><trkpt lat="39.96792484034936" lon="18.02225780190115"><ele>9.0</ele><time>2026-04-19T09:34:37.61Z</time></trkpt><trkpt lat="39.96799667260193" lon="18.022182522899765"><ele>9.0</ele><time>2026-04-19T09:34:38.61Z</time></trkpt><trkpt lat="39.96807209701416" lon="18.022101794812343"><ele>9.0</ele><time>2026-04-19T09:34:39.61Z</time></trkpt><trkpt lat="39.96814535670641" lon="18.022020900833912"><ele>9.0</ele><time>2026-04-19T09:34:40.61Z</time></trkpt><trkpt lat="39.96822300930091" lon="18.02193393001944"><ele>9.0</ele><time>2026-04-19T09:34:41.61Z</time></trkpt><trkpt lat="39.96827705373446" lon="18.02187432975411"><ele>9.0</ele><time>2026-04-19T09:34:42.61Z</time></trkpt><trkpt lat="39.9683340344774" lon="18.021818037741827"><ele>9.0</ele><time>2026-04-19T09:34:43.61Z</time></trkpt><trkpt lat="39.968388101161416" lon="18.021769381959206"><ele>9.166666666666666</ele><time>2026-04-19T09:34:44.61Z</time></trkpt><trkpt lat="39.9684387429378" lon="18.02171126538944"><ele>9.333333333333334</ele><time>2026-04-19T09:34:45.61Z</time></trkpt><trkpt lat="39.96849251863019" lon="18.021654909252646"><ele>9.5</ele><time>2026-04-19T09:34:46.61Z</time></trkpt><trkpt lat="39.96855543442798" lon="18.02160975341157"><ele>9.666666666666668</ele><time>2026-04-19T09:34:47.61Z</time></trkpt><trkpt lat="39.96861702059741" lon="18.021535831772923"><ele>9.833333333333334</ele><time>2026-04-19T09:34:49.61Z</time></trkpt><trkpt lat="39.968671950210535" lon="18.021474612013378"><ele>10.0</ele><time>2026-04-19T09:34:51.61Z</time></trkpt><trkpt lat="39.968754454472915" lon="18.021378901469753"><ele>9.6</ele><time>2026-04-19T09:34:53.61Z</time></trkpt><trkpt lat="39.96885090670564" lon="18.02127364076488"><ele>9.2</ele><time>2026-04-19T09:34:55.61Z</time></trkpt><trkpt lat="39.96890947059949" lon="18.021217714286998"><ele>8.8</ele><time>2026-04-19T09:34:56.61Z</time></trkpt><trkpt lat="39.9689935904833" lon="18.021125562941513"><ele>8.4</ele><time>2026-04-19T09:34:58.61Z</time></trkpt><trkpt lat="39.96907442115166" lon="18.021044692520295"><ele>8.0</ele><time>2026-04-19T09:35:00.61Z</time></trkpt><trkpt lat="39.96917406528016" lon="18.020935878613074"><ele>8.166666666666666</ele><time>2026-04-19T09:35:02.61Z</time></trkpt><trkpt lat="39.96922897618987" lon="18.02087687632163"><ele>8.333333333333332</ele><time>2026-04-19T09:35:03.61Z</time></trkpt><trkpt lat="39.96928119142199" lon="18.020810051616664"><ele>8.5</ele><time>2026-04-19T09:35:04.61Z</time></trkpt><trkpt lat="39.96934403246357" lon="18.02074124576232"><ele>8.666666666666666</ele><time>2026-04-19T09:35:05.61Z</time></trkpt><trkpt lat="39.96940917737177" lon="18.02066417380073"><ele>8.833333333333334</ele><time>2026-04-19T09:35:06.61Z</time></trkpt><trkpt lat="39.969467039638666" lon="18.02057717441845"><ele>9.0</ele><time>2026-04-19T09:35:07.61Z</time></trkpt><trkpt lat="39.969518082416236" lon="18.020481764171738"><ele>9.0</ele><time>2026-04-19T09:35:08.61Z</time></trkpt><trkpt lat="39.969547363604285" lon="18.02038112228281"><ele>9.0</ele><time>2026-04-19T09:35:09.61Z</time></trkpt><trkpt lat="39.96956738886832" lon="18.02029234809656"><ele>9.0</ele><time>2026-04-19T09:35:10.61Z</time></trkpt><trkpt lat="39.969576177035435" lon="18.020198092107993"><ele>9.0</ele><time>2026-04-19T09:35:11.61Z</time></trkpt><trkpt lat="39.96958964280567" lon="18.02006382323056"><ele>9.0</ele><time>2026-04-19T09:35:12.609Z</time></trkpt><trkpt lat="39.96963461155853" lon="18.019886474878408"><ele>8.666666666666666</ele><time>2026-04-19T09:35:13.609Z</time></trkpt><trkpt lat="39.96968668390577" lon="18.019675134254186"><ele>8.333333333333332</ele><time>2026-04-19T09:35:14.609Z</time></trkpt><trkpt lat="39.969740965324036" lon="18.019459459125954"><ele>8.0</ele><time>2026-04-19T09:35:15.61Z</time></trkpt><trkpt lat="39.96978466653745" lon="18.019265717546784"><ele>8.0</ele><time>2026-04-19T09:35:16.61Z</time></trkpt><trkpt lat="39.96981972338628" lon="18.01910655071575"><ele>8.0</ele><time>2026-04-19T09:35:17.609Z</time></trkpt><trkpt lat="39.96984965790817" lon="18.018949666232228"><ele>8.0</ele><time>2026-04-19T09:35:18.61Z</time></trkpt><trkpt lat="39.96989323161045" lon="18.018782961059944"><ele>8.0</ele><time>2026-04-19T09:35:19.61Z</time></trkpt><trkpt lat="39.96992722960827" lon="18.018642581813925"><ele>8.0</ele><time>2026-04-19T09:35:20.609Z</time></trkpt><trkpt lat="39.96997229957513" lon="18.018507118639825"><ele>8.0</ele><time>2026-04-19T09:35:21.61Z</time></trkpt><trkpt lat="39.970039551336164" lon="18.01838057624559"><ele>8.0</ele><time>2026-04-19T09:35:22.61Z</time></trkpt><trkpt lat="39.97012153143525" lon="18.01825951474321"><ele>8.0</ele><time>2026-04-19T09:35:23.61Z</time></trkpt><trkpt lat="39.97023640841628" lon="18.018164911559637"><ele>7.75</ele><time>2026-04-19T09:35:24.61Z</time></trkpt><trkpt lat="39.97034649876341" lon="18.018075773595836"><ele>7.5</ele><time>2026-04-19T09:35:25.61Z</time></trkpt><trkpt lat="39.970445367016374" lon="18.017992674524795"><ele>7.25</ele><time>2026-04-19T09:35:26.61Z</time></trkpt><trkpt lat="39.970533784259" lon="18.017929009601858"><ele>7.0</ele><time>2026-04-19T09:35:27.61Z</time></trkpt><trkpt lat="39.97061961234863" lon="18.0178506954215"><ele>7.0</ele><time>2026-04-19T09:35:28.61Z</time></trkpt><trkpt lat="39.9706991177296" lon="18.01777999227596"><ele>6.999999999999999</ele><time>2026-04-19T09:35:29.61Z</time></trkpt><trkpt lat="39.97077959603931" lon="18.017716629153412"><ele>6.999999999999999</ele><time>2026-04-19T09:35:30.61Z</time></trkpt><trkpt lat="39.970861458729395" lon="18.01765926696389"><ele>7.0</ele><time>2026-04-19T09:35:31.61Z</time></trkpt><trkpt lat="39.97093781616532" lon="18.01759835243603"><ele>7.0</ele><time>2026-04-19T09:35:32.61Z</time></trkpt><trkpt lat="39.971023878272526" lon="18.01754569655222"><ele>7.0</ele><time>2026-04-19T09:35:33.61Z</time></trkpt><trkpt lat="39.97111593508096" lon="18.017486819000332"><ele>6.999999999999999</ele><time>2026-04-19T09:35:34.61Z</time></trkpt><trkpt lat="39.97120049381411" lon="18.01743322334761"><ele>6.999999999999999</ele><time>2026-04-19T09:35:35.61Z</time></trkpt><trkpt lat="39.97128392539359" lon="18.01739628905306"><ele>7.0</ele><time>2026-04-19T09:35:36.61Z</time></trkpt><trkpt lat="39.971352092467654" lon="18.017363865498808"><ele>7.0</ele><time>2026-04-19T09:35:37.61Z</time></trkpt><trkpt lat="39.971474546041065" lon="18.01734176626491"><ele>7.0</ele><time>2026-04-19T09:35:39.61Z</time></trkpt><trkpt lat="39.9715636787209" lon="18.01728888542455"><ele>7.0</ele><time>2026-04-19T09:35:41.61Z</time></trkpt><trkpt lat="39.97161656341486" lon="18.017160725978247"><ele>7.0</ele><time>2026-04-19T09:35:43.61Z</time></trkpt><trkpt lat="39.97168919740886" lon="18.017030761210055"><ele>7.0</ele><time>2026-04-19T09:35:45.61Z</time></trkpt><trkpt lat="39.97179382943748" lon="18.016921225719027"><ele>7.166666666666667</ele><time>2026-04-19T09:35:47.61Z</time></trkpt><trkpt lat="39.97184505958884" lon="18.016871178567307"><ele>7.333333333333334</ele><time>2026-04-19T09:35:48.61Z</time></trkpt><trkpt lat="39.97189776482627" lon="18.016823624026042"><ele>7.5</ele><time>2026-04-19T09:35:49.61Z</time></trkpt><trkpt lat="39.97195173580377" lon="18.016775713328723"><ele>7.666666666666666</ele><time>2026-04-19T09:35:50.61Z</time></trkpt><trkpt lat="39.97205185918116" lon="18.016689498821766"><ele>7.833333333333333</ele><time>2026-04-19T09:35:52.61Z</time></trkpt><trkpt lat="39.97215153480562" lon="18.016607939599105"><ele>8.0</ele><time>2026-04-19T09:35:54.61Z</time></trkpt><trkpt lat="39.97221578127234" lon="18.01655085857264"><ele>8.0</ele><time>2026-04-19T09:35:55.61Z</time></trkpt><trkpt lat="39.97229665093756" lon="18.01648280165718"><ele>8.0</ele><time>2026-04-19T09:35:56.61Z</time></trkpt><trkpt lat="39.97239493913295" lon="18.016397539960924"><ele>8.0</ele><time>2026-04-19T09:35:57.61Z</time></trkpt><trkpt lat="39.97249682594084" lon="18.01630671445729"><ele>8.0</ele><time>2026-04-19T09:35:58.61Z</time></trkpt><trkpt lat="39.972595774126916" lon="18.016211306926436"><ele>8.200000000000001</ele><time>2026-04-19T09:35:59.61Z</time></trkpt><trkpt lat="39.97267140646016" lon="18.016115189592654"><ele>8.4</ele><time>2026-04-19T09:36:00.61Z</time></trkpt><trkpt lat="39.9727174682507" lon="18.01603014033707"><ele>8.600000000000001</ele><time>2026-04-19T09:36:01.61Z</time></trkpt><trkpt lat="39.97279649200591" lon="18.01595130018391"><ele>8.8</ele><time>2026-04-19T09:36:03.61Z</time></trkpt><trkpt lat="39.972922407577414" lon="18.015913372450893"><ele>9.0</ele><time>2026-04-19T09:36:05.61Z</time></trkpt><trkpt lat="39.97299218098866" lon="18.015908031359682"><ele>9.0</ele><time>2026-04-19T09:36:06.61Z</time></trkpt><trkpt lat="39.97306328486388" lon="18.015913013856764"><ele>9.0</ele><time>2026-04-19T09:36:07.61Z</time></trkpt><trkpt lat="39.97318048535628" lon="18.01588809104442"><ele>9.0</ele><time>2026-04-19T09:36:08.61Z</time></trkpt><trkpt lat="39.97324520015613" lon="18.015882912066782"><ele>9.0</ele><time>2026-04-19T09:36:09.61Z</time></trkpt><trkpt lat="39.97328972764033" lon="18.015807172514336"><ele>9.0</ele><time>2026-04-19T09:36:11.61Z</time></trkpt><trkpt lat="39.973208806234666" lon="18.015761368873907"><ele>9.0</ele><time>2026-04-19T09:36:14.61Z</time></trkpt><trkpt lat="39.97311401234737" lon="18.01583072017348"><ele>8.6</ele><time>2026-04-19T09:36:16.61Z</time></trkpt><trkpt lat="39.973045354638515" lon="18.01579291261384"><ele>8.2</ele><time>2026-04-19T09:36:18.61Z</time></trkpt><trkpt lat="39.97300455788385" lon="18.01572146344929"><ele>7.799999999999999</ele><time>2026-04-19T09:36:19.61Z</time></trkpt><trkpt lat="39.972973019930265" lon="18.01560442281018"><ele>7.3999999999999995</ele><time>2026-04-19T09:36:20.61Z</time></trkpt><trkpt lat="39.97292465739179" lon="18.015478618711878"><ele>7.0</ele><time>2026-04-19T09:36:21.61Z</time></trkpt><trkpt lat="39.97286804768238" lon="18.015339573768667"><ele>7.0</ele><time>2026-04-19T09:36:22.61Z</time></trkpt><trkpt lat="39.97281356303242" lon="18.015181209132955"><ele>7.0</ele><time>2026-04-19T09:36:23.61Z</time></trkpt><trkpt lat="39.9727538055275" lon="18.015009182979718"><ele>7.0</ele><time>2026-04-19T09:36:24.61Z</time></trkpt><trkpt lat="39.97269602623945" lon="18.01483940921116"><ele>7.0</ele><time>2026-04-19T09:36:25.61Z</time></trkpt><trkpt lat="39.972638380675676" lon="18.014683813424302"><ele>6.25</ele><time>2026-04-19T09:36:26.61Z</time></trkpt><trkpt lat="39.97258558043876" lon="18.014523928670457"><ele>5.5</ele><time>2026-04-19T09:36:27.61Z</time></trkpt><trkpt lat="39.97255620674293" lon="18.01434585647532"><ele>4.75</ele><time>2026-04-19T09:36:28.61Z</time></trkpt><trkpt lat="39.97252427768981" lon="18.014177875416337"><ele>4.0</ele><time>2026-04-19T09:36:29.61Z</time></trkpt><trkpt lat="39.97250207467709" lon="18.014034931520747"><ele>3.5</ele><time>2026-04-19T09:36:30.61Z</time></trkpt><trkpt lat="39.97248794229416" lon="18.013918541849986"><ele>3.0</ele><time>2026-04-19T09:36:31.609Z</time></trkpt><trkpt lat="39.97249314212068" lon="18.013818511465487"><ele>2.5</ele><time>2026-04-19T09:36:33.609Z</time></trkpt><trkpt lat="39.97242360217144" lon="18.013683261905765"><ele>2.0</ele><time>2026-04-19T09:36:35.609Z</time></trkpt><trkpt lat="39.9721488011724" lon="18.014022041058233"><ele>2.0</ele><time>2026-04-19T09:36:36.609Z</time></trkpt><trkpt lat="39.97209260921947" lon="18.013921229960747"><ele>2.0</ele><time>2026-04-19T09:36:37.609Z</time></trkpt><trkpt lat="39.97203528155313" lon="18.01380307624478"><ele>2.0</ele><time>2026-04-19T09:36:38.609Z</time></trkpt><trkpt lat="39.971969119955276" lon="18.013683812813973"><ele>2.0</ele><time>2026-04-19T09:36:39.609Z</time></trkpt><trkpt lat="39.97190239816822" lon="18.013572845352396"><ele>2.0</ele><time>2026-04-19T09:36:40.609Z</time></trkpt><trkpt lat="39.971849797539804" lon="18.013475600083357"><ele>1.9999999999999998</ele><time>2026-04-19T09:36:41.609Z</time></trkpt><trkpt lat="39.971802349649174" lon="18.013379070840934"><ele>2.0</ele><time>2026-04-19T09:36:42.609Z</time></trkpt><trkpt lat="39.97176025029624" lon="18.013289453413716"><ele>2.0</ele><time>2026-04-19T09:36:43.609Z</time></trkpt><trkpt lat="39.971715459541656" lon="18.01321483825811"><ele>2.0</ele><time>2026-04-19T09:36:44.609Z</time></trkpt><trkpt lat="39.97167746981142" lon="18.013140852373503"><ele>1.9999999999999998</ele><time>2026-04-19T09:36:45.609Z</time></trkpt><trkpt lat="39.97163559504992" lon="18.01302697949453"><ele>2.0</ele><time>2026-04-19T09:36:47.609Z</time></trkpt><trkpt lat="39.971686815405114" lon="18.012936422301415"><ele>1.4000000000000001</ele><time>2026-04-19T09:36:50.609Z</time></trkpt><trkpt lat="39.97179463146267" lon="18.012889453684963"><ele>0.8000000000000002</ele><time>2026-04-19T09:36:52.609Z</time></trkpt><trkpt lat="39.971899440149244" lon="18.01284581229221"><ele>0.19999999999999996</ele><time>2026-04-19T09:36:54.609Z</time></trkpt><trkpt lat="39.97197540099375" lon="18.01280301804554"><ele>-0.4</ele><time>2026-04-19T09:36:56.609Z</time></trkpt><trkpt lat="39.97205074167388" lon="18.01276347259928"><ele>-1.0</ele><time>2026-04-19T09:36:58.609Z</time></trkpt><trkpt lat="39.97211290581744" lon="18.012738259014647"><ele>-1.0</ele><time>2026-04-19T09:37:00.609Z</time></trkpt><trkpt lat="39.972215946337066" lon="18.012669757790057"><ele>-1.0</ele><time>2026-04-19T09:37:02.609Z</time></trkpt><trkpt lat="39.97227153974499" lon="18.012619853248772"><ele>-1.0</ele><time>2026-04-19T09:37:04.609Z</time></trkpt><trkpt lat="39.97235810873365" lon="18.012564950759305"><ele>-1.0</ele><time>2026-04-19T09:37:06.609Z</time></trkpt><trkpt lat="39.972471516503234" lon="18.012528076065365"><ele>-1.0</ele><time>2026-04-19T09:37:09.609Z</time></trkpt><trkpt lat="39.97257860331091" lon="18.012503193639805"><ele>-0.8571428571428571</ele><time>2026-04-19T09:37:11.609Z</time></trkpt><trkpt lat="39.97264445460608" lon="18.012501368543127"><ele>-0.7142857142857142</ele><time>2026-04-19T09:37:12.609Z</time></trkpt><trkpt lat="39.97271230805758" lon="18.012489506442666"><ele>-0.5714285714285714</ele><time>2026-04-19T09:37:13.609Z</time></trkpt><trkpt lat="39.972774767877226" lon="18.012474421293295"><ele>-0.42857142857142855</ele><time>2026-04-19T09:37:14.609Z</time></trkpt><trkpt lat="39.97283918717864" lon="18.012446829172912"><ele>-0.2857142857142857</ele><time>2026-04-19T09:37:15.609Z</time></trkpt><trkpt lat="39.97290918383788" lon="18.01241613431149"><ele>-0.14285714285714285</ele><time>2026-04-19T09:37:16.609Z</time></trkpt><trkpt lat="39.97297707617477" lon="18.012368082809807"><ele>0.0</ele><time>2026-04-19T09:37:17.608Z</time></trkpt><trkpt lat="39.973034642792896" lon="18.012332912079444"><ele>0.0</ele><time>2026-04-19T09:37:18.608Z</time></trkpt><trkpt lat="39.973130409526995" lon="18.01226205698605"><ele>0.0</ele><time>2026-04-19T09:37:20.609Z</time></trkpt><trkpt lat="39.97324876990275" lon="18.012198109354717"><ele>0.0</ele><time>2026-04-19T09:37:22.609Z</time></trkpt><trkpt lat="39.9733098629443" lon="18.01216464802703"><ele>0.0</ele><time>2026-04-19T09:37:23.609Z</time></trkpt><trkpt lat="39.9733708402199" lon="18.012133313362273"><ele>0.0</ele><time>2026-04-19T09:37:24.609Z</time></trkpt><trkpt lat="39.97343249863844" lon="18.012096459160354"><ele>0.0</ele><time>2026-04-19T09:37:25.609Z</time></trkpt><trkpt lat="39.97349398989288" lon="18.0120620300487"><ele>0.3333333333333333</ele><time>2026-04-19T09:37:26.608Z</time></trkpt><trkpt lat="39.97356201342321" lon="18.01202157316638"><ele>0.6666666666666666</ele><time>2026-04-19T09:37:27.609Z</time></trkpt><trkpt lat="39.973630866719624" lon="18.011981077644105"><ele>1.0</ele><time>2026-04-19T09:37:28.609Z</time></trkpt><trkpt lat="39.973701686863684" lon="18.011925159900276"><ele>1.3333333333333333</ele><time>2026-04-19T09:37:29.609Z</time></trkpt><trkpt lat="39.973778565972154" lon="18.011881921905424"><ele>1.6666666666666665</ele><time>2026-04-19T09:37:30.609Z</time></trkpt><trkpt lat="39.97386205600125" lon="18.011838402358297"><ele>2.0</ele><time>2026-04-19T09:37:31.609Z</time></trkpt><trkpt lat="39.97395075644094" lon="18.011789431796526"><ele>2.0</ele><time>2026-04-19T09:37:32.609Z</time></trkpt><trkpt lat="39.97404761064861" lon="18.011726983526753"><ele>2.0</ele><time>2026-04-19T09:37:33.609Z</time></trkpt><trkpt lat="39.9741566217028" lon="18.01165208100307"><ele>2.0</ele><time>2026-04-19T09:37:34.609Z</time></trkpt><trkpt lat="39.97425475184848" lon="18.011591641748822"><ele>2.0</ele><time>2026-04-19T09:37:35.609Z</time></trkpt><trkpt lat="39.97434629520746" lon="18.011528206613058"><ele>2.0</ele><time>2026-04-19T09:37:36.609Z</time></trkpt><trkpt lat="39.97442750597209" lon="18.01147450607401"><ele>2.0</ele><time>2026-04-19T09:37:37.609Z</time></trkpt><trkpt lat="39.97450934993961" lon="18.011422830693917"><ele>2.0</ele><time>2026-04-19T09:37:38.609Z</time></trkpt><trkpt lat="39.974580713043245" lon="18.011385390281102"><ele>2.0</ele><time>2026-04-19T09:37:39.609Z</time></trkpt><trkpt lat="39.974644809826124" lon="18.011339862734054"><ele>2.0</ele><time>2026-04-19T09:37:40.609Z</time></trkpt><trkpt lat="39.97474018432963" lon="18.011271955706786"><ele>2.0</ele><time>2026-04-19T09:37:42.609Z</time></trkpt><trkpt lat="39.974851915759" lon="18.01117917031751"><ele>1.9999999999999998</ele><time>2026-04-19T09:37:44.609Z</time></trkpt><trkpt lat="39.974924321341625" lon="18.011119126537544"><ele>2.0</ele><time>2026-04-19T09:37:45.609Z</time></trkpt><trkpt lat="39.974995956208296" lon="18.01106468562708"><ele>2.0</ele><time>2026-04-19T09:37:46.609Z</time></trkpt><trkpt lat="39.97506732962155" lon="18.011030212167572"><ele>2.0</ele><time>2026-04-19T09:37:47.609Z</time></trkpt><trkpt lat="39.97514006220864" lon="18.010990397364285"><ele>1.9999999999999998</ele><time>2026-04-19T09:37:48.609Z</time></trkpt><trkpt lat="39.975201803266806" lon="18.010953644109893"><ele>2.0</ele><time>2026-04-19T09:37:49.609Z</time></trkpt><trkpt lat="39.975261893809765" lon="18.01091364553303"><ele>2.0</ele><time>2026-04-19T09:37:50.609Z</time></trkpt><trkpt lat="39.97537220256372" lon="18.010856364033096"><ele>2.0</ele><time>2026-04-19T09:37:52.609Z</time></trkpt><trkpt lat="39.97545764119773" lon="18.010786274260344"><ele>2.0</ele><time>2026-04-19T09:37:54.609Z</time></trkpt><trkpt lat="39.97555809741933" lon="18.01073629144824"><ele>2.0</ele><time>2026-04-19T09:37:56.609Z</time></trkpt><trkpt lat="39.975650675631094" lon="18.010677337144458"><ele>2.0</ele><time>2026-04-19T09:37:58.609Z</time></trkpt><trkpt lat="39.975699083550374" lon="18.01061315430072"><ele>1.8333333333333333</ele><time>2026-04-19T09:38:00.609Z</time></trkpt><trkpt lat="39.97577068357131" lon="18.010576013450564"><ele>1.6666666666666665</ele><time>2026-04-19T09:38:02.609Z</time></trkpt><trkpt lat="39.97583025978454" lon="18.010491530873942"><ele>1.5</ele><time>2026-04-19T09:38:05.609Z</time></trkpt><trkpt lat="39.97587381343005" lon="18.01039896585816"><ele>1.3333333333333333</ele><time>2026-04-19T09:38:07.609Z</time></trkpt><trkpt lat="39.97592029708208" lon="18.010312787938677"><ele>1.1666666666666665</ele><time>2026-04-19T09:38:09.609Z</time></trkpt><trkpt lat="39.97594334039547" lon="18.01022519996645"><ele>1.0</ele><time>2026-04-19T09:38:11.609Z</time></trkpt><trkpt lat="39.97594445040999" lon="18.010133414356403"><ele>0.9999999999999999</ele><time>2026-04-19T09:38:13.609Z</time></trkpt><trkpt lat="39.97596185988611" lon="18.01005083479313"><ele>1.0</ele><time>2026-04-19T09:38:15.609Z</time></trkpt><trkpt lat="39.975983581345325" lon="18.009967895300758"><ele>1.0</ele><time>2026-04-19T09:38:18.609Z</time></trkpt><trkpt lat="39.976034751036416" lon="18.00984398746174"><ele>1.0</ele><time>2026-04-19T09:38:20.609Z</time></trkpt><trkpt lat="39.976064408909764" lon="18.0097497669318"><ele>0.9999999999999999</ele><time>2026-04-19T09:38:22.609Z</time></trkpt><trkpt lat="39.976103154731284" lon="18.009644508522392"><ele>1.0</ele><time>2026-04-19T09:38:25.609Z</time></trkpt><trkpt lat="39.976137746453084" lon="18.009575480262892"><ele>1.0</ele><time>2026-04-19T09:38:28.609Z</time></trkpt><trkpt lat="39.97616974572566" lon="18.009503956428734"><ele>1.0</ele><time>2026-04-19T09:38:30.609Z</time></trkpt><trkpt lat="39.976173188281265" lon="18.009421232322662"><ele>1.0</ele><time>2026-04-19T09:38:33.609Z</time></trkpt></trkseg><trkseg><trkpt lat="39.97623706704229" lon="18.00945921147228"><ele>0.9999999999999999</ele><time>2026-04-19T09:53:59.605Z</time></trkpt><trkpt lat="39.97630990386703" lon="18.00944965733375"><ele>1.0</ele><time>2026-04-19T09:54:03.605Z</time></trkpt><trkpt lat="39.9763754815769" lon="18.0094486197037"><ele>1.0</ele><time>2026-04-19T09:54:05.603Z</time></trkpt><trkpt lat="39.976465031930985" lon="18.009462274337892"><ele>1.0</ele><time>2026-04-19T09:54:08.603Z</time></trkpt><trkpt lat="39.97651696365393" lon="18.00954624668085"><ele>0.9999999999999999</ele><time>2026-04-19T09:54:11.603Z</time></trkpt><trkpt lat="39.97655303738075" lon="18.009640192920962"><ele>1.0</ele><time>2026-04-19T09:54:14.604Z</time></trkpt><trkpt lat="39.97661593435115" lon="18.00967210647157"><ele>1.3333333333333333</ele><time>2026-04-19T09:54:17.603Z</time></trkpt><trkpt lat="39.97669108502792" lon="18.00967911044603"><ele>1.6666666666666665</ele><time>2026-04-19T09:54:30.603Z</time></trkpt><trkpt lat="39.976756605256824" lon="18.00969435868471"><ele>2.0</ele><time>2026-04-19T09:54:33.603Z</time></trkpt><trkpt lat="39.97682413007556" lon="18.009667691659"><ele>2.3333333333333335</ele><time>2026-04-19T09:54:36.603Z</time></trkpt><trkpt lat="39.97689985843062" lon="18.00962765166851"><ele>2.6666666666666665</ele><time>2026-04-19T09:54:39.603Z</time></trkpt><trkpt lat="39.976981234238856" lon="18.009625075175766"><ele>3.0</ele><time>2026-04-19T09:54:42.603Z</time></trkpt><trkpt lat="39.977059238328884" lon="18.009630519665304"><ele>2.9999999999999996</ele><time>2026-04-19T09:54:45.603Z</time></trkpt><trkpt lat="39.97713063425426" lon="18.00966069619682"><ele>3.0</ele><time>2026-04-19T09:55:04.602Z</time></trkpt><trkpt lat="39.977194629020715" lon="18.009689196230568"><ele>3.0</ele><time>2026-04-19T09:55:10.602Z</time></trkpt><trkpt lat="39.97725295998773" lon="18.009723418263857"><ele>3.0</ele><time>2026-04-19T09:55:16.602Z</time></trkpt><trkpt lat="39.977314381546705" lon="18.009746355194867"><ele>3.0</ele><time>2026-04-19T09:55:22.602Z</time></trkpt><trkpt lat="39.97738884287448" lon="18.009759244243376"><ele>2.9999999999999996</ele><time>2026-04-19T09:55:27.602Z</time></trkpt><trkpt lat="39.977460145238226" lon="18.0097612223657"><ele>3.0</ele><time>2026-04-19T09:55:29.602Z</time></trkpt><trkpt lat="39.977547230447186" lon="18.00975785657333"><ele>3.2857142857142856</ele><time>2026-04-19T09:55:31.602Z</time></trkpt><trkpt lat="39.97761143298002" lon="18.009753199522184"><ele>3.571428571428571</ele><time>2026-04-19T09:55:33.602Z</time></trkpt><trkpt lat="39.97767446574443" lon="18.009739724171794"><ele>3.8571428571428568</ele><time>2026-04-19T09:55:37.602Z</time></trkpt><trkpt lat="39.97774268990863" lon="18.009699833604667"><ele>4.142857142857142</ele><time>2026-04-19T09:55:40.602Z</time></trkpt><trkpt lat="39.97782001820684" lon="18.009688770763063"><ele>4.428571428571429</ele><time>2026-04-19T09:55:44.602Z</time></trkpt><trkpt lat="39.9778816479473" lon="18.009658006385873"><ele>4.714285714285714</ele><time>2026-04-19T09:55:47.602Z</time></trkpt><trkpt lat="39.97794919907839" lon="18.009641254680407"><ele>5.0</ele><time>2026-04-19T09:55:51.602Z</time></trkpt><trkpt lat="39.97799462244758" lon="18.009733264908945"><ele>5.0</ele><time>2026-04-19T09:55:55.602Z</time></trkpt><trkpt lat="39.97804592201305" lon="18.009849863997797"><ele>5.0</ele><time>2026-04-19T09:55:58.602Z</time></trkpt><trkpt lat="39.97808762354126" lon="18.009953198104665"><ele>5.0</ele><time>2026-04-19T09:56:00.602Z</time></trkpt><trkpt lat="39.97813736243487" lon="18.01007103509742"><ele>5.0</ele><time>2026-04-19T09:56:02.602Z</time></trkpt><trkpt lat="39.97819231487893" lon="18.010207094957913"><ele>5.0</ele><time>2026-04-19T09:56:04.602Z</time></trkpt><trkpt lat="39.97824591567155" lon="18.010332814975413"><ele>5.0</ele><time>2026-04-19T09:56:06.602Z</time></trkpt><trkpt lat="39.97828096361521" lon="18.010409550631834"><ele>5.0</ele><time>2026-04-19T09:56:07.602Z</time></trkpt><trkpt lat="39.97832022536544" lon="18.010521272370458"><ele>5.0</ele><time>2026-04-19T09:56:09.602Z</time></trkpt><trkpt lat="39.9783722861399" lon="18.010634414527164"><ele>5.0</ele><time>2026-04-19T09:56:11.601Z</time></trkpt><trkpt lat="39.97840997625723" lon="18.01073153494254"><ele>5.0</ele><time>2026-04-19T09:56:13.601Z</time></trkpt><trkpt lat="39.978442138555614" lon="18.01081953995153"><ele>5.0</ele><time>2026-04-19T09:56:15.601Z</time></trkpt><trkpt lat="39.97847306951697" lon="18.010898961400034"><ele>5.333333333333334</ele><time>2026-04-19T09:56:17.6Z</time></trkpt><trkpt lat="39.978512887013686" lon="18.010971326104617"><ele>5.666666666666667</ele><time>2026-04-19T09:56:19.601Z</time></trkpt><trkpt lat="39.9785609156149" lon="18.011097601141614"><ele>6.0</ele><time>2026-04-19T09:56:21.601Z</time></trkpt><trkpt lat="39.978598793971024" lon="18.01121822234884"><ele>6.333333333333334</ele><time>2026-04-19T09:56:23.601Z</time></trkpt><trkpt lat="39.97864165977712" lon="18.011337941112313"><ele>6.666666666666667</ele><time>2026-04-19T09:56:25.601Z</time></trkpt><trkpt lat="39.97867983634571" lon="18.011414374250972"><ele>7.0</ele><time>2026-04-19T09:56:26.601Z</time></trkpt><trkpt lat="39.97871844397761" lon="18.011530000960914"><ele>7.0</ele><time>2026-04-19T09:56:27.601Z</time></trkpt><trkpt lat="39.97876667467362" lon="18.011652895580717"><ele>6.999999999999999</ele><time>2026-04-19T09:56:28.601Z</time></trkpt><trkpt lat="39.978812779841824" lon="18.011787369080075"><ele>6.999999999999999</ele><time>2026-04-19T09:56:29.601Z</time></trkpt><trkpt lat="39.97886576375281" lon="18.01192446380059"><ele>7.0</ele><time>2026-04-19T09:56:30.601Z</time></trkpt><trkpt lat="39.97891349969547" lon="18.012055523841553"><ele>7.0</ele><time>2026-04-19T09:56:31.601Z</time></trkpt><trkpt lat="39.9789682840829" lon="18.012172218328633"><ele>7.333333333333334</ele><time>2026-04-19T09:56:32.601Z</time></trkpt><trkpt lat="39.979012539013475" lon="18.012283349354767"><ele>7.666666666666667</ele><time>2026-04-19T09:56:33.601Z</time></trkpt><trkpt lat="39.979050494537844" lon="18.01237804827513"><ele>8.0</ele><time>2026-04-19T09:56:34.601Z</time></trkpt><trkpt lat="39.97908048787612" lon="18.012462468796716"><ele>8.333333333333334</ele><time>2026-04-19T09:56:35.601Z</time></trkpt><trkpt lat="39.97911904648378" lon="18.012555729406152"><ele>8.666666666666666</ele><time>2026-04-19T09:56:37.601Z</time></trkpt><trkpt lat="39.97909793317625" lon="18.012633154552514"><ele>9.0</ele><time>2026-04-19T09:56:40.601Z</time></trkpt><trkpt lat="39.9790455582571" lon="18.012733007275312"><ele>9.2</ele><time>2026-04-19T09:56:42.601Z</time></trkpt><trkpt lat="39.979049407259296" lon="18.01281772942578"><ele>9.4</ele><time>2026-04-19T09:56:44.601Z</time></trkpt><trkpt lat="39.97913763726402" lon="18.012899181148267"><ele>9.6</ele><time>2026-04-19T09:56:58.601Z</time></trkpt><trkpt lat="39.979269171554854" lon="18.012927501124715"><ele>9.8</ele><time>2026-04-19T09:57:00.601Z</time></trkpt><trkpt lat="39.97937415983851" lon="18.012923235025767"><ele>10.0</ele><time>2026-04-19T09:57:01.601Z</time></trkpt><trkpt lat="39.97948556757488" lon="18.0129301257814"><ele>10.0</ele><time>2026-04-19T09:57:02.601Z</time></trkpt><trkpt lat="39.9796311653011" lon="18.012970881148618"><ele>10.0</ele><time>2026-04-19T09:57:03.601Z</time></trkpt><trkpt lat="39.97980069318156" lon="18.013019688202682"><ele>10.0</ele><time>2026-04-19T09:57:04.601Z</time></trkpt><trkpt lat="39.979966078176325" lon="18.013080086916393"><ele>10.0</ele><time>2026-04-19T09:57:05.601Z</time></trkpt><trkpt lat="39.98013453811669" lon="18.01316815505587"><ele>10.0</ele><time>2026-04-19T09:57:06.601Z</time></trkpt><trkpt lat="39.98030063070279" lon="18.013268758041907"><ele>10.0</ele><time>2026-04-19T09:57:07.601Z</time></trkpt><trkpt lat="39.980468794697785" lon="18.013396844856526"><ele>10.666666666666668</ele><time>2026-04-19T09:57:08.601Z</time></trkpt><trkpt lat="39.98064053455867" lon="18.01353484098774"><ele>11.333333333333334</ele><time>2026-04-19T09:57:09.601Z</time></trkpt><trkpt lat="39.98081061341121" lon="18.01369273136327"><ele>12.0</ele><time>2026-04-19T09:57:10.601Z</time></trkpt><trkpt lat="39.9809824305234" lon="18.013869319974766"><ele>12.0</ele><time>2026-04-19T09:57:11.601Z</time></trkpt><trkpt lat="39.98116078886131" lon="18.014045982040805"><ele>12.0</ele><time>2026-04-19T09:57:12.601Z</time></trkpt><trkpt lat="39.98132882728779" lon="18.014207410473134"><ele>12.0</ele><time>2026-04-19T09:57:13.601Z</time></trkpt><trkpt lat="39.98148579153364" lon="18.014360864764377"><ele>13.0</ele><time>2026-04-19T09:57:14.601Z</time></trkpt><trkpt lat="39.98162233553686" lon="18.01451222823386"><ele>14.0</ele><time>2026-04-19T09:57:15.601Z</time></trkpt><trkpt lat="39.9817636633095" lon="18.014650749304103"><ele>15.0</ele><time>2026-04-19T09:57:16.601Z</time></trkpt><trkpt lat="39.98189584613684" lon="18.01477920726513"><ele>15.0</ele><time>2026-04-19T09:57:17.601Z</time></trkpt><trkpt lat="39.98201193018016" lon="18.01489730340301"><ele>15.0</ele><time>2026-04-19T09:57:18.601Z</time></trkpt><trkpt lat="39.98212963704642" lon="18.015008152304528"><ele>15.0</ele><time>2026-04-19T09:57:19.601Z</time></trkpt><trkpt lat="39.982256290801736" lon="18.0151199851336"><ele>15.0</ele><time>2026-04-19T09:57:20.601Z</time></trkpt><trkpt lat="39.98238118748916" lon="18.015237760613587"><ele>14.0</ele><time>2026-04-19T09:57:21.601Z</time></trkpt><trkpt lat="39.982514745585" lon="18.015377288017937"><ele>13.0</ele><time>2026-04-19T09:57:22.601Z</time></trkpt><trkpt lat="39.982658017737954" lon="18.015511853910052"><ele>12.0</ele><time>2026-04-19T09:57:23.601Z</time></trkpt><trkpt lat="39.98279632613875" lon="18.015648880564374"><ele>12.0</ele><time>2026-04-19T09:57:24.601Z</time></trkpt><trkpt lat="39.98293507039168" lon="18.015793179344367"><ele>12.0</ele><time>2026-04-19T09:57:25.601Z</time></trkpt><trkpt lat="39.983076716127314" lon="18.015933812243976"><ele>12.0</ele><time>2026-04-19T09:57:26.601Z</time></trkpt><trkpt lat="39.98321443211596" lon="18.016060204528163"><ele>12.25</ele><time>2026-04-19T09:57:27.601Z</time></trkpt><trkpt lat="39.983344472183646" lon="18.016179664210803"><ele>12.5</ele><time>2026-04-19T09:57:28.601Z</time></trkpt><trkpt lat="39.9834571379046" lon="18.01628669535175"><ele>12.75</ele><time>2026-04-19T09:57:29.601Z</time></trkpt><trkpt lat="39.98356004515141" lon="18.016379885153615"><ele>13.0</ele><time>2026-04-19T09:57:30.601Z</time></trkpt><trkpt lat="39.983658832866816" lon="18.016464466766294"><ele>13.5</ele><time>2026-04-19T09:57:31.601Z</time></trkpt><trkpt lat="39.98375736887318" lon="18.016535857131405"><ele>14.0</ele><time>2026-04-19T09:57:32.601Z</time></trkpt><trkpt lat="39.98386320413933" lon="18.01659778226254"><ele>14.5</ele><time>2026-04-19T09:57:33.601Z</time></trkpt><trkpt lat="39.98398299581063" lon="18.016663951495456"><ele>15.0</ele><time>2026-04-19T09:57:34.601Z</time></trkpt><trkpt lat="39.984115983991124" lon="18.016730803596495"><ele>15.25</ele><time>2026-04-19T09:57:35.601Z</time></trkpt><trkpt lat="39.98426068525487" lon="18.016793575996733"><ele>15.5</ele><time>2026-04-19T09:57:36.601Z</time></trkpt><trkpt lat="39.98440518429697" lon="18.016846107341525"><ele>15.75</ele><time>2026-04-19T09:57:37.6Z</time></trkpt><trkpt lat="39.98454142513581" lon="18.016886435884327"><ele>16.0</ele><time>2026-04-19T09:57:38.6Z</time></trkpt><trkpt lat="39.984667756737764" lon="18.0169226663542"><ele>16.0</ele><time>2026-04-19T09:57:39.6Z</time></trkpt><trkpt lat="39.98478700935235" lon="18.016954047716638"><ele>16.0</ele><time>2026-04-19T09:57:40.6Z</time></trkpt><trkpt lat="39.98490643491384" lon="18.016981346267887"><ele>16.0</ele><time>2026-04-19T09:57:41.6Z</time></trkpt><trkpt lat="39.985025702566624" lon="18.017012339665012"><ele>16.0</ele><time>2026-04-19T09:57:42.6Z</time></trkpt><trkpt lat="39.985151798871534" lon="18.01704333013695"><ele>15.75</ele><time>2026-04-19T09:57:43.6Z</time></trkpt><trkpt lat="39.98528231488782" lon="18.017073706805963"><ele>15.5</ele><time>2026-04-19T09:57:44.6Z</time></trkpt><trkpt lat="39.985418106870824" lon="18.017104533227577"><ele>15.25</ele><time>2026-04-19T09:57:45.6Z</time></trkpt><trkpt lat="39.985560884985944" lon="18.017134819867458"><ele>15.0</ele><time>2026-04-19T09:57:46.6Z</time></trkpt><trkpt lat="39.985708750686236" lon="18.01717080034582"><ele>14.333333333333332</ele><time>2026-04-19T09:57:47.6Z</time></trkpt><trkpt lat="39.98585588933679" lon="18.017206325424404"><ele>13.666666666666666</ele><time>2026-04-19T09:57:48.6Z</time></trkpt><trkpt lat="39.986013620505915" lon="18.017250475957397"><ele>13.0</ele><time>2026-04-19T09:57:49.6Z</time></trkpt><trkpt lat="39.98618418735591" lon="18.01729161759897"><ele>13.0</ele><time>2026-04-19T09:57:50.6Z</time></trkpt><trkpt lat="39.986358711189" lon="18.017341123285057"><ele>13.0</ele><time>2026-04-19T09:57:51.6Z</time></trkpt><trkpt lat="39.986545229874544" lon="18.01738203179499"><ele>13.0</ele><time>2026-04-19T09:57:52.6Z</time></trkpt><trkpt lat="39.9867331369647" lon="18.017430752177344"><ele>12.666666666666666</ele><time>2026-04-19T09:57:53.6Z</time></trkpt><trkpt lat="39.98693283171889" lon="18.01746471649127"><ele>12.333333333333332</ele><time>2026-04-19T09:57:54.6Z</time></trkpt><trkpt lat="39.98714810741372" lon="18.017477806384328"><ele>12.0</ele><time>2026-04-19T09:57:55.6Z</time></trkpt><trkpt lat="39.98736401813441" lon="18.017513875873746"><ele>13.5</ele><time>2026-04-19T09:57:56.6Z</time></trkpt><trkpt lat="39.98759685712687" lon="18.01755072509022"><ele>15.0</ele><time>2026-04-19T09:57:57.6Z</time></trkpt><trkpt lat="39.98784549087045" lon="18.01758518316673"><ele>15.0</ele><time>2026-04-19T09:57:58.6Z</time></trkpt><trkpt lat="39.9881041873307" lon="18.01759252445866"><ele>15.0</ele><time>2026-04-19T09:57:59.6Z</time></trkpt><trkpt lat="39.98837556020525" lon="18.017599346886556"><ele>15.5</ele><time>2026-04-19T09:58:00.6Z</time></trkpt><trkpt lat="39.98864851655551" lon="18.017611851877287"><ele>16.0</ele><time>2026-04-19T09:58:01.6Z</time></trkpt><trkpt lat="39.98891121324944" lon="18.01763600245872"><ele>16.0</ele><time>2026-04-19T09:58:02.6Z</time></trkpt><trkpt lat="39.98915822865751" lon="18.01768588716592"><ele>16.0</ele><time>2026-04-19T09:58:03.6Z</time></trkpt><trkpt lat="39.98939666776087" lon="18.01773986018024"><ele>14.5</ele><time>2026-04-19T09:58:04.6Z</time></trkpt><trkpt lat="39.98949445475695" lon="18.018145652349254"><ele>13.0</ele><time>2026-04-19T09:58:05.6Z</time></trkpt><trkpt lat="39.98972551425541" lon="18.018200531341815"><ele>13.0</ele><time>2026-04-19T09:58:06.6Z</time></trkpt><trkpt lat="39.989949986560084" lon="18.018256794564532"><ele>13.0</ele><time>2026-04-19T09:58:07.6Z</time></trkpt><trkpt lat="39.99015685762622" lon="18.018309441906734"><ele>13.0</ele><time>2026-04-19T09:58:08.6Z</time></trkpt><trkpt lat="39.99036590106756" lon="18.018364227539593"><ele>13.333333333333332</ele><time>2026-04-19T09:58:09.6Z</time></trkpt><trkpt lat="39.9905763509287" lon="18.018436279463476"><ele>13.666666666666668</ele><time>2026-04-19T09:58:10.6Z</time></trkpt><trkpt lat="39.990781933033176" lon="18.01853157512532"><ele>14.0</ele><time>2026-04-19T09:58:11.6Z</time></trkpt><trkpt lat="39.9909826348503" lon="18.01864294779182"><ele>14.0</ele><time>2026-04-19T09:58:12.6Z</time></trkpt><trkpt lat="39.991183891629845" lon="18.018772974019964"><ele>14.0</ele><time>2026-04-19T09:58:13.6Z</time></trkpt><trkpt lat="39.991388421880934" lon="18.018902093285607"><ele>14.0</ele><time>2026-04-19T09:58:14.6Z</time></trkpt><trkpt lat="39.99159203549447" lon="18.019029091746848"><ele>14.0</ele><time>2026-04-19T09:58:15.6Z</time></trkpt><trkpt lat="39.99179733738455" lon="18.019158020105"><ele>13.5</ele><time>2026-04-19T09:58:16.598Z</time></trkpt><trkpt lat="39.99200441810145" lon="18.01928671199518"><ele>13.0</ele><time>2026-04-19T09:58:17.599Z</time></trkpt><trkpt lat="39.992212545404186" lon="18.019415227132264"><ele>13.0</ele><time>2026-04-19T09:58:18.599Z</time></trkpt><trkpt lat="39.99242184065775" lon="18.01954221464356"><ele>13.0</ele><time>2026-04-19T09:58:19.599Z</time></trkpt><trkpt lat="39.99263316154592" lon="18.019665722297184"><ele>12.0</ele><time>2026-04-19T09:58:20.599Z</time></trkpt><trkpt lat="39.99284050025475" lon="18.019790447604123"><ele>11.0</ele><time>2026-04-19T09:58:21.599Z</time></trkpt><trkpt lat="39.99304799890156" lon="18.019915725916704"><ele>11.666666666666666</ele><time>2026-04-19T09:58:22.599Z</time></trkpt><trkpt lat="39.99324968553913" lon="18.020037706098908"><ele>12.333333333333332</ele><time>2026-04-19T09:58:23.599Z</time></trkpt><trkpt lat="39.993451407345695" lon="18.020157647946707"><ele>13.0</ele><time>2026-04-19T09:58:24.599Z</time></trkpt><trkpt lat="39.99365428402341" lon="18.020281345839"><ele>13.0</ele><time>2026-04-19T09:58:25.598Z</time></trkpt><trkpt lat="39.99386030761985" lon="18.020408629523427"><ele>13.0</ele><time>2026-04-19T09:58:26.598Z</time></trkpt><trkpt lat="39.99406692224275" lon="18.0205354039071"><ele>12.0</ele><time>2026-04-19T09:58:27.598Z</time></trkpt><trkpt lat="39.99427416504595" lon="18.02066844097435"><ele>11.0</ele><time>2026-04-19T09:58:28.599Z</time></trkpt><trkpt lat="39.99447847965684" lon="18.02079480952563"><ele>11.0</ele><time>2026-04-19T09:58:29.598Z</time></trkpt><trkpt lat="39.99468149347584" lon="18.020915933464483"><ele>11.0</ele><time>2026-04-19T09:58:30.598Z</time></trkpt><trkpt lat="39.99488519409784" lon="18.0210365259755"><ele>11.0</ele><time>2026-04-19T09:58:31.598Z</time></trkpt><trkpt lat="39.99509002050383" lon="18.021156375379423"><ele>11.0</ele><time>2026-04-19T09:58:32.598Z</time></trkpt><trkpt lat="39.995293829537" lon="18.021275143258105"><ele>11.0</ele><time>2026-04-19T09:58:33.598Z</time></trkpt><trkpt lat="39.99549888456204" lon="18.021402101844387"><ele>11.0</ele><time>2026-04-19T09:58:34.598Z</time></trkpt><trkpt lat="39.99570972265048" lon="18.02152884400379"><ele>11.0</ele><time>2026-04-19T09:58:35.598Z</time></trkpt><trkpt lat="39.99591102918401" lon="18.02165152336914"><ele>11.666666666666666</ele><time>2026-04-19T09:58:36.598Z</time></trkpt><trkpt lat="39.99609657435644" lon="18.02175703766491"><ele>12.333333333333332</ele><time>2026-04-19T09:58:37.598Z</time></trkpt><trkpt lat="39.99626606594854" lon="18.02183601749267"><ele>13.0</ele><time>2026-04-19T09:58:38.598Z</time></trkpt><trkpt lat="39.99643337879338" lon="18.02188940190502"><ele>13.0</ele><time>2026-04-19T09:58:39.598Z</time></trkpt><trkpt lat="39.99660709218712" lon="18.021905142620568"><ele>13.0</ele><time>2026-04-19T09:58:40.598Z</time></trkpt><trkpt lat="39.99678915021121" lon="18.0218911226791"><ele>13.0</ele><time>2026-04-19T09:58:41.598Z</time></trkpt><trkpt lat="39.996969969280215" lon="18.02185136296026"><ele>13.333333333333332</ele><time>2026-04-19T09:58:42.598Z</time></trkpt><trkpt lat="39.99715362764272" lon="18.021778748785607"><ele>13.666666666666668</ele><time>2026-04-19T09:58:43.598Z</time></trkpt><trkpt lat="39.99733222427322" lon="18.02167634461138"><ele>14.0</ele><time>2026-04-19T09:58:44.598Z</time></trkpt><trkpt lat="39.99750417228849" lon="18.021566512655024"><ele>12.0</ele><time>2026-04-19T09:58:45.598Z</time></trkpt><trkpt lat="39.99766782566648" lon="18.021476274871684"><ele>10.0</ele><time>2026-04-19T09:58:46.598Z</time></trkpt><trkpt lat="39.99783258406841" lon="18.021411467901466"><ele>8.0</ele><time>2026-04-19T09:58:47.598Z</time></trkpt><trkpt lat="39.9979954021711" lon="18.021363621785376"><ele>8.0</ele><time>2026-04-19T09:58:48.598Z</time></trkpt><trkpt lat="39.99815949880498" lon="18.02134896508681"><ele>8.0</ele><time>2026-04-19T09:58:49.598Z</time></trkpt><trkpt lat="39.99832731035164" lon="18.02136307580932"><ele>8.0</ele><time>2026-04-19T09:58:50.598Z</time></trkpt><trkpt lat="39.99849368860772" lon="18.021402108098904"><ele>8.0</ele><time>2026-04-19T09:58:51.598Z</time></trkpt><trkpt lat="39.99864713236533" lon="18.021472300298477"><ele>8.0</ele><time>2026-04-19T09:58:52.598Z</time></trkpt><trkpt lat="39.99880608270788" lon="18.02154640772505"><ele>8.0</ele><time>2026-04-19T09:58:53.598Z</time></trkpt><trkpt lat="39.998967602064404" lon="18.02160900567522"><ele>9.333333333333332</ele><time>2026-04-19T09:58:54.598Z</time></trkpt><trkpt lat="39.999126667990005" lon="18.021662468206525"><ele>10.666666666666666</ele><time>2026-04-19T09:58:55.598Z</time></trkpt><trkpt lat="39.99928192736831" lon="18.021715108085118"><ele>12.0</ele><time>2026-04-19T09:58:56.598Z</time></trkpt><trkpt lat="39.99942835076519" lon="18.021762367171302"><ele>12.0</ele><time>2026-04-19T09:58:57.598Z</time></trkpt><trkpt lat="39.99956784806548" lon="18.02181201695063"><ele>12.0</ele><time>2026-04-19T09:58:58.598Z</time></trkpt><trkpt lat="39.99970723584212" lon="18.021860872758495"><ele>12.0</ele><time>2026-04-19T09:58:59.598Z</time></trkpt><trkpt lat="39.99984382876404" lon="18.021911811166703"><ele>12.0</ele><time>2026-04-19T09:59:00.598Z</time></trkpt><trkpt lat="39.99998661431706" lon="18.021961090198214"><ele>12.0</ele><time>2026-04-19T09:59:01.598Z</time></trkpt><trkpt lat="40.00013273468745" lon="18.022008364350796"><ele>12.0</ele><time>2026-04-19T09:59:02.598Z</time></trkpt><trkpt lat="40.00028812171799" lon="18.022064994363745"><ele>12.0</ele><time>2026-04-19T09:59:03.598Z</time></trkpt><trkpt lat="40.000451052760354" lon="18.022122796013893"><ele>12.0</ele><time>2026-04-19T09:59:04.598Z</time></trkpt><trkpt lat="40.00061216704292" lon="18.022176480663425"><ele>12.0</ele><time>2026-04-19T09:59:05.598Z</time></trkpt><trkpt lat="40.000758205952145" lon="18.022230684371266"><ele>12.0</ele><time>2026-04-19T09:59:06.598Z</time></trkpt><trkpt lat="40.0009040718756" lon="18.022283765879212"><ele>11.5</ele><time>2026-04-19T09:59:07.598Z</time></trkpt><trkpt lat="40.00104364460335" lon="18.022331037922005"><ele>11.0</ele><time>2026-04-19T09:59:08.598Z</time></trkpt><trkpt lat="40.00118166393925" lon="18.022374489694936"><ele>10.5</ele><time>2026-04-19T09:59:09.598Z</time></trkpt><trkpt lat="40.001308448016395" lon="18.022416527456567"><ele>10.0</ele><time>2026-04-19T09:59:10.598Z</time></trkpt><trkpt lat="40.00144177434487" lon="18.02246015539205"><ele>10.5</ele><time>2026-04-19T09:59:11.598Z</time></trkpt><trkpt lat="40.00157577682163" lon="18.022509575984877"><ele>11.0</ele><time>2026-04-19T09:59:12.598Z</time></trkpt><trkpt lat="40.00170988764206" lon="18.02255101834988"><ele>11.5</ele><time>2026-04-19T09:59:13.598Z</time></trkpt><trkpt lat="40.00183988385503" lon="18.02259973856398"><ele>12.0</ele><time>2026-04-19T09:59:14.598Z</time></trkpt><trkpt lat="40.00197427948725" lon="18.022647152530936"><ele>12.0</ele><time>2026-04-19T09:59:15.598Z</time></trkpt><trkpt lat="40.0021178933377" lon="18.022693567322943"><ele>12.0</ele><time>2026-04-19T09:59:16.598Z</time></trkpt><trkpt lat="40.00227820597534" lon="18.02274079023179"><ele>12.0</ele><time>2026-04-19T09:59:17.598Z</time></trkpt><trkpt lat="40.002445700989455" lon="18.022796939271537"><ele>11.333333333333334</ele><time>2026-04-19T09:59:18.598Z</time></trkpt><trkpt lat="40.002621909796076" lon="18.022856373160717"><ele>10.666666666666668</ele><time>2026-04-19T09:59:19.598Z</time></trkpt><trkpt lat="40.00279362971235" lon="18.022917105952736"><ele>10.0</ele><time>2026-04-19T09:59:20.598Z</time></trkpt><trkpt lat="40.00296929433846" lon="18.02298525115989"><ele>10.0</ele><time>2026-04-19T09:59:21.598Z</time></trkpt><trkpt lat="40.0031482943284" lon="18.023042062475895"><ele>10.0</ele><time>2026-04-19T09:59:22.598Z</time></trkpt><trkpt lat="40.00333062884263" lon="18.023104672036908"><ele>10.0</ele><time>2026-04-19T09:59:23.598Z</time></trkpt><trkpt lat="40.00351606129552" lon="18.02316634737215"><ele>9.666666666666668</ele><time>2026-04-19T09:59:24.598Z</time></trkpt><trkpt lat="40.00371514128742" lon="18.02322214470454"><ele>9.333333333333334</ele><time>2026-04-19T09:59:25.598Z</time></trkpt><trkpt lat="40.00392373255492" lon="18.0232573475527"><ele>9.0</ele><time>2026-04-19T09:59:26.598Z</time></trkpt><trkpt lat="40.004153272975906" lon="18.023263328497823"><ele>8.0</ele><time>2026-04-19T09:59:27.598Z</time></trkpt><trkpt lat="40.00438959212491" lon="18.023263199400727"><ele>7.0</ele><time>2026-04-19T09:59:28.598Z</time></trkpt><trkpt lat="40.00465096248529" lon="18.023239850209478"><ele>7.0</ele><time>2026-04-19T09:59:29.598Z</time></trkpt><trkpt lat="40.004929237772906" lon="18.02321280791089"><ele>7.0</ele><time>2026-04-19T09:59:30.598Z</time></trkpt><trkpt lat="40.00520720919127" lon="18.023193059375746"><ele>6.5</ele><time>2026-04-19T09:59:31.598Z</time></trkpt><trkpt lat="40.00549111256371" lon="18.023174159967475"><ele>6.0</ele><time>2026-04-19T09:59:32.598Z</time></trkpt><trkpt lat="40.005761992135625" lon="18.023157001619207"><ele>5.0</ele><time>2026-04-19T09:59:33.598Z</time></trkpt><trkpt lat="40.006045404277366" lon="18.023139429019498"><ele>4.0</ele><time>2026-04-19T09:59:34.598Z</time></trkpt><trkpt lat="40.006335978088416" lon="18.02311976185095"><ele>4.0</ele><time>2026-04-19T09:59:35.598Z</time></trkpt><trkpt lat="40.006625463861425" lon="18.02310297646744"><ele>4.0</ele><time>2026-04-19T09:59:36.598Z</time></trkpt><trkpt lat="40.00691425746435" lon="18.023084601268355"><ele>3.5</ele><time>2026-04-19T09:59:37.598Z</time></trkpt><trkpt lat="40.00720441682676" lon="18.02306341656361"><ele>3.0</ele><time>2026-04-19T09:59:38.598Z</time></trkpt><trkpt lat="40.007491314288295" lon="18.023041768795647"><ele>3.0</ele><time>2026-04-19T09:59:39.598Z</time></trkpt><trkpt lat="40.00777645194201" lon="18.02302247770078"><ele>3.0</ele><time>2026-04-19T09:59:40.598Z</time></trkpt><trkpt lat="40.00806264206097" lon="18.023007502151263"><ele>2.0</ele><time>2026-04-19T09:59:41.598Z</time></trkpt><trkpt lat="40.008346869055906" lon="18.02298832852443"><ele>1.0</ele><time>2026-04-19T09:59:42.598Z</time></trkpt><trkpt lat="40.00862424144853" lon="18.02297118018606"><ele>1.0</ele><time>2026-04-19T09:59:43.598Z</time></trkpt><trkpt lat="40.00890277079501" lon="18.022951191096706"><ele>1.0</ele><time>2026-04-19T09:59:44.598Z</time></trkpt><trkpt lat="40.009187693939786" lon="18.0229288597298"><ele>0.5</ele><time>2026-04-19T09:59:45.598Z</time></trkpt><trkpt lat="40.00947487996339" lon="18.02291088983164"><ele>0.0</ele><time>2026-04-19T09:59:46.598Z</time></trkpt><trkpt lat="40.00975596226654" lon="18.022889311405375"><ele>0.0</ele><time>2026-04-19T09:59:47.598Z</time></trkpt><trkpt lat="40.010040082491145" lon="18.022868812632378"><ele>0.0</ele><time>2026-04-19T09:59:48.598Z</time></trkpt><trkpt lat="40.010325444843275" lon="18.02285003238411"><ele>0.0</ele><time>2026-04-19T09:59:49.598Z</time></trkpt><trkpt lat="40.01061361838301" lon="18.022828894867043"><ele>0.0</ele><time>2026-04-19T09:59:50.598Z</time></trkpt><trkpt lat="40.01090573225934" lon="18.02280971070631"><ele>0.0</ele><time>2026-04-19T09:59:51.598Z</time></trkpt><trkpt lat="40.01119255379042" lon="18.022792108900987"><ele>0.0</ele><time>2026-04-19T09:59:52.598Z</time></trkpt><trkpt lat="40.011479444228954" lon="18.022770483519764"><ele>-0.5</ele><time>2026-04-19T09:59:53.598Z</time></trkpt><trkpt lat="40.011761641293205" lon="18.022755720852075"><ele>-1.0</ele><time>2026-04-19T09:59:54.598Z</time></trkpt><trkpt lat="40.01204505894264" lon="18.02273747046299"><ele>-1.0</ele><time>2026-04-19T09:59:55.598Z</time></trkpt><trkpt lat="40.012326959443314" lon="18.022723919128538"><ele>-1.0</ele><time>2026-04-19T09:59:56.598Z</time></trkpt><trkpt lat="40.012601188394775" lon="18.02271476403498"><ele>-0.5</ele><time>2026-04-19T09:59:57.598Z</time></trkpt><trkpt lat="40.012865453973966" lon="18.022690476599642"><ele>0.0</ele><time>2026-04-19T09:59:58.598Z</time></trkpt><trkpt lat="40.013135095335215" lon="18.022659563325547"><ele>0.0</ele><time>2026-04-19T09:59:59.598Z</time></trkpt><trkpt lat="40.01341017210538" lon="18.02265307543277"><ele>0.0</ele><time>2026-04-19T10:00:00.598Z</time></trkpt><trkpt lat="40.01368204320922" lon="18.022636158729888"><ele>0.0</ele><time>2026-04-19T10:00:01.598Z</time></trkpt><trkpt lat="40.013953415737035" lon="18.022622483819486"><ele>0.0</ele><time>2026-04-19T10:00:02.598Z</time></trkpt><trkpt lat="40.014213345420096" lon="18.022623735408285"><ele>-0.5</ele><time>2026-04-19T10:00:03.598Z</time></trkpt><trkpt lat="40.01447116980806" lon="18.022636834191083"><ele>-1.0</ele><time>2026-04-19T10:00:04.598Z</time></trkpt><trkpt lat="40.0147287993136" lon="18.022655083908305"><ele>-1.0</ele><time>2026-04-19T10:00:05.598Z</time></trkpt><trkpt lat="40.01498470611863" lon="18.022676554150376"><ele>-1.0</ele><time>2026-04-19T10:00:06.598Z</time></trkpt><trkpt lat="40.015228050998644" lon="18.022688376671447"><ele>-0.6666666666666666</ele><time>2026-04-19T10:00:07.598Z</time></trkpt><trkpt lat="40.015448438175476" lon="18.02270149423116"><ele>-0.3333333333333333</ele><time>2026-04-19T10:00:08.598Z</time></trkpt><trkpt lat="40.0156490563136" lon="18.022711358275505"><ele>0.0</ele><time>2026-04-19T10:00:09.598Z</time></trkpt><trkpt lat="40.01584086393968" lon="18.022719036384277"><ele>0.6666666666666666</ele><time>2026-04-19T10:00:10.598Z</time></trkpt><trkpt lat="40.016019596817436" lon="18.022723067257715"><ele>1.3333333333333333</ele><time>2026-04-19T10:00:11.598Z</time></trkpt><trkpt lat="40.01620466763567" lon="18.022737775010565"><ele>2.0</ele><time>2026-04-19T10:00:12.598Z</time></trkpt><trkpt lat="40.01639897590941" lon="18.022759579916837"><ele>2.0</ele><time>2026-04-19T10:00:13.598Z</time></trkpt><trkpt lat="40.01660581533553" lon="18.022783874306334"><ele>2.0</ele><time>2026-04-19T10:00:14.598Z</time></trkpt><trkpt lat="40.01682474498116" lon="18.022807201358383"><ele>2.0</ele><time>2026-04-19T10:00:15.598Z</time></trkpt><trkpt lat="40.0170628251793" lon="18.022820131092256"><ele>1.5</ele><time>2026-04-19T10:00:16.598Z</time></trkpt><trkpt lat="40.01730171983419" lon="18.022831797276034"><ele>1.0</ele><time>2026-04-19T10:00:17.598Z</time></trkpt><trkpt lat="40.017550179273144" lon="18.02280553228744"><ele>2.0</ele><time>2026-04-19T10:00:18.598Z</time></trkpt><trkpt lat="40.01780372481451" lon="18.022754972472264"><ele>3.0</ele><time>2026-04-19T10:00:19.598Z</time></trkpt><trkpt lat="40.0180491870674" lon="18.022707020303876"><ele>3.0</ele><time>2026-04-19T10:00:20.598Z</time></trkpt><trkpt lat="40.018271270982765" lon="18.02265149923441"><ele>3.0</ele><time>2026-04-19T10:00:21.598Z</time></trkpt><trkpt lat="40.01848301624894" lon="18.022602412182128"><ele>3.0</ele><time>2026-04-19T10:00:22.598Z</time></trkpt><trkpt lat="40.01868302936062" lon="18.022555769090456"><ele>3.0</ele><time>2026-04-19T10:00:23.597Z</time></trkpt><trkpt lat="40.01889205983681" lon="18.02250460104195"><ele>3.0</ele><time>2026-04-19T10:00:24.597Z</time></trkpt><trkpt lat="40.019107061145796" lon="18.022458424570296"><ele>3.0</ele><time>2026-04-19T10:00:25.598Z</time></trkpt><trkpt lat="40.01931523626254" lon="18.022411482965353"><ele>3.0</ele><time>2026-04-19T10:00:26.597Z</time></trkpt><trkpt lat="40.01950283040317" lon="18.022371444778063"><ele>3.0</ele><time>2026-04-19T10:00:27.597Z</time></trkpt><trkpt lat="40.01965633697666" lon="18.022341046790114"><ele>3.0</ele><time>2026-04-19T10:00:28.598Z</time></trkpt><trkpt lat="40.01978962689111" lon="18.022314560079884"><ele>3.0</ele><time>2026-04-19T10:00:29.598Z</time></trkpt><trkpt lat="40.01990445772297" lon="18.022288675219936"><ele>3.0</ele><time>2026-04-19T10:00:30.598Z</time></trkpt><trkpt lat="40.01999932805037" lon="18.022261241655297"><ele>3.0</ele><time>2026-04-19T10:00:31.597Z</time></trkpt><trkpt lat="40.020110455765945" lon="18.022228576551637"><ele>3.0</ele><time>2026-04-19T10:00:32.597Z</time></trkpt><trkpt lat="40.0202205596982" lon="18.022197465679806"><ele>3.0</ele><time>2026-04-19T10:00:33.597Z</time></trkpt><trkpt lat="40.02033518848316" lon="18.022170645668734"><ele>3.25</ele><time>2026-04-19T10:00:34.598Z</time></trkpt><trkpt lat="40.02046084079205" lon="18.02214551674657"><ele>3.5</ele><time>2026-04-19T10:00:35.597Z</time></trkpt><trkpt lat="40.02060484940322" lon="18.022105527998768"><ele>3.75</ele><time>2026-04-19T10:00:36.597Z</time></trkpt><trkpt lat="40.020763314394706" lon="18.022053259452477"><ele>4.0</ele><time>2026-04-19T10:00:37.597Z</time></trkpt><trkpt lat="40.02094888048665" lon="18.022028749219725"><ele>3.5</ele><time>2026-04-19T10:00:38.597Z</time></trkpt><trkpt lat="40.02111334678971" lon="18.021991331885953"><ele>3.0</ele><time>2026-04-19T10:00:39.597Z</time></trkpt><trkpt lat="40.02126527985092" lon="18.021962030357443"><ele>2.5</ele><time>2026-04-19T10:00:40.597Z</time></trkpt><trkpt lat="40.02138946096176" lon="18.021939825406683"><ele>2.0</ele><time>2026-04-19T10:00:41.597Z</time></trkpt><trkpt lat="40.02150790798" lon="18.021916346948785"><ele>2.0</ele><time>2026-04-19T10:00:42.597Z</time></trkpt><trkpt lat="40.02162060184554" lon="18.021900058324977"><ele>2.0</ele><time>2026-04-19T10:00:43.597Z</time></trkpt><trkpt lat="40.02173052498356" lon="18.021884336761946"><ele>2.0</ele><time>2026-04-19T10:00:44.597Z</time></trkpt><trkpt lat="40.02184716127207" lon="18.0218715898891"><ele>2.0</ele><time>2026-04-19T10:00:45.597Z</time></trkpt><trkpt lat="40.02196787480442" lon="18.02186859647082"><ele>1.5</ele><time>2026-04-19T10:00:46.597Z</time></trkpt><trkpt lat="40.02208425348779" lon="18.02184174583411"><ele>1.0</ele><time>2026-04-19T10:00:47.597Z</time></trkpt><trkpt lat="40.022207129639575" lon="18.0218243919777"><ele>0.5</ele><time>2026-04-19T10:00:48.597Z</time></trkpt><trkpt lat="40.02231709976624" lon="18.02180485256824"><ele>0.0</ele><time>2026-04-19T10:00:49.597Z</time></trkpt><trkpt lat="40.0224187376939" lon="18.0217826310227"><ele>0.4</ele><time>2026-04-19T10:00:50.597Z</time></trkpt><trkpt lat="40.02252558662495" lon="18.02175965727975"><ele>0.8</ele><time>2026-04-19T10:00:51.597Z</time></trkpt><trkpt lat="40.02262995240107" lon="18.021738321581847"><ele>1.2000000000000002</ele><time>2026-04-19T10:00:52.597Z</time></trkpt><trkpt lat="40.02273243595438" lon="18.02172019471244"><ele>1.6</ele><time>2026-04-19T10:00:53.597Z</time></trkpt><trkpt lat="40.02283659761621" lon="18.02170374187744"><ele>2.0</ele><time>2026-04-19T10:00:54.597Z</time></trkpt><trkpt lat="40.022940373513485" lon="18.021687563630472"><ele>2.0</ele><time>2026-04-19T10:00:55.597Z</time></trkpt><trkpt lat="40.023045366744135" lon="18.021664739331058"><ele>2.0</ele><time>2026-04-19T10:00:56.597Z</time></trkpt><trkpt lat="40.02315588675082" lon="18.021641577689405"><ele>2.0</ele><time>2026-04-19T10:00:57.597Z</time></trkpt><trkpt lat="40.02326576559479" lon="18.021621703197283"><ele>2.0</ele><time>2026-04-19T10:00:58.597Z</time></trkpt><trkpt lat="40.0233687300604" lon="18.021601453473735"><ele>2.0</ele><time>2026-04-19T10:00:59.597Z</time></trkpt><trkpt lat="40.0234712099096" lon="18.02158527933778"><ele>1.6</ele><time>2026-04-19T10:01:00.597Z</time></trkpt><trkpt lat="40.02358689572722" lon="18.021564167327405"><ele>1.2000000000000002</ele><time>2026-04-19T10:01:01.597Z</time></trkpt><trkpt lat="40.02369642811148" lon="18.021537854622327"><ele>0.8</ele><time>2026-04-19T10:01:02.597Z</time></trkpt><trkpt lat="40.02379976108343" lon="18.021514894137947"><ele>0.4</ele><time>2026-04-19T10:01:03.597Z</time></trkpt><trkpt lat="40.023892072964955" lon="18.021497771156827"><ele>0.0</ele><time>2026-04-19T10:01:04.597Z</time></trkpt><trkpt lat="40.0239729652261" lon="18.021481558232818"><ele>0.0</ele><time>2026-04-19T10:01:05.597Z</time></trkpt><trkpt lat="40.02404746388884" lon="18.021474511880534"><ele>0.0</ele><time>2026-04-19T10:01:06.597Z</time></trkpt><trkpt lat="40.02415339436214" lon="18.02148084085535"><ele>0.0</ele><time>2026-04-19T10:01:08.597Z</time></trkpt><trkpt lat="40.02422021749301" lon="18.021485829647034"><ele>0.0</ele><time>2026-04-19T10:01:10.597Z</time></trkpt><trkpt lat="40.02428146380209" lon="18.021510706538535"><ele>0.0</ele><time>2026-04-19T10:01:13.597Z</time></trkpt><trkpt lat="40.02436657491311" lon="18.02154751950176"><ele>0.0</ele><time>2026-04-19T10:01:17.597Z</time></trkpt><trkpt lat="40.02443868041578" lon="18.021569290256085"><ele>0.0</ele><time>2026-04-19T10:01:19.597Z</time></trkpt><trkpt lat="40.02449896217956" lon="18.021618128848928"><ele>0.0</ele><time>2026-04-19T10:01:20.597Z</time></trkpt><trkpt lat="40.02457140295651" lon="18.021688944414297"><ele>0.0</ele><time>2026-04-19T10:01:21.597Z</time></trkpt><trkpt lat="40.02465288256011" lon="18.021774440397365"><ele>0.0</ele><time>2026-04-19T10:01:22.597Z</time></trkpt><trkpt lat="40.024748682602976" lon="18.021893560655577"><ele>0.0</ele><time>2026-04-19T10:01:23.597Z</time></trkpt><trkpt lat="40.02484377456037" lon="18.022030442531776"><ele>0.0</ele><time>2026-04-19T10:01:24.597Z</time></trkpt><trkpt lat="40.02493040216564" lon="18.022186510879415"><ele>0.0</ele><time>2026-04-19T10:01:25.597Z</time></trkpt><trkpt lat="40.02500565359624" lon="18.02234471646961"><ele>0.0</ele><time>2026-04-19T10:01:26.597Z</time></trkpt><trkpt lat="40.02506703747027" lon="18.02250743051178"><ele>0.0</ele><time>2026-04-19T10:01:27.597Z</time></trkpt><trkpt lat="40.025114387138025" lon="18.02267399112174"><ele>-0.5</ele><time>2026-04-19T10:01:28.597Z</time></trkpt><trkpt lat="40.025155054027735" lon="18.02285434935301"><ele>-1.0</ele><time>2026-04-19T10:01:29.597Z</time></trkpt><trkpt lat="40.02518621261611" lon="18.023044667614055"><ele>-1.5</ele><time>2026-04-19T10:01:30.597Z</time></trkpt><trkpt lat="40.025220089172194" lon="18.023234192958423"><ele>-2.0</ele><time>2026-04-19T10:01:31.597Z</time></trkpt><trkpt lat="40.025261675251144" lon="18.02342151036895"><ele>-2.0</ele><time>2026-04-19T10:01:32.597Z</time></trkpt><trkpt lat="40.02530237080133" lon="18.023611725674247"><ele>-2.0</ele><time>2026-04-19T10:01:33.597Z</time></trkpt><trkpt lat="40.025336962849146" lon="18.02379537211468"><ele>-2.0</ele><time>2026-04-19T10:01:34.597Z</time></trkpt><trkpt lat="40.02537380532756" lon="18.023968854384314"><ele>-2.0</ele><time>2026-04-19T10:01:35.597Z</time></trkpt><trkpt lat="40.025411398272254" lon="18.02414704825417"><ele>-2.0</ele><time>2026-04-19T10:01:36.597Z</time></trkpt><trkpt lat="40.02544624432822" lon="18.024318992152548"><ele>-2.0</ele><time>2026-04-19T10:01:37.597Z</time></trkpt><trkpt lat="40.02547853432322" lon="18.024498006051996"><ele>-2.0</ele><time>2026-04-19T10:01:38.597Z</time></trkpt><trkpt lat="40.02550917733075" lon="18.02467932987152"><ele>-2.0</ele><time>2026-04-19T10:01:39.597Z</time></trkpt><trkpt lat="40.025543888856625" lon="18.0248624747018"><ele>-1.6666666666666665</ele><time>2026-04-19T10:01:40.597Z</time></trkpt><trkpt lat="40.02558089890352" lon="18.02505444102253"><ele>-1.3333333333333333</ele><time>2026-04-19T10:01:41.597Z</time></trkpt><trkpt lat="40.025621408039264" lon="18.025255523258263"><ele>-1.0</ele><time>2026-04-19T10:01:42.597Z</time></trkpt><trkpt lat="40.0256645042721" lon="18.025466027544812"><ele>-1.0</ele><time>2026-04-19T10:01:43.597Z</time></trkpt><trkpt lat="40.02571766072651" lon="18.025673900439674"><ele>-1.0</ele><time>2026-04-19T10:01:44.597Z</time></trkpt><trkpt lat="40.025770763961965" lon="18.0258925544237"><ele>-1.0</ele><time>2026-04-19T10:01:45.597Z</time></trkpt><trkpt lat="40.02582269878812" lon="18.026122469247763"><ele>-0.6666666666666666</ele><time>2026-04-19T10:01:46.597Z</time></trkpt><trkpt lat="40.02587411964263" lon="18.026361913011222"><ele>-0.3333333333333333</ele><time>2026-04-19T10:01:47.597Z</time></trkpt><trkpt lat="40.02593252291896" lon="18.026595468379853"><ele>0.0</ele><time>2026-04-19T10:01:48.597Z</time></trkpt><trkpt lat="40.025988199312714" lon="18.026847008266305"><ele>-0.6666666666666666</ele><time>2026-04-19T10:01:49.597Z</time></trkpt><trkpt lat="40.0260438764727" lon="18.027105556431604"><ele>-1.3333333333333333</ele><time>2026-04-19T10:01:50.597Z</time></trkpt><trkpt lat="40.026097214906244" lon="18.027352362939286"><ele>-2.0</ele><time>2026-04-19T10:01:51.597Z</time></trkpt><trkpt lat="40.02614350581266" lon="18.02759193279523"><ele>-2.0</ele><time>2026-04-19T10:01:52.597Z</time></trkpt><trkpt lat="40.026191419211585" lon="18.027810292854635"><ele>-2.0</ele><time>2026-04-19T10:01:53.597Z</time></trkpt><trkpt lat="40.026237729300604" lon="18.02799996477383"><ele>-2.0</ele><time>2026-04-19T10:01:54.597Z</time></trkpt><trkpt lat="40.026269977930696" lon="18.02818793290395"><ele>-2.0</ele><time>2026-04-19T10:01:55.597Z</time></trkpt><trkpt lat="40.026279981770614" lon="18.028388783659388"><ele>-2.0</ele><time>2026-04-19T10:01:56.597Z</time></trkpt><trkpt lat="40.02629981594437" lon="18.028578384635956"><ele>-2.0</ele><time>2026-04-19T10:01:57.597Z</time></trkpt><trkpt lat="40.02632365448438" lon="18.028750906507245"><ele>-2.0</ele><time>2026-04-19T10:01:58.597Z</time></trkpt><trkpt lat="40.02634374077442" lon="18.02889154030568"><ele>-1.9999999999999998</ele><time>2026-04-19T10:01:59.597Z</time></trkpt><trkpt lat="40.026367640836234" lon="18.029023594151948"><ele>-2.0</ele><time>2026-04-19T10:02:00.597Z</time></trkpt><trkpt lat="40.02640413540659" lon="18.029140370918334"><ele>-2.0</ele><time>2026-04-19T10:02:01.597Z</time></trkpt><trkpt lat="40.0264487869436" lon="18.029235160924024"><ele>-2.0</ele><time>2026-04-19T10:02:02.597Z</time></trkpt><trkpt lat="40.02649430968596" lon="18.029320990866122"><ele>-1.9999999999999998</ele><time>2026-04-19T10:02:03.597Z</time></trkpt><trkpt lat="40.026546867659185" lon="18.029389226670443"><ele>-2.0</ele><time>2026-04-19T10:02:04.597Z</time></trkpt><trkpt lat="40.02660222987913" lon="18.029445458034004"><ele>-1.8333333333333333</ele><time>2026-04-19T10:02:05.597Z</time></trkpt><trkpt lat="40.02666289898944" lon="18.0294815162673"><ele>-1.6666666666666665</ele><time>2026-04-19T10:02:06.597Z</time></trkpt><trkpt lat="40.0267271334955" lon="18.029506256265424"><ele>-1.5</ele><time>2026-04-19T10:02:07.597Z</time></trkpt><trkpt lat="40.02680014566093" lon="18.029519416016893"><ele>-1.3333333333333333</ele><time>2026-04-19T10:02:08.597Z</time></trkpt><trkpt lat="40.026887768448375" lon="18.02950832738165"><ele>-1.1666666666666665</ele><time>2026-04-19T10:02:09.597Z</time></trkpt><trkpt lat="40.02699569904666" lon="18.029476822922327"><ele>-1.0</ele><time>2026-04-19T10:02:10.597Z</time></trkpt><trkpt lat="40.02713573673419" lon="18.02942084153403"><ele>-1.0</ele><time>2026-04-19T10:02:11.597Z</time></trkpt><trkpt lat="40.02729733312288" lon="18.029357648282126"><ele>-1.0</ele><time>2026-04-19T10:02:12.597Z</time></trkpt><trkpt lat="40.02748302808458" lon="18.029287135671424"><ele>-1.0</ele><time>2026-04-19T10:02:13.597Z</time></trkpt><trkpt lat="40.0276845791872" lon="18.029216324360934"><ele>-1.0</ele><time>2026-04-19T10:02:14.597Z</time></trkpt><trkpt lat="40.027902734811256" lon="18.02913822908641"><ele>-1.0</ele><time>2026-04-19T10:02:15.597Z</time></trkpt><trkpt lat="40.028115329306225" lon="18.029055367544164"><ele>-1.0</ele><time>2026-04-19T10:02:16.597Z</time></trkpt><trkpt lat="40.02832573216319" lon="18.028998671970875"><ele>-1.0</ele><time>2026-04-19T10:02:17.597Z</time></trkpt><trkpt lat="40.02852793480254" lon="18.028963023975752"><ele>-1.0</ele><time>2026-04-19T10:02:18.597Z</time></trkpt><trkpt lat="40.028726445249156" lon="18.02895182950917"><ele>-1.0</ele><time>2026-04-19T10:02:19.597Z</time></trkpt><trkpt lat="40.02891911626565" lon="18.02897717366075"><ele>-1.0</ele><time>2026-04-19T10:02:20.597Z</time></trkpt><trkpt lat="40.029111218667" lon="18.02900486732852"><ele>-1.0</ele><time>2026-04-19T10:02:21.597Z</time></trkpt><trkpt lat="40.029304156977695" lon="18.029030065136418"><ele>-1.0</ele><time>2026-04-19T10:02:22.597Z</time></trkpt><trkpt lat="40.02948935426187" lon="18.029025417170143"><ele>-0.6666666666666666</ele><time>2026-04-19T10:02:23.597Z</time></trkpt><trkpt lat="40.029678248399215" lon="18.029027774439346"><ele>-0.3333333333333333</ele><time>2026-04-19T10:02:24.597Z</time></trkpt><trkpt lat="40.02986895525054" lon="18.02903425775749"><ele>0.0</ele><time>2026-04-19T10:02:25.597Z</time></trkpt><trkpt lat="40.0300616623483" lon="18.0290526061954"><ele>0.3333333333333333</ele><time>2026-04-19T10:02:26.597Z</time></trkpt><trkpt lat="40.03024864768493" lon="18.02908441351876"><ele>0.6666666666666666</ele><time>2026-04-19T10:02:27.597Z</time></trkpt><trkpt lat="40.030427650640064" lon="18.02911579135366"><ele>1.0</ele><time>2026-04-19T10:02:28.597Z</time></trkpt><trkpt lat="40.03058856508891" lon="18.02914363422381"><ele>1.0</ele><time>2026-04-19T10:02:29.597Z</time></trkpt><trkpt lat="40.03073450808168" lon="18.02913433253981"><ele>1.0</ele><time>2026-04-19T10:02:30.597Z</time></trkpt><trkpt lat="40.030862072306114" lon="18.029078984369256"><ele>1.0</ele><time>2026-04-19T10:02:31.597Z</time></trkpt><trkpt lat="40.03098927664789" lon="18.029125492948598"><ele>1.0</ele><time>2026-04-19T10:02:32.597Z</time></trkpt><trkpt lat="40.03106629763596" lon="18.028691220399885"><ele>1.4</ele><time>2026-04-19T10:02:33.597Z</time></trkpt><trkpt lat="40.031147833787344" lon="18.02854701296777"><ele>1.8</ele><time>2026-04-19T10:02:34.597Z</time></trkpt><trkpt lat="40.031234727181726" lon="18.02845988798362"><ele>2.1999999999999997</ele><time>2026-04-19T10:02:35.597Z</time></trkpt><trkpt lat="40.03131562314779" lon="18.02840479359453"><ele>2.6</ele><time>2026-04-19T10:02:36.597Z</time></trkpt><trkpt lat="40.03139134467541" lon="18.02838343136267"><ele>3.0</ele><time>2026-04-19T10:02:37.597Z</time></trkpt><trkpt lat="40.03146343403386" lon="18.028386256266153"><ele>2.9999999999999996</ele><time>2026-04-19T10:02:38.597Z</time></trkpt><trkpt lat="40.031537213905565" lon="18.028416074106502"><ele>3.0</ele><time>2026-04-19T10:02:39.597Z</time></trkpt><trkpt lat="40.031596330695564" lon="18.028470644946875"><ele>3.0</ele><time>2026-04-19T10:02:40.596Z</time></trkpt><trkpt lat="40.03164676452169" lon="18.028530890946012"><ele>3.0</ele><time>2026-04-19T10:02:41.597Z</time></trkpt><trkpt lat="40.0316856597461" lon="18.028609191319298"><ele>3.0</ele><time>2026-04-19T10:02:42.597Z</time></trkpt><trkpt lat="40.03172313039083" lon="18.02868356703953"><ele>2.9999999999999996</ele><time>2026-04-19T10:02:43.597Z</time></trkpt><trkpt lat="40.031757294964564" lon="18.028762499913146"><ele>3.0</ele><time>2026-04-19T10:02:44.597Z</time></trkpt><trkpt lat="40.031812031260394" lon="18.028902892143567"><ele>2.8</ele><time>2026-04-19T10:02:46.597Z</time></trkpt><trkpt lat="40.03184644328357" lon="18.028977575967968"><ele>2.5999999999999996</ele><time>2026-04-19T10:02:47.597Z</time></trkpt><trkpt lat="40.03187832404952" lon="18.029072677854217"><ele>2.4000000000000004</ele><time>2026-04-19T10:02:48.597Z</time></trkpt><trkpt lat="40.03191616352711" lon="18.029185619775593"><ele>2.2</ele><time>2026-04-19T10:02:49.597Z</time></trkpt><trkpt lat="40.03195294504115" lon="18.02932332686322"><ele>2.0</ele><time>2026-04-19T10:02:50.597Z</time></trkpt><trkpt lat="40.03198586405159" lon="18.029463853537884"><ele>2.4000000000000004</ele><time>2026-04-19T10:02:51.597Z</time></trkpt><trkpt lat="40.032021640361904" lon="18.029602155881395"><ele>2.8000000000000003</ele><time>2026-04-19T10:02:52.597Z</time></trkpt><trkpt lat="40.03205402936389" lon="18.02973095082277"><ele>3.2</ele><time>2026-04-19T10:02:53.597Z</time></trkpt><trkpt lat="40.0320910712066" lon="18.029861633807446"><ele>3.6</ele><time>2026-04-19T10:02:54.597Z</time></trkpt><trkpt lat="40.03213063734131" lon="18.02999386752864"><ele>4.0</ele><time>2026-04-19T10:02:55.597Z</time></trkpt><trkpt lat="40.032169842745816" lon="18.030132794943693"><ele>4.2</ele><time>2026-04-19T10:02:56.597Z</time></trkpt><trkpt lat="40.03220386167238" lon="18.030274208432395"><ele>4.4</ele><time>2026-04-19T10:02:57.597Z</time></trkpt><trkpt lat="40.03224055339059" lon="18.03040739447635"><ele>4.6</ele><time>2026-04-19T10:02:58.597Z</time></trkpt><trkpt lat="40.03227873739367" lon="18.030540013558525"><ele>4.8</ele><time>2026-04-19T10:02:59.597Z</time></trkpt><trkpt lat="40.03232001816119" lon="18.030665975414827"><ele>5.0</ele><time>2026-04-19T10:03:00.597Z</time></trkpt><trkpt lat="40.03235762479877" lon="18.030782012658317"><ele>5.166666666666667</ele><time>2026-04-19T10:03:01.597Z</time></trkpt><trkpt lat="40.03238076528704" lon="18.03088882906089"><ele>5.333333333333334</ele><time>2026-04-19T10:03:02.597Z</time></trkpt><trkpt lat="40.03238270438201" lon="18.030985868336693"><ele>5.5</ele><time>2026-04-19T10:03:03.597Z</time></trkpt><trkpt lat="40.032365330078754" lon="18.031082382482918"><ele>5.666666666666667</ele><time>2026-04-19T10:03:04.597Z</time></trkpt><trkpt lat="40.03233073536921" lon="18.03117326925462"><ele>5.833333333333333</ele><time>2026-04-19T10:03:05.597Z</time></trkpt><trkpt lat="40.03227669423128" lon="18.031259226663465"><ele>6.0</ele><time>2026-04-19T10:03:06.597Z</time></trkpt><trkpt lat="40.03220236463755" lon="18.031340493619638"><ele>6.0</ele><time>2026-04-19T10:03:07.597Z</time></trkpt><trkpt lat="40.0321125633271" lon="18.031407342494596"><ele>6.0</ele><time>2026-04-19T10:03:08.597Z</time></trkpt><trkpt lat="40.03202571376003" lon="18.031469144176004"><ele>6.0</ele><time>2026-04-19T10:03:09.597Z</time></trkpt><trkpt lat="40.03193588456383" lon="18.031532037426995"><ele>6.0</ele><time>2026-04-19T10:03:10.597Z</time></trkpt><trkpt lat="40.03185128913477" lon="18.031602745644516"><ele>6.0</ele><time>2026-04-19T10:03:11.597Z</time></trkpt><trkpt lat="40.03178094078411" lon="18.031712354808526"><ele>5.666666666666667</ele><time>2026-04-19T10:03:13.597Z</time></trkpt><trkpt lat="40.03180634172518" lon="18.031798511300533"><ele>5.333333333333334</ele><time>2026-04-19T10:03:15.597Z</time></trkpt><trkpt lat="40.03186488145943" lon="18.031866634972936"><ele>5.0</ele><time>2026-04-19T10:03:16.597Z</time></trkpt><trkpt lat="40.03128693636101" lon="18.031100329353308"><ele>5.0</ele><time>2026-04-19T10:03:17.597Z</time></trkpt><trkpt lat="40.03126514494748" lon="18.030969807215943"><ele>5.0</ele><time>2026-04-19T10:03:18.597Z</time></trkpt><trkpt lat="40.03127838207839" lon="18.030831652123506"><ele>5.0</ele><time>2026-04-19T10:03:19.597Z</time></trkpt><trkpt lat="40.031317795524416" lon="18.030689634668384"><ele>5.0</ele><time>2026-04-19T10:03:20.597Z</time></trkpt><trkpt lat="40.03137495710548" lon="18.030560277890444"><ele>5.0</ele><time>2026-04-19T10:03:21.597Z</time></trkpt><trkpt lat="40.03146161420834" lon="18.030443074005536"><ele>5.0</ele><time>2026-04-19T10:03:22.597Z</time></trkpt><trkpt lat="40.03157025685477" lon="18.03032780219076"><ele>5.0</ele><time>2026-04-19T10:03:23.597Z</time></trkpt><trkpt lat="40.031691792803855" lon="18.03020197709126"><ele>5.0</ele><time>2026-04-19T10:03:24.597Z</time></trkpt><trkpt lat="40.03181686505146" lon="18.03005389916862"><ele>4.666666666666667</ele><time>2026-04-19T10:03:25.597Z</time></trkpt><trkpt lat="40.03195674580936" lon="18.02987950772576"><ele>4.333333333333333</ele><time>2026-04-19T10:03:26.597Z</time></trkpt><trkpt lat="40.03211335727234" lon="18.029700125232434"><ele>4.0</ele><time>2026-04-19T10:03:27.597Z</time></trkpt><trkpt lat="40.032277455830524" lon="18.029495148716947"><ele>4.0</ele><time>2026-04-19T10:03:28.597Z</time></trkpt><trkpt lat="40.03246326319043" lon="18.029310983045757"><ele>4.0</ele><time>2026-04-19T10:03:29.597Z</time></trkpt><trkpt lat="40.03265794151643" lon="18.029107483287046"><ele>2.5</ele><time>2026-04-19T10:03:30.597Z</time></trkpt><trkpt lat="40.03286569320933" lon="18.0288926554755"><ele>1.0</ele><time>2026-04-19T10:03:31.597Z</time></trkpt><trkpt lat="40.033068918792274" lon="18.028670731493417"><ele>1.0</ele><time>2026-04-19T10:03:32.597Z</time></trkpt><trkpt lat="40.03327701638628" lon="18.028446582578855"><ele>1.0</ele><time>2026-04-19T10:03:33.597Z</time></trkpt><trkpt lat="40.0334870416972" lon="18.028223242495187"><ele>1.5</ele><time>2026-04-19T10:03:34.597Z</time></trkpt><trkpt lat="40.03369264295446" lon="18.02800305673998"><ele>2.0</ele><time>2026-04-19T10:03:35.597Z</time></trkpt><trkpt lat="40.03389283031038" lon="18.02778042989686"><ele>2.0</ele><time>2026-04-19T10:03:36.597Z</time></trkpt><trkpt lat="40.03409237404962" lon="18.02756085049835"><ele>2.0</ele><time>2026-04-19T10:03:37.597Z</time></trkpt><trkpt lat="40.034287269956465" lon="18.02734456134544"><ele>1.5</ele><time>2026-04-19T10:03:38.597Z</time></trkpt><trkpt lat="40.034483482434666" lon="18.027138177044854"><ele>1.0</ele><time>2026-04-19T10:03:39.597Z</time></trkpt><trkpt lat="40.03467905596502" lon="18.02692985597001"><ele>1.0</ele><time>2026-04-19T10:03:40.597Z</time></trkpt><trkpt lat="40.03486911192123" lon="18.026720312979613"><ele>1.0</ele><time>2026-04-19T10:03:41.597Z</time></trkpt><trkpt lat="40.03505652395431" lon="18.026519822742323"><ele>1.5</ele><time>2026-04-19T10:03:42.597Z</time></trkpt><trkpt lat="40.035244951931965" lon="18.026313706043894"><ele>2.0</ele><time>2026-04-19T10:03:43.597Z</time></trkpt><trkpt lat="40.03543244651455" lon="18.026110076212667"><ele>2.0</ele><time>2026-04-19T10:03:44.597Z</time></trkpt><trkpt lat="40.03562121232944" lon="18.025902585933018"><ele>2.0</ele><time>2026-04-19T10:03:45.597Z</time></trkpt><trkpt lat="40.03580892242652" lon="18.02569977999978"><ele>1.5</ele><time>2026-04-19T10:03:46.597Z</time></trkpt><trkpt lat="40.03599751562301" lon="18.025488774362238"><ele>1.0</ele><time>2026-04-19T10:03:47.597Z</time></trkpt><trkpt lat="40.03617687426896" lon="18.02529269151768"><ele>1.0</ele><time>2026-04-19T10:03:48.597Z</time></trkpt><trkpt lat="40.03634953594532" lon="18.02510542753166"><ele>1.0</ele><time>2026-04-19T10:03:49.597Z</time></trkpt><trkpt lat="40.036511890380105" lon="18.024931162346952"><ele>1.0</ele><time>2026-04-19T10:03:50.597Z</time></trkpt><trkpt lat="40.03667202054464" lon="18.02477165753742"><ele>1.3333333333333333</ele><time>2026-04-19T10:03:51.597Z</time></trkpt><trkpt lat="40.036811265690126" lon="18.024614832443834"><ele>1.6666666666666665</ele><time>2026-04-19T10:03:52.597Z</time></trkpt><trkpt lat="40.036942868888254" lon="18.024458532794466"><ele>2.0</ele><time>2026-04-19T10:03:53.597Z</time></trkpt><trkpt lat="40.037078964884955" lon="18.024309065732588"><ele>2.0</ele><time>2026-04-19T10:03:54.597Z</time></trkpt><trkpt lat="40.03721884836837" lon="18.024155796338192"><ele>2.0</ele><time>2026-04-19T10:03:55.597Z</time></trkpt><trkpt lat="40.0373579376617" lon="18.02400445923028"><ele>2.0</ele><time>2026-04-19T10:03:56.597Z</time></trkpt><trkpt lat="40.03750144569488" lon="18.023853371970407"><ele>1.6666666666666665</ele><time>2026-04-19T10:03:57.597Z</time></trkpt><trkpt lat="40.03764940693999" lon="18.023702391280324"><ele>1.3333333333333333</ele><time>2026-04-19T10:03:58.597Z</time></trkpt><trkpt lat="40.03779895043054" lon="18.023536006986006"><ele>1.0</ele><time>2026-04-19T10:03:59.597Z</time></trkpt><trkpt lat="40.03795552237179" lon="18.023359523881375"><ele>1.0</ele><time>2026-04-19T10:04:00.597Z</time></trkpt><trkpt lat="40.03810876175958" lon="18.02319159006957"><ele>1.0</ele><time>2026-04-19T10:04:01.597Z</time></trkpt><trkpt lat="40.038260858269794" lon="18.023027312563062"><ele>1.0</ele><time>2026-04-19T10:04:02.597Z</time></trkpt><trkpt lat="40.03840697648604" lon="18.022871802261534"><ele>1.6666666666666665</ele><time>2026-04-19T10:04:03.597Z</time></trkpt><trkpt lat="40.03853840196948" lon="18.02273313981468"><ele>2.3333333333333335</ele><time>2026-04-19T10:04:04.597Z</time></trkpt><trkpt lat="40.03866126409322" lon="18.022612966342518"><ele>3.0</ele><time>2026-04-19T10:04:05.597Z</time></trkpt><trkpt lat="40.03877771138104" lon="18.022499895721854"><ele>2.5</ele><time>2026-04-19T10:04:06.597Z</time></trkpt><trkpt lat="40.03887306524021" lon="18.02238859505384"><ele>2.0</ele><time>2026-04-19T10:04:07.597Z</time></trkpt><trkpt lat="40.03896725965613" lon="18.022287663639332"><ele>1.5</ele><time>2026-04-19T10:04:08.597Z</time></trkpt><trkpt lat="40.03905253018422" lon="18.022200051210902"><ele>1.0</ele><time>2026-04-19T10:04:09.597Z</time></trkpt><trkpt lat="40.03913848314422" lon="18.022112377640514"><ele>1.0</ele><time>2026-04-19T10:04:10.597Z</time></trkpt><trkpt lat="40.039224597085735" lon="18.02202124412271"><ele>1.0</ele><time>2026-04-19T10:04:11.597Z</time></trkpt><trkpt lat="40.03931281783452" lon="18.02193069309387"><ele>1.0</ele><time>2026-04-19T10:04:12.597Z</time></trkpt><trkpt lat="40.03941132052909" lon="18.021840684613007"><ele>1.0</ele><time>2026-04-19T10:04:13.597Z</time></trkpt><trkpt lat="40.03951234793849" lon="18.021759939424097"><ele>1.0</ele><time>2026-04-19T10:04:14.597Z</time></trkpt><trkpt lat="40.03962113661601" lon="18.021680527805074"><ele>1.0</ele><time>2026-04-19T10:04:15.597Z</time></trkpt><trkpt lat="40.039729845749605" lon="18.02160093298051"><ele>1.0</ele><time>2026-04-19T10:04:16.597Z</time></trkpt><trkpt lat="40.03984192940599" lon="18.021524107031446"><ele>1.0</ele><time>2026-04-19T10:04:17.597Z</time></trkpt><trkpt lat="40.039949350492606" lon="18.021442580941972"><ele>1.0</ele><time>2026-04-19T10:04:18.597Z</time></trkpt><trkpt lat="40.040069363835684" lon="18.021376360420003"><ele>1.0</ele><time>2026-04-19T10:04:19.597Z</time></trkpt><trkpt lat="40.040189506917436" lon="18.02131134854306"><ele>1.0</ele><time>2026-04-19T10:04:20.597Z</time></trkpt><trkpt lat="40.04030423069342" lon="18.021247950429643"><ele>1.0</ele><time>2026-04-19T10:04:21.597Z</time></trkpt><trkpt lat="40.04043118474338" lon="18.02119477288076"><ele>1.0</ele><time>2026-04-19T10:04:22.597Z</time></trkpt><trkpt lat="40.04055137544518" lon="18.02114243489498"><ele>1.0</ele><time>2026-04-19T10:04:23.597Z</time></trkpt><trkpt lat="40.040670730069245" lon="18.021094812566133"><ele>1.0</ele><time>2026-04-19T10:04:24.597Z</time></trkpt><trkpt lat="40.040794608262885" lon="18.02105056187447"><ele>1.0</ele><time>2026-04-19T10:04:25.597Z</time></trkpt><trkpt lat="40.04092079057268" lon="18.021015465645593"><ele>1.5</ele><time>2026-04-19T10:04:26.597Z</time></trkpt><trkpt lat="40.04104588784551" lon="18.020983974723027"><ele>2.0</ele><time>2026-04-19T10:04:27.597Z</time></trkpt><trkpt lat="40.04116591613724" lon="18.02096057144761"><ele>2.5</ele><time>2026-04-19T10:04:28.597Z</time></trkpt><trkpt lat="40.041281895958235" lon="18.020933957092943"><ele>3.0</ele><time>2026-04-19T10:04:29.597Z</time></trkpt><trkpt lat="40.041408548255504" lon="18.020916517437517"><ele>3.0</ele><time>2026-04-19T10:04:30.597Z</time></trkpt><trkpt lat="40.041539666858654" lon="18.02089833506079"><ele>3.0</ele><time>2026-04-19T10:04:31.597Z</time></trkpt><trkpt lat="40.04168265721628" lon="18.020890501617107"><ele>3.0</ele><time>2026-04-19T10:04:32.597Z</time></trkpt><trkpt lat="40.041830463167386" lon="18.020881515758035"><ele>3.0</ele><time>2026-04-19T10:04:33.597Z</time></trkpt><trkpt lat="40.041988001912266" lon="18.02087822945968"><ele>3.666666666666667</ele><time>2026-04-19T10:04:34.596Z</time></trkpt><trkpt lat="40.042145575934235" lon="18.02087095119436"><ele>4.333333333333334</ele><time>2026-04-19T10:04:35.596Z</time></trkpt><trkpt lat="40.04229913176817" lon="18.020863227985014"><ele>5.0</ele><time>2026-04-19T10:04:36.596Z</time></trkpt><trkpt lat="40.04243876224191" lon="18.020860595776963"><ele>5.0</ele><time>2026-04-19T10:04:37.596Z</time></trkpt><trkpt lat="40.04256717133573" lon="18.020857148149297"><ele>5.0</ele><time>2026-04-19T10:04:38.596Z</time></trkpt><trkpt lat="40.04269832841681" lon="18.020848181540828"><ele>5.0</ele><time>2026-04-19T10:04:39.596Z</time></trkpt><trkpt lat="40.04283020224621" lon="18.020838360091"><ele>5.0</ele><time>2026-04-19T10:04:40.596Z</time></trkpt><trkpt lat="40.04295866451869" lon="18.02082935426628"><ele>5.25</ele><time>2026-04-19T10:04:41.596Z</time></trkpt><trkpt lat="40.04308655426417" lon="18.020810344282165"><ele>5.5</ele><time>2026-04-19T10:04:42.596Z</time></trkpt><trkpt lat="40.0432202985232" lon="18.0207708783913"><ele>5.75</ele><time>2026-04-19T10:04:43.596Z</time></trkpt><trkpt lat="40.043354851322974" lon="18.020714187048252"><ele>6.0</ele><time>2026-04-19T10:04:44.596Z</time></trkpt><trkpt lat="40.04349291106854" lon="18.020641444048668"><ele>6.75</ele><time>2026-04-19T10:04:45.596Z</time></trkpt><trkpt lat="40.04362062023242" lon="18.020549425716773"><ele>7.5</ele><time>2026-04-19T10:04:46.596Z</time></trkpt><trkpt lat="40.043747960288016" lon="18.02044401245386"><ele>8.25</ele><time>2026-04-19T10:04:47.596Z</time></trkpt><trkpt lat="40.043868321854674" lon="18.020328750157713"><ele>9.0</ele><time>2026-04-19T10:04:48.596Z</time></trkpt><trkpt lat="40.04398305481279" lon="18.02020883590608"><ele>9.0</ele><time>2026-04-19T10:04:49.596Z</time></trkpt><trkpt lat="40.0440834413303" lon="18.02006678588532"><ele>9.0</ele><time>2026-04-19T10:04:50.596Z</time></trkpt><trkpt lat="40.04417632177425" lon="18.019915985156704"><ele>9.0</ele><time>2026-04-19T10:04:51.596Z</time></trkpt><trkpt lat="40.04426176464617" lon="18.01975628029899"><ele>9.0</ele><time>2026-04-19T10:04:52.596Z</time></trkpt><trkpt lat="40.04434103634756" lon="18.019595079514644"><ele>9.0</ele><time>2026-04-19T10:04:53.596Z</time></trkpt><trkpt lat="40.044409361574296" lon="18.019431998302455"><ele>9.0</ele><time>2026-04-19T10:04:54.596Z</time></trkpt><trkpt lat="40.04448435718978" lon="18.01925330507842"><ele>9.0</ele><time>2026-04-19T10:04:55.596Z</time></trkpt><trkpt lat="40.04452064223921" lon="18.019058680083415"><ele>8.0</ele><time>2026-04-19T10:04:56.596Z</time></trkpt><trkpt lat="40.044539548045535" lon="18.018852422248163"><ele>7.0</ele><time>2026-04-19T10:04:57.596Z</time></trkpt><trkpt lat="40.04455194113142" lon="18.018641093706627"><ele>6.0</ele><time>2026-04-19T10:04:58.596Z</time></trkpt><trkpt lat="40.04455228461594" lon="18.01843328696047"><ele>5.75</ele><time>2026-04-19T10:04:59.596Z</time></trkpt><trkpt lat="40.04453740350589" lon="18.018237698759933"><ele>5.5</ele><time>2026-04-19T10:05:00.596Z</time></trkpt><trkpt lat="40.044517313250815" lon="18.018045435328666"><ele>5.25</ele><time>2026-04-19T10:05:01.596Z</time></trkpt><trkpt lat="40.04449380705331" lon="18.01785836690429"><ele>5.0</ele><time>2026-04-19T10:05:02.596Z</time></trkpt><trkpt lat="40.044475276976534" lon="18.01768099011036"><ele>5.0</ele><time>2026-04-19T10:05:03.596Z</time></trkpt><trkpt lat="40.04445529315735" lon="18.017519260714234"><ele>5.0</ele><time>2026-04-19T10:05:04.596Z</time></trkpt><trkpt lat="40.04443393454882" lon="18.017371720871505"><ele>5.0</ele><time>2026-04-19T10:05:05.596Z</time></trkpt><trkpt lat="40.04441386644228" lon="18.017236311688297"><ele>5.0</ele><time>2026-04-19T10:05:06.596Z</time></trkpt><trkpt lat="40.04439737386762" lon="18.017099574719005"><ele>4.8</ele><time>2026-04-19T10:05:07.596Z</time></trkpt><trkpt lat="40.044387726759574" lon="18.016971244467396"><ele>4.6</ele><time>2026-04-19T10:05:08.596Z</time></trkpt><trkpt lat="40.044388910631525" lon="18.016843239265373"><ele>4.4</ele><time>2026-04-19T10:05:09.596Z</time></trkpt><trkpt lat="40.04440080055026" lon="18.01671715487729"><ele>4.2</ele><time>2026-04-19T10:05:10.596Z</time></trkpt><trkpt lat="40.04440913983353" lon="18.016589288289445"><ele>4.0</ele><time>2026-04-19T10:05:11.596Z</time></trkpt><trkpt lat="40.044419456204814" lon="18.016459744939247"><ele>4.0</ele><time>2026-04-19T10:05:12.596Z</time></trkpt><trkpt lat="40.044444844617544" lon="18.016340611323468"><ele>4.0</ele><time>2026-04-19T10:05:13.596Z</time></trkpt><trkpt lat="40.044495681707076" lon="18.016213456239818"><ele>4.0</ele><time>2026-04-19T10:05:14.596Z</time></trkpt><trkpt lat="40.04456966191719" lon="18.016103170400886"><ele>4.0</ele><time>2026-04-19T10:05:15.596Z</time></trkpt><trkpt lat="40.0446547750992" lon="18.0160065410415"><ele>4.0</ele><time>2026-04-19T10:05:16.596Z</time></trkpt><trkpt lat="40.044750324096036" lon="18.015911689994926"><ele>3.75</ele><time>2026-04-19T10:05:17.596Z</time></trkpt><trkpt lat="40.0448468110992" lon="18.01581569374504"><ele>3.5</ele><time>2026-04-19T10:05:18.596Z</time></trkpt><trkpt lat="40.04494132055069" lon="18.015711844115412"><ele>3.25</ele><time>2026-04-19T10:05:19.596Z</time></trkpt><trkpt lat="40.04503518952356" lon="18.015610788724008"><ele>3.0</ele><time>2026-04-19T10:05:20.596Z</time></trkpt><trkpt lat="40.045124050025834" lon="18.015517632063744"><ele>3.0</ele><time>2026-04-19T10:05:21.596Z</time></trkpt><trkpt lat="40.045215979667326" lon="18.015416789781696"><ele>3.0</ele><time>2026-04-19T10:05:22.595Z</time></trkpt><trkpt lat="40.045309838289405" lon="18.015317764873984"><ele>3.0</ele><time>2026-04-19T10:05:23.595Z</time></trkpt><trkpt lat="40.04540406729527" lon="18.015216765732614"><ele>3.0</ele><time>2026-04-19T10:05:24.595Z</time></trkpt><trkpt lat="40.04549181109638" lon="18.015122477209378"><ele>3.0</ele><time>2026-04-19T10:05:25.595Z</time></trkpt><trkpt lat="40.045580636663516" lon="18.015024858766147"><ele>3.0</ele><time>2026-04-19T10:05:26.595Z</time></trkpt><trkpt lat="40.04567445985898" lon="18.014921945539843"><ele>3.0</ele><time>2026-04-19T10:05:27.595Z</time></trkpt><trkpt lat="40.0457695665877" lon="18.014813623149255"><ele>3.0</ele><time>2026-04-19T10:05:28.595Z</time></trkpt><trkpt lat="40.04586298789201" lon="18.01471397634614"><ele>3.0</ele><time>2026-04-19T10:05:29.595Z</time></trkpt><trkpt lat="40.04595024537765" lon="18.01461831360963"><ele>3.0</ele><time>2026-04-19T10:05:30.595Z</time></trkpt><trkpt lat="40.04603478998703" lon="18.014527410706105"><ele>3.0</ele><time>2026-04-19T10:05:31.595Z</time></trkpt><trkpt lat="40.0461180412434" lon="18.014430068787632"><ele>3.0</ele><time>2026-04-19T10:05:32.595Z</time></trkpt><trkpt lat="40.046195767464305" lon="18.014336745556225"><ele>3.0</ele><time>2026-04-19T10:05:33.595Z</time></trkpt><trkpt lat="40.046271441663464" lon="18.014250231622743"><ele>3.0</ele><time>2026-04-19T10:05:34.595Z</time></trkpt><trkpt lat="40.046352119652" lon="18.01416724628369"><ele>3.0</ele><time>2026-04-19T10:05:35.595Z</time></trkpt><trkpt lat="40.04643048002552" lon="18.014082284086406"><ele>3.0</ele><time>2026-04-19T10:05:36.595Z</time></trkpt><trkpt lat="40.046507609767154" lon="18.014007192957365"><ele>3.0</ele><time>2026-04-19T10:05:37.595Z</time></trkpt><trkpt lat="40.046578642160604" lon="18.01393448510085"><ele>3.0</ele><time>2026-04-19T10:05:38.595Z</time></trkpt><trkpt lat="40.046637333847166" lon="18.013872458253594"><ele>3.0</ele><time>2026-04-19T10:05:39.595Z</time></trkpt><trkpt lat="40.046693649297744" lon="18.013815131561596"><ele>3.0</ele><time>2026-04-19T10:05:40.595Z</time></trkpt><trkpt lat="40.04674238284795" lon="18.013761970074455"><ele>3.0</ele><time>2026-04-19T10:05:41.595Z</time></trkpt><trkpt lat="40.04679638611188" lon="18.013718053869468"><ele>3.0</ele><time>2026-04-19T10:05:42.595Z</time></trkpt><trkpt lat="40.046885007551296" lon="18.01365828749944"><ele>3.0</ele><time>2026-04-19T10:05:44.595Z</time></trkpt><trkpt lat="40.046991874088924" lon="18.013634185245802"><ele>3.0</ele><time>2026-04-19T10:05:46.595Z</time></trkpt><trkpt lat="40.04706229229129" lon="18.01364337670758"><ele>3.0</ele><time>2026-04-19T10:05:47.595Z</time></trkpt><trkpt lat="40.04713346384069" lon="18.013669533162577"><ele>3.0</ele><time>2026-04-19T10:05:48.595Z</time></trkpt><trkpt lat="40.04720440039579" lon="18.01370795617873"><ele>3.0</ele><time>2026-04-19T10:05:49.595Z</time></trkpt><trkpt lat="40.047272113623514" lon="18.0137762911723"><ele>3.0</ele><time>2026-04-19T10:05:50.595Z</time></trkpt><trkpt lat="40.04734235498216" lon="18.01385725336214"><ele>3.0</ele><time>2026-04-19T10:05:51.595Z</time></trkpt><trkpt lat="40.04742259071029" lon="18.013953226038083"><ele>3.0</ele><time>2026-04-19T10:05:52.595Z</time></trkpt><trkpt lat="40.04749516166329" lon="18.01404329379517"><ele>3.4</ele><time>2026-04-19T10:05:53.595Z</time></trkpt><trkpt lat="40.0475733504982" lon="18.01413227382572"><ele>3.8</ele><time>2026-04-19T10:05:54.595Z</time></trkpt><trkpt lat="40.04765347504268" lon="18.01422079286036"><ele>4.2</ele><time>2026-04-19T10:05:55.595Z</time></trkpt><trkpt lat="40.04774243401478" lon="18.014284386865047"><ele>4.6</ele><time>2026-04-19T10:05:56.595Z</time></trkpt><trkpt lat="40.0478351699514" lon="18.014331074296944"><ele>5.0</ele><time>2026-04-19T10:05:57.595Z</time></trkpt><trkpt lat="40.04793138897684" lon="18.014361609353816"><ele>5.6</ele><time>2026-04-19T10:05:58.595Z</time></trkpt><trkpt lat="40.048033253914866" lon="18.01436606167586"><ele>6.2</ele><time>2026-04-19T10:05:59.595Z</time></trkpt><trkpt lat="40.0481367602732" lon="18.014360738784266"><ele>6.800000000000001</ele><time>2026-04-19T10:06:00.595Z</time></trkpt><trkpt lat="40.0482459806599" lon="18.01433373921987"><ele>7.4</ele><time>2026-04-19T10:06:01.595Z</time></trkpt><trkpt lat="40.04836106285265" lon="18.014281320711028"><ele>8.0</ele><time>2026-04-19T10:06:02.595Z</time></trkpt><trkpt lat="40.048466397222136" lon="18.01420315338211"><ele>8.200000000000001</ele><time>2026-04-19T10:06:03.595Z</time></trkpt><trkpt lat="40.04855622595041" lon="18.01410337826018"><ele>8.4</ele><time>2026-04-19T10:06:04.595Z</time></trkpt><trkpt lat="40.04863626198564" lon="18.014002066515623"><ele>8.600000000000001</ele><time>2026-04-19T10:06:05.595Z</time></trkpt><trkpt lat="40.0487005187909" lon="18.013895568183955"><ele>8.8</ele><time>2026-04-19T10:06:06.595Z</time></trkpt><trkpt lat="40.04875230182918" lon="18.01377588253825"><ele>9.0</ele><time>2026-04-19T10:06:07.595Z</time></trkpt><trkpt lat="40.04878863571546" lon="18.013646086611736"><ele>9.0</ele><time>2026-04-19T10:06:08.595Z</time></trkpt><trkpt lat="40.04880808726281" lon="18.013503957611398"><ele>9.0</ele><time>2026-04-19T10:06:09.595Z</time></trkpt><trkpt lat="40.048810535607636" lon="18.013361760170273"><ele>9.0</ele><time>2026-04-19T10:06:10.595Z</time></trkpt><trkpt lat="40.04880482083594" lon="18.013219960557535"><ele>9.0</ele><time>2026-04-19T10:06:11.595Z</time></trkpt><trkpt lat="40.048777055809666" lon="18.01307566331899"><ele>9.0</ele><time>2026-04-19T10:06:12.595Z</time></trkpt><trkpt lat="40.04874027123757" lon="18.01292777502523"><ele>8.25</ele><time>2026-04-19T10:06:13.595Z</time></trkpt><trkpt lat="40.04869473139089" lon="18.01277723663919"><ele>7.5</ele><time>2026-04-19T10:06:14.595Z</time></trkpt><trkpt lat="40.04865216123045" lon="18.012612054041174"><ele>6.75</ele><time>2026-04-19T10:06:15.595Z</time></trkpt><trkpt lat="40.0486019059314" lon="18.012431886882958"><ele>6.0</ele><time>2026-04-19T10:06:16.595Z</time></trkpt><trkpt lat="40.04855444482067" lon="18.012246791996745"><ele>6.0</ele><time>2026-04-19T10:06:17.595Z</time></trkpt><trkpt lat="40.04851076132237" lon="18.012073694884474"><ele>6.0</ele><time>2026-04-19T10:06:18.595Z</time></trkpt><trkpt lat="40.04847365417875" lon="18.011913269559873"><ele>6.0</ele><time>2026-04-19T10:06:19.595Z</time></trkpt><trkpt lat="40.04843501354415" lon="18.011755297269627"><ele>6.0</ele><time>2026-04-19T10:06:20.595Z</time></trkpt><trkpt lat="40.048397531517296" lon="18.011592521917493"><ele>6.0</ele><time>2026-04-19T10:06:21.595Z</time></trkpt><trkpt lat="40.04836205282102" lon="18.01142133927247"><ele>6.0</ele><time>2026-04-19T10:06:22.595Z</time></trkpt><trkpt lat="40.04832313178419" lon="18.011261522429574"><ele>6.0</ele><time>2026-04-19T10:06:23.595Z</time></trkpt><trkpt lat="40.0482803404058" lon="18.011106253344543"><ele>6.0</ele><time>2026-04-19T10:06:24.595Z</time></trkpt><trkpt lat="40.0482399244635" lon="18.010943254424284"><ele>5.25</ele><time>2026-04-19T10:06:25.595Z</time></trkpt><trkpt lat="40.048197999877765" lon="18.010778889059594"><ele>4.5</ele><time>2026-04-19T10:06:26.595Z</time></trkpt><trkpt lat="40.04815556051187" lon="18.01061320010135"><ele>3.75</ele><time>2026-04-19T10:06:27.595Z</time></trkpt><trkpt lat="40.048113719181956" lon="18.01044034783205"><ele>3.0</ele><time>2026-04-19T10:06:28.595Z</time></trkpt><trkpt lat="40.04807177017715" lon="18.010268295202614"><ele>3.0</ele><time>2026-04-19T10:06:29.595Z</time></trkpt><trkpt lat="40.0480362250788" lon="18.010109516326356"><ele>3.0</ele><time>2026-04-19T10:06:30.595Z</time></trkpt><trkpt lat="40.04800197381837" lon="18.009959529984155"><ele>3.0</ele><time>2026-04-19T10:06:31.595Z</time></trkpt><trkpt lat="40.047964526205064" lon="18.00981483702617"><ele>3.0</ele><time>2026-04-19T10:06:32.595Z</time></trkpt><trkpt lat="40.047927245562164" lon="18.009672692286205"><ele>3.0</ele><time>2026-04-19T10:06:33.595Z</time></trkpt><trkpt lat="40.04789450146428" lon="18.009534792235616"><ele>3.0</ele><time>2026-04-19T10:06:34.595Z</time></trkpt><trkpt lat="40.047864824456695" lon="18.00939457404919"><ele>3.0</ele><time>2026-04-19T10:06:35.595Z</time></trkpt><trkpt lat="40.04783932229154" lon="18.009251596212216"><ele>3.0</ele><time>2026-04-19T10:06:36.595Z</time></trkpt><trkpt lat="40.047806572717" lon="18.009112657815297"><ele>3.0</ele><time>2026-04-19T10:06:37.595Z</time></trkpt><trkpt lat="40.04777976174635" lon="18.008980617769524"><ele>3.0</ele><time>2026-04-19T10:06:38.595Z</time></trkpt><trkpt lat="40.04775402877437" lon="18.00884844881787"><ele>3.0</ele><time>2026-04-19T10:06:39.595Z</time></trkpt><trkpt lat="40.04773202401339" lon="18.008713290414125"><ele>3.0</ele><time>2026-04-19T10:06:40.595Z</time></trkpt><trkpt lat="40.04771661626636" lon="18.008564135825626"><ele>3.0</ele><time>2026-04-19T10:06:41.596Z</time></trkpt><trkpt lat="40.04770751953484" lon="18.0084068140673"><ele>3.0</ele><time>2026-04-19T10:06:42.596Z</time></trkpt><trkpt lat="40.04769851663067" lon="18.008261831156574"><ele>2.6</ele><time>2026-04-19T10:06:43.595Z</time></trkpt><trkpt lat="40.047692086183766" lon="18.00812842105083"><ele>2.1999999999999997</ele><time>2026-04-19T10:06:44.594Z</time></trkpt><trkpt lat="40.04768747137436" lon="18.008001691538933"><ele>1.8</ele><time>2026-04-19T10:06:45.594Z</time></trkpt><trkpt lat="40.04768259532335" lon="18.007878610251883"><ele>1.4</ele><time>2026-04-19T10:06:46.595Z</time></trkpt><trkpt lat="40.04767277733479" lon="18.00776593323372"><ele>1.0</ele><time>2026-04-19T10:06:47.595Z</time></trkpt><trkpt lat="40.04766812281704" lon="18.007658339798162"><ele>0.9999999999999999</ele><time>2026-04-19T10:06:48.595Z</time></trkpt><trkpt lat="40.047662466102565" lon="18.007542814619878"><ele>1.0</ele><time>2026-04-19T10:06:49.595Z</time></trkpt><trkpt lat="40.04765819915052" lon="18.00743256756261"><ele>1.0</ele><time>2026-04-19T10:06:50.595Z</time></trkpt><trkpt lat="40.047650110057354" lon="18.007328767539633"><ele>1.0</ele><time>2026-04-19T10:06:51.595Z</time></trkpt><trkpt lat="40.04764446415652" lon="18.0072268796603"><ele>0.9999999999999999</ele><time>2026-04-19T10:06:52.595Z</time></trkpt><trkpt lat="40.04763429486116" lon="18.00713328400398"><ele>1.0</ele><time>2026-04-19T10:06:53.595Z</time></trkpt><trkpt lat="40.04762020435324" lon="18.00704605900964"><ele>1.2000000000000002</ele><time>2026-04-19T10:06:54.595Z</time></trkpt><trkpt lat="40.04754510319542" lon="18.006933159835025"><ele>1.4000000000000001</ele><time>2026-04-19T10:06:56.595Z</time></trkpt><trkpt lat="40.04747627082855" lon="18.00690049765347"><ele>1.6</ele><time>2026-04-19T10:06:57.595Z</time></trkpt><trkpt lat="40.04740758516648" lon="18.00685936120197"><ele>1.8</ele><time>2026-04-19T10:06:58.595Z</time></trkpt><trkpt lat="40.047325948312675" lon="18.00680504167651"><ele>2.0</ele><time>2026-04-19T10:06:59.595Z</time></trkpt><trkpt lat="40.047236382192295" lon="18.00670326890608"><ele>2.0</ele><time>2026-04-19T10:07:00.595Z</time></trkpt><trkpt lat="40.047162401461875" lon="18.00660888450653"><ele>2.0</ele><time>2026-04-19T10:07:01.595Z</time></trkpt><trkpt lat="40.047097902135484" lon="18.00651591435696"><ele>2.0</ele><time>2026-04-19T10:07:02.595Z</time></trkpt><trkpt lat="40.047044597058" lon="18.006438434645926"><ele>2.0</ele><time>2026-04-19T10:07:03.595Z</time></trkpt><trkpt lat="40.0470022926835" lon="18.00636128047302"><ele>2.0</ele><time>2026-04-19T10:07:04.595Z</time></trkpt><trkpt lat="40.04695433104325" lon="18.006213034533012"><ele>2.0</ele><time>2026-04-19T10:07:06.595Z</time></trkpt><trkpt lat="40.04694699842873" lon="18.006126210683185"><ele>1.9999999999999998</ele><time>2026-04-19T10:07:07.595Z</time></trkpt><trkpt lat="40.046943518210405" lon="18.00603426160996"><ele>2.0</ele><time>2026-04-19T10:07:08.595Z</time></trkpt><trkpt lat="40.04694848230059" lon="18.005935678428912"><ele>2.0</ele><time>2026-04-19T10:07:09.595Z</time></trkpt><trkpt lat="40.04696611278168" lon="18.00583983437"><ele>1.9999999999999998</ele><time>2026-04-19T10:07:10.595Z</time></trkpt><trkpt lat="40.046996921433035" lon="18.005759173924215"><ele>2.0</ele><time>2026-04-19T10:07:11.595Z</time></trkpt><trkpt lat="40.04705231189005" lon="18.00567325988448"><ele>2.0</ele><time>2026-04-19T10:07:12.595Z</time></trkpt><trkpt lat="40.047112603705806" lon="18.00558974400775"><ele>1.8</ele><time>2026-04-19T10:07:13.595Z</time></trkpt><trkpt lat="40.0471819547786" lon="18.005493922175763"><ele>1.6</ele><time>2026-04-19T10:07:14.595Z</time></trkpt><trkpt lat="40.04724788469527" lon="18.00538670647536"><ele>1.4000000000000001</ele><time>2026-04-19T10:07:15.595Z</time></trkpt><trkpt lat="40.04731860374866" lon="18.005268433754853"><ele>1.2000000000000002</ele><time>2026-04-19T10:07:16.595Z</time></trkpt><trkpt lat="40.047385799384436" lon="18.005145116654745"><ele>1.0</ele><time>2026-04-19T10:07:17.595Z</time></trkpt><trkpt lat="40.04745178300682" lon="18.005013535194056"><ele>1.0</ele><time>2026-04-19T10:07:18.595Z</time></trkpt><trkpt lat="40.04751970758362" lon="18.004877511948724"><ele>1.0</ele><time>2026-04-19T10:07:19.595Z</time></trkpt><trkpt lat="40.0475911070917" lon="18.004735247092807"><ele>1.0</ele><time>2026-04-19T10:07:20.595Z</time></trkpt><trkpt lat="40.04766562860387" lon="18.004588960019337"><ele>1.0</ele><time>2026-04-19T10:07:21.595Z</time></trkpt><trkpt lat="40.0477387816841" lon="18.004453053490085"><ele>1.0</ele><time>2026-04-19T10:07:22.595Z</time></trkpt><trkpt lat="40.04780568616398" lon="18.004318929799833"><ele>1.0</ele><time>2026-04-19T10:07:23.595Z</time></trkpt><trkpt lat="40.047885272665056" lon="18.004189419735734"><ele>1.0</ele><time>2026-04-19T10:07:24.595Z</time></trkpt><trkpt lat="40.04795341733726" lon="18.004058352282048"><ele>1.0</ele><time>2026-04-19T10:07:25.595Z</time></trkpt><trkpt lat="40.04801752890529" lon="18.00393434671719"><ele>0.8</ele><time>2026-04-19T10:07:26.595Z</time></trkpt><trkpt lat="40.04808281942018" lon="18.003813474533867"><ele>0.6000000000000001</ele><time>2026-04-19T10:07:27.595Z</time></trkpt><trkpt lat="40.04814677149108" lon="18.003687780579952"><ele>0.4</ele><time>2026-04-19T10:07:28.595Z</time></trkpt><trkpt lat="40.04820586704667" lon="18.003562278925262"><ele>0.2</ele><time>2026-04-19T10:07:29.595Z</time></trkpt><trkpt lat="40.04826048104582" lon="18.00344274422921"><ele>0.0</ele><time>2026-04-19T10:07:30.595Z</time></trkpt><trkpt lat="40.04831953260131" lon="18.00332378968728"><ele>0.4</ele><time>2026-04-19T10:07:31.595Z</time></trkpt><trkpt lat="40.04837159573083" lon="18.003211200734988"><ele>0.8</ele><time>2026-04-19T10:07:32.595Z</time></trkpt><trkpt lat="40.04841003079909" lon="18.003104139835948"><ele>1.2000000000000002</ele><time>2026-04-19T10:07:33.595Z</time></trkpt><trkpt lat="40.04845165372972" lon="18.00300481315772"><ele>1.6</ele><time>2026-04-19T10:07:34.595Z</time></trkpt><trkpt lat="40.04847964013934" lon="18.00291128159629"><ele>2.0</ele><time>2026-04-19T10:07:35.595Z</time></trkpt><trkpt lat="40.04852427902613" lon="18.002771360959283"><ele>2.0</ele><time>2026-04-19T10:07:37.595Z</time></trkpt><trkpt lat="40.048565119135155" lon="18.002659980152792"><ele>2.0</ele><time>2026-04-19T10:07:39.595Z</time></trkpt><trkpt lat="40.04860244496456" lon="18.002560692748418"><ele>2.0</ele><time>2026-04-19T10:07:41.595Z</time></trkpt><trkpt lat="40.048645354414376" lon="18.002443805954858"><ele>2.0</ele><time>2026-04-19T10:07:43.595Z</time></trkpt><trkpt lat="40.04869313045634" lon="18.002320421338396"><ele>2.0</ele><time>2026-04-19T10:07:45.595Z</time></trkpt><trkpt lat="40.04872711733748" lon="18.0022453935204"><ele>2.2857142857142856</ele><time>2026-04-19T10:07:46.595Z</time></trkpt><trkpt lat="40.04876656084924" lon="18.002176832319456"><ele>2.571428571428571</ele><time>2026-04-19T10:07:47.595Z</time></trkpt><trkpt lat="40.04879651201318" lon="18.00209885380083"><ele>2.8571428571428568</ele><time>2026-04-19T10:07:48.595Z</time></trkpt><trkpt lat="40.04883052957142" lon="18.002028789868984"><ele>3.142857142857143</ele><time>2026-04-19T10:07:49.595Z</time></trkpt><trkpt lat="40.04886566954322" lon="18.00195820215747"><ele>3.428571428571428</ele><time>2026-04-19T10:07:50.595Z</time></trkpt><trkpt lat="40.04890557576547" lon="18.001878625844668"><ele>3.714285714285714</ele><time>2026-04-19T10:07:51.595Z</time></trkpt><trkpt lat="40.048943974410236" lon="18.001793405788778"><ele>4.0</ele><time>2026-04-19T10:07:52.595Z</time></trkpt><trkpt lat="40.048977934418076" lon="18.001711027919477"><ele>3.9999999999999996</ele><time>2026-04-19T10:07:53.595Z</time></trkpt><trkpt lat="40.04900862015995" lon="18.001635298507182"><ele>4.0</ele><time>2026-04-19T10:07:54.595Z</time></trkpt><trkpt lat="40.04907079201215" lon="18.001503596624154"><ele>4.0</ele><time>2026-04-19T10:07:56.595Z</time></trkpt><trkpt lat="40.049106119386565" lon="18.00142601121761"><ele>4.0</ele><time>2026-04-19T10:07:57.595Z</time></trkpt><trkpt lat="40.04913911194035" lon="18.001348618290965"><ele>3.9999999999999996</ele><time>2026-04-19T10:07:58.595Z</time></trkpt><trkpt lat="40.04918415589186" lon="18.001274008494594"><ele>4.0</ele><time>2026-04-19T10:07:59.595Z</time></trkpt><trkpt lat="40.04922283464438" lon="18.00119403453653"><ele>3.9999999999999996</ele><time>2026-04-19T10:08:00.595Z</time></trkpt><trkpt lat="40.04926603125162" lon="18.001103438585982"><ele>4.0</ele><time>2026-04-19T10:08:01.595Z</time></trkpt><trkpt lat="40.04931321278478" lon="18.00101079646183"><ele>4.0</ele><time>2026-04-19T10:08:02.595Z</time></trkpt><trkpt lat="40.04936259115813" lon="18.000917096179965"><ele>4.0</ele><time>2026-04-19T10:08:03.595Z</time></trkpt><trkpt lat="40.049417337248705" lon="18.00082044758386"><ele>3.9999999999999996</ele><time>2026-04-19T10:08:04.595Z</time></trkpt><trkpt lat="40.04947229219293" lon="18.000724284397936"><ele>4.0</ele><time>2026-04-19T10:08:05.595Z</time></trkpt><trkpt lat="40.04952516971804" lon="18.000637194239697"><ele>3.4285714285714284</ele><time>2026-04-19T10:08:06.595Z</time></trkpt><trkpt lat="40.04957195535543" lon="18.000574544952915"><ele>2.8571428571428568</ele><time>2026-04-19T10:08:07.595Z</time></trkpt><trkpt lat="40.0496179633945" lon="18.000500996322938"><ele>2.2857142857142856</ele><time>2026-04-19T10:08:08.595Z</time></trkpt><trkpt lat="40.04966580348201" lon="18.00043196836118"><ele>1.7142857142857142</ele><time>2026-04-19T10:08:09.595Z</time></trkpt><trkpt lat="40.04970982757856" lon="18.00036117660547"><ele>1.1428571428571428</ele><time>2026-04-19T10:08:10.595Z</time></trkpt><trkpt lat="40.04976054097016" lon="18.000281393891296"><ele>0.5714285714285714</ele><time>2026-04-19T10:08:11.595Z</time></trkpt><trkpt lat="40.049815119246574" lon="18.000200115450347"><ele>0.0</ele><time>2026-04-19T10:08:12.595Z</time></trkpt><trkpt lat="40.04988029095678" lon="18.000121354376216"><ele>0.0</ele><time>2026-04-19T10:08:13.595Z</time></trkpt><trkpt lat="40.04994393038898" lon="18.000032931733816"><ele>0.0</ele><time>2026-04-19T10:08:14.595Z</time></trkpt><trkpt lat="40.049985022426235" lon="17.999944895848795"><ele>0.0</ele><time>2026-04-19T10:08:15.595Z</time></trkpt><trkpt lat="40.050040049205876" lon="17.99985629438575"><ele>0.0</ele><time>2026-04-19T10:08:16.595Z</time></trkpt><trkpt lat="40.050099272640246" lon="17.999763213400094"><ele>0.0</ele><time>2026-04-19T10:08:17.595Z</time></trkpt><trkpt lat="40.05015804829506" lon="17.999675988705512"><ele>0.0</ele><time>2026-04-19T10:08:18.595Z</time></trkpt><trkpt lat="40.05021881324532" lon="17.99958656022867"><ele>0.8</ele><time>2026-04-19T10:08:19.595Z</time></trkpt><trkpt lat="40.050280054153625" lon="17.99949339353667"><ele>1.6</ele><time>2026-04-19T10:08:20.595Z</time></trkpt><trkpt lat="40.05034244825475" lon="17.999403866862817"><ele>2.4000000000000004</ele><time>2026-04-19T10:08:21.595Z</time></trkpt><trkpt lat="40.05040008948471" lon="17.999316937521094"><ele>3.2</ele><time>2026-04-19T10:08:22.595Z</time></trkpt><trkpt lat="40.05046650892338" lon="17.999233812443933"><ele>4.0</ele><time>2026-04-19T10:08:23.595Z</time></trkpt><trkpt lat="40.05052369514263" lon="17.99914537207677"><ele>4.0</ele><time>2026-04-19T10:08:24.595Z</time></trkpt><trkpt lat="40.05058366916107" lon="17.999060164046803"><ele>4.0</ele><time>2026-04-19T10:08:25.595Z</time></trkpt><trkpt lat="40.050645389772406" lon="17.998969520003953"><ele>4.0</ele><time>2026-04-19T10:08:26.595Z</time></trkpt><trkpt lat="40.05071135115801" lon="17.998874923792588"><ele>4.0</ele><time>2026-04-19T10:08:27.595Z</time></trkpt><trkpt lat="40.0507793127879" lon="17.998777279019123"><ele>4.0</ele><time>2026-04-19T10:08:28.595Z</time></trkpt><trkpt lat="40.05084127448278" lon="17.998683383553644"><ele>3.9999999999999996</ele><time>2026-04-19T10:08:29.595Z</time></trkpt><trkpt lat="40.0508958708967" lon="17.998598417453316"><ele>4.0</ele><time>2026-04-19T10:08:30.595Z</time></trkpt><trkpt lat="40.050955138233334" lon="17.998508531046998"><ele>4.0</ele><time>2026-04-19T10:08:31.595Z</time></trkpt><trkpt lat="40.051012046055135" lon="17.99842180747266"><ele>4.0</ele><time>2026-04-19T10:08:32.595Z</time></trkpt><trkpt lat="40.051063321801436" lon="17.998342011159163"><ele>3.9999999999999996</ele><time>2026-04-19T10:08:33.595Z</time></trkpt><trkpt lat="40.05111390584069" lon="17.99826391186662"><ele>4.0</ele><time>2026-04-19T10:08:34.595Z</time></trkpt><trkpt lat="40.05116506322491" lon="17.998180796541327"><ele>4.0</ele><time>2026-04-19T10:08:35.595Z</time></trkpt><trkpt lat="40.0512103773864" lon="17.998092062783712"><ele>3.9999999999999996</ele><time>2026-04-19T10:08:36.595Z</time></trkpt><trkpt lat="40.051254905140944" lon="17.998002415601732"><ele>4.0</ele><time>2026-04-19T10:08:37.595Z</time></trkpt><trkpt lat="40.05128964602355" lon="17.997916214445144"><ele>4.0</ele><time>2026-04-19T10:08:38.595Z</time></trkpt><trkpt lat="40.05132429296383" lon="17.99783191624679"><ele>3.9999999999999996</ele><time>2026-04-19T10:08:39.595Z</time></trkpt><trkpt lat="40.051354047615725" lon="17.997748275504826"><ele>4.0</ele><time>2026-04-19T10:08:40.595Z</time></trkpt><trkpt lat="40.051381871348134" lon="17.997670989075832"><ele>4.0</ele><time>2026-04-19T10:08:41.595Z</time></trkpt><trkpt lat="40.051418291927725" lon="17.997536109199785"><ele>3.6</ele><time>2026-04-19T10:08:43.595Z</time></trkpt><trkpt lat="40.05145474258926" lon="17.997407629032722"><ele>3.2</ele><time>2026-04-19T10:08:45.595Z</time></trkpt><trkpt lat="40.05148912689587" lon="17.997287104257666"><ele>2.8000000000000003</ele><time>2026-04-19T10:08:47.594Z</time></trkpt><trkpt lat="40.05152510475521" lon="17.99717648838385"><ele>2.4000000000000004</ele><time>2026-04-19T10:08:49.595Z</time></trkpt><trkpt lat="40.05156810980704" lon="17.997067336107357"><ele>2.0</ele><time>2026-04-19T10:08:51.595Z</time></trkpt><trkpt lat="40.05161602173788" lon="17.996944158010642"><ele>3.1666666666666665</ele><time>2026-04-19T10:08:53.595Z</time></trkpt><trkpt lat="40.05166036509892" lon="17.996816124183095"><ele>4.333333333333333</ele><time>2026-04-19T10:08:55.594Z</time></trkpt><trkpt lat="40.05168468410387" lon="17.996733174902545"><ele>5.5</ele><time>2026-04-19T10:08:56.594Z</time></trkpt><trkpt lat="40.051706816087645" lon="17.996641901233783"><ele>6.666666666666667</ele><time>2026-04-19T10:08:57.594Z</time></trkpt><trkpt lat="40.051733252411424" lon="17.99653949520523"><ele>7.833333333333333</ele><time>2026-04-19T10:08:58.594Z</time></trkpt><trkpt lat="40.051764563402934" lon="17.996440241738263"><ele>9.0</ele><time>2026-04-19T10:08:59.594Z</time></trkpt><trkpt lat="40.05179072403636" lon="17.996357640958095"><ele>9.0</ele><time>2026-04-19T10:09:00.594Z</time></trkpt><trkpt lat="40.05182055569145" lon="17.996271140492343"><ele>9.0</ele><time>2026-04-19T10:09:01.594Z</time></trkpt><trkpt lat="40.05185508915165" lon="17.996178166967386"><ele>9.0</ele><time>2026-04-19T10:09:02.594Z</time></trkpt><trkpt lat="40.051895846441305" lon="17.996068849032437"><ele>9.0</ele><time>2026-04-19T10:09:03.594Z</time></trkpt><trkpt lat="40.05193798673216" lon="17.99594635532184"><ele>9.0</ele><time>2026-04-19T10:09:04.594Z</time></trkpt><trkpt lat="40.05198897024984" lon="17.99578701390683"><ele>7.75</ele><time>2026-04-19T10:09:05.594Z</time></trkpt><trkpt lat="40.05204315971541" lon="17.995612896952128"><ele>6.5</ele><time>2026-04-19T10:09:06.594Z</time></trkpt><trkpt lat="40.05209175855256" lon="17.995444006025092"><ele>5.25</ele><time>2026-04-19T10:09:07.594Z</time></trkpt><trkpt lat="40.052152318275894" lon="17.99529322241995"><ele>4.0</ele><time>2026-04-19T10:09:08.594Z</time></trkpt><trkpt lat="40.05220916622819" lon="17.99515489906358"><ele>4.0</ele><time>2026-04-19T10:09:09.594Z</time></trkpt><trkpt lat="40.0522647780512" lon="17.995032773469415"><ele>4.0</ele><time>2026-04-19T10:09:10.594Z</time></trkpt><trkpt lat="40.05231164156817" lon="17.994920826334898"><ele>4.0</ele><time>2026-04-19T10:09:11.594Z</time></trkpt><trkpt lat="40.05235418946006" lon="17.99482435822224"><ele>4.0</ele><time>2026-04-19T10:09:12.594Z</time></trkpt><trkpt lat="40.05239153958582" lon="17.99472761408442"><ele>4.0</ele><time>2026-04-19T10:09:13.594Z</time></trkpt><trkpt lat="40.05242302154771" lon="17.994632996358142"><ele>3.6</ele><time>2026-04-19T10:09:14.594Z</time></trkpt><trkpt lat="40.05245507217225" lon="17.994540362428605"><ele>3.2</ele><time>2026-04-19T10:09:15.594Z</time></trkpt><trkpt lat="40.052489581776065" lon="17.994446502632496"><ele>2.8000000000000003</ele><time>2026-04-19T10:09:16.594Z</time></trkpt><trkpt lat="40.05251750703115" lon="17.994337516322037"><ele>2.4000000000000004</ele><time>2026-04-19T10:09:17.594Z</time></trkpt><trkpt lat="40.05255701647636" lon="17.994220509968592"><ele>2.0</ele><time>2026-04-19T10:09:18.594Z</time></trkpt><trkpt lat="40.05259701338631" lon="17.99409183334087"><ele>3.6</ele><time>2026-04-19T10:09:19.594Z</time></trkpt><trkpt lat="40.05264170492363" lon="17.993967060078962"><ele>5.2</ele><time>2026-04-19T10:09:20.594Z</time></trkpt><trkpt lat="40.05268909474646" lon="17.993838821006953"><ele>6.8</ele><time>2026-04-19T10:09:21.594Z</time></trkpt><trkpt lat="40.05272474648715" lon="17.99371625714182"><ele>8.4</ele><time>2026-04-19T10:09:22.594Z</time></trkpt><trkpt lat="40.05275712205031" lon="17.993598373188785"><ele>10.0</ele><time>2026-04-19T10:09:23.594Z</time></trkpt><trkpt lat="40.05278712120604" lon="17.993485465837963"><ele>10.0</ele><time>2026-04-19T10:09:24.594Z</time></trkpt><trkpt lat="40.05281914053334" lon="17.99337136775747"><ele>10.0</ele><time>2026-04-19T10:09:25.594Z</time></trkpt><trkpt lat="40.052853857980075" lon="17.993255275106467"><ele>10.0</ele><time>2026-04-19T10:09:26.594Z</time></trkpt><trkpt lat="40.052889558622404" lon="17.99314229461571"><ele>10.0</ele><time>2026-04-19T10:09:27.594Z</time></trkpt><trkpt lat="40.05291839380923" lon="17.993042727232535"><ele>10.0</ele><time>2026-04-19T10:09:28.594Z</time></trkpt><trkpt lat="40.05295121605926" lon="17.99295446653087"><ele>10.0</ele><time>2026-04-19T10:09:29.594Z</time></trkpt><trkpt lat="40.05298706446149" lon="17.99288306397482"><ele>9.333333333333334</ele><time>2026-04-19T10:09:30.594Z</time></trkpt><trkpt lat="40.05305241234425" lon="17.992799626179924"><ele>8.666666666666668</ele><time>2026-04-19T10:09:32.594Z</time></trkpt><trkpt lat="40.053147301533315" lon="17.992740361284092"><ele>8.0</ele><time>2026-04-19T10:09:34.594Z</time></trkpt><trkpt lat="40.05322217385404" lon="17.992755353918284"><ele>7.333333333333334</ele><time>2026-04-19T10:09:36.594Z</time></trkpt><trkpt lat="40.053296002768036" lon="17.992796150654218"><ele>6.666666666666667</ele><time>2026-04-19T10:09:41.594Z</time></trkpt><trkpt lat="40.05337344458641" lon="17.992811863460812"><ele>6.0</ele><time>2026-04-19T10:09:43.594Z</time></trkpt><trkpt lat="40.05345175560922" lon="17.99280655118517"><ele>7.666666666666666</ele><time>2026-04-19T10:09:45.594Z</time></trkpt><trkpt lat="40.053545798603274" lon="17.992798897380126"><ele>9.333333333333332</ele><time>2026-04-19T10:09:47.594Z</time></trkpt><trkpt lat="40.053668572178616" lon="17.992792823434606"><ele>11.0</ele><time>2026-04-19T10:09:49.594Z</time></trkpt><trkpt lat="40.053736572894394" lon="17.992794789411445"><ele>12.666666666666666</ele><time>2026-04-19T10:09:50.594Z</time></trkpt><trkpt lat="40.0538046263899" lon="17.992798203344634"><ele>14.333333333333332</ele><time>2026-04-19T10:09:51.594Z</time></trkpt><trkpt lat="40.05388055211848" lon="17.992798423063324"><ele>16.0</ele><time>2026-04-19T10:09:52.594Z</time></trkpt><trkpt lat="40.053946896245776" lon="17.99279490840568"><ele>15.999999999999998</ele><time>2026-04-19T10:09:53.594Z</time></trkpt><trkpt lat="40.054011631162965" lon="17.99279081792472"><ele>16.0</ele><time>2026-04-19T10:09:54.594Z</time></trkpt><trkpt lat="40.054076891201724" lon="17.99279895132635"><ele>16.0</ele><time>2026-04-19T10:09:55.594Z</time></trkpt><trkpt lat="40.05414066202799" lon="17.992806064051813"><ele>16.0</ele><time>2026-04-19T10:09:56.594Z</time></trkpt><trkpt lat="40.05422309969136" lon="17.992825450111848"><ele>15.999999999999998</ele><time>2026-04-19T10:09:58.594Z</time></trkpt><trkpt lat="40.05431189600279" lon="17.992821013956224"><ele>16.0</ele><time>2026-04-19T10:10:01.594Z</time></trkpt><trkpt lat="40.054403908588554" lon="17.992823068911715"><ele>16.5</ele><time>2026-04-19T10:10:03.594Z</time></trkpt><trkpt lat="40.0544817770367" lon="17.99280532806554"><ele>17.0</ele><time>2026-04-19T10:10:05.594Z</time></trkpt><trkpt lat="40.05456351249374" lon="17.99278649925309"><ele>17.5</ele><time>2026-04-19T10:10:08.594Z</time></trkpt><trkpt lat="40.054654248467415" lon="17.99276592407368"><ele>18.0</ele><time>2026-04-19T10:10:11.594Z</time></trkpt><trkpt lat="40.054746371789506" lon="17.992760071698864"><ele>18.5</ele><time>2026-04-19T10:10:14.594Z</time></trkpt><trkpt lat="40.05483376798006" lon="17.992764503547487"><ele>19.0</ele><time>2026-04-19T10:10:16.594Z</time></trkpt><trkpt lat="40.054928335775465" lon="17.992773942609876"><ele>18.599999999999998</ele><time>2026-04-19T10:10:18.594Z</time></trkpt><trkpt lat="40.05503050509028" lon="17.992768565128127"><ele>18.2</ele><time>2026-04-19T10:10:20.594Z</time></trkpt><trkpt lat="40.05513979387433" lon="17.992768659089588"><ele>17.799999999999997</ele><time>2026-04-19T10:10:22.594Z</time></trkpt><trkpt lat="40.055232124634216" lon="17.992775493444146"><ele>17.4</ele><time>2026-04-19T10:10:24.594Z</time></trkpt><trkpt lat="40.05532508434134" lon="17.992787082684117"><ele>17.0</ele><time>2026-04-19T10:10:26.594Z</time></trkpt><trkpt lat="40.055409767625136" lon="17.992796675674885"><ele>17.0</ele><time>2026-04-19T10:10:28.594Z</time></trkpt><trkpt lat="40.05548481038215" lon="17.992786957365205"><ele>17.0</ele><time>2026-04-19T10:10:30.594Z</time></trkpt><trkpt lat="40.05556008705916" lon="17.99277814072648"><ele>17.0</ele><time>2026-04-19T10:10:33.594Z</time></trkpt><trkpt lat="40.05561907583548" lon="17.992847228341095"><ele>17.0</ele><time>2026-04-19T10:11:33.593Z</time></trkpt><trkpt lat="40.055682703218345" lon="17.992835208745483"><ele>17.0</ele><time>2026-04-19T10:11:36.593Z</time></trkpt><trkpt lat="40.055772754531766" lon="17.992844653873778"><ele>17.0</ele><time>2026-04-19T10:11:38.593Z</time></trkpt><trkpt lat="40.05585251483476" lon="17.992843139722186"><ele>17.0</ele><time>2026-04-19T10:11:40.593Z</time></trkpt><trkpt lat="40.05593589667536" lon="17.99278430812082"><ele>17.0</ele><time>2026-04-19T10:11:43.593Z</time></trkpt><trkpt lat="40.05595163815503" lon="17.992665966799752"><ele>17.0</ele><time>2026-04-19T10:11:45.593Z</time></trkpt><trkpt lat="40.05595799192621" lon="17.992562850445164"><ele>17.0</ele><time>2026-04-19T10:11:47.593Z</time></trkpt><trkpt lat="40.055955864077426" lon="17.992437313924423"><ele>17.0</ele><time>2026-04-19T10:11:49.593Z</time></trkpt><trkpt lat="40.055951731471296" lon="17.99231013024958"><ele>17.2</ele><time>2026-04-19T10:11:51.593Z</time></trkpt><trkpt lat="40.05594962573005" lon="17.992187740528504"><ele>17.4</ele><time>2026-04-19T10:11:53.593Z</time></trkpt><trkpt lat="40.055951601120654" lon="17.992072989776652"><ele>17.6</ele><time>2026-04-19T10:11:55.593Z</time></trkpt><trkpt lat="40.055953146663704" lon="17.991956760984905"><ele>17.8</ele><time>2026-04-19T10:11:57.593Z</time></trkpt><trkpt lat="40.055969842658904" lon="17.991821094745028"><ele>18.0</ele><time>2026-04-19T10:11:59.593Z</time></trkpt><trkpt lat="40.05597923198971" lon="17.99169816125384"><ele>17.8</ele><time>2026-04-19T10:12:01.593Z</time></trkpt><trkpt lat="40.05598719523698" lon="17.991578034961293"><ele>17.6</ele><time>2026-04-19T10:12:03.593Z</time></trkpt><trkpt lat="40.05601384256217" lon="17.99143134054874"><ele>17.4</ele><time>2026-04-19T10:12:05.593Z</time></trkpt><trkpt lat="40.05601551427161" lon="17.99127633025782"><ele>17.2</ele><time>2026-04-19T10:12:07.593Z</time></trkpt><trkpt lat="40.056019666089114" lon="17.991121496244293"><ele>17.0</ele><time>2026-04-19T10:12:09.593Z</time></trkpt><trkpt lat="40.0560322763051" lon="17.9909802574576"><ele>17.0</ele><time>2026-04-19T10:12:11.593Z</time></trkpt><trkpt lat="40.05603399948791" lon="17.990856802481737"><ele>17.0</ele><time>2026-04-19T10:12:13.593Z</time></trkpt><trkpt lat="40.056036982911266" lon="17.990757272944684"><ele>17.0</ele><time>2026-04-19T10:12:15.593Z</time></trkpt><trkpt lat="40.05603852591719" lon="17.99067282607983"><ele>17.0</ele><time>2026-04-19T10:12:17.593Z</time></trkpt><trkpt lat="40.056034859538954" lon="17.990584818199167"><ele>17.0</ele><time>2026-04-19T10:12:19.593Z</time></trkpt><trkpt lat="40.056037984148766" lon="17.990472142672033"><ele>17.0</ele><time>2026-04-19T10:12:21.593Z</time></trkpt><trkpt lat="40.056031705121434" lon="17.99033939298305"><ele>16.833333333333336</ele><time>2026-04-19T10:12:23.593Z</time></trkpt><trkpt lat="40.056042043709326" lon="17.990236418693566"><ele>16.666666666666668</ele><time>2026-04-19T10:12:25.593Z</time></trkpt><trkpt lat="40.0560520538639" lon="17.990119762728806"><ele>16.5</ele><time>2026-04-19T10:12:28.593Z</time></trkpt><trkpt lat="40.056058182162516" lon="17.990032689261092"><ele>16.333333333333332</ele><time>2026-04-19T10:12:30.593Z</time></trkpt><trkpt lat="40.056059027811614" lon="17.989921437506666"><ele>16.166666666666664</ele><time>2026-04-19T10:12:33.593Z</time></trkpt><trkpt lat="40.05606071071096" lon="17.989812864632622"><ele>16.0</ele><time>2026-04-19T10:12:36.593Z</time></trkpt><trkpt lat="40.0560615084627" lon="17.98970535629226"><ele>15.600000000000001</ele><time>2026-04-19T10:12:39.593Z</time></trkpt><trkpt lat="40.05606911096939" lon="17.989596163917113"><ele>15.200000000000001</ele><time>2026-04-19T10:12:41.593Z</time></trkpt><trkpt lat="40.05607659453176" lon="17.989473629851275"><ele>14.799999999999999</ele><time>2026-04-19T10:12:43.593Z</time></trkpt><trkpt lat="40.05608602213452" lon="17.989343297783787"><ele>14.399999999999999</ele><time>2026-04-19T10:12:45.593Z</time></trkpt><trkpt lat="40.05607447993475" lon="17.989202837875"><ele>14.0</ele><time>2026-04-19T10:12:47.593Z</time></trkpt><trkpt lat="40.05608010706196" lon="17.989070278727603"><ele>13.428571428571429</ele><time>2026-04-19T10:12:49.593Z</time></trkpt><trkpt lat="40.0560868061973" lon="17.988978235271514"><ele>12.857142857142858</ele><time>2026-04-19T10:12:51.593Z</time></trkpt><trkpt lat="40.05609699498072" lon="17.988878787980024"><ele>12.285714285714285</ele><time>2026-04-19T10:12:54.593Z</time></trkpt><trkpt lat="40.05610572854905" lon="17.98879049438016"><ele>11.714285714285715</ele><time>2026-04-19T10:12:57.593Z</time></trkpt><trkpt lat="40.05612429834488" lon="17.988687788682935"><ele>11.142857142857142</ele><time>2026-04-19T10:12:59.593Z</time></trkpt><trkpt lat="40.0561228221113" lon="17.988590521352414"><ele>10.571428571428571</ele><time>2026-04-19T10:13:01.592Z</time></trkpt><trkpt lat="40.05612469230787" lon="17.988508032712303"><ele>10.0</ele><time>2026-04-19T10:13:03.592Z</time></trkpt><trkpt lat="40.0561129108131" lon="17.98840354673949"><ele>10.0</ele><time>2026-04-19T10:13:06.592Z</time></trkpt><trkpt lat="40.056099051897725" lon="17.98829763905332"><ele>10.0</ele><time>2026-04-19T10:13:09.593Z</time></trkpt><trkpt lat="40.056086067558745" lon="17.988191525005384"><ele>10.0</ele><time>2026-04-19T10:13:12.592Z</time></trkpt><trkpt lat="40.05608191022629" lon="17.98810461920958"><ele>10.0</ele><time>2026-04-19T10:13:15.592Z</time></trkpt><trkpt lat="40.05607872088679" lon="17.988005860296084"><ele>10.0</ele><time>2026-04-19T10:13:18.592Z</time></trkpt><trkpt lat="40.056093084800985" lon="17.987910625795525"><ele>10.0</ele><time>2026-04-19T10:13:21.592Z</time></trkpt><trkpt lat="40.05613324941291" lon="17.98784542006603"><ele>10.0</ele><time>2026-04-19T10:13:30.592Z</time></trkpt><trkpt lat="40.056141693942116" lon="17.987754181223412"><ele>10.0</ele><time>2026-04-19T10:13:33.592Z</time></trkpt><trkpt lat="40.05615114833741" lon="17.98763817839377"><ele>10.0</ele><time>2026-04-19T10:13:36.592Z</time></trkpt><trkpt lat="40.05615573318716" lon="17.987523922507005"><ele>10.0</ele><time>2026-04-19T10:13:39.592Z</time></trkpt><trkpt lat="40.056152698399416" lon="17.987399586749767"><ele>10.0</ele><time>2026-04-19T10:13:41.592Z</time></trkpt><trkpt lat="40.056146218464235" lon="17.987316720758347"><ele>10.0</ele><time>2026-04-19T10:13:42.592Z</time></trkpt><trkpt lat="40.05614266216045" lon="17.987175306389236"><ele>10.0</ele><time>2026-04-19T10:13:44.592Z</time></trkpt><trkpt lat="40.05614115521531" lon="17.98703580389517"><ele>10.2</ele><time>2026-04-19T10:13:46.592Z</time></trkpt><trkpt lat="40.05614884050401" lon="17.986882273682696"><ele>10.4</ele><time>2026-04-19T10:13:48.592Z</time></trkpt><trkpt lat="40.05614847422064" lon="17.986747992887405"><ele>10.600000000000001</ele><time>2026-04-19T10:13:50.592Z</time></trkpt><trkpt lat="40.05614179315779" lon="17.98662294443867"><ele>10.8</ele><time>2026-04-19T10:13:52.592Z</time></trkpt><trkpt lat="40.056120295013216" lon="17.986489501359014"><ele>11.0</ele><time>2026-04-19T10:13:54.592Z</time></trkpt><trkpt lat="40.05612486208329" lon="17.986401044825403"><ele>10.666666666666666</ele><time>2026-04-19T10:13:55.592Z</time></trkpt><trkpt lat="40.056127089434064" lon="17.986305812080396"><ele>10.333333333333332</ele><time>2026-04-19T10:13:56.592Z</time></trkpt><trkpt lat="40.05613278246452" lon="17.986213318597088"><ele>10.0</ele><time>2026-04-19T10:13:57.592Z</time></trkpt><trkpt lat="40.05613795458226" lon="17.98612226550048"><ele>9.666666666666666</ele><time>2026-04-19T10:13:58.592Z</time></trkpt><trkpt lat="40.056139628598245" lon="17.986025216601096"><ele>9.333333333333334</ele><time>2026-04-19T10:13:59.592Z</time></trkpt><trkpt lat="40.05613006124917" lon="17.985914639454"><ele>9.0</ele><time>2026-04-19T10:14:00.592Z</time></trkpt><trkpt lat="40.05613906439032" lon="17.985772930975532"><ele>8.4</ele><time>2026-04-19T10:14:01.592Z</time></trkpt><trkpt lat="40.056151054645404" lon="17.985637922998755"><ele>7.800000000000001</ele><time>2026-04-19T10:14:02.592Z</time></trkpt><trkpt lat="40.05616209798498" lon="17.985505183578464"><ele>7.199999999999999</ele><time>2026-04-19T10:14:03.592Z</time></trkpt><trkpt lat="40.05616100546217" lon="17.985382004777804"><ele>6.6</ele><time>2026-04-19T10:14:04.592Z</time></trkpt><trkpt lat="40.05615849575873" lon="17.985265063440387"><ele>6.0</ele><time>2026-04-19T10:14:05.592Z</time></trkpt><trkpt lat="40.056162025454434" lon="17.98515662225557"><ele>6.0</ele><time>2026-04-19T10:14:06.592Z</time></trkpt><trkpt lat="40.05617085070345" lon="17.98504979020747"><ele>6.0</ele><time>2026-04-19T10:14:07.592Z</time></trkpt><trkpt lat="40.056187905589404" lon="17.984941611391985"><ele>6.0</ele><time>2026-04-19T10:14:08.592Z</time></trkpt><trkpt lat="40.05619034079254" lon="17.98483709651998"><ele>6.0</ele><time>2026-04-19T10:14:09.592Z</time></trkpt><trkpt lat="40.05619067750791" lon="17.98472534346419"><ele>6.0</ele><time>2026-04-19T10:14:10.592Z</time></trkpt><trkpt lat="40.05619053646119" lon="17.984617618525462"><ele>6.0</ele><time>2026-04-19T10:14:11.592Z</time></trkpt><trkpt lat="40.05619426534177" lon="17.98450942380894"><ele>5.666666666666667</ele><time>2026-04-19T10:14:12.592Z</time></trkpt><trkpt lat="40.0561992040514" lon="17.98441701857793"><ele>5.333333333333333</ele><time>2026-04-19T10:14:13.592Z</time></trkpt><trkpt lat="40.056194978651234" lon="17.984272108959402"><ele>5.0</ele><time>2026-04-19T10:14:15.592Z</time></trkpt><trkpt lat="40.05619564384433" lon="17.98416224663254"><ele>4.666666666666666</ele><time>2026-04-19T10:14:17.592Z</time></trkpt><trkpt lat="40.05617186361297" lon="17.98405527117515"><ele>4.333333333333333</ele><time>2026-04-19T10:14:20.592Z</time></trkpt><trkpt lat="40.05615764392406" lon="17.98395046342763"><ele>4.0</ele><time>2026-04-19T10:14:23.592Z</time></trkpt><trkpt lat="40.05614914661345" lon="17.98384688788326"><ele>3.8000000000000003</ele><time>2026-04-19T10:14:27.592Z</time></trkpt><trkpt lat="40.05614978496836" lon="17.983754515093867"><ele>3.6000000000000005</ele><time>2026-04-19T10:14:29.592Z</time></trkpt><trkpt lat="40.05615259890658" lon="17.983628855075647"><ele>3.4</ele><time>2026-04-19T10:14:31.592Z</time></trkpt><trkpt lat="40.05614641541622" lon="17.983493509792858"><ele>3.2</ele><time>2026-04-19T10:14:33.592Z</time></trkpt><trkpt lat="40.05615632434343" lon="17.98335244498975"><ele>3.0</ele><time>2026-04-19T10:14:35.592Z</time></trkpt><trkpt lat="40.05617251757154" lon="17.983195787584208"><ele>3.0</ele><time>2026-04-19T10:14:37.592Z</time></trkpt><trkpt lat="40.056181846361476" lon="17.98311118316532"><ele>3.0</ele><time>2026-04-19T10:14:38.592Z</time></trkpt><trkpt lat="40.056179219933874" lon="17.98296398143824"><ele>3.0</ele><time>2026-04-19T10:14:40.592Z</time></trkpt><trkpt lat="40.056179720860946" lon="17.982833597548485"><ele>3.0</ele><time>2026-04-19T10:14:42.592Z</time></trkpt><trkpt lat="40.05618126011652" lon="17.98271670427395"><ele>3.0</ele><time>2026-04-19T10:14:44.592Z</time></trkpt><trkpt lat="40.056183577840514" lon="17.982623086465157"><ele>3.0</ele><time>2026-04-19T10:14:46.592Z</time></trkpt><trkpt lat="40.05617620833792" lon="17.982539976491736"><ele>4.0</ele><time>2026-04-19T10:14:48.592Z</time></trkpt><trkpt lat="40.05616572551496" lon="17.982421303768998"><ele>5.0</ele><time>2026-04-19T10:14:51.592Z</time></trkpt><trkpt lat="40.0561651125764" lon="17.982322376847996"><ele>6.0</ele><time>2026-04-19T10:14:53.592Z</time></trkpt><trkpt lat="40.056168020996786" lon="17.982218955624443"><ele>7.0</ele><time>2026-04-19T10:14:56.592Z</time></trkpt><trkpt lat="40.05616967142951" lon="17.982106661911846"><ele>8.0</ele><time>2026-04-19T10:14:58.592Z</time></trkpt><trkpt lat="40.0561699730277" lon="17.982005950037824"><ele>9.0</ele><time>2026-04-19T10:15:00.592Z</time></trkpt><trkpt lat="40.056175313545744" lon="17.981895320695195"><ele>9.0</ele><time>2026-04-19T10:15:02.592Z</time></trkpt><trkpt lat="40.05617503019704" lon="17.981812918689354"><ele>9.0</ele><time>2026-04-19T10:15:04.591Z</time></trkpt><trkpt lat="40.05617087322011" lon="17.981701807705818"><ele>9.0</ele><time>2026-04-19T10:15:07.591Z</time></trkpt><trkpt lat="40.056166533969844" lon="17.981616203719593"><ele>9.0</ele><time>2026-04-19T10:15:09.591Z</time></trkpt><trkpt lat="40.05617196072098" lon="17.981504142946086"><ele>9.0</ele><time>2026-04-19T10:15:12.591Z</time></trkpt><trkpt lat="40.05617533136602" lon="17.981399701167657"><ele>9.0</ele><time>2026-04-19T10:15:14.591Z</time></trkpt><trkpt lat="40.05621582866521" lon="17.98126350016025"><ele>9.333333333333334</ele><time>2026-04-19T10:15:16.591Z</time></trkpt><trkpt lat="40.05624190834811" lon="17.981134525726738"><ele>9.666666666666666</ele><time>2026-04-19T10:15:18.591Z</time></trkpt><trkpt lat="40.05623032240262" lon="17.981041239483403"><ele>10.0</ele><time>2026-04-19T10:15:20.591Z</time></trkpt><trkpt lat="40.05617444431546" lon="17.981104912478177"><ele>10.333333333333332</ele><time>2026-04-19T10:15:25.591Z</time></trkpt><trkpt lat="40.05618656523716" lon="17.98118958173667"><ele>10.666666666666666</ele><time>2026-04-19T10:15:27.591Z</time></trkpt><trkpt lat="40.05619784942786" lon="17.981301011670723"><ele>11.0</ele><time>2026-04-19T10:15:29.591Z</time></trkpt><trkpt lat="40.05620154614829" lon="17.981395487559457"><ele>11.0</ele><time>2026-04-19T10:15:31.591Z</time></trkpt><trkpt lat="40.0561994085353" lon="17.981488910509164"><ele>11.0</ele><time>2026-04-19T10:15:34.591Z</time></trkpt><trkpt lat="40.05619496379369" lon="17.98159688653525"><ele>11.0</ele><time>2026-04-19T10:15:37.591Z</time></trkpt><trkpt lat="40.05619318459948" lon="17.98168725029077"><ele>11.0</ele><time>2026-04-19T10:15:39.591Z</time></trkpt><trkpt lat="40.05619361660381" lon="17.98178985638015"><ele>11.0</ele><time>2026-04-19T10:15:42.591Z</time></trkpt><trkpt lat="40.05619297827914" lon="17.981882075143357"><ele>11.0</ele><time>2026-04-19T10:15:45.591Z</time></trkpt><trkpt lat="40.05616398599989" lon="17.98200409491081"><ele>10.666666666666666</ele><time>2026-04-19T10:15:48.591Z</time></trkpt><trkpt lat="40.05615653250506" lon="17.982089639167004"><ele>10.333333333333332</ele><time>2026-04-19T10:15:50.591Z</time></trkpt><trkpt lat="40.05617092610754" lon="17.982170631463042"><ele>10.0</ele><time>2026-04-19T10:15:53.591Z</time></trkpt><trkpt lat="40.05615152391188" lon="17.982272585367834"><ele>9.666666666666666</ele><time>2026-04-19T10:15:57.591Z</time></trkpt><trkpt lat="40.056134908531526" lon="17.98235983637989"><ele>9.333333333333334</ele><time>2026-04-19T10:16:03.591Z</time></trkpt><trkpt lat="40.056102178446" lon="17.982498170025274"><ele>9.0</ele><time>2026-04-19T10:16:06.591Z</time></trkpt><trkpt lat="40.05609698170037" lon="17.98264503913051"><ele>7.8</ele><time>2026-04-19T10:16:08.591Z</time></trkpt><trkpt lat="40.05609311369756" lon="17.98275567513548"><ele>6.6000000000000005</ele><time>2026-04-19T10:16:09.591Z</time></trkpt><trkpt lat="40.056102351698186" lon="17.98289966821189"><ele>5.4</ele><time>2026-04-19T10:16:11.591Z</time></trkpt><trkpt lat="40.05611010533697" lon="17.983016038594457"><ele>4.2</ele><time>2026-04-19T10:16:13.591Z</time></trkpt><trkpt lat="40.05612048585674" lon="17.983144586076452"><ele>3.0</ele><time>2026-04-19T10:16:15.591Z</time></trkpt><trkpt lat="40.05611964387688" lon="17.983252637782236"><ele>3.0</ele><time>2026-04-19T10:16:17.591Z</time></trkpt><trkpt lat="40.05607197960252" lon="17.983324273448364"><ele>3.0</ele><time>2026-04-19T10:16:20.591Z</time></trkpt><trkpt lat="40.05599063170947" lon="17.983343275025874"><ele>3.0</ele><time>2026-04-19T10:16:22.591Z</time></trkpt><trkpt lat="40.05588252957178" lon="17.98334700465239"><ele>3.0</ele><time>2026-04-19T10:16:24.591Z</time></trkpt><trkpt lat="40.055791156625034" lon="17.98335444335461"><ele>3.0</ele><time>2026-04-19T10:16:26.591Z</time></trkpt><trkpt lat="40.05568484632425" lon="17.9833749120462"><ele>2.75</ele><time>2026-04-19T10:16:28.591Z</time></trkpt><trkpt lat="40.05556926998233" lon="17.983360427697882"><ele>2.5</ele><time>2026-04-19T10:16:30.591Z</time></trkpt><trkpt lat="40.055464235268595" lon="17.983366648060017"><ele>2.25</ele><time>2026-04-19T10:16:32.591Z</time></trkpt><trkpt lat="40.05535239247832" lon="17.983356889697017"><ele>2.0</ele><time>2026-04-19T10:16:34.591Z</time></trkpt><trkpt lat="40.05523573189817" lon="17.98334401091918"><ele>1.8333333333333333</ele><time>2026-04-19T10:16:36.591Z</time></trkpt><trkpt lat="40.05515390893354" lon="17.98336182503689"><ele>1.6666666666666665</ele><time>2026-04-19T10:16:38.591Z</time></trkpt><trkpt lat="40.05507962783674" lon="17.983386365317983"><ele>1.5</ele><time>2026-04-19T10:16:41.591Z</time></trkpt><trkpt lat="40.05502683369256" lon="17.983501682477044"><ele>1.3333333333333333</ele><time>2026-04-19T10:16:44.591Z</time></trkpt><trkpt lat="40.05502998193473" lon="17.983595026370768"><ele>1.1666666666666665</ele><time>2026-04-19T10:16:45.591Z</time></trkpt><trkpt lat="40.05503915424953" lon="17.983703178631455"><ele>1.0</ele><time>2026-04-19T10:16:46.591Z</time></trkpt><trkpt lat="40.05504526317699" lon="17.983842125928795"><ele>1.0</ele><time>2026-04-19T10:16:47.591Z</time></trkpt><trkpt lat="40.055049343868106" lon="17.983983008581966"><ele>1.0</ele><time>2026-04-19T10:16:48.591Z</time></trkpt><trkpt lat="40.055026709612136" lon="17.98410898695399"><ele>1.0</ele><time>2026-04-19T10:16:49.591Z</time></trkpt><trkpt lat="40.055004298292864" lon="17.98422962383933"><ele>1.0</ele><time>2026-04-19T10:16:50.591Z</time></trkpt><trkpt lat="40.054978306979685" lon="17.984332309753064"><ele>1.0</ele><time>2026-04-19T10:16:51.591Z</time></trkpt><trkpt lat="40.05495523923368" lon="17.984435844981956"><ele>1.0</ele><time>2026-04-19T10:16:52.591Z</time></trkpt><trkpt lat="40.054921720304726" lon="17.984536832776143"><ele>0.9999999999999999</ele><time>2026-04-19T10:16:53.59Z</time></trkpt><trkpt lat="40.05487602814471" lon="17.984634994277975"><ele>1.0</ele><time>2026-04-19T10:16:54.59Z</time></trkpt><trkpt lat="40.05483602540232" lon="17.984719202593425"><ele>1.0</ele><time>2026-04-19T10:16:55.59Z</time></trkpt><trkpt lat="40.05480402401168" lon="17.984800281560343"><ele>0.9999999999999999</ele><time>2026-04-19T10:16:56.59Z</time></trkpt><trkpt lat="40.054774695542875" lon="17.984875955836984"><ele>1.0</ele><time>2026-04-19T10:16:57.59Z</time></trkpt><trkpt lat="40.054750191704294" lon="17.98495650995203"><ele>1.0</ele><time>2026-04-19T10:16:58.59Z</time></trkpt><trkpt lat="40.05470994769991" lon="17.985109269793"><ele>0.9999999999999999</ele><time>2026-04-19T10:17:00.59Z</time></trkpt><trkpt lat="40.05465410348076" lon="17.98525487952334"><ele>1.0</ele><time>2026-04-19T10:17:02.59Z</time></trkpt><trkpt lat="40.05462062125059" lon="17.98533720866139"><ele>1.0</ele><time>2026-04-19T10:17:03.59Z</time></trkpt><trkpt lat="40.05459591589267" lon="17.98541652511664"><ele>1.0</ele><time>2026-04-19T10:17:04.59Z</time></trkpt><trkpt lat="40.05456818849266" lon="17.98555281659404"><ele>0.9999999999999999</ele><time>2026-04-19T10:17:06.59Z</time></trkpt><trkpt lat="40.05454980728084" lon="17.985632767805466"><ele>1.0</ele><time>2026-04-19T10:17:07.59Z</time></trkpt><trkpt lat="40.054533809405186" lon="17.9857212749482"><ele>1.0</ele><time>2026-04-19T10:17:08.59Z</time></trkpt><trkpt lat="40.05450521147091" lon="17.985814473942256"><ele>0.9999999999999999</ele><time>2026-04-19T10:17:09.59Z</time></trkpt><trkpt lat="40.05447899211861" lon="17.985907824208926"><ele>1.0</ele><time>2026-04-19T10:17:10.59Z</time></trkpt><trkpt lat="40.05446014098331" lon="17.986011549026365"><ele>1.0</ele><time>2026-04-19T10:17:11.59Z</time></trkpt><trkpt lat="40.05444230701365" lon="17.9860991090995"><ele>0.9999999999999999</ele><time>2026-04-19T10:17:12.59Z</time></trkpt><trkpt lat="40.05442940941997" lon="17.98618452900727"><ele>1.0</ele><time>2026-04-19T10:17:13.59Z</time></trkpt><trkpt lat="40.05441270468387" lon="17.986278155140855"><ele>1.0</ele><time>2026-04-19T10:17:14.589Z</time></trkpt><trkpt lat="40.05440179460574" lon="17.986387606451462"><ele>1.4</ele><time>2026-04-19T10:17:15.589Z</time></trkpt><trkpt lat="40.05438121619352" lon="17.986500499405224"><ele>1.8</ele><time>2026-04-19T10:17:16.589Z</time></trkpt><trkpt lat="40.05435109897596" lon="17.986625350347826"><ele>2.1999999999999997</ele><time>2026-04-19T10:17:17.589Z</time></trkpt><trkpt lat="40.05432381127603" lon="17.98675087867047"><ele>2.6</ele><time>2026-04-19T10:17:18.589Z</time></trkpt><trkpt lat="40.05429681738395" lon="17.98689847199428"><ele>3.0</ele><time>2026-04-19T10:17:19.589Z</time></trkpt><trkpt lat="40.054275187046144" lon="17.987068159707796"><ele>3.75</ele><time>2026-04-19T10:17:20.589Z</time></trkpt><trkpt lat="40.054253754473876" lon="17.987243187209472"><ele>4.5</ele><time>2026-04-19T10:17:21.589Z</time></trkpt><trkpt lat="40.054244279679644" lon="17.987422463827485"><ele>5.25</ele><time>2026-04-19T10:17:22.589Z</time></trkpt><trkpt lat="40.054256073307585" lon="17.987619312669008"><ele>6.0</ele><time>2026-04-19T10:17:23.589Z</time></trkpt><trkpt lat="40.05428874614268" lon="17.987855649913783"><ele>6.666666666666666</ele><time>2026-04-19T10:17:24.589Z</time></trkpt><trkpt lat="40.05435510702961" lon="17.98807831587201"><ele>7.333333333333333</ele><time>2026-04-19T10:17:25.589Z</time></trkpt><trkpt lat="40.05443521052254" lon="17.9883007842105"><ele>8.0</ele><time>2026-04-19T10:17:26.589Z</time></trkpt><trkpt lat="40.0545311763094" lon="17.98854152298919"><ele>2.0</ele><time>2026-04-19T10:17:27.589Z</time></trkpt><trkpt lat="40.05396476910134" lon="17.988490464085764"><ele>2.0</ele><time>2026-04-19T10:17:28.589Z</time></trkpt><trkpt lat="40.05393217915857" lon="17.98866331223247"><ele>2.0</ele><time>2026-04-19T10:17:29.589Z</time></trkpt><trkpt lat="40.05390582278102" lon="17.988806261190774"><ele>2.0</ele><time>2026-04-19T10:17:30.589Z</time></trkpt><trkpt lat="40.053877300356376" lon="17.988957348436987"><ele>2.0</ele><time>2026-04-19T10:17:31.589Z</time></trkpt><trkpt lat="40.05386816892838" lon="17.989127791162392"><ele>1.8</ele><time>2026-04-19T10:17:32.589Z</time></trkpt><trkpt lat="40.0538775106538" lon="17.989305477350918"><ele>1.6</ele><time>2026-04-19T10:17:33.589Z</time></trkpt><trkpt lat="40.05388296152213" lon="17.98945101395358"><ele>1.4000000000000001</ele><time>2026-04-19T10:17:34.589Z</time></trkpt><trkpt lat="40.053878289803734" lon="17.98956044467579"><ele>1.2000000000000002</ele><time>2026-04-19T10:17:35.589Z</time></trkpt><trkpt lat="40.0538755830634" lon="17.989657312709543"><ele>1.0</ele><time>2026-04-19T10:17:36.589Z</time></trkpt><trkpt lat="40.053874624420395" lon="17.989747934378354"><ele>1.0</ele><time>2026-04-19T10:17:37.589Z</time></trkpt><trkpt lat="40.05387441930255" lon="17.989842612981747"><ele>1.0</ele><time>2026-04-19T10:17:38.589Z</time></trkpt><trkpt lat="40.05386353220204" lon="17.98994803780339"><ele>1.0</ele><time>2026-04-19T10:17:39.589Z</time></trkpt><trkpt lat="40.053845267283286" lon="17.99007319473667"><ele>1.0</ele><time>2026-04-19T10:17:40.589Z</time></trkpt><trkpt lat="40.053808624590744" lon="17.99020405987335"><ele>1.0</ele><time>2026-04-19T10:17:41.589Z</time></trkpt><trkpt lat="40.053762090385426" lon="17.990348131839163"><ele>1.75</ele><time>2026-04-19T10:17:42.589Z</time></trkpt><trkpt lat="40.05370100303386" lon="17.9905061118701"><ele>2.5</ele><time>2026-04-19T10:17:43.589Z</time></trkpt><trkpt lat="40.05365234153427" lon="17.99064139228531"><ele>3.25</ele><time>2026-04-19T10:17:44.589Z</time></trkpt><trkpt lat="40.053605116661046" lon="17.990768468338658"><ele>4.0</ele><time>2026-04-19T10:17:45.589Z</time></trkpt><trkpt lat="40.05356102486389" lon="17.99088446824494"><ele>4.333333333333333</ele><time>2026-04-19T10:17:46.589Z</time></trkpt><trkpt lat="40.05352458546501" lon="17.991000744872363"><ele>4.666666666666666</ele><time>2026-04-19T10:17:47.589Z</time></trkpt><trkpt lat="40.05348684059601" lon="17.99111352351444"><ele>5.0</ele><time>2026-04-19T10:17:48.589Z</time></trkpt><trkpt lat="40.053453075139366" lon="17.99121449695746"><ele>5.333333333333333</ele><time>2026-04-19T10:17:49.589Z</time></trkpt><trkpt lat="40.05342323913133" lon="17.991318422632926"><ele>5.666666666666667</ele><time>2026-04-19T10:17:50.589Z</time></trkpt><trkpt lat="40.05338657851626" lon="17.99140841475714"><ele>6.0</ele><time>2026-04-19T10:17:51.589Z</time></trkpt><trkpt lat="40.05335528812321" lon="17.991512431195623"><ele>6.0</ele><time>2026-04-19T10:17:52.589Z</time></trkpt><trkpt lat="40.053323665180464" lon="17.991613434146984"><ele>6.0</ele><time>2026-04-19T10:17:53.589Z</time></trkpt><trkpt lat="40.053288847209366" lon="17.991703797530548"><ele>6.0</ele><time>2026-04-19T10:17:54.589Z</time></trkpt><trkpt lat="40.0532569612981" lon="17.991790736284706"><ele>6.0</ele><time>2026-04-19T10:17:55.589Z</time></trkpt><trkpt lat="40.05322467310393" lon="17.991883015201086"><ele>6.0</ele><time>2026-04-19T10:17:56.589Z</time></trkpt><trkpt lat="40.053196367710584" lon="17.99196581000982"><ele>6.0</ele><time>2026-04-19T10:17:57.589Z</time></trkpt><trkpt lat="40.05316479661156" lon="17.992053762610713"><ele>5.999999999999999</ele><time>2026-04-19T10:17:58.589Z</time></trkpt><trkpt lat="40.05313057221249" lon="17.992154389871224"><ele>6.0</ele><time>2026-04-19T10:17:59.589Z</time></trkpt><trkpt lat="40.05310319775549" lon="17.99224079357989"><ele>6.0</ele><time>2026-04-19T10:18:00.589Z</time></trkpt><trkpt lat="40.05307329723811" lon="17.992328672017397"><ele>6.0</ele><time>2026-04-19T10:18:01.589Z</time></trkpt><trkpt lat="40.05304372748592" lon="17.992405766503346"><ele>6.0</ele><time>2026-04-19T10:18:02.589Z</time></trkpt><trkpt lat="40.05301353244822" lon="17.99248114079307"><ele>5.999999999999999</ele><time>2026-04-19T10:18:03.589Z</time></trkpt><trkpt lat="40.052980678446666" lon="17.992556491786544"><ele>6.0</ele><time>2026-04-19T10:18:04.589Z</time></trkpt><trkpt lat="40.05293213499503" lon="17.992708736841806"><ele>6.0</ele><time>2026-04-19T10:18:06.589Z</time></trkpt><trkpt lat="40.05290741321987" lon="17.992789168713703"><ele>6.0</ele><time>2026-04-19T10:18:07.589Z</time></trkpt><trkpt lat="40.052881505080904" lon="17.992879588752164"><ele>6.0</ele><time>2026-04-19T10:18:08.589Z</time></trkpt><trkpt lat="40.0528502001992" lon="17.99296835018335"><ele>6.0</ele><time>2026-04-19T10:18:09.589Z</time></trkpt><trkpt lat="40.05280917469739" lon="17.993083450667"><ele>6.0</ele><time>2026-04-19T10:18:10.589Z</time></trkpt><trkpt lat="40.05277437150571" lon="17.99319744822351"><ele>6.0</ele><time>2026-04-19T10:18:11.589Z</time></trkpt><trkpt lat="40.052736482513176" lon="17.99330396549248"><ele>6.666666666666667</ele><time>2026-04-19T10:18:12.589Z</time></trkpt><trkpt lat="40.0526944154382" lon="17.993410507408782"><ele>7.333333333333334</ele><time>2026-04-19T10:18:13.589Z</time></trkpt><trkpt lat="40.05265892575815" lon="17.993518680102994"><ele>8.0</ele><time>2026-04-19T10:18:14.589Z</time></trkpt><trkpt lat="40.05261881153074" lon="17.993619539989087"><ele>8.666666666666668</ele><time>2026-04-19T10:18:15.589Z</time></trkpt><trkpt lat="40.05257851551703" lon="17.99371978019445"><ele>9.333333333333334</ele><time>2026-04-19T10:18:16.589Z</time></trkpt><trkpt lat="40.05254655539528" lon="17.993828946830263"><ele>10.0</ele><time>2026-04-19T10:18:17.589Z</time></trkpt><trkpt lat="40.052516636569386" lon="17.99394416327316"><ele>10.0</ele><time>2026-04-19T10:18:18.589Z</time></trkpt><trkpt lat="40.052482894136766" lon="17.99404625970131"><ele>10.0</ele><time>2026-04-19T10:18:19.589Z</time></trkpt><trkpt lat="40.05244940619204" lon="17.994146254100887"><ele>10.0</ele><time>2026-04-19T10:18:20.589Z</time></trkpt><trkpt lat="40.05241924276379" lon="17.99424648611737"><ele>10.0</ele><time>2026-04-19T10:18:21.589Z</time></trkpt><trkpt lat="40.05238751156418" lon="17.99435091732345"><ele>10.0</ele><time>2026-04-19T10:18:22.589Z</time></trkpt><trkpt lat="40.05235602366612" lon="17.994446941356674"><ele>10.0</ele><time>2026-04-19T10:18:23.589Z</time></trkpt><trkpt lat="40.05232392620546" lon="17.994541512009487"><ele>8.8</ele><time>2026-04-19T10:18:24.589Z</time></trkpt><trkpt lat="40.05228893939401" lon="17.994639457455538"><ele>7.6</ele><time>2026-04-19T10:18:25.589Z</time></trkpt><trkpt lat="40.05225100529077" lon="17.994745591749464"><ele>6.4</ele><time>2026-04-19T10:18:26.589Z</time></trkpt><trkpt lat="40.05221468895513" lon="17.99485949553953"><ele>5.2</ele><time>2026-04-19T10:18:27.589Z</time></trkpt><trkpt lat="40.0521737021714" lon="17.994985582399813"><ele>4.0</ele><time>2026-04-19T10:18:28.589Z</time></trkpt><trkpt lat="40.05212750989284" lon="17.995115819318958"><ele>3.9999999999999996</ele><time>2026-04-19T10:18:29.589Z</time></trkpt><trkpt lat="40.052088052322844" lon="17.99523137563842"><ele>4.0</ele><time>2026-04-19T10:18:30.589Z</time></trkpt><trkpt lat="40.052054676129515" lon="17.995331821248744"><ele>4.0</ele><time>2026-04-19T10:18:31.589Z</time></trkpt><trkpt lat="40.052008261388174" lon="17.99548352305784"><ele>4.0</ele><time>2026-04-19T10:18:33.589Z</time></trkpt><trkpt lat="40.05197845378209" lon="17.995561496367156"><ele>3.9999999999999996</ele><time>2026-04-19T10:18:34.589Z</time></trkpt><trkpt lat="40.05194652641257" lon="17.99565109000405"><ele>4.0</ele><time>2026-04-19T10:18:35.589Z</time></trkpt><trkpt lat="40.05191956435281" lon="17.99573192863287"><ele>3.9999999999999996</ele><time>2026-04-19T10:18:36.589Z</time></trkpt><trkpt lat="40.05189213833843" lon="17.995812690865943"><ele>4.0</ele><time>2026-04-19T10:18:37.589Z</time></trkpt><trkpt lat="40.0518663609873" lon="17.995891305223513"><ele>4.0</ele><time>2026-04-19T10:18:38.589Z</time></trkpt><trkpt lat="40.05183883589115" lon="17.99597902245243"><ele>4.0</ele><time>2026-04-19T10:18:39.589Z</time></trkpt><trkpt lat="40.051799311617444" lon="17.99609611359883"><ele>3.9999999999999996</ele><time>2026-04-19T10:18:41.589Z</time></trkpt><trkpt lat="40.051752903011455" lon="17.996190605085754"><ele>4.0</ele><time>2026-04-19T10:18:45.589Z</time></trkpt><trkpt lat="40.05172029465994" lon="17.99628801720363"><ele>3.714285714285714</ele><time>2026-04-19T10:18:48.589Z</time></trkpt><trkpt lat="40.051693282424644" lon="17.99638900540836"><ele>3.428571428571428</ele><time>2026-04-19T10:18:51.589Z</time></trkpt><trkpt lat="40.05166524042992" lon="17.996472477693718"><ele>3.142857142857143</ele><time>2026-04-19T10:18:54.589Z</time></trkpt><trkpt lat="40.051637167744865" lon="17.996548277988637"><ele>2.8571428571428568</ele><time>2026-04-19T10:18:56.589Z</time></trkpt><trkpt lat="40.0516193638629" lon="17.996639316491237"><ele>2.571428571428571</ele><time>2026-04-19T10:18:58.589Z</time></trkpt><trkpt lat="40.05159193247631" lon="17.996728677464905"><ele>2.2857142857142856</ele><time>2026-04-19T10:19:00.589Z</time></trkpt><trkpt lat="40.05156288402147" lon="17.99683288336367"><ele>2.0</ele><time>2026-04-19T10:19:03.589Z</time></trkpt><trkpt lat="40.051526175883374" lon="17.99692479146812"><ele>1.9999999999999998</ele><time>2026-04-19T10:19:06.589Z</time></trkpt><trkpt lat="40.051479708946744" lon="17.997029408347736"><ele>2.0</ele><time>2026-04-19T10:19:09.589Z</time></trkpt><trkpt lat="40.05144720590474" lon="17.99710640858573"><ele>2.0</ele><time>2026-04-19T10:19:11.589Z</time></trkpt><trkpt lat="40.051413336902975" lon="17.99720783208939"><ele>2.0</ele><time>2026-04-19T10:19:13.589Z</time></trkpt><trkpt lat="40.05137926642129" lon="17.997310611078163"><ele>1.9999999999999998</ele><time>2026-04-19T10:19:15.589Z</time></trkpt><trkpt lat="40.05133631576429" lon="17.997440286764544"><ele>2.0</ele><time>2026-04-19T10:19:17.588Z</time></trkpt><trkpt lat="40.05131037497868" lon="17.9975156166006"><ele>2.333333333333333</ele><time>2026-04-19T10:19:18.588Z</time></trkpt><trkpt lat="40.05126820554557" lon="17.99763517295684"><ele>2.6666666666666665</ele><time>2026-04-19T10:19:20.587Z</time></trkpt><trkpt lat="40.05120524192531" lon="17.99777677660538"><ele>3.0</ele><time>2026-04-19T10:19:22.588Z</time></trkpt><trkpt lat="40.05116565884253" lon="17.997856367392217"><ele>3.333333333333333</ele><time>2026-04-19T10:19:23.588Z</time></trkpt><trkpt lat="40.051128662460506" lon="17.997937935732004"><ele>3.6666666666666665</ele><time>2026-04-19T10:19:24.588Z</time></trkpt><trkpt lat="40.051091012319276" lon="17.998011227079086"><ele>4.0</ele><time>2026-04-19T10:19:25.588Z</time></trkpt><trkpt lat="40.051052573272685" lon="17.99808682089619"><ele>4.0</ele><time>2026-04-19T10:19:26.588Z</time></trkpt><trkpt lat="40.051012310570776" lon="17.998159468403518"><ele>4.0</ele><time>2026-04-19T10:19:27.588Z</time></trkpt><trkpt lat="40.05094219657247" lon="17.99827463463589"><ele>4.0</ele><time>2026-04-19T10:19:29.588Z</time></trkpt><trkpt lat="40.05087846256003" lon="17.998376425306596"><ele>4.0</ele><time>2026-04-19T10:19:31.588Z</time></trkpt><trkpt lat="40.0508138597386" lon="17.998480927909704"><ele>4.0</ele><time>2026-04-19T10:19:33.588Z</time></trkpt><trkpt lat="40.05073929755655" lon="17.998588580075932"><ele>4.0</ele><time>2026-04-19T10:19:35.588Z</time></trkpt><trkpt lat="40.05065952757557" lon="17.998701576358748"><ele>4.0</ele><time>2026-04-19T10:19:37.588Z</time></trkpt><trkpt lat="40.05059420794831" lon="17.998798983668664"><ele>4.0</ele><time>2026-04-19T10:19:39.588Z</time></trkpt><trkpt lat="40.05053574681414" lon="17.99888449488032"><ele>4.0</ele><time>2026-04-19T10:19:41.588Z</time></trkpt><trkpt lat="40.05046338297784" lon="17.998991270405604"><ele>4.0</ele><time>2026-04-19T10:19:43.588Z</time></trkpt><trkpt lat="40.05039867363692" lon="17.999095461607826"><ele>4.833333333333333</ele><time>2026-04-19T10:19:45.588Z</time></trkpt><trkpt lat="40.05032399454238" lon="17.999207239638345"><ele>5.666666666666666</ele><time>2026-04-19T10:19:47.588Z</time></trkpt><trkpt lat="40.05025102070954" lon="17.999323083308234"><ele>6.5</ele><time>2026-04-19T10:19:49.588Z</time></trkpt><trkpt lat="40.050200926482916" lon="17.999394165262057"><ele>7.333333333333333</ele><time>2026-04-19T10:19:50.588Z</time></trkpt><trkpt lat="40.05015179815106" lon="17.99946582795814"><ele>8.166666666666666</ele><time>2026-04-19T10:19:51.588Z</time></trkpt><trkpt lat="40.05010887947966" lon="17.99952948169689"><ele>9.0</ele><time>2026-04-19T10:19:52.588Z</time></trkpt><trkpt lat="40.050035061210274" lon="17.999648318665187"><ele>9.0</ele><time>2026-04-19T10:19:54.588Z</time></trkpt><trkpt lat="40.049963505846456" lon="17.999745505288086"><ele>9.0</ele><time>2026-04-19T10:19:56.588Z</time></trkpt><trkpt lat="40.049900162472944" lon="17.999820943612345"><ele>9.0</ele><time>2026-04-19T10:19:58.588Z</time></trkpt><trkpt lat="40.04985592213745" lon="17.99989459809931"><ele>9.0</ele><time>2026-04-19T10:20:00.588Z</time></trkpt><trkpt lat="40.04980840718431" lon="17.999961026701303"><ele>9.0</ele><time>2026-04-19T10:20:02.588Z</time></trkpt><trkpt lat="40.04976880855573" lon="18.000040131046784"><ele>9.0</ele><time>2026-04-19T10:20:04.588Z</time></trkpt><trkpt lat="40.049718677587784" lon="18.000120550169193"><ele>7.5</ele><time>2026-04-19T10:20:07.588Z</time></trkpt><trkpt lat="40.04966322462619" lon="18.00019795622702"><ele>6.0</ele><time>2026-04-19T10:20:15.588Z</time></trkpt><trkpt lat="40.049613747490895" lon="18.00028060523072"><ele>4.5</ele><time>2026-04-19T10:20:19.588Z</time></trkpt><trkpt lat="40.04955364168505" lon="18.000372578096275"><ele>3.0</ele><time>2026-04-19T10:20:22.588Z</time></trkpt><trkpt lat="40.049510329632874" lon="18.00043702238428"><ele>1.5</ele><time>2026-04-19T10:20:24.588Z</time></trkpt><trkpt lat="40.0494600873317" lon="18.00051098538864"><ele>0.0</ele><time>2026-04-19T10:20:26.588Z</time></trkpt><trkpt lat="40.04941740244205" lon="18.000575591323795"><ele>0.0</ele><time>2026-04-19T10:20:28.588Z</time></trkpt><trkpt lat="40.049374463672805" lon="18.00066001800575"><ele>0.0</ele><time>2026-04-19T10:20:31.588Z</time></trkpt><trkpt lat="40.04933100637427" lon="18.00072937967814"><ele>0.0</ele><time>2026-04-19T10:20:34.588Z</time></trkpt><trkpt lat="40.04928552197343" lon="18.00079812037643"><ele>0.0</ele><time>2026-04-19T10:20:37.588Z</time></trkpt><trkpt lat="40.049229663286376" lon="18.00088958634628"><ele>0.0</ele><time>2026-04-19T10:20:40.588Z</time></trkpt><trkpt lat="40.04918096897135" lon="18.000992210472987"><ele>0.0</ele><time>2026-04-19T10:20:43.588Z</time></trkpt><trkpt lat="40.049138092704126" lon="18.001084678200463"><ele>0.0</ele><time>2026-04-19T10:20:45.588Z</time></trkpt><trkpt lat="40.04908576157025" lon="18.00120260066414"><ele>0.0</ele><time>2026-04-19T10:20:47.588Z</time></trkpt><trkpt lat="40.04902847944424" lon="18.00132299675879"><ele>0.0</ele><time>2026-04-19T10:20:49.588Z</time></trkpt><trkpt lat="40.048963678900535" lon="18.001459391148316"><ele>0.0</ele><time>2026-04-19T10:20:51.588Z</time></trkpt><trkpt lat="40.04893036045556" lon="18.00153319078466"><ele>0.0</ele><time>2026-04-19T10:20:52.588Z</time></trkpt><trkpt lat="40.04889338658225" lon="18.001609129237014"><ele>1.0</ele><time>2026-04-19T10:20:53.588Z</time></trkpt><trkpt lat="40.04882440324615" lon="18.00173488649188"><ele>2.0</ele><time>2026-04-19T10:20:55.588Z</time></trkpt><trkpt lat="40.04876360283339" lon="18.001865751278814"><ele>3.0</ele><time>2026-04-19T10:20:57.588Z</time></trkpt><trkpt lat="40.04870517605376" lon="18.001997201647047"><ele>4.0</ele><time>2026-04-19T10:20:59.588Z</time></trkpt><trkpt lat="40.04864766519964" lon="18.00213130281417"><ele>4.0</ele><time>2026-04-19T10:21:01.588Z</time></trkpt><trkpt lat="40.048610653003436" lon="18.002200896920364"><ele>3.9999999999999996</ele><time>2026-04-19T10:21:02.588Z</time></trkpt><trkpt lat="40.04857812769957" lon="18.002272543188283"><ele>4.0</ele><time>2026-04-19T10:21:03.588Z</time></trkpt><trkpt lat="40.048547164779215" lon="18.00235437919166"><ele>4.0</ele><time>2026-04-19T10:21:04.588Z</time></trkpt><trkpt lat="40.04851679154369" lon="18.002432813088543"><ele>3.9999999999999996</ele><time>2026-04-19T10:21:05.588Z</time></trkpt><trkpt lat="40.048484564654075" lon="18.0025195980955"><ele>4.0</ele><time>2026-04-19T10:21:06.588Z</time></trkpt><trkpt lat="40.048454263009894" lon="18.002613814300044"><ele>4.0</ele><time>2026-04-19T10:21:07.588Z</time></trkpt><trkpt lat="40.048427010723636" lon="18.00270287180025"><ele>3.714285714285714</ele><time>2026-04-19T10:21:08.588Z</time></trkpt><trkpt lat="40.04839833620652" lon="18.00279514631885"><ele>3.428571428571428</ele><time>2026-04-19T10:21:09.588Z</time></trkpt><trkpt lat="40.04836889231011" lon="18.00287970913098"><ele>3.142857142857143</ele><time>2026-04-19T10:21:10.588Z</time></trkpt><trkpt lat="40.048343246808564" lon="18.002959576279345"><ele>2.8571428571428568</ele><time>2026-04-19T10:21:11.588Z</time></trkpt><trkpt lat="40.04831731347812" lon="18.003051394394532"><ele>2.571428571428571</ele><time>2026-04-19T10:21:12.588Z</time></trkpt><trkpt lat="40.048293393458266" lon="18.00314357785752"><ele>2.2857142857142856</ele><time>2026-04-19T10:21:13.588Z</time></trkpt><trkpt lat="40.04826919818331" lon="18.003232894284317"><ele>2.0</ele><time>2026-04-19T10:21:14.588Z</time></trkpt><trkpt lat="40.04824547384895" lon="18.00331487652266"><ele>1.6666666666666665</ele><time>2026-04-19T10:21:15.588Z</time></trkpt><trkpt lat="40.0481981151429" lon="18.003460084018464"><ele>1.3333333333333333</ele><time>2026-04-19T10:21:17.588Z</time></trkpt><trkpt lat="40.048160995164395" lon="18.003541494927845"><ele>1.0</ele><time>2026-04-19T10:21:18.588Z</time></trkpt><trkpt lat="40.04811647628945" lon="18.00361640330228"><ele>0.6666666666666666</ele><time>2026-04-19T10:21:19.588Z</time></trkpt><trkpt lat="40.048077096819945" lon="18.003693244559127"><ele>0.3333333333333333</ele><time>2026-04-19T10:21:20.588Z</time></trkpt><trkpt lat="40.0480374070207" lon="18.003765330866845"><ele>0.0</ele><time>2026-04-19T10:21:21.588Z</time></trkpt><trkpt lat="40.04798366805709" lon="18.00385952261314"><ele>0.0</ele><time>2026-04-19T10:21:22.587Z</time></trkpt><trkpt lat="40.04793073380573" lon="18.00396746075927"><ele>0.0</ele><time>2026-04-19T10:21:23.587Z</time></trkpt><trkpt lat="40.04787684652726" lon="18.004073315232457"><ele>0.0</ele><time>2026-04-19T10:21:24.587Z</time></trkpt><trkpt lat="40.047821210783056" lon="18.004180107076643"><ele>0.0</ele><time>2026-04-19T10:21:25.586Z</time></trkpt><trkpt lat="40.04776618368155" lon="18.004287538661096"><ele>0.0</ele><time>2026-04-19T10:21:26.587Z</time></trkpt><trkpt lat="40.047709375168594" lon="18.004399106639305"><ele>0.0</ele><time>2026-04-19T10:21:27.587Z</time></trkpt><trkpt lat="40.04765081265749" lon="18.004509862670478"><ele>0.0</ele><time>2026-04-19T10:21:28.587Z</time></trkpt><trkpt lat="40.04759744354146" lon="18.004610491117724"><ele>0.0</ele><time>2026-04-19T10:21:29.586Z</time></trkpt><trkpt lat="40.04754571102854" lon="18.00470615250913"><ele>0.0</ele><time>2026-04-19T10:21:30.586Z</time></trkpt><trkpt lat="40.04749738289844" lon="18.00480861005285"><ele>0.0</ele><time>2026-04-19T10:21:31.586Z</time></trkpt><trkpt lat="40.047442592594194" lon="18.004909353989916"><ele>0.16666666666666666</ele><time>2026-04-19T10:21:32.587Z</time></trkpt><trkpt lat="40.04739150710014" lon="18.00500569203377"><ele>0.3333333333333333</ele><time>2026-04-19T10:21:33.587Z</time></trkpt><trkpt lat="40.047344225894115" lon="18.005095567645995"><ele>0.5</ele><time>2026-04-19T10:21:34.587Z</time></trkpt><trkpt lat="40.047299591467585" lon="18.005181822118825"><ele>0.6666666666666666</ele><time>2026-04-19T10:21:35.586Z</time></trkpt><trkpt lat="40.04725050288015" lon="18.00527930448842"><ele>0.8333333333333333</ele><time>2026-04-19T10:21:36.586Z</time></trkpt><trkpt lat="40.04720165970746" lon="18.005365086826146"><ele>1.0</ele><time>2026-04-19T10:21:37.586Z</time></trkpt><trkpt lat="40.047155960804844" lon="18.005443555444355"><ele>0.9999999999999999</ele><time>2026-04-19T10:21:38.586Z</time></trkpt><trkpt lat="40.04710401636322" lon="18.005523220122495"><ele>1.0</ele><time>2026-04-19T10:21:39.586Z</time></trkpt><trkpt lat="40.04704617600234" lon="18.005599795207658"><ele>1.0</ele><time>2026-04-19T10:21:40.586Z</time></trkpt><trkpt lat="40.04698662225282" lon="18.00567797136334"><ele>1.0</ele><time>2026-04-19T10:21:41.586Z</time></trkpt><trkpt lat="40.04693726270908" lon="18.005755939207805"><ele>0.9999999999999999</ele><time>2026-04-19T10:21:42.586Z</time></trkpt><trkpt lat="40.046889412548964" lon="18.00582606281563"><ele>1.0</ele><time>2026-04-19T10:21:43.586Z</time></trkpt><trkpt lat="40.04684059114449" lon="18.005882981172913"><ele>1.2000000000000002</ele><time>2026-04-19T10:21:44.586Z</time></trkpt><trkpt lat="40.04678169427512" lon="18.00600042049636"><ele>1.4000000000000001</ele><time>2026-04-19T10:21:46.586Z</time></trkpt><trkpt lat="40.046818179459095" lon="18.00615153690282"><ele>1.6</ele><time>2026-04-19T10:21:48.586Z</time></trkpt><trkpt lat="40.04686560976835" lon="18.00624655799179"><ele>1.8</ele><time>2026-04-19T10:21:49.586Z</time></trkpt><trkpt lat="40.04692383035306" lon="18.006361270975013"><ele>2.0</ele><time>2026-04-19T10:21:50.586Z</time></trkpt><trkpt lat="40.04699932911976" lon="18.00649000856374"><ele>2.0</ele><time>2026-04-19T10:21:51.586Z</time></trkpt><trkpt lat="40.04709339818445" lon="18.006599749938875"><ele>2.0</ele><time>2026-04-19T10:21:52.586Z</time></trkpt><trkpt lat="40.047176341441435" lon="18.00671286233231"><ele>2.0</ele><time>2026-04-19T10:21:53.586Z</time></trkpt><trkpt lat="40.0472589898473" lon="18.006815744112956"><ele>2.0</ele><time>2026-04-19T10:21:54.586Z</time></trkpt><trkpt lat="40.04733767421428" lon="18.006905216791836"><ele>1.9999999999999998</ele><time>2026-04-19T10:21:55.586Z</time></trkpt><trkpt lat="40.047421505432006" lon="18.00696566050793"><ele>2.0</ele><time>2026-04-19T10:21:56.586Z</time></trkpt><trkpt lat="40.0474855232396" lon="18.007024752258058"><ele>2.0</ele><time>2026-04-19T10:21:57.586Z</time></trkpt><trkpt lat="40.04753906155148" lon="18.00709501658171"><ele>2.0</ele><time>2026-04-19T10:21:58.586Z</time></trkpt><trkpt lat="40.047573768988784" lon="18.007184767923842"><ele>1.9999999999999998</ele><time>2026-04-19T10:21:59.586Z</time></trkpt><trkpt lat="40.04759707490002" lon="18.007301309111178"><ele>2.0</ele><time>2026-04-19T10:22:00.586Z</time></trkpt><trkpt lat="40.047615202240785" lon="18.007447924668355"><ele>1.6666666666666665</ele><time>2026-04-19T10:22:01.586Z</time></trkpt><trkpt lat="40.04763218765673" lon="18.00763296876363"><ele>1.3333333333333333</ele><time>2026-04-19T10:22:02.586Z</time></trkpt><trkpt lat="40.047651045214764" lon="18.00785001695229"><ele>1.0</ele><time>2026-04-19T10:22:03.586Z</time></trkpt><trkpt lat="40.04766444271847" lon="18.00807075696104"><ele>1.0</ele><time>2026-04-19T10:22:04.586Z</time></trkpt><trkpt lat="40.04767612591054" lon="18.008308736443436"><ele>1.0</ele><time>2026-04-19T10:22:05.586Z</time></trkpt><trkpt lat="40.047688844615976" lon="18.00856046078058"><ele>1.0</ele><time>2026-04-19T10:22:06.586Z</time></trkpt><trkpt lat="40.04771952517449" lon="18.008801956930043"><ele>1.3333333333333333</ele><time>2026-04-19T10:22:07.586Z</time></trkpt><trkpt lat="40.04775757649872" lon="18.009048659523977"><ele>1.6666666666666665</ele><time>2026-04-19T10:22:08.586Z</time></trkpt><trkpt lat="40.047825916542216" lon="18.00927667895105"><ele>2.0</ele><time>2026-04-19T10:22:09.586Z</time></trkpt><trkpt lat="40.04789777452769" lon="18.00949522711167"><ele>2.0</ele><time>2026-04-19T10:22:10.586Z</time></trkpt><trkpt lat="40.048021812126265" lon="18.00966756451528"><ele>2.0</ele><time>2026-04-19T10:22:11.586Z</time></trkpt><trkpt lat="40.04818698823954" lon="18.009808644406647"><ele>2.0</ele><time>2026-04-19T10:22:12.586Z</time></trkpt><trkpt lat="40.04840097299561" lon="18.009886326828244"><ele>2.5</ele><time>2026-04-19T10:22:13.586Z</time></trkpt><trkpt lat="40.048635982880214" lon="18.009953834965525"><ele>3.0</ele><time>2026-04-19T10:22:14.586Z</time></trkpt><trkpt lat="40.04813508324246" lon="18.01068906089339"><ele>3.333333333333333</ele><time>2026-04-19T10:22:15.586Z</time></trkpt><trkpt lat="40.04819683869178" lon="18.010940587739885"><ele>3.6666666666666665</ele><time>2026-04-19T10:22:16.586Z</time></trkpt><trkpt lat="40.04825785517951" lon="18.011176730081317"><ele>4.0</ele><time>2026-04-19T10:22:17.586Z</time></trkpt><trkpt lat="40.04831064730607" lon="18.011388305495274"><ele>4.5</ele><time>2026-04-19T10:22:18.586Z</time></trkpt><trkpt lat="40.04836102495894" lon="18.011586826190484"><ele>5.0</ele><time>2026-04-19T10:22:19.586Z</time></trkpt><trkpt lat="40.04840776870618" lon="18.011771361015406"><ele>5.5</ele><time>2026-04-19T10:22:20.586Z</time></trkpt><trkpt lat="40.048449356812554" lon="18.011940689976896"><ele>6.0</ele><time>2026-04-19T10:22:21.586Z</time></trkpt><trkpt lat="40.04848864276573" lon="18.012095484012857"><ele>6.0</ele><time>2026-04-19T10:22:22.586Z</time></trkpt><trkpt lat="40.0485280125322" lon="18.01225035105453"><ele>6.0</ele><time>2026-04-19T10:22:23.586Z</time></trkpt><trkpt lat="40.04856185005957" lon="18.01240537134709"><ele>6.0</ele><time>2026-04-19T10:22:24.586Z</time></trkpt><trkpt lat="40.04859882520898" lon="18.012568925918405"><ele>6.0</ele><time>2026-04-19T10:22:25.586Z</time></trkpt><trkpt lat="40.04863883166946" lon="18.01272458609268"><ele>6.0</ele><time>2026-04-19T10:22:26.586Z</time></trkpt><trkpt lat="40.04867715132526" lon="18.012870620435823"><ele>6.0</ele><time>2026-04-19T10:22:27.586Z</time></trkpt><trkpt lat="40.04871251570795" lon="18.01300115906314"><ele>6.0</ele><time>2026-04-19T10:22:28.586Z</time></trkpt><trkpt lat="40.0487416414032" lon="18.01311548240289"><ele>6.0</ele><time>2026-04-19T10:22:29.586Z</time></trkpt><trkpt lat="40.048763435239266" lon="18.013211661022343"><ele>6.0</ele><time>2026-04-19T10:22:30.586Z</time></trkpt><trkpt lat="40.048785221268965" lon="18.013302021294695"><ele>6.6</ele><time>2026-04-19T10:22:31.586Z</time></trkpt><trkpt lat="40.04879576880313" lon="18.013462289170164"><ele>7.199999999999999</ele><time>2026-04-19T10:22:33.586Z</time></trkpt><trkpt lat="40.04877965371796" lon="18.013632266884596"><ele>7.800000000000001</ele><time>2026-04-19T10:22:35.586Z</time></trkpt><trkpt lat="40.04876400909727" lon="18.0137198659611"><ele>8.4</ele><time>2026-04-19T10:22:36.586Z</time></trkpt><trkpt lat="40.04874620057567" lon="18.013808363093336"><ele>9.0</ele><time>2026-04-19T10:22:37.586Z</time></trkpt><trkpt lat="40.04870215694108" lon="18.01388658021013"><ele>9.0</ele><time>2026-04-19T10:22:38.586Z</time></trkpt><trkpt lat="40.04863989562316" lon="18.013973231098653"><ele>9.0</ele><time>2026-04-19T10:22:39.586Z</time></trkpt><trkpt lat="40.04857318407439" lon="18.014049538155472"><ele>9.0</ele><time>2026-04-19T10:22:40.586Z</time></trkpt><trkpt lat="40.048511806558594" lon="18.014120398477775"><ele>9.0</ele><time>2026-04-19T10:22:41.586Z</time></trkpt><trkpt lat="40.048446220542644" lon="18.014179949586673"><ele>9.0</ele><time>2026-04-19T10:22:42.586Z</time></trkpt><trkpt lat="40.048372962413794" lon="18.014233254853497"><ele>9.0</ele><time>2026-04-19T10:22:43.586Z</time></trkpt><trkpt lat="40.04830050823316" lon="18.014279268161623"><ele>8.833333333333334</ele><time>2026-04-19T10:22:44.586Z</time></trkpt><trkpt lat="40.048224678581406" lon="18.014311785312653"><ele>8.666666666666666</ele><time>2026-04-19T10:22:45.586Z</time></trkpt><trkpt lat="40.048145553249036" lon="18.01433040457285"><ele>8.5</ele><time>2026-04-19T10:22:46.586Z</time></trkpt><trkpt lat="40.04806122916349" lon="18.014342554051325"><ele>8.333333333333332</ele><time>2026-04-19T10:22:47.586Z</time></trkpt><trkpt lat="40.047968529737936" lon="18.014344945763202"><ele>8.166666666666666</ele><time>2026-04-19T10:22:48.586Z</time></trkpt><trkpt lat="40.04787945918749" lon="18.01432763926536"><ele>8.0</ele><time>2026-04-19T10:22:49.586Z</time></trkpt><trkpt lat="40.04779455150699" lon="18.014290167862555"><ele>7.999999999999999</ele><time>2026-04-19T10:22:50.586Z</time></trkpt><trkpt lat="40.047713489353406" lon="18.014237783256817"><ele>8.0</ele><time>2026-04-19T10:22:51.586Z</time></trkpt><trkpt lat="40.04764127928276" lon="18.014183025346338"><ele>8.0</ele><time>2026-04-19T10:22:52.586Z</time></trkpt><trkpt lat="40.047581859997784" lon="18.01412471043297"><ele>8.0</ele><time>2026-04-19T10:22:53.586Z</time></trkpt><trkpt lat="40.0475025121661" lon="18.014036020999026"><ele>7.999999999999999</ele><time>2026-04-19T10:22:55.586Z</time></trkpt><trkpt lat="40.0474464381269" lon="18.013969750475855"><ele>8.0</ele><time>2026-04-19T10:22:58.586Z</time></trkpt><trkpt lat="40.04737894137334" lon="18.013890252743835"><ele>7.0</ele><time>2026-04-19T10:23:04.586Z</time></trkpt><trkpt lat="40.047301753770995" lon="18.013785422339566"><ele>6.000000000000001</ele><time>2026-04-19T10:23:06.586Z</time></trkpt><trkpt lat="40.0472337353695" lon="18.013667168831326"><ele>5.0</ele><time>2026-04-19T10:23:08.586Z</time></trkpt><trkpt lat="40.047195874388954" lon="18.013600726522597"><ele>4.0</ele><time>2026-04-19T10:23:09.586Z</time></trkpt><trkpt lat="40.04715247200088" lon="18.013534824427467"><ele>3.0</ele><time>2026-04-19T10:23:10.586Z</time></trkpt><trkpt lat="40.047062060738966" lon="18.01343319513286"><ele>3.0</ele><time>2026-04-19T10:23:12.586Z</time></trkpt><trkpt lat="40.046968355270494" lon="18.013431877761036"><ele>3.0</ele><time>2026-04-19T10:23:14.586Z</time></trkpt><trkpt lat="40.046877471040425" lon="18.013508960524963"><ele>3.0</ele><time>2026-04-19T10:23:16.586Z</time></trkpt><trkpt lat="40.04682990934835" lon="18.013588613173866"><ele>3.0</ele><time>2026-04-19T10:23:17.586Z</time></trkpt><trkpt lat="40.04676741237236" lon="18.01365275184142"><ele>3.0</ele><time>2026-04-19T10:23:18.586Z</time></trkpt><trkpt lat="40.04669925887913" lon="18.013725519750054"><ele>3.0</ele><time>2026-04-19T10:23:19.586Z</time></trkpt><trkpt lat="40.04662485344259" lon="18.013813219446885"><ele>3.0</ele><time>2026-04-19T10:23:20.586Z</time></trkpt><trkpt lat="40.04654691745065" lon="18.013900687510947"><ele>3.0</ele><time>2026-04-19T10:23:21.586Z</time></trkpt><trkpt lat="40.0464644078408" lon="18.0139886620732"><ele>3.0</ele><time>2026-04-19T10:23:22.586Z</time></trkpt><trkpt lat="40.04637887063249" lon="18.014076951776563"><ele>3.0</ele><time>2026-04-19T10:23:23.586Z</time></trkpt><trkpt lat="40.04629056550875" lon="18.014170971896316"><ele>3.0</ele><time>2026-04-19T10:23:24.586Z</time></trkpt><trkpt lat="40.0462149770084" lon="18.014255209674655"><ele>3.0</ele><time>2026-04-19T10:23:25.586Z</time></trkpt><trkpt lat="40.046140808710305" lon="18.01433482738758"><ele>3.0</ele><time>2026-04-19T10:23:26.586Z</time></trkpt><trkpt lat="40.046073541687115" lon="18.014411924149336"><ele>3.0</ele><time>2026-04-19T10:23:27.586Z</time></trkpt><trkpt lat="40.04600743207792" lon="18.0144814192284"><ele>3.0</ele><time>2026-04-19T10:23:28.585Z</time></trkpt><trkpt lat="40.045942255678916" lon="18.014547945629374"><ele>3.0</ele><time>2026-04-19T10:23:29.586Z</time></trkpt><trkpt lat="40.04587974421024" lon="18.014616106675362"><ele>3.0</ele><time>2026-04-19T10:23:30.586Z</time></trkpt><trkpt lat="40.04581461289291" lon="18.01468947664095"><ele>3.0</ele><time>2026-04-19T10:23:31.586Z</time></trkpt><trkpt lat="40.04575254185019" lon="18.01476023754576"><ele>3.0</ele><time>2026-04-19T10:23:32.586Z</time></trkpt><trkpt lat="40.04568600634486" lon="18.014830870275947"><ele>3.0</ele><time>2026-04-19T10:23:33.586Z</time></trkpt><trkpt lat="40.04561543636541" lon="18.014908396176313"><ele>3.0</ele><time>2026-04-19T10:23:34.586Z</time></trkpt><trkpt lat="40.045539241118796" lon="18.01499375288058"><ele>3.0</ele><time>2026-04-19T10:23:35.585Z</time></trkpt><trkpt lat="40.04546016266027" lon="18.015078056282473"><ele>3.0</ele><time>2026-04-19T10:23:36.585Z</time></trkpt><trkpt lat="40.045378463816775" lon="18.015169436836125"><ele>3.0</ele><time>2026-04-19T10:23:37.586Z</time></trkpt><trkpt lat="40.0452977016716" lon="18.01525815728284"><ele>3.0</ele><time>2026-04-19T10:23:38.585Z</time></trkpt><trkpt lat="40.045219138092186" lon="18.015348840547787"><ele>3.0</ele><time>2026-04-19T10:23:39.585Z</time></trkpt><trkpt lat="40.04513396205181" lon="18.015446392071144"><ele>3.0</ele><time>2026-04-19T10:23:40.586Z</time></trkpt><trkpt lat="40.0450385731095" lon="18.015546978017902"><ele>2.75</ele><time>2026-04-19T10:23:41.585Z</time></trkpt><trkpt lat="40.04494261872716" lon="18.01564807545745"><ele>2.5</ele><time>2026-04-19T10:23:42.585Z</time></trkpt><trkpt lat="40.044850012744384" lon="18.015745238613807"><ele>2.25</ele><time>2026-04-19T10:23:43.585Z</time></trkpt><trkpt lat="40.04476674962882" lon="18.01583464198393"><ele>2.0</ele><time>2026-04-19T10:23:44.585Z</time></trkpt><trkpt lat="40.044687597612416" lon="18.01592012510098"><ele>2.4000000000000004</ele><time>2026-04-19T10:23:45.585Z</time></trkpt><trkpt lat="40.04461460638933" lon="18.016007589878413"><ele>2.8000000000000003</ele><time>2026-04-19T10:23:46.585Z</time></trkpt><trkpt lat="40.044531414501556" lon="18.016104370860294"><ele>3.2</ele><time>2026-04-19T10:23:47.585Z</time></trkpt><trkpt lat="40.0444442890499" lon="18.01620407042828"><ele>3.6</ele><time>2026-04-19T10:23:48.585Z</time></trkpt><trkpt lat="40.04436971102765" lon="18.016291786479936"><ele>4.0</ele><time>2026-04-19T10:23:49.585Z</time></trkpt><trkpt lat="40.044306989481356" lon="18.016371264949566"><ele>4.0</ele><time>2026-04-19T10:23:50.585Z</time></trkpt><trkpt lat="40.044257243040974" lon="18.0164325166452"><ele>4.0</ele><time>2026-04-19T10:23:51.585Z</time></trkpt><trkpt lat="40.04417393768333" lon="18.016544652465928"><ele>4.0</ele><time>2026-04-19T10:23:53.585Z</time></trkpt><trkpt lat="40.04413971151004" lon="18.016686301098506"><ele>4.0</ele><time>2026-04-19T10:23:55.585Z</time></trkpt><trkpt lat="40.04414864435047" lon="18.016774893453405"><ele>4.0</ele><time>2026-04-19T10:23:56.585Z</time></trkpt><trkpt lat="40.044181260890824" lon="18.01686973054198"><ele>4.0</ele><time>2026-04-19T10:23:57.585Z</time></trkpt><trkpt lat="40.044232938324704" lon="18.016961523795135"><ele>4.0</ele><time>2026-04-19T10:23:58.585Z</time></trkpt><trkpt lat="40.044295139174444" lon="18.01707945117941"><ele>4.0</ele><time>2026-04-19T10:23:59.585Z</time></trkpt><trkpt lat="40.04434786049916" lon="18.017209967213052"><ele>4.0</ele><time>2026-04-19T10:24:00.585Z</time></trkpt><trkpt lat="40.044378735327136" lon="18.01736008579725"><ele>4.0</ele><time>2026-04-19T10:24:01.585Z</time></trkpt><trkpt lat="40.044389847944736" lon="18.017515768145035"><ele>4.2</ele><time>2026-04-19T10:24:02.585Z</time></trkpt><trkpt lat="40.04439867761663" lon="18.01766655299794"><ele>4.4</ele><time>2026-04-19T10:24:03.585Z</time></trkpt><trkpt lat="40.044411973980615" lon="18.017803491860594"><ele>4.6</ele><time>2026-04-19T10:24:04.585Z</time></trkpt><trkpt lat="40.04442372101042" lon="18.017939769047373"><ele>4.8</ele><time>2026-04-19T10:24:05.585Z</time></trkpt><trkpt lat="40.04443063518209" lon="18.018074396113924"><ele>5.0</ele><time>2026-04-19T10:24:06.585Z</time></trkpt><trkpt lat="40.04443043556468" lon="18.018221040507758"><ele>5.25</ele><time>2026-04-19T10:24:07.585Z</time></trkpt><trkpt lat="40.0444140674409" lon="18.018372315979576"><ele>5.5</ele><time>2026-04-19T10:24:08.585Z</time></trkpt><trkpt lat="40.044388347012436" lon="18.018517464165058"><ele>5.75</ele><time>2026-04-19T10:24:09.585Z</time></trkpt><trkpt lat="40.04433357125207" lon="18.018646133863594"><ele>6.0</ele><time>2026-04-19T10:24:10.585Z</time></trkpt><trkpt lat="40.04426681096812" lon="18.018769578598445"><ele>6.0</ele><time>2026-04-19T10:24:11.585Z</time></trkpt><trkpt lat="40.044199267501384" lon="18.018893599427"><ele>6.0</ele><time>2026-04-19T10:24:12.585Z</time></trkpt><trkpt lat="40.04412617476261" lon="18.019006066587487"><ele>6.0</ele><time>2026-04-19T10:24:13.585Z</time></trkpt><trkpt lat="40.0440188443778" lon="18.019108464758936"><ele>6.0</ele><time>2026-04-19T10:24:14.585Z</time></trkpt><trkpt lat="40.043908263779834" lon="18.019191013978755"><ele>6.5</ele><time>2026-04-19T10:24:15.585Z</time></trkpt><trkpt lat="40.0437898761927" lon="18.019251228325203"><ele>7.0</ele><time>2026-04-19T10:24:16.585Z</time></trkpt><trkpt lat="40.0436679135212" lon="18.019303867067084"><ele>7.5</ele><time>2026-04-19T10:24:17.585Z</time></trkpt><trkpt lat="40.043535659623274" lon="18.01934281852944"><ele>8.0</ele><time>2026-04-19T10:24:18.585Z</time></trkpt><trkpt lat="40.043394598392545" lon="18.019359900907165"><ele>7.333333333333333</ele><time>2026-04-19T10:24:19.585Z</time></trkpt><trkpt lat="40.04323734553779" lon="18.01935864562447"><ele>6.666666666666666</ele><time>2026-04-19T10:24:20.585Z</time></trkpt><trkpt lat="40.04307080136316" lon="18.01934298700307"><ele>6.0</ele><time>2026-04-19T10:24:21.585Z</time></trkpt><trkpt lat="40.042890291870684" lon="18.0193104668698"><ele>6.0</ele><time>2026-04-19T10:24:22.585Z</time></trkpt><trkpt lat="40.042709657368675" lon="18.019301551679497"><ele>6.0</ele><time>2026-04-19T10:24:23.585Z</time></trkpt><trkpt lat="40.04253565973311" lon="18.019294622706134"><ele>6.0</ele><time>2026-04-19T10:24:24.585Z</time></trkpt><trkpt lat="40.042350505208645" lon="18.019276367361396"><ele>5.333333333333333</ele><time>2026-04-19T10:24:25.585Z</time></trkpt><trkpt lat="40.04216562341218" lon="18.019250977625244"><ele>4.666666666666666</ele><time>2026-04-19T10:24:26.585Z</time></trkpt><trkpt lat="40.04198955907061" lon="18.01922561277736"><ele>4.0</ele><time>2026-04-19T10:24:27.585Z</time></trkpt><trkpt lat="40.041817306464104" lon="18.01919825316108"><ele>4.0</ele><time>2026-04-19T10:24:28.585Z</time></trkpt><trkpt lat="40.0416441971187" lon="18.019171939464464"><ele>4.0</ele><time>2026-04-19T10:24:29.585Z</time></trkpt><trkpt lat="40.0414767214214" lon="18.019140660923423"><ele>4.0</ele><time>2026-04-19T10:24:30.585Z</time></trkpt><trkpt lat="40.041316142848245" lon="18.01912121575928"><ele>3.75</ele><time>2026-04-19T10:24:31.585Z</time></trkpt><trkpt lat="40.04115935612435" lon="18.01910292964982"><ele>3.5</ele><time>2026-04-19T10:24:32.585Z</time></trkpt><trkpt lat="40.04101677183445" lon="18.019119996977192"><ele>3.25</ele><time>2026-04-19T10:24:33.585Z</time></trkpt><trkpt lat="40.04087235077214" lon="18.019147494453517"><ele>3.0</ele><time>2026-04-19T10:24:34.585Z</time></trkpt><trkpt lat="40.040729893523256" lon="18.019195005370538"><ele>3.0</ele><time>2026-04-19T10:24:35.585Z</time></trkpt><trkpt lat="40.04058371038156" lon="18.019251688799304"><ele>3.0</ele><time>2026-04-19T10:24:36.585Z</time></trkpt><trkpt lat="40.04043656346803" lon="18.019320848752002"><ele>3.0</ele><time>2026-04-19T10:24:37.585Z</time></trkpt><trkpt lat="40.04029271616373" lon="18.019422493720942"><ele>3.0</ele><time>2026-04-19T10:24:38.585Z</time></trkpt><trkpt lat="40.040141374528396" lon="18.01953754888415"><ele>3.0</ele><time>2026-04-19T10:24:39.585Z</time></trkpt><trkpt lat="40.03998709146066" lon="18.019668894309255"><ele>3.0</ele><time>2026-04-19T10:24:40.585Z</time></trkpt><trkpt lat="40.03984149633407" lon="18.019831274423442"><ele>2.0</ele><time>2026-04-19T10:24:41.585Z</time></trkpt><trkpt lat="40.03972073266314" lon="18.020017022430807"><ele>1.0</ele><time>2026-04-19T10:24:42.585Z</time></trkpt><trkpt lat="40.03960438640768" lon="18.020225261013493"><ele>0.0</ele><time>2026-04-19T10:24:43.585Z</time></trkpt><trkpt lat="40.03949941516803" lon="18.020428594305514"><ele>0.0</ele><time>2026-04-19T10:24:44.585Z</time></trkpt><trkpt lat="40.03940505648003" lon="18.02062322124645"><ele>0.0</ele><time>2026-04-19T10:24:45.585Z</time></trkpt><trkpt lat="40.0393093605421" lon="18.0208005294822"><ele>0.0</ele><time>2026-04-19T10:24:46.585Z</time></trkpt><trkpt lat="40.03921706664293" lon="18.020961231367114"><ele>-0.5</ele><time>2026-04-19T10:24:47.585Z</time></trkpt><trkpt lat="40.03912755853194" lon="18.02111098340474"><ele>-1.0</ele><time>2026-04-19T10:24:48.585Z</time></trkpt><trkpt lat="40.03904040209294" lon="18.021254356135664"><ele>-1.5</ele><time>2026-04-19T10:24:49.585Z</time></trkpt><trkpt lat="40.03895925659956" lon="18.02141347652347"><ele>-2.0</ele><time>2026-04-19T10:24:50.585Z</time></trkpt><trkpt lat="40.03887884878461" lon="18.02157004135719"><ele>-1.25</ele><time>2026-04-19T10:24:51.585Z</time></trkpt><trkpt lat="40.038796507974716" lon="18.02170999650004"><ele>-0.5</ele><time>2026-04-19T10:24:52.585Z</time></trkpt><trkpt lat="40.03872027159907" lon="18.021842631549482"><ele>0.25</ele><time>2026-04-19T10:24:53.585Z</time></trkpt><trkpt lat="40.03863850657249" lon="18.021984796381403"><ele>1.0</ele><time>2026-04-19T10:24:54.585Z</time></trkpt><trkpt lat="40.03853845662374" lon="18.02213633054892"><ele>1.0</ele><time>2026-04-19T10:24:55.585Z</time></trkpt><trkpt lat="40.038424377093115" lon="18.022299455408522"><ele>1.0</ele><time>2026-04-19T10:24:56.585Z</time></trkpt><trkpt lat="40.03829691281967" lon="18.0224666143951"><ele>1.0</ele><time>2026-04-19T10:24:57.585Z</time></trkpt><trkpt lat="40.038145159187216" lon="18.022631882136864"><ele>1.0</ele><time>2026-04-19T10:24:58.585Z</time></trkpt><trkpt lat="40.037970689619236" lon="18.022804357031404"><ele>1.0</ele><time>2026-04-19T10:24:59.585Z</time></trkpt><trkpt lat="40.03779531875041" lon="18.022989041300644"><ele>1.0</ele><time>2026-04-19T10:25:00.585Z</time></trkpt><trkpt lat="40.037618802659644" lon="18.023179708783726"><ele>0.5</ele><time>2026-04-19T10:25:01.585Z</time></trkpt><trkpt lat="40.037445988839615" lon="18.02337020078644"><ele>0.0</ele><time>2026-04-19T10:25:02.585Z</time></trkpt><trkpt lat="40.03727459674252" lon="18.023572537035665"><ele>0.0</ele><time>2026-04-19T10:25:03.585Z</time></trkpt><trkpt lat="40.03709620216258" lon="18.023774455201256"><ele>0.0</ele><time>2026-04-19T10:25:04.585Z</time></trkpt><trkpt lat="40.036917954531354" lon="18.023976655173385"><ele>0.5</ele><time>2026-04-19T10:25:05.585Z</time></trkpt><trkpt lat="40.036740880167265" lon="18.02417074641835"><ele>1.0</ele><time>2026-04-19T10:25:06.585Z</time></trkpt><trkpt lat="40.0365687312508" lon="18.024361634866523"><ele>1.0</ele><time>2026-04-19T10:25:07.585Z</time></trkpt><trkpt lat="40.036398145361694" lon="18.024550441503116"><ele>1.0</ele><time>2026-04-19T10:25:08.585Z</time></trkpt><trkpt lat="40.03622747941535" lon="18.02474051443969"><ele>1.0</ele><time>2026-04-19T10:25:09.585Z</time></trkpt><trkpt lat="40.0360571320984" lon="18.024932252092245"><ele>1.0</ele><time>2026-04-19T10:25:10.585Z</time></trkpt><trkpt lat="40.035890267335624" lon="18.02512106754729"><ele>1.0</ele><time>2026-04-19T10:25:11.585Z</time></trkpt><trkpt lat="40.03571923745454" lon="18.025307165308163"><ele>1.0</ele><time>2026-04-19T10:25:12.585Z</time></trkpt><trkpt lat="40.035553212877716" lon="18.02550756003339"><ele>1.5</ele><time>2026-04-19T10:25:13.585Z</time></trkpt><trkpt lat="40.03538140276624" lon="18.02570520131049"><ele>2.0</ele><time>2026-04-19T10:25:14.585Z</time></trkpt><trkpt lat="40.035215156042746" lon="18.0259054583096"><ele>2.0</ele><time>2026-04-19T10:25:15.585Z</time></trkpt><trkpt lat="40.0350385583726" lon="18.02610035398225"><ele>2.0</ele><time>2026-04-19T10:25:16.585Z</time></trkpt><trkpt lat="40.034863124835276" lon="18.02629487333259"><ele>2.0</ele><time>2026-04-19T10:25:17.585Z</time></trkpt><trkpt lat="40.03468610810537" lon="18.02648541231897"><ele>2.0</ele><time>2026-04-19T10:25:18.585Z</time></trkpt><trkpt lat="40.03450583291389" lon="18.026676726561014"><ele>1.5</ele><time>2026-04-19T10:25:19.585Z</time></trkpt><trkpt lat="40.03432635809512" lon="18.02686955843856"><ele>1.0</ele><time>2026-04-19T10:25:20.585Z</time></trkpt><trkpt lat="40.03414181674435" lon="18.027065255019576"><ele>2.0</ele><time>2026-04-19T10:25:21.585Z</time></trkpt><trkpt lat="40.03395838606" lon="18.027265206314244"><ele>3.0</ele><time>2026-04-19T10:25:22.585Z</time></trkpt><trkpt lat="40.03377575612251" lon="18.02746835752671"><ele>2.5</ele><time>2026-04-19T10:25:23.585Z</time></trkpt><trkpt lat="40.03358953391521" lon="18.0276715850354"><ele>2.0</ele><time>2026-04-19T10:25:24.585Z</time></trkpt><trkpt lat="40.03339975184051" lon="18.027878254051423"><ele>2.0</ele><time>2026-04-19T10:25:25.585Z</time></trkpt><trkpt lat="40.03320517878363" lon="18.028080102173405"><ele>2.0</ele><time>2026-04-19T10:25:26.585Z</time></trkpt><trkpt lat="40.03301167917253" lon="18.028267165242987"><ele>1.5</ele><time>2026-04-19T10:25:27.585Z</time></trkpt><trkpt lat="40.03282145346259" lon="18.02847433902443"><ele>1.0</ele><time>2026-04-19T10:25:28.585Z</time></trkpt><trkpt lat="40.032629635211286" lon="18.028683316626793"><ele>1.5</ele><time>2026-04-19T10:25:29.585Z</time></trkpt><trkpt lat="40.03243988368896" lon="18.02889461080544"><ele>2.0</ele><time>2026-04-19T10:25:30.585Z</time></trkpt><trkpt lat="40.032247172685665" lon="18.029107517374253"><ele>3.0</ele><time>2026-04-19T10:25:31.585Z</time></trkpt><trkpt lat="40.03205763522089" lon="18.02931864078402"><ele>4.0</ele><time>2026-04-19T10:25:32.585Z</time></trkpt><trkpt lat="40.03186466091003" lon="18.029531815272033"><ele>4.0</ele><time>2026-04-19T10:25:33.585Z</time></trkpt><trkpt lat="40.03167380912431" lon="18.02974764820867"><ele>4.0</ele><time>2026-04-19T10:25:34.585Z</time></trkpt><trkpt lat="40.03147640407566" lon="18.0299588203857"><ele>4.5</ele><time>2026-04-19T10:25:35.584Z</time></trkpt><trkpt lat="40.031285099169494" lon="18.030172298498663"><ele>5.0</ele><time>2026-04-19T10:25:36.584Z</time></trkpt><trkpt lat="40.031088769165386" lon="18.03037558901319"><ele>5.0</ele><time>2026-04-19T10:25:37.584Z</time></trkpt><trkpt lat="40.0308945490006" lon="18.03058363928926"><ele>5.0</ele><time>2026-04-19T10:25:38.584Z</time></trkpt><trkpt lat="40.03070107233902" lon="18.030795314939205"><ele>5.0</ele><time>2026-04-19T10:25:39.584Z</time></trkpt><trkpt lat="40.03051151781146" lon="18.031002957663652"><ele>5.0</ele><time>2026-04-19T10:25:40.584Z</time></trkpt><trkpt lat="40.03031983449459" lon="18.031208791834874"><ele>5.0</ele><time>2026-04-19T10:25:41.584Z</time></trkpt><trkpt lat="40.03012492094897" lon="18.031416745518495"><ele>5.0</ele><time>2026-04-19T10:25:42.584Z</time></trkpt><trkpt lat="40.02993514312122" lon="18.031620627059592"><ele>4.0</ele><time>2026-04-19T10:25:43.584Z</time></trkpt><trkpt lat="40.02974009869341" lon="18.031820023826345"><ele>3.0</ele><time>2026-04-19T10:25:44.584Z</time></trkpt><trkpt lat="40.029540616908534" lon="18.032019980182117"><ele>3.0</ele><time>2026-04-19T10:25:45.584Z</time></trkpt><trkpt lat="40.02934271613845" lon="18.032218188341435"><ele>3.0</ele><time>2026-04-19T10:25:46.584Z</time></trkpt><trkpt lat="40.02914955889606" lon="18.032417625766914"><ele>4.5</ele><time>2026-04-19T10:25:47.584Z</time></trkpt><trkpt lat="40.02895975441845" lon="18.032622413197"><ele>6.0</ele><time>2026-04-19T10:25:48.584Z</time></trkpt><trkpt lat="40.02876868853513" lon="18.032832311672504"><ele>6.0</ele><time>2026-04-19T10:25:49.584Z</time></trkpt><trkpt lat="40.02858521719395" lon="18.03305025281362"><ele>6.0</ele><time>2026-04-19T10:25:50.584Z</time></trkpt><trkpt lat="40.028401834097245" lon="18.033269431059765"><ele>7.5</ele><time>2026-04-19T10:25:51.584Z</time></trkpt><trkpt lat="40.02821526197953" lon="18.033484296180394"><ele>9.0</ele><time>2026-04-19T10:25:52.584Z</time></trkpt><trkpt lat="40.028026021824495" lon="18.033700475004114"><ele>9.0</ele><time>2026-04-19T10:25:53.584Z</time></trkpt><trkpt lat="40.02783122784447" lon="18.033912622275896"><ele>9.0</ele><time>2026-04-19T10:25:54.584Z</time></trkpt><trkpt lat="40.0276354174536" lon="18.03413751560751"><ele>12.5</ele><time>2026-04-19T10:25:55.584Z</time></trkpt><trkpt lat="40.027443626158956" lon="18.03434876889824"><ele>16.0</ele><time>2026-04-19T10:25:56.584Z</time></trkpt><trkpt lat="40.027249373054154" lon="18.034557156187013"><ele>16.0</ele><time>2026-04-19T10:25:57.584Z</time></trkpt><trkpt lat="40.027058364786186" lon="18.03476418138217"><ele>16.0</ele><time>2026-04-19T10:25:58.584Z</time></trkpt><trkpt lat="40.02686151985202" lon="18.03497386424877"><ele>16.5</ele><time>2026-04-19T10:25:59.584Z</time></trkpt><trkpt lat="40.026673840299765" lon="18.035185797558352"><ele>17.0</ele><time>2026-04-19T10:26:00.584Z</time></trkpt><trkpt lat="40.0264805374673" lon="18.035390949630447"><ele>17.0</ele><time>2026-04-19T10:26:01.584Z</time></trkpt><trkpt lat="40.02629016267038" lon="18.035604256217525"><ele>17.0</ele><time>2026-04-19T10:26:02.584Z</time></trkpt><trkpt lat="40.0260949393107" lon="18.0357933206185"><ele>16.0</ele><time>2026-04-19T10:26:03.584Z</time></trkpt><trkpt lat="40.025902768597554" lon="18.036000676971767"><ele>15.0</ele><time>2026-04-19T10:26:04.584Z</time></trkpt><trkpt lat="40.0257183168172" lon="18.036217020671497"><ele>15.0</ele><time>2026-04-19T10:26:05.584Z</time></trkpt><trkpt lat="40.025528709446824" lon="18.036421202340954"><ele>15.0</ele><time>2026-04-19T10:26:06.584Z</time></trkpt><trkpt lat="40.02533766253862" lon="18.036616186081165"><ele>13.0</ele><time>2026-04-19T10:26:07.584Z</time></trkpt><trkpt lat="40.025146746379015" lon="18.03681655924433"><ele>11.0</ele><time>2026-04-19T10:26:08.584Z</time></trkpt><trkpt lat="40.024956813681534" lon="18.03703437542847"><ele>11.0</ele><time>2026-04-19T10:26:09.584Z</time></trkpt><trkpt lat="40.02476740238302" lon="18.037237565006055"><ele>11.0</ele><time>2026-04-19T10:26:10.584Z</time></trkpt><trkpt lat="40.024574632061785" lon="18.037447864188376"><ele>10.5</ele><time>2026-04-19T10:26:11.584Z</time></trkpt><trkpt lat="40.0243805418677" lon="18.037647771394138"><ele>10.0</ele><time>2026-04-19T10:26:12.584Z</time></trkpt><trkpt lat="40.02418341517502" lon="18.037860116291828"><ele>10.5</ele><time>2026-04-19T10:26:13.584Z</time></trkpt><trkpt lat="40.02398188141555" lon="18.038069538302267"><ele>11.0</ele><time>2026-04-19T10:26:14.584Z</time></trkpt><trkpt lat="40.02377726381251" lon="18.038282020763898"><ele>9.5</ele><time>2026-04-19T10:26:15.584Z</time></trkpt><trkpt lat="40.023586337998694" lon="18.03849487107787"><ele>8.0</ele><time>2026-04-19T10:26:16.584Z</time></trkpt><trkpt lat="40.02339668249635" lon="18.03870126299511"><ele>8.5</ele><time>2026-04-19T10:26:17.584Z</time></trkpt><trkpt lat="40.02320523204231" lon="18.038912538641394"><ele>9.0</ele><time>2026-04-19T10:26:18.584Z</time></trkpt><trkpt lat="40.02301234716073" lon="18.03912398108733"><ele>9.0</ele><time>2026-04-19T10:26:19.584Z</time></trkpt><trkpt lat="40.02281487318686" lon="18.03932767338949"><ele>9.0</ele><time>2026-04-19T10:26:20.584Z</time></trkpt><trkpt lat="40.02261702866896" lon="18.03953960695839"><ele>9.5</ele><time>2026-04-19T10:26:21.584Z</time></trkpt><trkpt lat="40.022422388864925" lon="18.0397526276288"><ele>10.0</ele><time>2026-04-19T10:26:22.584Z</time></trkpt><trkpt lat="40.02224338286327" lon="18.03994241336688"><ele>10.0</ele><time>2026-04-19T10:26:23.584Z</time></trkpt><trkpt lat="40.02206561223583" lon="18.040117952589437"><ele>10.0</ele><time>2026-04-19T10:26:24.584Z</time></trkpt><trkpt lat="40.02188973309489" lon="18.040314136417482"><ele>10.0</ele><time>2026-04-19T10:26:25.584Z</time></trkpt><trkpt lat="40.021711256532654" lon="18.040508341481388"><ele>10.0</ele><time>2026-04-19T10:26:26.584Z</time></trkpt><trkpt lat="40.021531389240074" lon="18.04071445912165"><ele>10.5</ele><time>2026-04-19T10:26:27.584Z</time></trkpt><trkpt lat="40.021350447394965" lon="18.040914164083862"><ele>11.0</ele><time>2026-04-19T10:26:28.584Z</time></trkpt><trkpt lat="40.021170527232854" lon="18.041112989161356"><ele>11.0</ele><time>2026-04-19T10:26:29.584Z</time></trkpt><trkpt lat="40.02099386321543" lon="18.04131175976119"><ele>11.0</ele><time>2026-04-19T10:26:30.584Z</time></trkpt><trkpt lat="40.02081698229291" lon="18.041517605081786"><ele>11.5</ele><time>2026-04-19T10:26:31.584Z</time></trkpt><trkpt lat="40.020629998259864" lon="18.041714283754978"><ele>12.0</ele><time>2026-04-19T10:26:32.584Z</time></trkpt><trkpt lat="40.02044086344781" lon="18.04191337061553"><ele>12.0</ele><time>2026-04-19T10:26:33.584Z</time></trkpt><trkpt lat="40.020256842238524" lon="18.042109626736455"><ele>12.0</ele><time>2026-04-19T10:26:34.584Z</time></trkpt><trkpt lat="40.020078870041964" lon="18.042305575018254"><ele>12.0</ele><time>2026-04-19T10:26:35.584Z</time></trkpt><trkpt lat="40.019903352647" lon="18.042506878244073"><ele>12.0</ele><time>2026-04-19T10:26:36.584Z</time></trkpt><trkpt lat="40.01972486402221" lon="18.042705645694628"><ele>12.0</ele><time>2026-04-19T10:26:37.584Z</time></trkpt><trkpt lat="40.01953803502335" lon="18.042897370937915"><ele>12.0</ele><time>2026-04-19T10:26:38.584Z</time></trkpt><trkpt lat="40.01935545043159" lon="18.043095268412095"><ele>12.0</ele><time>2026-04-19T10:26:39.584Z</time></trkpt><trkpt lat="40.019176455447926" lon="18.043298203363925"><ele>12.0</ele><time>2026-04-19T10:26:40.584Z</time></trkpt><trkpt lat="40.01899782260652" lon="18.04348313584507"><ele>12.0</ele><time>2026-04-19T10:26:41.584Z</time></trkpt><trkpt lat="40.01882114294899" lon="18.043674128602824"><ele>12.0</ele><time>2026-04-19T10:26:42.584Z</time></trkpt><trkpt lat="40.01864325680111" lon="18.043874517138708"><ele>12.0</ele><time>2026-04-19T10:26:43.584Z</time></trkpt><trkpt lat="40.018468178291435" lon="18.044070220825198"><ele>12.0</ele><time>2026-04-19T10:26:44.584Z</time></trkpt><trkpt lat="40.01829044959777" lon="18.044260389043746"><ele>13.5</ele><time>2026-04-19T10:26:45.584Z</time></trkpt><trkpt lat="40.018114779875035" lon="18.04444359344582"><ele>15.0</ele><time>2026-04-19T10:26:46.584Z</time></trkpt><trkpt lat="40.01793985054524" lon="18.04463771651166"><ele>15.0</ele><time>2026-04-19T10:26:47.584Z</time></trkpt><trkpt lat="40.017766565845236" lon="18.04482671510026"><ele>15.0</ele><time>2026-04-19T10:26:48.584Z</time></trkpt><trkpt lat="40.01758896332833" lon="18.04501594306918"><ele>14.5</ele><time>2026-04-19T10:26:49.584Z</time></trkpt><trkpt lat="40.017414863639345" lon="18.045196056651456"><ele>14.0</ele><time>2026-04-19T10:26:50.584Z</time></trkpt><trkpt lat="40.017237013473846" lon="18.04539509461419"><ele>14.0</ele><time>2026-04-19T10:26:51.584Z</time></trkpt><trkpt lat="40.01706097089842" lon="18.045584940922314"><ele>14.0</ele><time>2026-04-19T10:26:52.584Z</time></trkpt><trkpt lat="40.01687721170717" lon="18.045782828397115"><ele>14.5</ele><time>2026-04-19T10:26:53.584Z</time></trkpt><trkpt lat="40.016687533796414" lon="18.045996354709413"><ele>15.0</ele><time>2026-04-19T10:26:54.584Z</time></trkpt><trkpt lat="40.01649647431216" lon="18.046209914420235"><ele>16.0</ele><time>2026-04-19T10:26:55.584Z</time></trkpt><trkpt lat="40.01629200473116" lon="18.04642794725572"><ele>17.0</ele><time>2026-04-19T10:26:56.584Z</time></trkpt><trkpt lat="40.01608698944255" lon="18.046652414160505"><ele>17.5</ele><time>2026-04-19T10:26:57.584Z</time></trkpt><trkpt lat="40.015882651212934" lon="18.04687467516346"><ele>18.0</ele><time>2026-04-19T10:26:58.584Z</time></trkpt><trkpt lat="40.01567706518577" lon="18.04709680830804"><ele>19.0</ele><time>2026-04-19T10:26:59.584Z</time></trkpt><trkpt lat="40.01547337479658" lon="18.04732347446161"><ele>20.0</ele><time>2026-04-19T10:27:00.584Z</time></trkpt><trkpt lat="40.0152713769261" lon="18.047554836061888"><ele>20.0</ele><time>2026-04-19T10:27:01.584Z</time></trkpt><trkpt lat="40.01506380391401" lon="18.047790726774576"><ele>20.0</ele><time>2026-04-19T10:27:02.584Z</time></trkpt><trkpt lat="40.01485456021269" lon="18.048020512390014"><ele>21.0</ele><time>2026-04-19T10:27:03.584Z</time></trkpt><trkpt lat="40.01465440521534" lon="18.0482487613257"><ele>22.0</ele><time>2026-04-19T10:27:04.584Z</time></trkpt><trkpt lat="40.014450311680335" lon="18.04847297708086"><ele>22.5</ele><time>2026-04-19T10:27:05.584Z</time></trkpt><trkpt lat="40.01424454695343" lon="18.04870129473592"><ele>23.0</ele><time>2026-04-19T10:27:06.584Z</time></trkpt><trkpt lat="40.01403959617173" lon="18.048925325198667"><ele>23.0</ele><time>2026-04-19T10:27:07.584Z</time></trkpt><trkpt lat="40.01383517906164" lon="18.0491511675007"><ele>23.0</ele><time>2026-04-19T10:27:08.584Z</time></trkpt><trkpt lat="40.01363091888901" lon="18.049373238036797"><ele>23.0</ele><time>2026-04-19T10:27:09.584Z</time></trkpt><trkpt lat="40.01342241626111" lon="18.049597693873146"><ele>23.0</ele><time>2026-04-19T10:27:10.584Z</time></trkpt><trkpt lat="40.013215077849225" lon="18.049818248623392"><ele>23.0</ele><time>2026-04-19T10:27:11.584Z</time></trkpt><trkpt lat="40.01300800260727" lon="18.05004340757116"><ele>23.0</ele><time>2026-04-19T10:27:12.584Z</time></trkpt><trkpt lat="40.01279524007709" lon="18.050274618242085"><ele>23.0</ele><time>2026-04-19T10:27:13.584Z</time></trkpt><trkpt lat="40.01258412142746" lon="18.050505920089034"><ele>23.0</ele><time>2026-04-19T10:27:14.584Z</time></trkpt><trkpt lat="40.01237339078602" lon="18.050734090574686"><ele>24.0</ele><time>2026-04-19T10:27:15.584Z</time></trkpt><trkpt lat="40.01216150097734" lon="18.050960373464175"><ele>25.0</ele><time>2026-04-19T10:27:16.584Z</time></trkpt><trkpt lat="40.01195009800712" lon="18.051185472323105"><ele>25.0</ele><time>2026-04-19T10:27:17.584Z</time></trkpt><trkpt lat="40.01174205905851" lon="18.051415213884937"><ele>25.0</ele><time>2026-04-19T10:27:18.584Z</time></trkpt><trkpt lat="40.011526686825476" lon="18.051639927049617"><ele>24.5</ele><time>2026-04-19T10:27:19.584Z</time></trkpt><trkpt lat="40.011313258328045" lon="18.051868964273506"><ele>24.0</ele><time>2026-04-19T10:27:20.584Z</time></trkpt><trkpt lat="40.01109779563719" lon="18.052089291309823"><ele>24.0</ele><time>2026-04-19T10:27:21.584Z</time></trkpt><trkpt lat="40.01088194279518" lon="18.052318241839004"><ele>24.0</ele><time>2026-04-19T10:27:22.584Z</time></trkpt><trkpt lat="40.01066590878776" lon="18.05253607960878"><ele>23.0</ele><time>2026-04-19T10:27:23.584Z</time></trkpt><trkpt lat="40.010456897088275" lon="18.052760525245635"><ele>22.0</ele><time>2026-04-19T10:27:24.584Z</time></trkpt><trkpt lat="40.010250135384915" lon="18.05298116653449"><ele>22.0</ele><time>2026-04-19T10:27:25.584Z</time></trkpt><trkpt lat="40.01004600379725" lon="18.053208512356985"><ele>22.0</ele><time>2026-04-19T10:27:26.584Z</time></trkpt><trkpt lat="40.00984460830834" lon="18.053424698585342"><ele>23.0</ele><time>2026-04-19T10:27:27.584Z</time></trkpt><trkpt lat="40.00963726805981" lon="18.053651942283516"><ele>24.0</ele><time>2026-04-19T10:27:28.584Z</time></trkpt><trkpt lat="40.00943193014003" lon="18.053876287860923"><ele>24.0</ele><time>2026-04-19T10:27:29.584Z</time></trkpt><trkpt lat="40.00922643974053" lon="18.054102805257838"><ele>24.0</ele><time>2026-04-19T10:27:30.584Z</time></trkpt><trkpt lat="40.00901808370026" lon="18.05432937681886"><ele>25.5</ele><time>2026-04-19T10:27:31.584Z</time></trkpt><trkpt lat="40.008809621996754" lon="18.054554564022286"><ele>27.0</ele><time>2026-04-19T10:27:32.584Z</time></trkpt><trkpt lat="40.00860220970128" lon="18.054777553686595"><ele>27.0</ele><time>2026-04-19T10:27:33.584Z</time></trkpt><trkpt lat="40.00839520770101" lon="18.05500009021711"><ele>27.0</ele><time>2026-04-19T10:27:34.584Z</time></trkpt><trkpt lat="40.00819061028325" lon="18.05523090444093"><ele>28.5</ele><time>2026-04-19T10:27:35.584Z</time></trkpt><trkpt lat="40.00799069646118" lon="18.05545415605868"><ele>30.0</ele><time>2026-04-19T10:27:36.584Z</time></trkpt><trkpt lat="40.007790539971445" lon="18.05568029529377"><ele>30.5</ele><time>2026-04-19T10:27:37.584Z</time></trkpt><trkpt lat="40.00758783839775" lon="18.055902582990306"><ele>31.0</ele><time>2026-04-19T10:27:38.584Z</time></trkpt><trkpt lat="40.00738115661544" lon="18.056121911578117"><ele>31.0</ele><time>2026-04-19T10:27:39.584Z</time></trkpt><trkpt lat="40.00717400916194" lon="18.056343770378167"><ele>31.0</ele><time>2026-04-19T10:27:40.583Z</time></trkpt><trkpt lat="40.00696844915783" lon="18.05656519999163"><ele>31.5</ele><time>2026-04-19T10:27:41.584Z</time></trkpt><trkpt lat="40.00676359610227" lon="18.05678647012538"><ele>32.0</ele><time>2026-04-19T10:27:42.584Z</time></trkpt><trkpt lat="40.00656090030066" lon="18.05700688483209"><ele>32.0</ele><time>2026-04-19T10:27:43.583Z</time></trkpt><trkpt lat="40.00635755634324" lon="18.05722638596941"><ele>32.0</ele><time>2026-04-19T10:27:44.583Z</time></trkpt><trkpt lat="40.00615474904768" lon="18.057441053145087"><ele>32.0</ele><time>2026-04-19T10:27:45.583Z</time></trkpt><trkpt lat="40.005950899194644" lon="18.05765704264603"><ele>32.0</ele><time>2026-04-19T10:27:46.583Z</time></trkpt><trkpt lat="40.00574651894459" lon="18.057870573968906"><ele>32.5</ele><time>2026-04-19T10:27:47.583Z</time></trkpt><trkpt lat="40.00554509956612" lon="18.058085614584414"><ele>33.0</ele><time>2026-04-19T10:27:48.583Z</time></trkpt><trkpt lat="40.005343212566494" lon="18.05830189645105"><ele>33.0</ele><time>2026-04-19T10:27:49.584Z</time></trkpt><trkpt lat="40.00514109664174" lon="18.058517251000154"><ele>33.0</ele><time>2026-04-19T10:27:50.583Z</time></trkpt><trkpt lat="40.00493919390038" lon="18.058733209119925"><ele>33.0</ele><time>2026-04-19T10:27:51.583Z</time></trkpt><trkpt lat="40.00473785321101" lon="18.05894958663816"><ele>33.0</ele><time>2026-04-19T10:27:52.584Z</time></trkpt><trkpt lat="40.004536935818145" lon="18.059169088162683"><ele>33.5</ele><time>2026-04-19T10:27:53.584Z</time></trkpt><trkpt lat="40.004338901617324" lon="18.059387997881053"><ele>34.0</ele><time>2026-04-19T10:27:54.584Z</time></trkpt><trkpt lat="40.00414517851448" lon="18.05959942313898"><ele>34.0</ele><time>2026-04-19T10:27:55.584Z</time></trkpt><trkpt lat="40.003953683440216" lon="18.059793740510134"><ele>34.0</ele><time>2026-04-19T10:27:56.584Z</time></trkpt><trkpt lat="40.003756018402974" lon="18.059969704513477"><ele>34.5</ele><time>2026-04-19T10:27:57.584Z</time></trkpt><trkpt lat="40.0035482941606" lon="18.06013883864731"><ele>35.0</ele><time>2026-04-19T10:27:58.584Z</time></trkpt><trkpt lat="40.00333614108667" lon="18.060292062252252"><ele>34.5</ele><time>2026-04-19T10:27:59.584Z</time></trkpt><trkpt lat="40.00312764083559" lon="18.060433401693857"><ele>34.0</ele><time>2026-04-19T10:28:00.584Z</time></trkpt><trkpt lat="40.002931672451254" lon="18.06057438916636"><ele>34.0</ele><time>2026-04-19T10:28:01.584Z</time></trkpt><trkpt lat="40.00274108602669" lon="18.06071710491218"><ele>34.0</ele><time>2026-04-19T10:28:02.584Z</time></trkpt><trkpt lat="40.002557283035515" lon="18.06087731549608"><ele>34.0</ele><time>2026-04-19T10:28:03.584Z</time></trkpt><trkpt lat="40.0023881262565" lon="18.06105709729667"><ele>34.66666666666667</ele><time>2026-04-19T10:28:04.584Z</time></trkpt><trkpt lat="40.00223091027225" lon="18.061250545028468"><ele>35.333333333333336</ele><time>2026-04-19T10:28:05.584Z</time></trkpt><trkpt lat="40.00207862021453" lon="18.061450314720098"><ele>36.0</ele><time>2026-04-19T10:28:06.584Z</time></trkpt><trkpt lat="40.001930743780306" lon="18.06166802896322"><ele>36.0</ele><time>2026-04-19T10:28:07.584Z</time></trkpt><trkpt lat="40.001790746235756" lon="18.061895178455416"><ele>36.0</ele><time>2026-04-19T10:28:08.584Z</time></trkpt><trkpt lat="40.001666070453595" lon="18.062126926463257"><ele>36.0</ele><time>2026-04-19T10:28:09.584Z</time></trkpt><trkpt lat="40.0015612168003" lon="18.062355835057538"><ele>36.666666666666664</ele><time>2026-04-19T10:28:10.584Z</time></trkpt><trkpt lat="40.00144540065549" lon="18.062584046223503"><ele>37.33333333333333</ele><time>2026-04-19T10:28:11.584Z</time></trkpt><trkpt lat="40.00134663807051" lon="18.06281992049328"><ele>38.0</ele><time>2026-04-19T10:28:12.584Z</time></trkpt><trkpt lat="40.00125500324269" lon="18.063093218076705"><ele>38.0</ele><time>2026-04-19T10:28:13.584Z</time></trkpt><trkpt lat="40.00117094440668" lon="18.06334589023019"><ele>38.0</ele><time>2026-04-19T10:28:14.584Z</time></trkpt><trkpt lat="40.00108776491208" lon="18.063601749273563"><ele>38.0</ele><time>2026-04-19T10:28:15.584Z</time></trkpt><trkpt lat="40.001002011257455" lon="18.063862976647965"><ele>38.33333333333333</ele><time>2026-04-19T10:28:16.584Z</time></trkpt><trkpt lat="40.00091694292362" lon="18.064124227144603"><ele>38.666666666666664</ele><time>2026-04-19T10:28:17.584Z</time></trkpt><trkpt lat="40.00082889978681" lon="18.064389437607485"><ele>39.0</ele><time>2026-04-19T10:28:18.584Z</time></trkpt><trkpt lat="40.00074137203413" lon="18.064658901815193"><ele>39.0</ele><time>2026-04-19T10:28:19.584Z</time></trkpt><trkpt lat="40.00065354579216" lon="18.06493078044409"><ele>39.0</ele><time>2026-04-19T10:28:20.584Z</time></trkpt><trkpt lat="40.00056496927783" lon="18.065190221615453"><ele>39.0</ele><time>2026-04-19T10:28:21.584Z</time></trkpt><trkpt lat="40.0004816801358" lon="18.065449235693958"><ele>39.0</ele><time>2026-04-19T10:28:22.584Z</time></trkpt><trkpt lat="40.00039297394458" lon="18.06570528374588"><ele>39.0</ele><time>2026-04-19T10:28:23.584Z</time></trkpt><trkpt lat="40.00030068574711" lon="18.06596952115089"><ele>39.0</ele><time>2026-04-19T10:28:24.584Z</time></trkpt><trkpt lat="40.00021356834564" lon="18.06623498018884"><ele>39.333333333333336</ele><time>2026-04-19T10:28:25.584Z</time></trkpt><trkpt lat="40.00013192273927" lon="18.066495153572475"><ele>39.66666666666667</ele><time>2026-04-19T10:28:26.584Z</time></trkpt><trkpt lat="40.00004207822228" lon="18.066764322637326"><ele>40.0</ele><time>2026-04-19T10:28:27.583Z</time></trkpt><trkpt lat="39.999960341471585" lon="18.06702455925552"><ele>40.0</ele><time>2026-04-19T10:28:28.583Z</time></trkpt><trkpt lat="39.9998868412876" lon="18.067281787618334"><ele>40.0</ele><time>2026-04-19T10:28:29.583Z</time></trkpt><trkpt lat="39.99981443404717" lon="18.06754296038533"><ele>40.0</ele><time>2026-04-19T10:28:30.583Z</time></trkpt><trkpt lat="39.999750782749665" lon="18.067820679759805"><ele>39.66666666666667</ele><time>2026-04-19T10:28:31.583Z</time></trkpt><trkpt lat="39.999687774162936" lon="18.06808498330562"><ele>39.333333333333336</ele><time>2026-04-19T10:28:32.583Z</time></trkpt><trkpt lat="39.99962936963378" lon="18.068360348800454"><ele>39.0</ele><time>2026-04-19T10:28:33.583Z</time></trkpt><trkpt lat="39.99957016403261" lon="18.068641771329"><ele>39.0</ele><time>2026-04-19T10:28:34.583Z</time></trkpt><trkpt lat="39.999508629681884" lon="18.068931206537457"><ele>39.0</ele><time>2026-04-19T10:28:35.583Z</time></trkpt><trkpt lat="39.99945762264384" lon="18.069224300897094"><ele>39.0</ele><time>2026-04-19T10:28:36.583Z</time></trkpt><trkpt lat="39.99940493902906" lon="18.069523071668396"><ele>39.0</ele><time>2026-04-19T10:28:37.583Z</time></trkpt><trkpt lat="39.999355470110835" lon="18.069819438834916"><ele>39.0</ele><time>2026-04-19T10:28:38.583Z</time></trkpt><trkpt lat="39.99930633478814" lon="18.070122571227042"><ele>39.0</ele><time>2026-04-19T10:28:39.583Z</time></trkpt><trkpt lat="39.99926010968426" lon="18.070425867013444"><ele>39.0</ele><time>2026-04-19T10:28:40.583Z</time></trkpt><trkpt lat="39.99921688807504" lon="18.070728641459667"><ele>39.0</ele><time>2026-04-19T10:28:41.583Z</time></trkpt><trkpt lat="39.99916275927249" lon="18.071023707303414"><ele>40.0</ele><time>2026-04-19T10:28:42.583Z</time></trkpt><trkpt lat="39.99911328479203" lon="18.07131967726578"><ele>41.0</ele><time>2026-04-19T10:28:43.583Z</time></trkpt><trkpt lat="39.99907086100165" lon="18.07162144117415"><ele>41.5</ele><time>2026-04-19T10:28:44.583Z</time></trkpt><trkpt lat="39.99901917036786" lon="18.071916855236196"><ele>42.0</ele><time>2026-04-19T10:28:45.583Z</time></trkpt><trkpt lat="39.99897017468903" lon="18.072220511935505"><ele>41.5</ele><time>2026-04-19T10:28:46.583Z</time></trkpt><trkpt lat="39.99892007737322" lon="18.07252076198889"><ele>41.0</ele><time>2026-04-19T10:28:47.583Z</time></trkpt><trkpt lat="39.99887177194634" lon="18.072824662835064"><ele>41.0</ele><time>2026-04-19T10:28:48.583Z</time></trkpt><trkpt lat="39.998823251368535" lon="18.07312782034876"><ele>41.0</ele><time>2026-04-19T10:28:49.583Z</time></trkpt><trkpt lat="39.998777446539535" lon="18.073430114088215"><ele>40.0</ele><time>2026-04-19T10:28:50.583Z</time></trkpt><trkpt lat="39.99873013018863" lon="18.073735238751944"><ele>39.0</ele><time>2026-04-19T10:28:51.583Z</time></trkpt><trkpt lat="39.99868063484882" lon="18.07403960682318"><ele>40.0</ele><time>2026-04-19T10:28:52.583Z</time></trkpt><trkpt lat="39.99863263132028" lon="18.07433798817578"><ele>41.0</ele><time>2026-04-19T10:28:53.583Z</time></trkpt><trkpt lat="39.998581190928725" lon="18.074641948481617"><ele>41.0</ele><time>2026-04-19T10:28:54.583Z</time></trkpt><trkpt lat="39.998531532915806" lon="18.074945216970942"><ele>41.0</ele><time>2026-04-19T10:28:55.583Z</time></trkpt><trkpt lat="39.99848033060524" lon="18.07524826151771"><ele>41.0</ele><time>2026-04-19T10:28:56.583Z</time></trkpt><trkpt lat="39.99843475481031" lon="18.075546808942605"><ele>41.0</ele><time>2026-04-19T10:28:57.583Z</time></trkpt><trkpt lat="39.99838516170502" lon="18.075850774987547"><ele>42.0</ele><time>2026-04-19T10:28:58.583Z</time></trkpt><trkpt lat="39.99834112808818" lon="18.076154534931273"><ele>43.0</ele><time>2026-04-19T10:28:59.583Z</time></trkpt><trkpt lat="39.99829773904074" lon="18.07645813380721"><ele>43.0</ele><time>2026-04-19T10:29:00.583Z</time></trkpt><trkpt lat="39.99825145620856" lon="18.07676510898949"><ele>43.0</ele><time>2026-04-19T10:29:01.583Z</time></trkpt><trkpt lat="39.99820333910925" lon="18.07706640169782"><ele>43.0</ele><time>2026-04-19T10:29:02.583Z</time></trkpt><trkpt lat="39.99815109387737" lon="18.077368647082032"><ele>43.0</ele><time>2026-04-19T10:29:03.583Z</time></trkpt><trkpt lat="39.99810207559828" lon="18.07766952499044"><ele>43.0</ele><time>2026-04-19T10:29:04.583Z</time></trkpt><trkpt lat="39.99805573584801" lon="18.0779673081314"><ele>43.0</ele><time>2026-04-19T10:29:05.583Z</time></trkpt><trkpt lat="39.99800940731979" lon="18.07826964497596"><ele>43.0</ele><time>2026-04-19T10:29:06.583Z</time></trkpt><trkpt lat="39.99796185224109" lon="18.078574075917004"><ele>43.0</ele><time>2026-04-19T10:29:07.583Z</time></trkpt><trkpt lat="39.99791476513907" lon="18.07886985858758"><ele>43.5</ele><time>2026-04-19T10:29:08.583Z</time></trkpt><trkpt lat="39.997864216781885" lon="18.079171773752357"><ele>44.0</ele><time>2026-04-19T10:29:09.583Z</time></trkpt><trkpt lat="39.99781564938937" lon="18.079474017050508"><ele>44.0</ele><time>2026-04-19T10:29:10.583Z</time></trkpt><trkpt lat="39.99776888696443" lon="18.079778536105103"><ele>44.0</ele><time>2026-04-19T10:29:11.583Z</time></trkpt><trkpt lat="39.9977213552658" lon="18.08007615555791"><ele>44.0</ele><time>2026-04-19T10:29:12.583Z</time></trkpt><trkpt lat="39.997671684889085" lon="18.080381338093698"><ele>44.0</ele><time>2026-04-19T10:29:13.583Z</time></trkpt><trkpt lat="39.99762664729505" lon="18.080685472693638"><ele>44.0</ele><time>2026-04-19T10:29:14.583Z</time></trkpt><trkpt lat="39.99758053801782" lon="18.080988054432865"><ele>44.0</ele><time>2026-04-19T10:29:15.583Z</time></trkpt><trkpt lat="39.99753353734326" lon="18.081288076861807"><ele>44.5</ele><time>2026-04-19T10:29:16.583Z</time></trkpt><trkpt lat="39.9974863570643" lon="18.081590500683582"><ele>45.0</ele><time>2026-04-19T10:29:17.583Z</time></trkpt><trkpt lat="39.99743187285155" lon="18.08188992462103"><ele>45.0</ele><time>2026-04-19T10:29:18.583Z</time></trkpt><trkpt lat="39.99738493649212" lon="18.082190506982702"><ele>45.0</ele><time>2026-04-19T10:29:19.583Z</time></trkpt><trkpt lat="39.99733598746482" lon="18.082492689408447"><ele>45.0</ele><time>2026-04-19T10:29:20.583Z</time></trkpt><trkpt lat="39.99728837269439" lon="18.082793990134515"><ele>45.0</ele><time>2026-04-19T10:29:21.583Z</time></trkpt><trkpt lat="39.99724243960304" lon="18.083094138459234"><ele>45.5</ele><time>2026-04-19T10:29:22.583Z</time></trkpt><trkpt lat="39.99719007015394" lon="18.08339300723184"><ele>46.0</ele><time>2026-04-19T10:29:23.583Z</time></trkpt><trkpt lat="39.99714457065581" lon="18.083698244978766"><ele>46.0</ele><time>2026-04-19T10:29:24.583Z</time></trkpt><trkpt lat="39.99709444565183" lon="18.08400074705452"><ele>46.0</ele><time>2026-04-19T10:29:25.583Z</time></trkpt><trkpt lat="39.997050494352706" lon="18.08430138433068"><ele>45.5</ele><time>2026-04-19T10:29:26.583Z</time></trkpt><trkpt lat="39.99699887475825" lon="18.084603375259043"><ele>45.0</ele><time>2026-04-19T10:29:27.583Z</time></trkpt><trkpt lat="39.99689869467364" lon="18.08520852780606"><ele>45.0</ele><time>2026-04-19T10:29:29.583Z</time></trkpt><trkpt lat="39.9968503169713" lon="18.08551036778855"><ele>45.0</ele><time>2026-04-19T10:29:30.583Z</time></trkpt><trkpt lat="39.99680120912463" lon="18.08580992613493"><ele>45.0</ele><time>2026-04-19T10:29:31.583Z</time></trkpt><trkpt lat="39.996753169440254" lon="18.086114005081562"><ele>45.0</ele><time>2026-04-19T10:29:32.583Z</time></trkpt><trkpt lat="39.99670290489422" lon="18.086417931219515"><ele>46.0</ele><time>2026-04-19T10:29:33.583Z</time></trkpt><trkpt lat="39.99665359058836" lon="18.086721440053672"><ele>47.0</ele><time>2026-04-19T10:29:34.583Z</time></trkpt><trkpt lat="39.99660801415498" lon="18.08702217928059"><ele>47.0</ele><time>2026-04-19T10:29:35.583Z</time></trkpt><trkpt lat="39.99655999590794" lon="18.08731923693234"><ele>47.0</ele><time>2026-04-19T10:29:36.583Z</time></trkpt><trkpt lat="39.99651360522201" lon="18.087623214951837"><ele>47.5</ele><time>2026-04-19T10:29:37.583Z</time></trkpt><trkpt lat="39.996464302501394" lon="18.08792585869063"><ele>48.0</ele><time>2026-04-19T10:29:38.583Z</time></trkpt><trkpt lat="39.99641519746569" lon="18.08822711203423"><ele>47.0</ele><time>2026-04-19T10:29:39.583Z</time></trkpt><trkpt lat="39.99636561679653" lon="18.088531537962968"><ele>46.0</ele><time>2026-04-19T10:29:40.583Z</time></trkpt><trkpt lat="39.99631544303185" lon="18.088831945819244"><ele>46.0</ele><time>2026-04-19T10:29:41.583Z</time></trkpt><trkpt lat="39.996267407391" lon="18.089131468743656"><ele>46.0</ele><time>2026-04-19T10:29:42.583Z</time></trkpt><trkpt lat="39.99621764406701" lon="18.089432188869868"><ele>46.0</ele><time>2026-04-19T10:29:43.583Z</time></trkpt><trkpt lat="39.99616756435812" lon="18.089735839440223"><ele>46.0</ele><time>2026-04-19T10:29:44.583Z</time></trkpt><trkpt lat="39.99612178232391" lon="18.090031738196885"><ele>46.5</ele><time>2026-04-19T10:29:45.583Z</time></trkpt><trkpt lat="39.996070542264015" lon="18.090336868574433"><ele>47.0</ele><time>2026-04-19T10:29:46.583Z</time></trkpt><trkpt lat="39.99601999724309" lon="18.09064011138272"><ele>47.0</ele><time>2026-04-19T10:29:47.583Z</time></trkpt><trkpt lat="39.99596828880439" lon="18.090940902802785"><ele>47.0</ele><time>2026-04-19T10:29:48.583Z</time></trkpt><trkpt lat="39.995919717426865" lon="18.091239764016045"><ele>47.0</ele><time>2026-04-19T10:29:49.583Z</time></trkpt><trkpt lat="39.995870636810565" lon="18.091545053967664"><ele>47.0</ele><time>2026-04-19T10:29:50.583Z</time></trkpt><trkpt lat="39.995822319328" lon="18.09184598544283"><ele>47.5</ele><time>2026-04-19T10:29:51.583Z</time></trkpt><trkpt lat="39.99577376935828" lon="18.09214786821495"><ele>48.0</ele><time>2026-04-19T10:29:52.583Z</time></trkpt><trkpt lat="39.99572445963489" lon="18.09245086309204"><ele>48.0</ele><time>2026-04-19T10:29:53.583Z</time></trkpt><trkpt lat="39.9956755486252" lon="18.092751064009825"><ele>48.0</ele><time>2026-04-19T10:29:54.583Z</time></trkpt><trkpt lat="39.99562930329519" lon="18.09305673325622"><ele>47.5</ele><time>2026-04-19T10:29:55.583Z</time></trkpt><trkpt lat="39.99558389568261" lon="18.09335765040753"><ele>47.0</ele><time>2026-04-19T10:29:56.583Z</time></trkpt><trkpt lat="39.995533221418775" lon="18.093652146851834"><ele>47.0</ele><time>2026-04-19T10:29:57.583Z</time></trkpt><trkpt lat="39.99548732670607" lon="18.093953270476195"><ele>47.0</ele><time>2026-04-19T10:29:58.583Z</time></trkpt><trkpt lat="39.99543683567006" lon="18.094261444838367"><ele>47.0</ele><time>2026-04-19T10:29:59.583Z</time></trkpt><trkpt lat="39.995392643401495" lon="18.09456428987597"><ele>47.0</ele><time>2026-04-19T10:30:00.583Z</time></trkpt><trkpt lat="39.99534334017991" lon="18.0948634272228"><ele>47.0</ele><time>2026-04-19T10:30:01.583Z</time></trkpt><trkpt lat="39.99529286381807" lon="18.095161881192002"><ele>47.0</ele><time>2026-04-19T10:30:02.583Z</time></trkpt><trkpt lat="39.99524557484469" lon="18.09545554768935"><ele>47.0</ele><time>2026-04-19T10:30:03.583Z</time></trkpt><trkpt lat="39.99519489600315" lon="18.09574295146644"><ele>47.0</ele><time>2026-04-19T10:30:04.583Z</time></trkpt><trkpt lat="39.99513224285023" lon="18.09602387922756"><ele>47.0</ele><time>2026-04-19T10:30:05.583Z</time></trkpt><trkpt lat="39.99506331555141" lon="18.096305598287145"><ele>47.0</ele><time>2026-04-19T10:30:06.583Z</time></trkpt><trkpt lat="39.99498054724177" lon="18.096585603514054"><ele>49.0</ele><time>2026-04-19T10:30:07.583Z</time></trkpt><trkpt lat="39.994891101583804" lon="18.09685768345863"><ele>51.0</ele><time>2026-04-19T10:30:08.583Z</time></trkpt><trkpt lat="39.99479297291235" lon="18.097125066881038"><ele>51.0</ele><time>2026-04-19T10:30:09.583Z</time></trkpt><trkpt lat="39.99469061075285" lon="18.097392704653316"><ele>51.0</ele><time>2026-04-19T10:30:10.583Z</time></trkpt><trkpt lat="39.994585299983754" lon="18.097649077891536"><ele>50.66666666666667</ele><time>2026-04-19T10:30:11.583Z</time></trkpt><trkpt lat="39.99447404092164" lon="18.097908304693142"><ele>50.333333333333336</ele><time>2026-04-19T10:30:12.583Z</time></trkpt><trkpt lat="39.994353251076795" lon="18.09815102937441"><ele>50.0</ele><time>2026-04-19T10:30:13.583Z</time></trkpt><trkpt lat="39.99422427302056" lon="18.098387886479017"><ele>50.66666666666667</ele><time>2026-04-19T10:30:14.583Z</time></trkpt><trkpt lat="39.994092244436" lon="18.09861961595226"><ele>51.33333333333333</ele><time>2026-04-19T10:30:15.583Z</time></trkpt><trkpt lat="39.99396232803006" lon="18.09883828686967"><ele>52.0</ele><time>2026-04-19T10:30:16.583Z</time></trkpt><trkpt lat="39.99381740718597" lon="18.09904918512483"><ele>51.666666666666664</ele><time>2026-04-19T10:30:17.583Z</time></trkpt><trkpt lat="39.99366490565884" lon="18.099262964329846"><ele>51.33333333333333</ele><time>2026-04-19T10:30:18.583Z</time></trkpt><trkpt lat="39.99351289445256" lon="18.099464911757675"><ele>51.0</ele><time>2026-04-19T10:30:19.583Z</time></trkpt><trkpt lat="39.993358572173825" lon="18.099658479967346"><ele>50.66666666666667</ele><time>2026-04-19T10:30:20.583Z</time></trkpt><trkpt lat="39.993198981955" lon="18.099829757234673"><ele>50.333333333333336</ele><time>2026-04-19T10:30:21.583Z</time></trkpt><trkpt lat="39.99303614560214" lon="18.100007130485327"><ele>50.0</ele><time>2026-04-19T10:30:22.583Z</time></trkpt><trkpt lat="39.992863759596496" lon="18.100168406733882"><ele>49.66666666666667</ele><time>2026-04-19T10:30:23.583Z</time></trkpt><trkpt lat="39.99269160897539" lon="18.10032698108286"><ele>49.33333333333333</ele><time>2026-04-19T10:30:24.583Z</time></trkpt><trkpt lat="39.99252296540429" lon="18.10048323367715"><ele>49.0</ele><time>2026-04-19T10:30:25.583Z</time></trkpt><trkpt lat="39.992344328301144" lon="18.100626341620877"><ele>49.0</ele><time>2026-04-19T10:30:26.583Z</time></trkpt><trkpt lat="39.992151127131564" lon="18.100748550041992"><ele>49.0</ele><time>2026-04-19T10:30:27.583Z</time></trkpt><trkpt lat="39.99198211716495" lon="18.10087244829108"><ele>49.0</ele><time>2026-04-19T10:30:28.583Z</time></trkpt><trkpt lat="39.991823616910466" lon="18.100993411103765"><ele>49.0</ele><time>2026-04-19T10:30:29.583Z</time></trkpt><trkpt lat="39.99166349957719" lon="18.101103437408383"><ele>49.0</ele><time>2026-04-19T10:30:30.583Z</time></trkpt><trkpt lat="39.99149755213364" lon="18.10119841560033"><ele>49.0</ele><time>2026-04-19T10:30:31.583Z</time></trkpt><trkpt lat="39.991325464234535" lon="18.10128340657185"><ele>49.0</ele><time>2026-04-19T10:30:32.583Z</time></trkpt><trkpt lat="39.991150813109485" lon="18.10136891133788"><ele>49.0</ele><time>2026-04-19T10:30:33.583Z</time></trkpt><trkpt lat="39.99097123208445" lon="18.101449996059895"><ele>49.0</ele><time>2026-04-19T10:30:34.583Z</time></trkpt><trkpt lat="39.99079141508779" lon="18.10152432740082"><ele>48.666666666666664</ele><time>2026-04-19T10:30:35.583Z</time></trkpt><trkpt lat="39.990602865571105" lon="18.101586873362557"><ele>48.33333333333333</ele><time>2026-04-19T10:30:36.583Z</time></trkpt><trkpt lat="39.99041718376069" lon="18.10165162702514"><ele>48.0</ele><time>2026-04-19T10:30:37.583Z</time></trkpt><trkpt lat="39.99022699460688" lon="18.10170226071218"><ele>48.0</ele><time>2026-04-19T10:30:38.583Z</time></trkpt><trkpt lat="39.99003048082932" lon="18.101745307258664"><ele>48.0</ele><time>2026-04-19T10:30:39.583Z</time></trkpt><trkpt lat="39.989832742355965" lon="18.101784348567787"><ele>48.0</ele><time>2026-04-19T10:30:40.583Z</time></trkpt><trkpt lat="39.98964253313443" lon="18.101818575072357"><ele>48.0</ele><time>2026-04-19T10:30:41.583Z</time></trkpt><trkpt lat="39.98945073053036" lon="18.101845289474618"><ele>48.0</ele><time>2026-04-19T10:30:42.583Z</time></trkpt><trkpt lat="39.98925796713544" lon="18.101868004835946"><ele>48.0</ele><time>2026-04-19T10:30:43.583Z</time></trkpt><trkpt lat="39.989073075390074" lon="18.101878259501795"><ele>47.333333333333336</ele><time>2026-04-19T10:30:44.583Z</time></trkpt><trkpt lat="39.988890769623026" lon="18.10187784456525"><ele>46.66666666666667</ele><time>2026-04-19T10:30:45.583Z</time></trkpt><trkpt lat="39.98870674884768" lon="18.101868689978804"><ele>46.0</ele><time>2026-04-19T10:30:46.583Z</time></trkpt><trkpt lat="39.988520776524346" lon="18.10187201473176"><ele>46.66666666666667</ele><time>2026-04-19T10:30:47.583Z</time></trkpt><trkpt lat="39.98833289342378" lon="18.101872805488238"><ele>47.333333333333336</ele><time>2026-04-19T10:30:48.583Z</time></trkpt><trkpt lat="39.98814119166436" lon="18.101873092887317"><ele>48.0</ele><time>2026-04-19T10:30:49.583Z</time></trkpt><trkpt lat="39.98795179840673" lon="18.101876467594078"><ele>48.0</ele><time>2026-04-19T10:30:50.583Z</time></trkpt><trkpt lat="39.98775969416077" lon="18.101881410713982"><ele>48.0</ele><time>2026-04-19T10:30:51.583Z</time></trkpt><trkpt lat="39.98756552517053" lon="18.101894052916233"><ele>48.0</ele><time>2026-04-19T10:30:52.583Z</time></trkpt><trkpt lat="39.98736486921187" lon="18.101921055730497"><ele>47.666666666666664</ele><time>2026-04-19T10:30:53.583Z</time></trkpt><trkpt lat="39.98716444293189" lon="18.10195458565779"><ele>47.33333333333333</ele><time>2026-04-19T10:30:54.583Z</time></trkpt><trkpt lat="39.98695819827217" lon="18.101994908989994"><ele>47.0</ele><time>2026-04-19T10:30:55.583Z</time></trkpt><trkpt lat="39.986752683005015" lon="18.102053995363647"><ele>46.666666666666664</ele><time>2026-04-19T10:30:56.583Z</time></trkpt><trkpt lat="39.98656520164396" lon="18.10212144325665"><ele>46.333333333333336</ele><time>2026-04-19T10:30:57.583Z</time></trkpt><trkpt lat="39.986362593549536" lon="18.102193372091847"><ele>46.0</ele><time>2026-04-19T10:30:58.583Z</time></trkpt><trkpt lat="39.98616668617227" lon="18.10226461957714"><ele>46.0</ele><time>2026-04-19T10:30:59.583Z</time></trkpt><trkpt lat="39.9859633500166" lon="18.10235680241026"><ele>46.0</ele><time>2026-04-19T10:31:00.583Z</time></trkpt><trkpt lat="39.985745605644105" lon="18.102443472463463"><ele>46.0</ele><time>2026-04-19T10:31:01.583Z</time></trkpt><trkpt lat="39.98553331940673" lon="18.102536148946125"><ele>46.333333333333336</ele><time>2026-04-19T10:31:02.583Z</time></trkpt><trkpt lat="39.98532631746733" lon="18.10263847707741"><ele>46.666666666666664</ele><time>2026-04-19T10:31:03.583Z</time></trkpt><trkpt lat="39.98512208784868" lon="18.10274800834769"><ele>47.0</ele><time>2026-04-19T10:31:04.583Z</time></trkpt><trkpt lat="39.984919918770245" lon="18.102865670462077"><ele>47.0</ele><time>2026-04-19T10:31:05.583Z</time></trkpt><trkpt lat="39.98471671315394" lon="18.102978981022012"><ele>47.0</ele><time>2026-04-19T10:31:06.583Z</time></trkpt><trkpt lat="39.984517190911184" lon="18.103079245495223"><ele>47.0</ele><time>2026-04-19T10:31:07.583Z</time></trkpt><trkpt lat="39.98432079578137" lon="18.10318254409407"><ele>47.33333333333333</ele><time>2026-04-19T10:31:08.583Z</time></trkpt><trkpt lat="39.984135436320216" lon="18.103303782904877"><ele>47.666666666666664</ele><time>2026-04-19T10:31:09.583Z</time></trkpt><trkpt lat="39.98398018865891" lon="18.103439956847172"><ele>48.0</ele><time>2026-04-19T10:31:10.583Z</time></trkpt><trkpt lat="39.98383293215284" lon="18.103597694073688"><ele>48.0</ele><time>2026-04-19T10:31:11.583Z</time></trkpt><trkpt lat="39.983689829803616" lon="18.10378642278087"><ele>48.0</ele><time>2026-04-19T10:31:12.583Z</time></trkpt><trkpt lat="39.98356239193016" lon="18.10397707592036"><ele>48.0</ele><time>2026-04-19T10:31:13.583Z</time></trkpt><trkpt lat="39.98343329362047" lon="18.10417719193078"><ele>48.0</ele><time>2026-04-19T10:31:14.583Z</time></trkpt><trkpt lat="39.983312665666645" lon="18.10435608974561"><ele>48.0</ele><time>2026-04-19T10:31:15.583Z</time></trkpt><trkpt lat="39.98320095566619" lon="18.104551481035834"><ele>48.0</ele><time>2026-04-19T10:31:16.583Z</time></trkpt><trkpt lat="39.98308354178588" lon="18.104757302411308"><ele>48.5</ele><time>2026-04-19T10:31:17.583Z</time></trkpt><trkpt lat="39.98296754513962" lon="18.104951254886956"><ele>49.0</ele><time>2026-04-19T10:31:18.583Z</time></trkpt><trkpt lat="39.98225994501238" lon="18.104321604945046"><ele>49.33333333333333</ele><time>2026-04-19T10:31:19.583Z</time></trkpt><trkpt lat="39.982067520323696" lon="18.10442564353834"><ele>49.66666666666667</ele><time>2026-04-19T10:31:20.583Z</time></trkpt><trkpt lat="39.98187371373622" lon="18.10452937513237"><ele>50.0</ele><time>2026-04-19T10:31:21.583Z</time></trkpt><trkpt lat="39.98167975855788" lon="18.10462508423739"><ele>49.333333333333336</ele><time>2026-04-19T10:31:22.583Z</time></trkpt><trkpt lat="39.981487499278245" lon="18.10473420005239"><ele>48.66666666666667</ele><time>2026-04-19T10:31:23.583Z</time></trkpt><trkpt lat="39.98129602195196" lon="18.10483454743541"><ele>48.0</ele><time>2026-04-19T10:31:24.583Z</time></trkpt><trkpt lat="39.98110357537922" lon="18.104938086179786"><ele>48.0</ele><time>2026-04-19T10:31:25.583Z</time></trkpt><trkpt lat="39.980910401806796" lon="18.10504060702628"><ele>48.0</ele><time>2026-04-19T10:31:26.583Z</time></trkpt><trkpt lat="39.98071953364095" lon="18.10514146474008"><ele>48.0</ele><time>2026-04-19T10:31:27.583Z</time></trkpt><trkpt lat="39.980530554951216" lon="18.10524363129335"><ele>48.33333333333333</ele><time>2026-04-19T10:31:28.583Z</time></trkpt><trkpt lat="39.98033880339016" lon="18.10534758589851"><ele>48.666666666666664</ele><time>2026-04-19T10:31:29.583Z</time></trkpt><trkpt lat="39.98014933578028" lon="18.10545185091861"><ele>49.0</ele><time>2026-04-19T10:31:30.583Z</time></trkpt><trkpt lat="39.97995893423175" lon="18.105555324720694"><ele>49.0</ele><time>2026-04-19T10:31:31.583Z</time></trkpt><trkpt lat="39.979771572653966" lon="18.10566391339954"><ele>49.0</ele><time>2026-04-19T10:31:32.583Z</time></trkpt><trkpt lat="39.97958070668882" lon="18.105767367106115"><ele>49.0</ele><time>2026-04-19T10:31:33.583Z</time></trkpt><trkpt lat="39.97938821473228" lon="18.105868191366728"><ele>48.666666666666664</ele><time>2026-04-19T10:31:34.583Z</time></trkpt><trkpt lat="39.979193462818266" lon="18.105969345153174"><ele>48.33333333333333</ele><time>2026-04-19T10:31:35.583Z</time></trkpt><trkpt lat="39.978999390293154" lon="18.10607426551901"><ele>48.0</ele><time>2026-04-19T10:31:36.583Z</time></trkpt><trkpt lat="39.9788108137798" lon="18.10617448929927"><ele>48.0</ele><time>2026-04-19T10:31:37.583Z</time></trkpt><trkpt lat="39.97862068607284" lon="18.106284729083068"><ele>48.0</ele><time>2026-04-19T10:31:38.583Z</time></trkpt><trkpt lat="39.97843181285964" lon="18.106394179489758"><ele>48.0</ele><time>2026-04-19T10:31:39.583Z</time></trkpt><trkpt lat="39.97824062273739" lon="18.106497167775316"><ele>48.33333333333333</ele><time>2026-04-19T10:31:40.583Z</time></trkpt><trkpt lat="39.978050416275295" lon="18.106600958908444"><ele>48.666666666666664</ele><time>2026-04-19T10:31:41.583Z</time></trkpt><trkpt lat="39.977862888158825" lon="18.10670505404496"><ele>49.0</ele><time>2026-04-19T10:31:42.583Z</time></trkpt><trkpt lat="39.97767525729415" lon="18.106807222768587"><ele>49.33333333333333</ele><time>2026-04-19T10:31:43.583Z</time></trkpt><trkpt lat="39.97748397519805" lon="18.106912978186326"><ele>49.66666666666667</ele><time>2026-04-19T10:31:44.583Z</time></trkpt><trkpt lat="39.977293849013186" lon="18.107017302139116"><ele>50.0</ele><time>2026-04-19T10:31:45.583Z</time></trkpt><trkpt lat="39.977099997937515" lon="18.10711922197226"><ele>50.0</ele><time>2026-04-19T10:31:46.583Z</time></trkpt><trkpt lat="39.976912367705545" lon="18.10723109279642"><ele>50.0</ele><time>2026-04-19T10:31:47.583Z</time></trkpt><trkpt lat="39.97672001710533" lon="18.10733807245087"><ele>50.0</ele><time>2026-04-19T10:31:48.582Z</time></trkpt><trkpt lat="39.976530911431986" lon="18.10744221229894"><ele>50.333333333333336</ele><time>2026-04-19T10:31:49.582Z</time></trkpt><trkpt lat="39.976342912296246" lon="18.107551220487707"><ele>50.66666666666667</ele><time>2026-04-19T10:31:50.582Z</time></trkpt><trkpt lat="39.976153837299876" lon="18.107654623746143"><ele>51.0</ele><time>2026-04-19T10:31:51.583Z</time></trkpt><trkpt lat="39.97596623147488" lon="18.107757879161106"><ele>49.333333333333336</ele><time>2026-04-19T10:31:52.582Z</time></trkpt><trkpt lat="39.97577983736207" lon="18.10786750424547"><ele>47.66666666666667</ele><time>2026-04-19T10:31:53.582Z</time></trkpt><trkpt lat="39.975611521502174" lon="18.10796814902661"><ele>46.0</ele><time>2026-04-19T10:31:54.583Z</time></trkpt><trkpt lat="39.97543656449209" lon="18.10806199104157"><ele>46.0</ele><time>2026-04-19T10:31:55.582Z</time></trkpt><trkpt lat="39.97525890493785" lon="18.108159611894955"><ele>46.0</ele><time>2026-04-19T10:31:56.582Z</time></trkpt><trkpt lat="39.9750711962056" lon="18.108261253368795"><ele>46.0</ele><time>2026-04-19T10:31:57.582Z</time></trkpt><trkpt lat="39.97488202938632" lon="18.108368163799824"><ele>47.333333333333336</ele><time>2026-04-19T10:31:58.582Z</time></trkpt><trkpt lat="39.97469006930784" lon="18.1084720014653"><ele>48.66666666666667</ele><time>2026-04-19T10:31:59.582Z</time></trkpt><trkpt lat="39.9744989869319" lon="18.108573963789453"><ele>50.0</ele><time>2026-04-19T10:32:00.583Z</time></trkpt><trkpt lat="39.97431216482329" lon="18.108674838828932"><ele>50.0</ele><time>2026-04-19T10:32:01.582Z</time></trkpt><trkpt lat="39.97412559166704" lon="18.108783365942276"><ele>50.0</ele><time>2026-04-19T10:32:02.582Z</time></trkpt><trkpt lat="39.97392743040821" lon="18.10889075069258"><ele>50.0</ele><time>2026-04-19T10:32:03.583Z</time></trkpt><trkpt lat="39.97373660307976" lon="18.108993393120763"><ele>49.66666666666667</ele><time>2026-04-19T10:32:04.583Z</time></trkpt><trkpt lat="39.973546770954954" lon="18.10910373143939"><ele>49.33333333333333</ele><time>2026-04-19T10:32:05.583Z</time></trkpt><trkpt lat="39.97336651087326" lon="18.109201374721557"><ele>49.0</ele><time>2026-04-19T10:32:06.583Z</time></trkpt><trkpt lat="39.97318487702896" lon="18.10929987340263"><ele>49.0</ele><time>2026-04-19T10:32:07.583Z</time></trkpt><trkpt lat="39.97300000788223" lon="18.10940594036478"><ele>49.0</ele><time>2026-04-19T10:32:08.583Z</time></trkpt><trkpt lat="39.972814900463135" lon="18.109508787164447"><ele>49.0</ele><time>2026-04-19T10:32:09.583Z</time></trkpt><trkpt lat="39.972628647895085" lon="18.109611884523293"><ele>48.666666666666664</ele><time>2026-04-19T10:32:10.583Z</time></trkpt><trkpt lat="39.9724376496169" lon="18.109717675789057"><ele>48.33333333333333</ele><time>2026-04-19T10:32:11.583Z</time></trkpt><trkpt lat="39.97226471723802" lon="18.109809538517936"><ele>48.0</ele><time>2026-04-19T10:32:12.583Z</time></trkpt><trkpt lat="39.97209117794626" lon="18.109900763652313"><ele>48.33333333333333</ele><time>2026-04-19T10:32:13.583Z</time></trkpt><trkpt lat="39.971914202699345" lon="18.110009821984377"><ele>48.666666666666664</ele><time>2026-04-19T10:32:14.583Z</time></trkpt><trkpt lat="39.97173566562042" lon="18.110111362059012"><ele>49.0</ele><time>2026-04-19T10:32:15.583Z</time></trkpt><trkpt lat="39.97155563020222" lon="18.11021906361903"><ele>49.0</ele><time>2026-04-19T10:32:16.583Z</time></trkpt><trkpt lat="39.97137323963319" lon="18.110320954442344"><ele>49.0</ele><time>2026-04-19T10:32:17.583Z</time></trkpt><trkpt lat="39.97118817055981" lon="18.110424196756256"><ele>49.0</ele><time>2026-04-19T10:32:18.583Z</time></trkpt><trkpt lat="39.971003668262426" lon="18.110529545604873"><ele>49.33333333333333</ele><time>2026-04-19T10:32:19.583Z</time></trkpt><trkpt lat="39.9708179741856" lon="18.11063224964086"><ele>49.66666666666667</ele><time>2026-04-19T10:32:20.583Z</time></trkpt><trkpt lat="39.97063663925205" lon="18.11073176024009"><ele>50.0</ele><time>2026-04-19T10:32:21.583Z</time></trkpt><trkpt lat="39.97044893242415" lon="18.11083377865488"><ele>50.0</ele><time>2026-04-19T10:32:22.583Z</time></trkpt><trkpt lat="39.97027885282015" lon="18.11092693286263"><ele>50.0</ele><time>2026-04-19T10:32:23.583Z</time></trkpt><trkpt lat="39.97010935116369" lon="18.111018172416635"><ele>50.0</ele><time>2026-04-19T10:32:24.583Z</time></trkpt><trkpt lat="39.969938871802434" lon="18.111113169683897"><ele>50.0</ele><time>2026-04-19T10:32:25.583Z</time></trkpt><trkpt lat="39.969768165910835" lon="18.111217623798094"><ele>50.0</ele><time>2026-04-19T10:32:26.583Z</time></trkpt><trkpt lat="39.969592560656935" lon="18.1113148493936"><ele>50.0</ele><time>2026-04-19T10:32:27.583Z</time></trkpt><trkpt lat="39.969418834469295" lon="18.111403896835874"><ele>50.0</ele><time>2026-04-19T10:32:28.583Z</time></trkpt><trkpt lat="39.96925984097541" lon="18.111493827515968"><ele>50.0</ele><time>2026-04-19T10:32:29.583Z</time></trkpt><trkpt lat="39.96910050881606" lon="18.111579566825018"><ele>50.0</ele><time>2026-04-19T10:32:30.583Z</time></trkpt><trkpt lat="39.96893323000221" lon="18.111674178473393"><ele>50.0</ele><time>2026-04-19T10:32:31.583Z</time></trkpt><trkpt lat="39.96876686191612" lon="18.11176862351564"><ele>50.0</ele><time>2026-04-19T10:32:32.583Z</time></trkpt><trkpt lat="39.96859345715302" lon="18.11186433880771"><ele>50.0</ele><time>2026-04-19T10:32:33.583Z</time></trkpt><trkpt lat="39.96841989970665" lon="18.11195995798063"><ele>49.66666666666667</ele><time>2026-04-19T10:32:34.583Z</time></trkpt><trkpt lat="39.968243851917656" lon="18.112058666141397"><ele>49.33333333333333</ele><time>2026-04-19T10:32:35.583Z</time></trkpt><trkpt lat="39.968063665589106" lon="18.112150472066368"><ele>49.0</ele><time>2026-04-19T10:32:36.583Z</time></trkpt><trkpt lat="39.96789382807443" lon="18.11224777657104"><ele>49.0</ele><time>2026-04-19T10:32:37.583Z</time></trkpt><trkpt lat="39.96771481995804" lon="18.112346515535705"><ele>49.0</ele><time>2026-04-19T10:32:38.583Z</time></trkpt><trkpt lat="39.967530890406614" lon="18.112449195504347"><ele>49.0</ele><time>2026-04-19T10:32:39.583Z</time></trkpt><trkpt lat="39.967346101450694" lon="18.112551310152938"><ele>49.666666666666664</ele><time>2026-04-19T10:32:40.583Z</time></trkpt><trkpt lat="39.9671574234065" lon="18.1126553411704"><ele>50.33333333333333</ele><time>2026-04-19T10:32:41.583Z</time></trkpt><trkpt lat="39.96697158747541" lon="18.112761776520244"><ele>51.0</ele><time>2026-04-19T10:32:42.583Z</time></trkpt><trkpt lat="39.96677562992358" lon="18.112869439649344"><ele>50.33333333333333</ele><time>2026-04-19T10:32:43.583Z</time></trkpt><trkpt lat="39.96657980579788" lon="18.11297182697058"><ele>49.666666666666664</ele><time>2026-04-19T10:32:44.583Z</time></trkpt><trkpt lat="39.96638346520745" lon="18.113062790442992"><ele>49.0</ele><time>2026-04-19T10:32:45.583Z</time></trkpt><trkpt lat="39.966186197288714" lon="18.113172492145477"><ele>48.666666666666664</ele><time>2026-04-19T10:32:46.583Z</time></trkpt><trkpt lat="39.96600072777285" lon="18.113291813134932"><ele>48.33333333333333</ele><time>2026-04-19T10:32:47.583Z</time></trkpt><trkpt lat="39.96581292146056" lon="18.11341723428582"><ele>48.0</ele><time>2026-04-19T10:32:48.583Z</time></trkpt><trkpt lat="39.96561916720235" lon="18.113530940881773"><ele>48.66666666666667</ele><time>2026-04-19T10:32:49.583Z</time></trkpt><trkpt lat="39.96542290712149" lon="18.11363981552793"><ele>49.333333333333336</ele><time>2026-04-19T10:32:50.583Z</time></trkpt><trkpt lat="39.96522613364613" lon="18.113750015179043"><ele>50.0</ele><time>2026-04-19T10:32:51.583Z</time></trkpt><trkpt lat="39.965029103022566" lon="18.113857074104118"><ele>50.66666666666667</ele><time>2026-04-19T10:32:52.583Z</time></trkpt><trkpt lat="39.96483170313995" lon="18.113964372097808"><ele>51.33333333333333</ele><time>2026-04-19T10:32:53.583Z</time></trkpt><trkpt lat="39.96463084957561" lon="18.114073415747473"><ele>52.0</ele><time>2026-04-19T10:32:54.583Z</time></trkpt><trkpt lat="39.964437048257196" lon="18.114189483552536"><ele>52.0</ele><time>2026-04-19T10:32:55.583Z</time></trkpt><trkpt lat="39.96424427899293" lon="18.11430043471822"><ele>52.0</ele><time>2026-04-19T10:32:56.583Z</time></trkpt><trkpt lat="39.964060940610146" lon="18.11441966002177"><ele>52.0</ele><time>2026-04-19T10:32:57.583Z</time></trkpt><trkpt lat="39.96387822921007" lon="18.114551670204364"><ele>52.33333333333333</ele><time>2026-04-19T10:32:58.583Z</time></trkpt><trkpt lat="39.96368820058793" lon="18.11466878719461"><ele>52.66666666666667</ele><time>2026-04-19T10:32:59.583Z</time></trkpt><trkpt lat="39.96349358822533" lon="18.114788437452646"><ele>53.0</ele><time>2026-04-19T10:33:00.583Z</time></trkpt><trkpt lat="39.96329695302217" lon="18.11492147713308"><ele>51.0</ele><time>2026-04-19T10:33:01.583Z</time></trkpt><trkpt lat="39.9630869032309" lon="18.115034017980758"><ele>49.0</ele><time>2026-04-19T10:33:02.583Z</time></trkpt><trkpt lat="39.96288388862299" lon="18.115182386506735"><ele>49.0</ele><time>2026-04-19T10:33:03.583Z</time></trkpt><trkpt lat="39.96281108575791" lon="18.115395451168798"><ele>49.0</ele><time>2026-04-19T10:33:04.583Z</time></trkpt><trkpt lat="39.96264189141993" lon="18.11555636574763"><ele>49.0</ele><time>2026-04-19T10:33:05.583Z</time></trkpt><trkpt lat="39.962473697714174" lon="18.1157276294085"><ele>49.0</ele><time>2026-04-19T10:33:06.583Z</time></trkpt><trkpt lat="39.9623057329426" lon="18.115896677610152"><ele>49.0</ele><time>2026-04-19T10:33:07.583Z</time></trkpt><trkpt lat="39.96214276400324" lon="18.116077844436077"><ele>49.0</ele><time>2026-04-19T10:33:08.583Z</time></trkpt><trkpt lat="39.961981634340205" lon="18.116260621550072"><ele>49.0</ele><time>2026-04-19T10:33:09.583Z</time></trkpt><trkpt lat="39.96182371381306" lon="18.116453768202902"><ele>49.0</ele><time>2026-04-19T10:33:10.583Z</time></trkpt><trkpt lat="39.96166972523786" lon="18.116653735416886"><ele>49.0</ele><time>2026-04-19T10:33:11.583Z</time></trkpt><trkpt lat="39.96151462159921" lon="18.116850281248873"><ele>48.33333333333333</ele><time>2026-04-19T10:33:12.583Z</time></trkpt><trkpt lat="39.96136467802851" lon="18.117060972793258"><ele>47.666666666666664</ele><time>2026-04-19T10:33:13.583Z</time></trkpt><trkpt lat="39.96121561314482" lon="18.11727865756568"><ele>47.0</ele><time>2026-04-19T10:33:14.583Z</time></trkpt><trkpt lat="39.96107000607273" lon="18.117498191570377"><ele>47.0</ele><time>2026-04-19T10:33:15.583Z</time></trkpt><trkpt lat="39.960932564419785" lon="18.11772045131806"><ele>47.0</ele><time>2026-04-19T10:33:16.583Z</time></trkpt><trkpt lat="39.96079994940898" lon="18.117944210698642"><ele>47.0</ele><time>2026-04-19T10:33:17.583Z</time></trkpt><trkpt lat="39.96066993616449" lon="18.118164868663523"><ele>47.33333333333333</ele><time>2026-04-19T10:33:18.583Z</time></trkpt><trkpt lat="39.96054481011218" lon="18.118392885940544"><ele>47.666666666666664</ele><time>2026-04-19T10:33:19.583Z</time></trkpt><trkpt lat="39.96042600100954" lon="18.118622155422237"><ele>48.0</ele><time>2026-04-19T10:33:20.583Z</time></trkpt><trkpt lat="39.960313467415574" lon="18.118859808275083"><ele>48.0</ele><time>2026-04-19T10:33:21.583Z</time></trkpt><trkpt lat="39.960204972466194" lon="18.119091282678575"><ele>48.0</ele><time>2026-04-19T10:33:22.583Z</time></trkpt><trkpt lat="39.960097988789265" lon="18.119334403257135"><ele>48.0</ele><time>2026-04-19T10:33:23.583Z</time></trkpt><trkpt lat="39.9599983819106" lon="18.119569607458793"><ele>48.0</ele><time>2026-04-19T10:33:24.583Z</time></trkpt><trkpt lat="39.95991136603405" lon="18.11978791853254"><ele>48.0</ele><time>2026-04-19T10:33:25.583Z</time></trkpt><trkpt lat="39.9598290489384" lon="18.119998289965398"><ele>48.0</ele><time>2026-04-19T10:33:26.583Z</time></trkpt><trkpt lat="39.95976729179189" lon="18.120187665265064"><ele>48.0</ele><time>2026-04-19T10:33:27.583Z</time></trkpt><trkpt lat="39.95969737783155" lon="18.12037189037686"><ele>48.0</ele><time>2026-04-19T10:33:28.583Z</time></trkpt><trkpt lat="39.95963162674315" lon="18.120540207727974"><ele>48.0</ele><time>2026-04-19T10:33:29.583Z</time></trkpt><trkpt lat="39.95955744210403" lon="18.120703411775306"><ele>48.0</ele><time>2026-04-19T10:33:30.583Z</time></trkpt><trkpt lat="39.9594865666184" lon="18.120844010371773"><ele>47.75</ele><time>2026-04-19T10:33:31.583Z</time></trkpt><trkpt lat="39.959429917709336" lon="18.12098464582435"><ele>47.5</ele><time>2026-04-19T10:33:32.583Z</time></trkpt><trkpt lat="39.95938408413062" lon="18.12112468830623"><ele>47.25</ele><time>2026-04-19T10:33:33.583Z</time></trkpt><trkpt lat="39.959334217131364" lon="18.121249014983984"><ele>47.0</ele><time>2026-04-19T10:33:34.583Z</time></trkpt><trkpt lat="39.95927423861289" lon="18.121364840131168"><ele>47.0</ele><time>2026-04-19T10:33:35.583Z</time></trkpt><trkpt lat="39.95920701037826" lon="18.12148834948915"><ele>47.0</ele><time>2026-04-19T10:33:36.583Z</time></trkpt><trkpt lat="39.95912640653206" lon="18.12161349156231"><ele>47.0</ele><time>2026-04-19T10:33:37.583Z</time></trkpt><trkpt lat="39.959049467853404" lon="18.12174612226844"><ele>47.0</ele><time>2026-04-19T10:33:38.583Z</time></trkpt><trkpt lat="39.958982159109866" lon="18.12186649246006"><ele>47.0</ele><time>2026-04-19T10:33:39.583Z</time></trkpt><trkpt lat="39.95891389557228" lon="18.121980058053033"><ele>47.0</ele><time>2026-04-19T10:33:40.583Z</time></trkpt><trkpt lat="39.9588424489972" lon="18.12209212020311"><ele>47.0</ele><time>2026-04-19T10:33:41.583Z</time></trkpt><trkpt lat="39.958776014532894" lon="18.12221058714463"><ele>47.0</ele><time>2026-04-19T10:33:42.583Z</time></trkpt><trkpt lat="39.95871423772022" lon="18.122335514111363"><ele>47.0</ele><time>2026-04-19T10:33:43.583Z</time></trkpt><trkpt lat="39.958643043404514" lon="18.12244876735952"><ele>47.0</ele><time>2026-04-19T10:33:44.583Z</time></trkpt><trkpt lat="39.95857638007293" lon="18.122548917196966"><ele>47.0</ele><time>2026-04-19T10:33:45.583Z</time></trkpt><trkpt lat="39.95852339791841" lon="18.12265911262122"><ele>47.0</ele><time>2026-04-19T10:33:46.583Z</time></trkpt><trkpt lat="39.95846823485547" lon="18.12274704364381"><ele>47.0</ele><time>2026-04-19T10:33:47.583Z</time></trkpt><trkpt lat="39.9584077434969" lon="18.122830555967038"><ele>47.0</ele><time>2026-04-19T10:33:48.583Z</time></trkpt><trkpt lat="39.95833985258958" lon="18.122895468643797"><ele>47.166666666666664</ele><time>2026-04-19T10:33:49.583Z</time></trkpt><trkpt lat="39.95826354528033" lon="18.12293030821782"><ele>47.33333333333333</ele><time>2026-04-19T10:33:50.583Z</time></trkpt><trkpt lat="39.95819898732065" lon="18.122936595302008"><ele>47.5</ele><time>2026-04-19T10:33:51.583Z</time></trkpt><trkpt lat="39.958091317931746" lon="18.1229177139932"><ele>47.666666666666664</ele><time>2026-04-19T10:33:53.583Z</time></trkpt><trkpt lat="39.95801505560016" lon="18.122900838567034"><ele>47.833333333333336</ele><time>2026-04-19T10:33:54.583Z</time></trkpt><trkpt lat="39.95791552807457" lon="18.12286924567416"><ele>48.0</ele><time>2026-04-19T10:33:55.583Z</time></trkpt><trkpt lat="39.957782054125495" lon="18.12282360894401"><ele>48.0</ele><time>2026-04-19T10:33:56.583Z</time></trkpt><trkpt lat="39.9576384256535" lon="18.12277968456271"><ele>48.0</ele><time>2026-04-19T10:33:57.582Z</time></trkpt><trkpt lat="39.957506046130085" lon="18.122750598452097"><ele>48.0</ele><time>2026-04-19T10:33:58.581Z</time></trkpt><trkpt lat="39.957382371681554" lon="18.122744703554122"><ele>48.0</ele><time>2026-04-19T10:33:59.581Z</time></trkpt><trkpt lat="39.957262254092065" lon="18.122738430032165"><ele>48.0</ele><time>2026-04-19T10:34:00.582Z</time></trkpt><trkpt lat="39.957139850743424" lon="18.122740824570396"><ele>48.0</ele><time>2026-04-19T10:34:01.582Z</time></trkpt><trkpt lat="39.957008798802896" lon="18.122749945701113"><ele>48.0</ele><time>2026-04-19T10:34:02.582Z</time></trkpt><trkpt lat="39.956859849951826" lon="18.12276050343899"><ele>48.0</ele><time>2026-04-19T10:34:03.582Z</time></trkpt><trkpt lat="39.95670060939081" lon="18.122764906836917"><ele>47.333333333333336</ele><time>2026-04-19T10:34:04.582Z</time></trkpt><trkpt lat="39.956544839225785" lon="18.12277062644186"><ele>46.66666666666667</ele><time>2026-04-19T10:34:05.582Z</time></trkpt><trkpt lat="39.956386091408085" lon="18.122774759393067"><ele>46.0</ele><time>2026-04-19T10:34:06.582Z</time></trkpt><trkpt lat="39.956210938660405" lon="18.12277688889151"><ele>46.0</ele><time>2026-04-19T10:34:07.582Z</time></trkpt><trkpt lat="39.95602478917836" lon="18.12278554216798"><ele>46.0</ele><time>2026-04-19T10:34:08.582Z</time></trkpt><trkpt lat="39.9558436634534" lon="18.122790086282265"><ele>46.0</ele><time>2026-04-19T10:34:09.582Z</time></trkpt><trkpt lat="39.95567178742408" lon="18.122797685477842"><ele>45.66666666666667</ele><time>2026-04-19T10:34:10.582Z</time></trkpt><trkpt lat="39.955507149651126" lon="18.12280709681628"><ele>45.333333333333336</ele><time>2026-04-19T10:34:11.582Z</time></trkpt><trkpt lat="39.95532863235229" lon="18.12281694372266"><ele>45.0</ele><time>2026-04-19T10:34:12.582Z</time></trkpt><trkpt lat="39.955113334979394" lon="18.122837441960503"><ele>45.0</ele><time>2026-04-19T10:34:13.582Z</time></trkpt><trkpt lat="39.954889340024074" lon="18.122865909210795"><ele>45.0</ele><time>2026-04-19T10:34:14.582Z</time></trkpt><trkpt lat="39.954648694463394" lon="18.12290254755184"><ele>45.0</ele><time>2026-04-19T10:34:15.582Z</time></trkpt><trkpt lat="39.954393633833945" lon="18.122938281149345"><ele>45.0</ele><time>2026-04-19T10:34:16.582Z</time></trkpt><trkpt lat="39.95413530154583" lon="18.122956388931"><ele>45.0</ele><time>2026-04-19T10:34:17.582Z</time></trkpt><trkpt lat="39.95387875734219" lon="18.122970387189785"><ele>45.0</ele><time>2026-04-19T10:34:18.582Z</time></trkpt><trkpt lat="39.95363299420213" lon="18.122988130338825"><ele>45.0</ele><time>2026-04-19T10:34:19.582Z</time></trkpt><trkpt lat="39.95339802267286" lon="18.123011243234345"><ele>45.0</ele><time>2026-04-19T10:34:20.582Z</time></trkpt><trkpt lat="39.953163154379915" lon="18.12303956341871"><ele>45.0</ele><time>2026-04-19T10:34:21.582Z</time></trkpt><trkpt lat="39.95292025513614" lon="18.12307095713295"><ele>45.0</ele><time>2026-04-19T10:34:22.582Z</time></trkpt><trkpt lat="39.95269032227201" lon="18.123104486286646"><ele>44.0</ele><time>2026-04-19T10:34:23.582Z</time></trkpt><trkpt lat="39.95246797124604" lon="18.12313843742467"><ele>43.0</ele><time>2026-04-19T10:34:24.582Z</time></trkpt><trkpt lat="39.95224163982551" lon="18.123171854017887"><ele>43.0</ele><time>2026-04-19T10:34:25.582Z</time></trkpt><trkpt lat="39.95202945636754" lon="18.12320213771011"><ele>43.0</ele><time>2026-04-19T10:34:26.582Z</time></trkpt><trkpt lat="39.9518350661367" lon="18.123231576954435"><ele>43.0</ele><time>2026-04-19T10:34:27.582Z</time></trkpt><trkpt lat="39.95165852729393" lon="18.123252039772478"><ele>43.333333333333336</ele><time>2026-04-19T10:34:28.582Z</time></trkpt><trkpt lat="39.9514888110777" lon="18.123281894594356"><ele>43.666666666666664</ele><time>2026-04-19T10:34:29.582Z</time></trkpt><trkpt lat="39.95131970347805" lon="18.123309843235273"><ele>44.0</ele><time>2026-04-19T10:34:30.582Z</time></trkpt><trkpt lat="39.95114767048602" lon="18.1233327765584"><ele>44.0</ele><time>2026-04-19T10:34:31.582Z</time></trkpt><trkpt lat="39.950974068747875" lon="18.123358644972686"><ele>44.0</ele><time>2026-04-19T10:34:32.582Z</time></trkpt><trkpt lat="39.950808879324796" lon="18.1233829649957"><ele>44.0</ele><time>2026-04-19T10:34:33.582Z</time></trkpt><trkpt lat="39.95065343077113" lon="18.123402045169566"><ele>43.75</ele><time>2026-04-19T10:34:34.582Z</time></trkpt><trkpt lat="39.95050430127823" lon="18.123417587687065"><ele>43.5</ele><time>2026-04-19T10:34:35.582Z</time></trkpt><trkpt lat="39.95035447039002" lon="18.12344162092314"><ele>43.25</ele><time>2026-04-19T10:34:36.582Z</time></trkpt><trkpt lat="39.95020746394659" lon="18.123467708361378"><ele>43.0</ele><time>2026-04-19T10:34:37.582Z</time></trkpt><trkpt lat="39.9500566015571" lon="18.123494383020876"><ele>42.66666666666667</ele><time>2026-04-19T10:34:38.582Z</time></trkpt><trkpt lat="39.94991109562199" lon="18.123520407572745"><ele>42.333333333333336</ele><time>2026-04-19T10:34:39.582Z</time></trkpt><trkpt lat="39.94976038734853" lon="18.123543068295604"><ele>42.0</ele><time>2026-04-19T10:34:40.582Z</time></trkpt><trkpt lat="39.949603907800814" lon="18.123564671815743"><ele>42.0</ele><time>2026-04-19T10:34:41.582Z</time></trkpt><trkpt lat="39.94944504873511" lon="18.123591057425102"><ele>42.0</ele><time>2026-04-19T10:34:42.582Z</time></trkpt><trkpt lat="39.949283486743354" lon="18.12361392690435"><ele>42.0</ele><time>2026-04-19T10:34:43.582Z</time></trkpt><trkpt lat="39.949124476332685" lon="18.12363508551709"><ele>41.666666666666664</ele><time>2026-04-19T10:34:44.582Z</time></trkpt><trkpt lat="39.94896869440799" lon="18.123661868212576"><ele>41.33333333333333</ele><time>2026-04-19T10:34:45.582Z</time></trkpt><trkpt lat="39.94881312363047" lon="18.12368423191927"><ele>41.0</ele><time>2026-04-19T10:34:46.582Z</time></trkpt><trkpt lat="39.948654237205744" lon="18.123708836230108"><ele>41.0</ele><time>2026-04-19T10:34:47.582Z</time></trkpt><trkpt lat="39.94850136333539" lon="18.12373230249093"><ele>41.0</ele><time>2026-04-19T10:34:48.582Z</time></trkpt><trkpt lat="39.948355454536134" lon="18.123752769446245"><ele>41.0</ele><time>2026-04-19T10:34:49.582Z</time></trkpt><trkpt lat="39.9482128991845" lon="18.123779745975945"><ele>41.0</ele><time>2026-04-19T10:34:50.582Z</time></trkpt><trkpt lat="39.948071734761044" lon="18.123801874086233"><ele>41.0</ele><time>2026-04-19T10:34:51.581Z</time></trkpt><trkpt lat="39.94793354547662" lon="18.12382592807427"><ele>41.0</ele><time>2026-04-19T10:34:52.581Z</time></trkpt><trkpt lat="39.94780103599755" lon="18.123848742913275"><ele>41.0</ele><time>2026-04-19T10:34:53.581Z</time></trkpt><trkpt lat="39.947664428719136" lon="18.12386763669918"><ele>41.0</ele><time>2026-04-19T10:34:54.581Z</time></trkpt><trkpt lat="39.94752549037048" lon="18.123886157014407"><ele>41.0</ele><time>2026-04-19T10:34:55.581Z</time></trkpt><trkpt lat="39.94739787249859" lon="18.123893657462858"><ele>41.0</ele><time>2026-04-19T10:34:56.581Z</time></trkpt><trkpt lat="39.947268339753165" lon="18.12389915124541"><ele>41.0</ele><time>2026-04-19T10:34:57.581Z</time></trkpt><trkpt lat="39.94714346403207" lon="18.123907590408294"><ele>41.0</ele><time>2026-04-19T10:34:58.581Z</time></trkpt><trkpt lat="39.947019429324435" lon="18.123920593038743"><ele>41.0</ele><time>2026-04-19T10:34:59.581Z</time></trkpt><trkpt lat="39.9468860516418" lon="18.12393810257494"><ele>41.0</ele><time>2026-04-19T10:35:00.581Z</time></trkpt><trkpt lat="39.9467635401093" lon="18.12394437682534"><ele>41.0</ele><time>2026-04-19T10:35:01.581Z</time></trkpt><trkpt lat="39.946642506953985" lon="18.123953747526823"><ele>41.0</ele><time>2026-04-19T10:35:02.581Z</time></trkpt><trkpt lat="39.946515262362425" lon="18.123961623379984"><ele>41.0</ele><time>2026-04-19T10:35:03.581Z</time></trkpt><trkpt lat="39.94638131168685" lon="18.123970037866552"><ele>41.0</ele><time>2026-04-19T10:35:04.581Z</time></trkpt><trkpt lat="39.94624062180651" lon="18.12396871105517"><ele>41.0</ele><time>2026-04-19T10:35:05.581Z</time></trkpt><trkpt lat="39.94610418677273" lon="18.123957980463548"><ele>41.0</ele><time>2026-04-19T10:35:06.581Z</time></trkpt><trkpt lat="39.945970863260186" lon="18.123938912057625"><ele>41.5</ele><time>2026-04-19T10:35:07.581Z</time></trkpt><trkpt lat="39.94584414783719" lon="18.123915039275836"><ele>42.0</ele><time>2026-04-19T10:35:08.581Z</time></trkpt><trkpt lat="39.94572418735223" lon="18.123879126623137"><ele>42.5</ele><time>2026-04-19T10:35:09.581Z</time></trkpt><trkpt lat="39.94561321197164" lon="18.12384948859847"><ele>43.0</ele><time>2026-04-19T10:35:10.581Z</time></trkpt><trkpt lat="39.94551046905125" lon="18.12382104396411"><ele>43.0</ele><time>2026-04-19T10:35:11.581Z</time></trkpt><trkpt lat="39.94541600443165" lon="18.123795284418456"><ele>43.0</ele><time>2026-04-19T10:35:12.581Z</time></trkpt><trkpt lat="39.9453310761134" lon="18.12377252189842"><ele>43.0</ele><time>2026-04-19T10:35:13.581Z</time></trkpt><trkpt lat="39.94524833391846" lon="18.123753146195195"><ele>43.0</ele><time>2026-04-19T10:35:14.581Z</time></trkpt><trkpt lat="39.945178249388285" lon="18.123737409844423"><ele>43.0</ele><time>2026-04-19T10:35:15.581Z</time></trkpt><trkpt lat="39.945062706690386" lon="18.1236845711292"><ele>42.75</ele><time>2026-04-19T10:35:17.581Z</time></trkpt><trkpt lat="39.944964992338484" lon="18.123597607972293"><ele>42.5</ele><time>2026-04-19T10:35:19.581Z</time></trkpt><trkpt lat="39.94487492031505" lon="18.1234829706502"><ele>42.25</ele><time>2026-04-19T10:35:21.581Z</time></trkpt><trkpt lat="39.94476484377538" lon="18.123445887913952"><ele>42.0</ele><time>2026-04-19T10:35:23.581Z</time></trkpt><trkpt lat="39.9446719737887" lon="18.12350968823146"><ele>42.0</ele><time>2026-04-19T10:35:25.581Z</time></trkpt><trkpt lat="39.94465060746824" lon="18.123690377951142"><ele>42.0</ele><time>2026-04-19T10:35:27.581Z</time></trkpt><trkpt lat="39.94465374778397" lon="18.123819072114667"><ele>42.0</ele><time>2026-04-19T10:35:28.581Z</time></trkpt><trkpt lat="39.944637584560724" lon="18.123954706789075"><ele>42.0</ele><time>2026-04-19T10:35:29.581Z</time></trkpt><trkpt lat="39.944595516178175" lon="18.12409299107847"><ele>42.666666666666664</ele><time>2026-04-19T10:35:30.581Z</time></trkpt><trkpt lat="39.94451559547032" lon="18.12424573877086"><ele>43.33333333333333</ele><time>2026-04-19T10:35:31.581Z</time></trkpt><trkpt lat="39.9444119407869" lon="18.124448107926845"><ele>44.0</ele><time>2026-04-19T10:35:32.581Z</time></trkpt><trkpt lat="39.94430271927853" lon="18.12469458058041"><ele>43.5</ele><time>2026-04-19T10:35:33.581Z</time></trkpt><trkpt lat="39.944179614799786" lon="18.12496656530308"><ele>43.0</ele><time>2026-04-19T10:35:34.581Z</time></trkpt><trkpt lat="39.944046310846566" lon="18.12526909706555"><ele>43.0</ele><time>2026-04-19T10:35:35.581Z</time></trkpt><trkpt lat="39.94390584692974" lon="18.12558142016054"><ele>43.0</ele><time>2026-04-19T10:35:36.581Z</time></trkpt><trkpt lat="39.943752092683674" lon="18.125899427745292"><ele>43.0</ele><time>2026-04-19T10:35:37.581Z</time></trkpt><trkpt lat="39.94361093506448" lon="18.12618819979881"><ele>43.0</ele><time>2026-04-19T10:35:38.581Z</time></trkpt><trkpt lat="39.94347800933228" lon="18.126459558246584"><ele>42.5</ele><time>2026-04-19T10:35:39.581Z</time></trkpt><trkpt lat="39.943353329697054" lon="18.12671891509287"><ele>42.0</ele><time>2026-04-19T10:35:40.581Z</time></trkpt><trkpt lat="39.94323790656744" lon="18.126986954676685"><ele>42.0</ele><time>2026-04-19T10:35:41.581Z</time></trkpt><trkpt lat="39.94312241105921" lon="18.127240089469144"><ele>42.0</ele><time>2026-04-19T10:35:42.581Z</time></trkpt><trkpt lat="39.94300631346892" lon="18.127501352435154"><ele>43.0</ele><time>2026-04-19T10:35:43.581Z</time></trkpt><trkpt lat="39.94288795394671" lon="18.12775050566806"><ele>44.0</ele><time>2026-04-19T10:35:44.581Z</time></trkpt><trkpt lat="39.94276551143487" lon="18.128009107365074"><ele>45.0</ele><time>2026-04-19T10:35:45.581Z</time></trkpt><trkpt lat="39.94264803824212" lon="18.128270296773817"><ele>46.0</ele><time>2026-04-19T10:35:46.581Z</time></trkpt><trkpt lat="39.942526086135025" lon="18.128533202190106"><ele>46.0</ele><time>2026-04-19T10:35:47.581Z</time></trkpt><trkpt lat="39.942399494090765" lon="18.12879707480082"><ele>46.0</ele><time>2026-04-19T10:35:48.581Z</time></trkpt><trkpt lat="39.94227100219737" lon="18.129068590497276"><ele>45.5</ele><time>2026-04-19T10:35:49.581Z</time></trkpt><trkpt lat="39.94214165681188" lon="18.129339744617724"><ele>45.0</ele><time>2026-04-19T10:35:50.581Z</time></trkpt><trkpt lat="39.942008033274085" lon="18.129617476108198"><ele>45.5</ele><time>2026-04-19T10:35:51.581Z</time></trkpt><trkpt lat="39.94187453570199" lon="18.12989862442282"><ele>46.0</ele><time>2026-04-19T10:35:52.581Z</time></trkpt><trkpt lat="39.94173859173493" lon="18.130185800552578"><ele>46.5</ele><time>2026-04-19T10:35:53.581Z</time></trkpt><trkpt lat="39.94160262918409" lon="18.130475633507793"><ele>47.0</ele><time>2026-04-19T10:35:54.581Z</time></trkpt><trkpt lat="39.94146446884321" lon="18.13076800251622"><ele>48.0</ele><time>2026-04-19T10:35:55.581Z</time></trkpt><trkpt lat="39.94132916089797" lon="18.131056425553634"><ele>49.0</ele><time>2026-04-19T10:35:56.581Z</time></trkpt><trkpt lat="39.94119432689237" lon="18.131342400816983"><ele>49.0</ele><time>2026-04-19T10:35:57.581Z</time></trkpt><trkpt lat="39.941058486858644" lon="18.131624925172662"><ele>49.0</ele><time>2026-04-19T10:35:58.581Z</time></trkpt><trkpt lat="39.94092310683083" lon="18.13190537001849"><ele>49.0</ele><time>2026-04-19T10:35:59.581Z</time></trkpt><trkpt lat="39.940791299294595" lon="18.1321852132556"><ele>49.0</ele><time>2026-04-19T10:36:00.581Z</time></trkpt><trkpt lat="39.94066017921141" lon="18.132464523293507"><ele>50.0</ele><time>2026-04-19T10:36:01.581Z</time></trkpt><trkpt lat="39.94052877919633" lon="18.132746248004807"><ele>51.0</ele><time>2026-04-19T10:36:02.581Z</time></trkpt><trkpt lat="39.94039877492327" lon="18.133026244218907"><ele>53.5</ele><time>2026-04-19T10:36:03.581Z</time></trkpt><trkpt lat="39.94026901813085" lon="18.133306268857325"><ele>56.0</ele><time>2026-04-19T10:36:04.581Z</time></trkpt><trkpt lat="39.94013928442943" lon="18.133582099198957"><ele>56.0</ele><time>2026-04-19T10:36:05.581Z</time></trkpt><trkpt lat="39.940010778016514" lon="18.13385337619362"><ele>56.0</ele><time>2026-04-19T10:36:06.581Z</time></trkpt><trkpt lat="39.93988480933219" lon="18.134121381991733"><ele>56.0</ele><time>2026-04-19T10:36:07.582Z</time></trkpt><trkpt lat="39.93976256602617" lon="18.134384527665112"><ele>56.0</ele><time>2026-04-19T10:36:08.582Z</time></trkpt><trkpt lat="39.939634020556355" lon="18.13465097904118"><ele>56.0</ele><time>2026-04-19T10:36:09.581Z</time></trkpt><trkpt lat="39.93950461528301" lon="18.13491775413767"><ele>56.0</ele><time>2026-04-19T10:36:10.582Z</time></trkpt><trkpt lat="39.939375050896864" lon="18.13518391411384"><ele>56.0</ele><time>2026-04-19T10:36:11.582Z</time></trkpt><trkpt lat="39.93924770718948" lon="18.135448157789266"><ele>56.0</ele><time>2026-04-19T10:36:12.581Z</time></trkpt><trkpt lat="39.93912586536204" lon="18.13571110113244"><ele>56.0</ele><time>2026-04-19T10:36:13.581Z</time></trkpt><trkpt lat="39.93900393897698" lon="18.135972686495325"><ele>56.0</ele><time>2026-04-19T10:36:14.581Z</time></trkpt><trkpt lat="39.93888312886146" lon="18.136238280362278"><ele>56.0</ele><time>2026-04-19T10:36:15.581Z</time></trkpt><trkpt lat="39.938762138692766" lon="18.136495393325944"><ele>56.0</ele><time>2026-04-19T10:36:16.581Z</time></trkpt><trkpt lat="39.93863862792683" lon="18.136754098254606"><ele>56.5</ele><time>2026-04-19T10:36:17.581Z</time></trkpt><trkpt lat="39.93851782501705" lon="18.137011159246388"><ele>57.0</ele><time>2026-04-19T10:36:18.581Z</time></trkpt><trkpt lat="39.93839974175855" lon="18.137265897403818"><ele>57.5</ele><time>2026-04-19T10:36:19.581Z</time></trkpt><trkpt lat="39.93828209776185" lon="18.137521550382253"><ele>58.0</ele><time>2026-04-19T10:36:20.581Z</time></trkpt><trkpt lat="39.938164710959825" lon="18.13777743149236"><ele>58.0</ele><time>2026-04-19T10:36:21.581Z</time></trkpt><trkpt lat="39.93804630228144" lon="18.138034617678727"><ele>58.0</ele><time>2026-04-19T10:36:22.581Z</time></trkpt><trkpt lat="39.93792642100959" lon="18.138292155696035"><ele>59.0</ele><time>2026-04-19T10:36:23.581Z</time></trkpt><trkpt lat="39.9378073769107" lon="18.138549957031785"><ele>60.0</ele><time>2026-04-19T10:36:24.581Z</time></trkpt><trkpt lat="39.93768720543977" lon="18.138803458099606"><ele>60.0</ele><time>2026-04-19T10:36:25.581Z</time></trkpt><trkpt lat="39.93756949070622" lon="18.139055523768185"><ele>60.0</ele><time>2026-04-19T10:36:26.581Z</time></trkpt><trkpt lat="39.93745128535598" lon="18.139302708181905"><ele>60.0</ele><time>2026-04-19T10:36:27.581Z</time></trkpt><trkpt lat="39.937337465111334" lon="18.13955132142071"><ele>60.0</ele><time>2026-04-19T10:36:28.581Z</time></trkpt><trkpt lat="39.9372227924504" lon="18.139799417589884"><ele>60.0</ele><time>2026-04-19T10:36:29.581Z</time></trkpt><trkpt lat="39.937112571941164" lon="18.140044656128268"><ele>61.66666666666667</ele><time>2026-04-19T10:36:30.581Z</time></trkpt><trkpt lat="39.93700413086817" lon="18.140289624285387"><ele>63.333333333333336</ele><time>2026-04-19T10:36:31.581Z</time></trkpt><trkpt lat="39.93689441174094" lon="18.140530360906958"><ele>65.0</ele><time>2026-04-19T10:36:32.581Z</time></trkpt><trkpt lat="39.93678022739451" lon="18.140766253393153"><ele>66.33333333333334</ele><time>2026-04-19T10:36:33.581Z</time></trkpt><trkpt lat="39.93666528899023" lon="18.141009185311464"><ele>67.66666666666667</ele><time>2026-04-19T10:36:34.581Z</time></trkpt><trkpt lat="39.93654715289821" lon="18.141249138214018"><ele>69.0</ele><time>2026-04-19T10:36:35.581Z</time></trkpt><trkpt lat="39.936433432091484" lon="18.141489321157724"><ele>70.66666666666667</ele><time>2026-04-19T10:36:36.581Z</time></trkpt><trkpt lat="39.93632155776466" lon="18.14173430471599"><ele>72.33333333333334</ele><time>2026-04-19T10:36:37.581Z</time></trkpt><trkpt lat="39.93621142327983" lon="18.14197835837165"><ele>74.0</ele><time>2026-04-19T10:36:38.581Z</time></trkpt><trkpt lat="39.93609800743208" lon="18.14222458259366"><ele>74.0</ele><time>2026-04-19T10:36:39.581Z</time></trkpt><trkpt lat="39.935984196372004" lon="18.14246520416107"><ele>74.0</ele><time>2026-04-19T10:36:40.581Z</time></trkpt><trkpt lat="39.935869484568336" lon="18.142706021930884"><ele>74.0</ele><time>2026-04-19T10:36:41.581Z</time></trkpt><trkpt lat="39.93575385483154" lon="18.142948466510987"><ele>75.0</ele><time>2026-04-19T10:36:42.581Z</time></trkpt><trkpt lat="39.935633043285065" lon="18.143203935549497"><ele>76.0</ele><time>2026-04-19T10:36:43.581Z</time></trkpt><trkpt lat="39.935511861516574" lon="18.14345899798467"><ele>76.5</ele><time>2026-04-19T10:36:44.581Z</time></trkpt><trkpt lat="39.9353859183749" lon="18.143724026426163"><ele>77.0</ele><time>2026-04-19T10:36:45.581Z</time></trkpt><trkpt lat="39.9352729174253" lon="18.143971304128964"><ele>76.0</ele><time>2026-04-19T10:36:46.581Z</time></trkpt><trkpt lat="39.93516623872143" lon="18.14419719341605"><ele>75.0</ele><time>2026-04-19T10:36:47.581Z</time></trkpt><trkpt lat="39.93505826541074" lon="18.144421753671942"><ele>74.0</ele><time>2026-04-19T10:36:48.581Z</time></trkpt><trkpt lat="39.93495312818232" lon="18.14463220010967"><ele>74.0</ele><time>2026-04-19T10:36:49.581Z</time></trkpt><trkpt lat="39.93485149187334" lon="18.14482735232286"><ele>74.0</ele><time>2026-04-19T10:36:50.581Z</time></trkpt><trkpt lat="39.93475485523729" lon="18.145002598851022"><ele>74.0</ele><time>2026-04-19T10:36:51.581Z</time></trkpt><trkpt lat="39.93466647371475" lon="18.145179653495166"><ele>74.0</ele><time>2026-04-19T10:36:52.581Z</time></trkpt><trkpt lat="39.93458731954279" lon="18.145360250274543"><ele>74.0</ele><time>2026-04-19T10:36:53.581Z</time></trkpt><trkpt lat="39.93451108356742" lon="18.14553083018699"><ele>74.0</ele><time>2026-04-19T10:36:54.581Z</time></trkpt><trkpt lat="39.93444204628204" lon="18.145700985635678"><ele>74.0</ele><time>2026-04-19T10:36:55.581Z</time></trkpt><trkpt lat="39.93437595016642" lon="18.14585365016279"><ele>74.0</ele><time>2026-04-19T10:36:56.581Z</time></trkpt><trkpt lat="39.93431160861894" lon="18.14599639658157"><ele>74.0</ele><time>2026-04-19T10:36:57.581Z</time></trkpt><trkpt lat="39.93424139998725" lon="18.14613580829851"><ele>74.0</ele><time>2026-04-19T10:36:58.581Z</time></trkpt><trkpt lat="39.934171805040904" lon="18.14628124720506"><ele>74.66666666666667</ele><time>2026-04-19T10:36:59.581Z</time></trkpt><trkpt lat="39.934097473676076" lon="18.146439833940185"><ele>75.33333333333333</ele><time>2026-04-19T10:37:00.581Z</time></trkpt><trkpt lat="39.93401354497758" lon="18.14661113302904"><ele>76.0</ele><time>2026-04-19T10:37:01.581Z</time></trkpt><trkpt lat="39.93392361619783" lon="18.146787322272083"><ele>76.5</ele><time>2026-04-19T10:37:02.581Z</time></trkpt><trkpt lat="39.933848224634396" lon="18.146950357434882"><ele>77.0</ele><time>2026-04-19T10:37:03.581Z</time></trkpt><trkpt lat="39.933789388579164" lon="18.147100794271914"><ele>77.5</ele><time>2026-04-19T10:37:04.581Z</time></trkpt><trkpt lat="39.93373164093419" lon="18.14723120853159"><ele>78.0</ele><time>2026-04-19T10:37:05.581Z</time></trkpt><trkpt lat="39.93367712379384" lon="18.14733274031474"><ele>77.83333333333333</ele><time>2026-04-19T10:37:06.581Z</time></trkpt><trkpt lat="39.933632369514484" lon="18.14741984619915"><ele>77.66666666666667</ele><time>2026-04-19T10:37:07.581Z</time></trkpt><trkpt lat="39.933604202786064" lon="18.147498123930717"><ele>77.5</ele><time>2026-04-19T10:37:09.581Z</time></trkpt><trkpt lat="39.93364382103905" lon="18.14756217853509"><ele>77.33333333333334</ele><time>2026-04-19T10:37:11.581Z</time></trkpt><trkpt lat="39.93375836328072" lon="18.147639406314212"><ele>77.16666666666667</ele><time>2026-04-19T10:37:13.581Z</time></trkpt><trkpt lat="39.93383129484879" lon="18.147712636354196"><ele>77.0</ele><time>2026-04-19T10:37:14.581Z</time></trkpt><trkpt lat="39.933916619131786" lon="18.147812935391055"><ele>77.0</ele><time>2026-04-19T10:37:15.581Z</time></trkpt><trkpt lat="39.93401634796297" lon="18.147939366496335"><ele>77.0</ele><time>2026-04-19T10:37:16.581Z</time></trkpt><trkpt lat="39.934118145508336" lon="18.14808135309826"><ele>77.0</ele><time>2026-04-19T10:37:17.581Z</time></trkpt><trkpt lat="39.934230820970534" lon="18.14822598436153"><ele>77.0</ele><time>2026-04-19T10:37:18.581Z</time></trkpt><trkpt lat="39.93434545647311" lon="18.14837143543639"><ele>77.66666666666667</ele><time>2026-04-19T10:37:19.581Z</time></trkpt><trkpt lat="39.934471616143085" lon="18.148518445712774"><ele>78.33333333333333</ele><time>2026-04-19T10:37:20.581Z</time></trkpt><trkpt lat="39.934592264401125" lon="18.148673809983265"><ele>79.0</ele><time>2026-04-19T10:37:21.581Z</time></trkpt><trkpt lat="39.934700238417" lon="18.148807652707465"><ele>79.0</ele><time>2026-04-19T10:37:22.581Z</time></trkpt><trkpt lat="39.93480451603909" lon="18.148935736647324"><ele>79.0</ele><time>2026-04-19T10:37:23.581Z</time></trkpt><trkpt lat="39.934905431711464" lon="18.149052221128567"><ele>79.0</ele><time>2026-04-19T10:37:24.581Z</time></trkpt><trkpt lat="39.93500529373339" lon="18.149154797317255"><ele>79.0</ele><time>2026-04-19T10:37:25.581Z</time></trkpt><trkpt lat="39.93509714649576" lon="18.14924629605406"><ele>80.0</ele><time>2026-04-19T10:37:26.581Z</time></trkpt><trkpt lat="39.93518090401163" lon="18.14932030617804"><ele>81.0</ele><time>2026-04-19T10:37:27.58Z</time></trkpt><trkpt lat="39.93525390987756" lon="18.149380684505708"><ele>82.0</ele><time>2026-04-19T10:37:28.58Z</time></trkpt><trkpt lat="39.935315154476356" lon="18.14942950981041"><ele>83.0</ele><time>2026-04-19T10:37:29.58Z</time></trkpt><trkpt lat="39.93537731165025" lon="18.149494831342224"><ele>84.0</ele><time>2026-04-19T10:37:31.58Z</time></trkpt><trkpt lat="39.9353811449508" lon="18.149582177437544"><ele>85.0</ele><time>2026-04-19T10:37:33.58Z</time></trkpt><trkpt lat="39.93530738790923" lon="18.149684401977694"><ele>85.0</ele><time>2026-04-19T10:37:35.58Z</time></trkpt><trkpt lat="39.935260455651175" lon="18.149745207173567"><ele>85.0</ele><time>2026-04-19T10:37:36.58Z</time></trkpt><trkpt lat="39.93521680156819" lon="18.14981971415691"><ele>85.0</ele><time>2026-04-19T10:37:37.58Z</time></trkpt><trkpt lat="39.93517160594961" lon="18.149893634408876"><ele>85.0</ele><time>2026-04-19T10:37:38.58Z</time></trkpt><trkpt lat="39.93512533988087" lon="18.14996155031225"><ele>85.0</ele><time>2026-04-19T10:37:39.58Z</time></trkpt><trkpt lat="39.935080543256866" lon="18.150037828308474"><ele>85.0</ele><time>2026-04-19T10:37:40.58Z</time></trkpt><trkpt lat="39.93503964570907" lon="18.150112401689885"><ele>85.0</ele><time>2026-04-19T10:37:41.58Z</time></trkpt><trkpt lat="39.934998902252296" lon="18.150181390702294"><ele>85.2</ele><time>2026-04-19T10:37:42.58Z</time></trkpt><trkpt lat="39.93492524962524" lon="18.150304714021583"><ele>85.4</ele><time>2026-04-19T10:37:44.58Z</time></trkpt><trkpt lat="39.93485607416147" lon="18.15039877502755"><ele>85.6</ele><time>2026-04-19T10:37:46.58Z</time></trkpt><trkpt lat="39.93477221850882" lon="18.1505152979128"><ele>85.8</ele><time>2026-04-19T10:37:48.58Z</time></trkpt><trkpt lat="39.93472307130176" lon="18.15059243615542"><ele>86.0</ele><time>2026-04-19T10:37:49.58Z</time></trkpt><trkpt lat="39.93466558671155" lon="18.150690023343564"><ele>86.75</ele><time>2026-04-19T10:37:50.58Z</time></trkpt><trkpt lat="39.934588300493814" lon="18.150806054499952"><ele>87.5</ele><time>2026-04-19T10:37:51.58Z</time></trkpt><trkpt lat="39.9344783942721" lon="18.15093878442423"><ele>88.25</ele><time>2026-04-19T10:37:52.58Z</time></trkpt><trkpt lat="39.934377019356205" lon="18.151069062061303"><ele>89.0</ele><time>2026-04-19T10:37:53.58Z</time></trkpt><trkpt lat="39.934306203343596" lon="18.151166843587855"><ele>89.0</ele><time>2026-04-19T10:37:54.58Z</time></trkpt><trkpt lat="39.934241760748314" lon="18.15123509657857"><ele>89.0</ele><time>2026-04-19T10:37:55.58Z</time></trkpt><trkpt lat="39.93417782687392" lon="18.151325257132637"><ele>89.0</ele><time>2026-04-19T10:37:57.58Z</time></trkpt><trkpt lat="39.93418883688343" lon="18.151439610401425"><ele>89.0</ele><time>2026-04-19T10:38:00.58Z</time></trkpt><trkpt lat="39.93424936422119" lon="18.151557939900474"><ele>89.0</ele><time>2026-04-19T10:38:02.58Z</time></trkpt><trkpt lat="39.934339029459736" lon="18.15163045404854"><ele>89.0</ele><time>2026-04-19T10:38:04.58Z</time></trkpt><trkpt lat="39.934403941665984" lon="18.15165155264507"><ele>89.0</ele><time>2026-04-19T10:38:06.58Z</time></trkpt><trkpt lat="39.934476071109835" lon="18.15158756172726"><ele>89.0</ele><time>2026-04-19T10:38:09.58Z</time></trkpt><trkpt lat="39.934540004025756" lon="18.151427600451257"><ele>89.0</ele><time>2026-04-19T10:38:11.58Z</time></trkpt><trkpt lat="39.93458563929693" lon="18.151326715683822"><ele>89.0</ele><time>2026-04-19T10:38:12.58Z</time></trkpt><trkpt lat="39.934637954840376" lon="18.151217956878305"><ele>89.0</ele><time>2026-04-19T10:38:13.58Z</time></trkpt><trkpt lat="39.9347045337664" lon="18.151099757445035"><ele>89.0</ele><time>2026-04-19T10:38:14.58Z</time></trkpt><trkpt lat="39.934755674764176" lon="18.151030544884577"><ele>89.0</ele><time>2026-04-19T10:38:15.581Z</time></trkpt><trkpt lat="39.934806990787784" lon="18.15096112192327"><ele>89.0</ele><time>2026-04-19T10:38:16.58Z</time></trkpt><trkpt lat="39.93486220036887" lon="18.150879275880968"><ele>89.0</ele><time>2026-04-19T10:38:17.58Z</time></trkpt><trkpt lat="39.934920542242104" lon="18.150838431917133"><ele>89.0</ele><time>2026-04-19T10:38:18.581Z</time></trkpt><trkpt lat="39.935000184103636" lon="18.150791731054365"><ele>89.0</ele><time>2026-04-19T10:38:20.581Z</time></trkpt><trkpt lat="39.9350448943692" lon="18.15068528683853"><ele>86.0</ele><time>2026-04-19T10:38:22.581Z</time></trkpt><trkpt lat="39.93505078446925" lon="18.150598832117936"><ele>86.0</ele><time>2026-04-19T10:38:24.581Z</time></trkpt></trkseg><trkseg><trkpt lat="39.93516690990633" lon="18.15063315299108"><ele>90.0</ele><time>2026-04-19T10:56:34.583Z</time></trkpt><trkpt lat="39.93510676187067" lon="18.15066068892266"><ele>90.0</ele><time>2026-04-19T10:57:19.583Z</time></trkpt><trkpt lat="39.935167547611066" lon="18.150593580943646"><ele>90.0</ele><time>2026-04-19T10:57:27.583Z</time></trkpt><trkpt lat="39.9352290470597" lon="18.150496653157447"><ele>90.0</ele><time>2026-04-19T10:57:29.583Z</time></trkpt><trkpt lat="39.93528453580974" lon="18.150428712287784"><ele>90.0</ele><time>2026-04-19T10:57:31.583Z</time></trkpt><trkpt lat="39.935359829985956" lon="18.15044245694652"><ele>90.0</ele><time>2026-04-19T10:57:33.583Z</time></trkpt><trkpt lat="39.935426903340016" lon="18.150541575886177"><ele>90.0</ele><time>2026-04-19T10:57:35.583Z</time></trkpt><trkpt lat="39.935466383650784" lon="18.150610630868847"><ele>90.0</ele><time>2026-04-19T10:57:36.583Z</time></trkpt><trkpt lat="39.93551241260214" lon="18.150674845436843"><ele>90.0</ele><time>2026-04-19T10:57:37.583Z</time></trkpt><trkpt lat="39.93556626539035" lon="18.150737768897173"><ele>90.0</ele><time>2026-04-19T10:57:38.583Z</time></trkpt><trkpt lat="39.93561606577744" lon="18.150797384664994"><ele>90.0</ele><time>2026-04-19T10:57:39.583Z</time></trkpt><trkpt lat="39.9356968017426" lon="18.150885169722997"><ele>90.0</ele><time>2026-04-19T10:57:41.583Z</time></trkpt><trkpt lat="39.9357630259766" lon="18.15097566699645"><ele>90.0</ele><time>2026-04-19T10:57:43.583Z</time></trkpt><trkpt lat="39.93586056767292" lon="18.151089876979466"><ele>90.0</ele><time>2026-04-19T10:57:45.583Z</time></trkpt><trkpt lat="39.93593749878202" lon="18.15120039558845"><ele>90.0</ele><time>2026-04-19T10:57:47.583Z</time></trkpt><trkpt lat="39.935996022099296" lon="18.151268916297873"><ele>90.0</ele><time>2026-04-19T10:57:49.583Z</time></trkpt><trkpt lat="39.93604437566872" lon="18.15133469481495"><ele>90.0</ele><time>2026-04-19T10:57:51.583Z</time></trkpt><trkpt lat="39.93609557986649" lon="18.151393575965347"><ele>90.0</ele><time>2026-04-19T10:57:53.583Z</time></trkpt><trkpt lat="39.936152843639974" lon="18.15144201646882"><ele>90.0</ele><time>2026-04-19T10:57:56.583Z</time></trkpt><trkpt lat="39.93622595738096" lon="18.151510392095297"><ele>90.0</ele><time>2026-04-19T10:57:59.583Z</time></trkpt><trkpt lat="39.93628352046109" lon="18.1515758296711"><ele>90.0</ele><time>2026-04-19T10:58:01.583Z</time></trkpt><trkpt lat="39.93633956047449" lon="18.151627755760277"><ele>90.0</ele><time>2026-04-19T10:58:03.583Z</time></trkpt><trkpt lat="39.93639544792224" lon="18.15169171718539"><ele>90.0</ele><time>2026-04-19T10:58:05.583Z</time></trkpt><trkpt lat="39.93645308560183" lon="18.151748776890994"><ele>89.66666666666667</ele><time>2026-04-19T10:58:08.582Z</time></trkpt><trkpt lat="39.936519638648434" lon="18.151804939082343"><ele>89.33333333333333</ele><time>2026-04-19T10:58:15.584Z</time></trkpt><trkpt lat="39.93652121749594" lon="18.151913369138445"><ele>89.0</ele><time>2026-04-19T10:58:29.582Z</time></trkpt><trkpt lat="39.936460340802974" lon="18.152026459783006"><ele>88.66666666666666</ele><time>2026-04-19T10:58:31.582Z</time></trkpt><trkpt lat="39.936413536868805" lon="18.152101535945707"><ele>88.33333333333333</ele><time>2026-04-19T10:58:32.582Z</time></trkpt><trkpt lat="39.93635759831569" lon="18.152168162103663"><ele>88.0</ele><time>2026-04-19T10:58:33.582Z</time></trkpt><trkpt lat="39.9363045351807" lon="18.1522565860092"><ele>88.0</ele><time>2026-04-19T10:58:35.582Z</time></trkpt><trkpt lat="39.936256811306" lon="18.152359417278998"><ele>88.0</ele><time>2026-04-19T10:58:37.582Z</time></trkpt><trkpt lat="39.93617779740794" lon="18.152492409501587"><ele>88.0</ele><time>2026-04-19T10:58:39.582Z</time></trkpt><trkpt lat="39.93613243632086" lon="18.1525761621321"><ele>88.0</ele><time>2026-04-19T10:58:40.582Z</time></trkpt><trkpt lat="39.93609125513477" lon="18.152652944563545"><ele>88.0</ele><time>2026-04-19T10:58:41.582Z</time></trkpt><trkpt lat="39.93604824401046" lon="18.152731062792828"><ele>88.0</ele><time>2026-04-19T10:58:42.582Z</time></trkpt><trkpt lat="39.93599738120639" lon="18.15282244609362"><ele>88.0</ele><time>2026-04-19T10:58:43.582Z</time></trkpt><trkpt lat="39.93594418877484" lon="18.15290222190162"><ele>88.0</ele><time>2026-04-19T10:58:44.582Z</time></trkpt><trkpt lat="39.935896953363454" lon="18.15297582308307"><ele>88.0</ele><time>2026-04-19T10:58:45.582Z</time></trkpt><trkpt lat="39.93586407543545" lon="18.153047998638737"><ele>88.0</ele><time>2026-04-19T10:58:46.582Z</time></trkpt><trkpt lat="39.93582020898941" lon="18.153180221954685"><ele>88.0</ele><time>2026-04-19T10:58:48.582Z</time></trkpt><trkpt lat="39.9358188386852" lon="18.153331705257298"><ele>88.0</ele><time>2026-04-19T10:58:50.582Z</time></trkpt><trkpt lat="39.935837246206724" lon="18.153433791401653"><ele>88.16666666666666</ele><time>2026-04-19T10:58:51.582Z</time></trkpt><trkpt lat="39.93585608380937" lon="18.15353744802978"><ele>88.33333333333333</ele><time>2026-04-19T10:58:52.582Z</time></trkpt><trkpt lat="39.93586602732174" lon="18.153633350267242"><ele>88.5</ele><time>2026-04-19T10:58:53.582Z</time></trkpt><trkpt lat="39.93587408948621" lon="18.153747644494945"><ele>88.66666666666667</ele><time>2026-04-19T10:58:54.582Z</time></trkpt><trkpt lat="39.9358827349663" lon="18.15385487746207"><ele>88.83333333333334</ele><time>2026-04-19T10:58:55.582Z</time></trkpt><trkpt lat="39.935886230750974" lon="18.153984681293032"><ele>89.0</ele><time>2026-04-19T10:58:56.582Z</time></trkpt><trkpt lat="39.93587602933857" lon="18.154118953016766"><ele>89.0</ele><time>2026-04-19T10:58:57.582Z</time></trkpt><trkpt lat="39.935872869601006" lon="18.154233228087772"><ele>89.0</ele><time>2026-04-19T10:58:58.582Z</time></trkpt><trkpt lat="39.93587411194332" lon="18.15434664077265"><ele>89.0</ele><time>2026-04-19T10:58:59.582Z</time></trkpt><trkpt lat="39.935883183812194" lon="18.15446488891084"><ele>89.0</ele><time>2026-04-19T10:59:00.582Z</time></trkpt><trkpt lat="39.935889029505034" lon="18.15458260077822"><ele>89.0</ele><time>2026-04-19T10:59:01.582Z</time></trkpt><trkpt lat="39.9358906308148" lon="18.15469917916351"><ele>89.0</ele><time>2026-04-19T10:59:02.582Z</time></trkpt><trkpt lat="39.93588582797279" lon="18.154799353942863"><ele>89.25</ele><time>2026-04-19T10:59:03.582Z</time></trkpt><trkpt lat="39.93587609394523" lon="18.154955406424328"><ele>89.5</ele><time>2026-04-19T10:59:05.582Z</time></trkpt><trkpt lat="39.93583969301257" lon="18.155114295698866"><ele>89.75</ele><time>2026-04-19T10:59:07.582Z</time></trkpt><trkpt lat="39.93580920593789" lon="18.15525957108088"><ele>90.0</ele><time>2026-04-19T10:59:09.582Z</time></trkpt><trkpt lat="39.935800401973204" lon="18.15537689920406"><ele>90.0</ele><time>2026-04-19T10:59:11.582Z</time></trkpt><trkpt lat="39.935763212242904" lon="18.155452067550392"><ele>90.0</ele><time>2026-04-19T10:59:13.582Z</time></trkpt><trkpt lat="39.93568738458804" lon="18.155514605813053"><ele>90.0</ele><time>2026-04-19T10:59:16.582Z</time></trkpt><trkpt lat="39.93560534903377" lon="18.155563577122443"><ele>90.0</ele><time>2026-04-19T10:59:18.582Z</time></trkpt><trkpt lat="39.93550387173703" lon="18.155619034786366"><ele>90.0</ele><time>2026-04-19T10:59:20.582Z</time></trkpt><trkpt lat="39.93538849079169" lon="18.155685933322452"><ele>90.5</ele><time>2026-04-19T10:59:22.582Z</time></trkpt><trkpt lat="39.93531808724493" lon="18.155721011935114"><ele>91.0</ele><time>2026-04-19T10:59:23.582Z</time></trkpt><trkpt lat="39.935245683058724" lon="18.15575648808794"><ele>91.5</ele><time>2026-04-19T10:59:24.582Z</time></trkpt><trkpt lat="39.93515037752796" lon="18.155793945692167"><ele>92.0</ele><time>2026-04-19T10:59:26.582Z</time></trkpt><trkpt lat="39.93511878689998" lon="18.155884009355674"><ele>92.5</ele><time>2026-04-19T10:59:30.582Z</time></trkpt><trkpt lat="39.935144490116585" lon="18.155984931427284"><ele>93.0</ele><time>2026-04-19T10:59:31.582Z</time></trkpt><trkpt lat="39.935178298708095" lon="18.156098599964213"><ele>93.0</ele><time>2026-04-19T10:59:32.582Z</time></trkpt><trkpt lat="39.9352067212807" lon="18.15620951264899"><ele>93.0</ele><time>2026-04-19T10:59:33.582Z</time></trkpt><trkpt lat="39.935220861963735" lon="18.15629750894774"><ele>93.0</ele><time>2026-04-19T10:59:34.582Z</time></trkpt><trkpt lat="39.9352107961165" lon="18.156381824253458"><ele>93.0</ele><time>2026-04-19T10:59:39.582Z</time></trkpt><trkpt lat="39.935130306555926" lon="18.15643239884511"><ele>93.0</ele><time>2026-04-19T10:59:41.582Z</time></trkpt><trkpt lat="39.935047551030806" lon="18.15646051979513"><ele>93.0</ele><time>2026-04-19T10:59:42.582Z</time></trkpt><trkpt lat="39.934969355839826" lon="18.156502438240327"><ele>93.80000000000001</ele><time>2026-04-19T10:59:43.582Z</time></trkpt><trkpt lat="39.93488135666111" lon="18.15655682047233"><ele>94.6</ele><time>2026-04-19T10:59:44.582Z</time></trkpt><trkpt lat="39.93478105317462" lon="18.156600494599786"><ele>95.4</ele><time>2026-04-19T10:59:45.582Z</time></trkpt><trkpt lat="39.93468619439643" lon="18.15664488813198"><ele>96.19999999999999</ele><time>2026-04-19T10:59:46.582Z</time></trkpt><trkpt lat="39.934595910519036" lon="18.156686597486313"><ele>97.0</ele><time>2026-04-19T10:59:47.582Z</time></trkpt><trkpt lat="39.93452225655335" lon="18.15672226338943"><ele>97.0</ele><time>2026-04-19T10:59:48.582Z</time></trkpt><trkpt lat="39.93444738458599" lon="18.156765412528763"><ele>97.0</ele><time>2026-04-19T10:59:50.582Z</time></trkpt><trkpt lat="39.93438078541266" lon="18.156825783527403"><ele>97.0</ele><time>2026-04-19T10:59:57.582Z</time></trkpt><trkpt lat="39.934268148938585" lon="18.156906928275564"><ele>97.0</ele><time>2026-04-19T10:59:59.582Z</time></trkpt><trkpt lat="39.934183371803144" lon="18.156941690494303"><ele>97.0</ele><time>2026-04-19T11:00:00.582Z</time></trkpt><trkpt lat="39.93409999280617" lon="18.156974765818518"><ele>97.19999999999999</ele><time>2026-04-19T11:00:01.582Z</time></trkpt><trkpt lat="39.9340253327703" lon="18.15700934232135"><ele>97.4</ele><time>2026-04-19T11:00:02.582Z</time></trkpt><trkpt lat="39.93391471691123" lon="18.157060372758593"><ele>97.6</ele><time>2026-04-19T11:00:04.582Z</time></trkpt><trkpt lat="39.93385410573004" lon="18.157087727924928"><ele>97.80000000000001</ele><time>2026-04-19T11:00:06.582Z</time></trkpt><trkpt lat="39.933815441462535" lon="18.157197256723613"><ele>98.0</ele><time>2026-04-19T11:00:10.582Z</time></trkpt><trkpt lat="39.933854944323215" lon="18.157364575114656"><ele>97.99999999999999</ele><time>2026-04-19T11:00:12.582Z</time></trkpt><trkpt lat="39.933877189549044" lon="18.15746200047884"><ele>98.0</ele><time>2026-04-19T11:00:13.583Z</time></trkpt><trkpt lat="39.93389959091454" lon="18.15757157392621"><ele>98.0</ele><time>2026-04-19T11:00:14.583Z</time></trkpt><trkpt lat="39.933918764898955" lon="18.157684000572672"><ele>98.0</ele><time>2026-04-19T11:00:15.583Z</time></trkpt><trkpt lat="39.93394267040267" lon="18.157807060994408"><ele>97.99999999999999</ele><time>2026-04-19T11:00:16.582Z</time></trkpt><trkpt lat="39.93396271169375" lon="18.157905389076916"><ele>98.0</ele><time>2026-04-19T11:00:17.582Z</time></trkpt><trkpt lat="39.93398912053268" lon="18.158000582058122"><ele>97.99999999999999</ele><time>2026-04-19T11:00:18.582Z</time></trkpt><trkpt lat="39.93400989626772" lon="18.158088423578366"><ele>98.0</ele><time>2026-04-19T11:00:19.583Z</time></trkpt><trkpt lat="39.93403820925399" lon="18.158235264054287"><ele>98.0</ele><time>2026-04-19T11:00:21.582Z</time></trkpt><trkpt lat="39.934043813590144" lon="18.158357055838547"><ele>98.0</ele><time>2026-04-19T11:00:23.582Z</time></trkpt><trkpt lat="39.9339940366205" lon="18.158438525365828"><ele>97.99999999999999</ele><time>2026-04-19T11:00:26.582Z</time></trkpt><trkpt lat="39.933930389136016" lon="18.158469091390884"><ele>98.0</ele><time>2026-04-19T11:00:27.582Z</time></trkpt><trkpt lat="39.933872730643664" lon="18.158515355598357"><ele>98.0</ele><time>2026-04-19T11:00:28.582Z</time></trkpt><trkpt lat="39.933805341806696" lon="18.158576652541516"><ele>98.0</ele><time>2026-04-19T11:00:29.582Z</time></trkpt><trkpt lat="39.933717096177304" lon="18.15864052744263"><ele>98.0</ele><time>2026-04-19T11:00:30.582Z</time></trkpt><trkpt lat="39.9336295267551" lon="18.158704338545725"><ele>98.0</ele><time>2026-04-19T11:00:31.582Z</time></trkpt><trkpt lat="39.933553292250735" lon="18.1587635692277"><ele>98.0</ele><time>2026-04-19T11:00:32.582Z</time></trkpt><trkpt lat="39.93347676160289" lon="18.15880843153559"><ele>97.99999999999999</ele><time>2026-04-19T11:00:34.582Z</time></trkpt><trkpt lat="39.93348939527958" lon="18.158919804267192"><ele>98.0</ele><time>2026-04-19T11:00:37.582Z</time></trkpt><trkpt lat="39.93351045184504" lon="18.159012021150918"><ele>98.0</ele><time>2026-04-19T11:00:38.582Z</time></trkpt><trkpt lat="39.93353904900226" lon="18.159106542852793"><ele>98.0</ele><time>2026-04-19T11:00:39.582Z</time></trkpt><trkpt lat="39.93356578417226" lon="18.159205271141655"><ele>97.99999999999999</ele><time>2026-04-19T11:00:40.582Z</time></trkpt><trkpt lat="39.93358350243611" lon="18.159287678689623"><ele>98.0</ele><time>2026-04-19T11:00:41.582Z</time></trkpt><trkpt lat="39.933599979784724" lon="18.15937729635273"><ele>97.99999999999999</ele><time>2026-04-19T11:00:43.582Z</time></trkpt><trkpt lat="39.93355081102225" lon="18.15944972784185"><ele>98.0</ele><time>2026-04-19T11:00:45.582Z</time></trkpt><trkpt lat="39.93348950352047" lon="18.159472896148877"><ele>98.0</ele><time>2026-04-19T11:00:46.582Z</time></trkpt><trkpt lat="39.933415782217146" lon="18.159502424914017"><ele>98.0</ele><time>2026-04-19T11:00:47.582Z</time></trkpt><trkpt lat="39.93334819303524" lon="18.159541414661607"><ele>97.99999999999999</ele><time>2026-04-19T11:00:48.582Z</time></trkpt><trkpt lat="39.93327201431106" lon="18.159597856520374"><ele>98.0</ele><time>2026-04-19T11:00:49.582Z</time></trkpt><trkpt lat="39.93318132841037" lon="18.15966202764045"><ele>98.0</ele><time>2026-04-19T11:00:50.582Z</time></trkpt><trkpt lat="39.93309232545457" lon="18.159713105596666"><ele>98.0</ele><time>2026-04-19T11:00:51.582Z</time></trkpt><trkpt lat="39.93300671115239" lon="18.15977165672279"><ele>98.0</ele><time>2026-04-19T11:00:52.582Z</time></trkpt><trkpt lat="39.93291953264142" lon="18.159840797644097"><ele>98.0</ele><time>2026-04-19T11:00:53.582Z</time></trkpt><trkpt lat="39.93282271534976" lon="18.159903289880013"><ele>98.0</ele><time>2026-04-19T11:00:54.582Z</time></trkpt><trkpt lat="39.93274323741155" lon="18.159949668504698"><ele>98.2</ele><time>2026-04-19T11:00:55.582Z</time></trkpt><trkpt lat="39.93264093319879" lon="18.16001059359177"><ele>98.4</ele><time>2026-04-19T11:00:57.582Z</time></trkpt><trkpt lat="39.93254815906412" lon="18.160123841684584"><ele>98.60000000000001</ele><time>2026-04-19T11:00:59.582Z</time></trkpt><trkpt lat="39.93247620438523" lon="18.160154323926932"><ele>98.80000000000001</ele><time>2026-04-19T11:01:00.582Z</time></trkpt><trkpt lat="39.932404952972746" lon="18.16016987376127"><ele>99.0</ele><time>2026-04-19T11:01:01.582Z</time></trkpt><trkpt lat="39.932283255938295" lon="18.16026444550405"><ele>99.0</ele><time>2026-04-19T11:01:03.582Z</time></trkpt><trkpt lat="39.932211768142565" lon="18.160320083879416"><ele>99.0</ele><time>2026-04-19T11:01:04.582Z</time></trkpt><trkpt lat="39.932153965782234" lon="18.160368522348787"><ele>99.0</ele><time>2026-04-19T11:01:05.582Z</time></trkpt><trkpt lat="39.93207671249396" lon="18.160406586805397"><ele>99.0</ele><time>2026-04-19T11:01:07.582Z</time></trkpt><trkpt lat="39.93203171054817" lon="18.16031086888276"><ele>99.0</ele><time>2026-04-19T11:01:10.582Z</time></trkpt><trkpt lat="39.931983675869354" lon="18.16015079829879"><ele>99.0</ele><time>2026-04-19T11:01:12.582Z</time></trkpt><trkpt lat="39.93194265248895" lon="18.160012426322822"><ele>99.0</ele><time>2026-04-19T11:01:14.582Z</time></trkpt><trkpt lat="39.931914771356546" lon="18.159925194559545"><ele>99.0</ele><time>2026-04-19T11:01:15.582Z</time></trkpt><trkpt lat="39.931882698840056" lon="18.15982707758129"><ele>99.0</ele><time>2026-04-19T11:01:16.582Z</time></trkpt><trkpt lat="39.93185213494148" lon="18.159727487918236"><ele>99.0</ele><time>2026-04-19T11:01:17.582Z</time></trkpt><trkpt lat="39.93182303174606" lon="18.159633568083684"><ele>99.0</ele><time>2026-04-19T11:01:19.582Z</time></trkpt><trkpt lat="39.93175351170568" lon="18.15964615975121"><ele>99.25</ele><time>2026-04-19T11:01:21.582Z</time></trkpt><trkpt lat="39.931634509433955" lon="18.15974208995387"><ele>99.5</ele><time>2026-04-19T11:01:23.582Z</time></trkpt><trkpt lat="39.931552536394264" lon="18.159807420789278"><ele>99.75</ele><time>2026-04-19T11:01:24.582Z</time></trkpt><trkpt lat="39.93146848524419" lon="18.15988546690203"><ele>100.0</ele><time>2026-04-19T11:01:25.582Z</time></trkpt><trkpt lat="39.93136031755531" lon="18.15997705633366"><ele>100.00000000000001</ele><time>2026-04-19T11:01:26.582Z</time></trkpt><trkpt lat="39.931230059731234" lon="18.16006081511729"><ele>100.0</ele><time>2026-04-19T11:01:27.582Z</time></trkpt><trkpt lat="39.93115440661052" lon="18.160122335861875"><ele>100.0</ele><time>2026-04-19T11:01:28.582Z</time></trkpt><trkpt lat="39.93109330155619" lon="18.160160322582986"><ele>100.0</ele><time>2026-04-19T11:01:29.582Z</time></trkpt><trkpt lat="39.9310356636741" lon="18.160201731638292"><ele>100.00000000000001</ele><time>2026-04-19T11:01:30.582Z</time></trkpt><trkpt lat="39.93098499644878" lon="18.160256105785002"><ele>100.0</ele><time>2026-04-19T11:01:31.582Z</time></trkpt><trkpt lat="39.930933780151676" lon="18.160326937189108"><ele>100.75</ele><time>2026-04-19T11:01:32.582Z</time></trkpt><trkpt lat="39.93085938446449" lon="18.160411129357804"><ele>101.5</ele><time>2026-04-19T11:01:33.582Z</time></trkpt><trkpt lat="39.93076398482464" lon="18.160523705073672"><ele>102.25</ele><time>2026-04-19T11:01:34.582Z</time></trkpt><trkpt lat="39.93063960202464" lon="18.160681502017766"><ele>103.0</ele><time>2026-04-19T11:01:35.582Z</time></trkpt><trkpt lat="39.9305116354055" lon="18.160824240449028"><ele>103.00000000000001</ele><time>2026-04-19T11:01:36.582Z</time></trkpt><trkpt lat="39.93041131327472" lon="18.16093096494639"><ele>103.0</ele><time>2026-04-19T11:01:37.582Z</time></trkpt><trkpt lat="39.93034802879465" lon="18.161018969611185"><ele>103.0</ele><time>2026-04-19T11:01:38.582Z</time></trkpt><trkpt lat="39.930295497588816" lon="18.161079753501202"><ele>103.0</ele><time>2026-04-19T11:01:39.582Z</time></trkpt><trkpt lat="39.93024363019595" lon="18.161127539522294"><ele>103.00000000000001</ele><time>2026-04-19T11:01:40.582Z</time></trkpt><trkpt lat="39.9301910939443" lon="18.16119073126291"><ele>103.0</ele><time>2026-04-19T11:01:44.582Z</time></trkpt><trkpt lat="39.93019668118263" lon="18.16128913804028"><ele>103.0</ele><time>2026-04-19T11:01:46.582Z</time></trkpt><trkpt lat="39.93023177569543" lon="18.161431704124922"><ele>103.0</ele><time>2026-04-19T11:01:48.582Z</time></trkpt><trkpt lat="39.93024571328394" lon="18.16153063888203"><ele>103.0</ele><time>2026-04-19T11:01:51.582Z</time></trkpt><trkpt lat="39.93018637963993" lon="18.161625638007877"><ele>103.0</ele><time>2026-04-19T11:01:54.582Z</time></trkpt><trkpt lat="39.93004270175749" lon="18.161728438054695"><ele>102.80000000000001</ele><time>2026-04-19T11:01:56.582Z</time></trkpt><trkpt lat="39.92995360580898" lon="18.161836830372483"><ele>102.6</ele><time>2026-04-19T11:01:57.582Z</time></trkpt><trkpt lat="39.929879628220895" lon="18.161901457536526"><ele>102.4</ele><time>2026-04-19T11:01:58.582Z</time></trkpt><trkpt lat="39.9297989545929" lon="18.162002850151797"><ele>102.19999999999999</ele><time>2026-04-19T11:02:00.582Z</time></trkpt><trkpt lat="39.929736123145524" lon="18.162066163405207"><ele>102.0</ele><time>2026-04-19T11:02:02.582Z</time></trkpt><trkpt lat="39.929686881365726" lon="18.162117992232798"><ele>102.0</ele><time>2026-04-19T11:02:07.582Z</time></trkpt><trkpt lat="39.92976895711187" lon="18.162114892834516"><ele>102.0</ele><time>2026-04-19T11:02:15.582Z</time></trkpt><trkpt lat="39.92983178809948" lon="18.16205968573282"><ele>102.0</ele><time>2026-04-19T11:02:17.582Z</time></trkpt><trkpt lat="39.929923887394736" lon="18.162019364784424"><ele>102.0</ele><time>2026-04-19T11:02:19.581Z</time></trkpt><trkpt lat="39.93003210034727" lon="18.1619748451789"><ele>102.0</ele><time>2026-04-19T11:02:21.582Z</time></trkpt><trkpt lat="39.93015498607967" lon="18.16194074243555"><ele>100.6</ele><time>2026-04-19T11:02:23.581Z</time></trkpt><trkpt lat="39.93027551610599" lon="18.16189870799732"><ele>99.19999999999999</ele><time>2026-04-19T11:02:25.582Z</time></trkpt><trkpt lat="39.93037216272245" lon="18.161867889397982"><ele>97.8</ele><time>2026-04-19T11:02:27.581Z</time></trkpt><trkpt lat="39.93045029850075" lon="18.16188774269868"><ele>96.4</ele><time>2026-04-19T11:02:29.581Z</time></trkpt><trkpt lat="39.9304840021092" lon="18.16197490085982"><ele>95.0</ele><time>2026-04-19T11:02:31.581Z</time></trkpt><trkpt lat="39.93049594673576" lon="18.16207363856523"><ele>95.0</ele><time>2026-04-19T11:02:32.581Z</time></trkpt><trkpt lat="39.930508211718234" lon="18.1621897042902"><ele>95.0</ele><time>2026-04-19T11:02:33.581Z</time></trkpt><trkpt lat="39.93052998056005" lon="18.16231886466013"><ele>95.0</ele><time>2026-04-19T11:02:34.581Z</time></trkpt><trkpt lat="39.930543095429435" lon="18.162459203328538"><ele>95.0</ele><time>2026-04-19T11:02:35.581Z</time></trkpt><trkpt lat="39.930560124664034" lon="18.16263490586446"><ele>95.0</ele><time>2026-04-19T11:02:36.581Z</time></trkpt><trkpt lat="39.930582796772406" lon="18.16282314920678"><ele>93.66666666666667</ele><time>2026-04-19T11:02:37.581Z</time></trkpt><trkpt lat="39.93060384108582" lon="18.162980292378194"><ele>92.33333333333334</ele><time>2026-04-19T11:02:38.581Z</time></trkpt><trkpt lat="39.930628894447466" lon="18.16311087850127"><ele>91.0</ele><time>2026-04-19T11:02:39.581Z</time></trkpt><trkpt lat="39.930662504993805" lon="18.163196258400614"><ele>89.66666666666667</ele><time>2026-04-19T11:02:40.581Z</time></trkpt><trkpt lat="39.93069098347987" lon="18.163274543242114"><ele>88.33333333333333</ele><time>2026-04-19T11:02:41.581Z</time></trkpt><trkpt lat="39.930695275435724" lon="18.163379047480113"><ele>87.0</ele><time>2026-04-19T11:02:45.581Z</time></trkpt><trkpt lat="39.93075690314433" lon="18.163431125946694"><ele>86.6</ele><time>2026-04-19T11:02:48.581Z</time></trkpt><trkpt lat="39.93081513523741" lon="18.163381386576493"><ele>86.19999999999999</ele><time>2026-04-19T11:02:49.581Z</time></trkpt><trkpt lat="39.930893139687655" lon="18.163325785510885"><ele>85.8</ele><time>2026-04-19T11:02:50.581Z</time></trkpt><trkpt lat="39.93101202317887" lon="18.163267295040423"><ele>85.4</ele><time>2026-04-19T11:02:51.581Z</time></trkpt><trkpt lat="39.93115887074594" lon="18.163202854573942"><ele>85.0</ele><time>2026-04-19T11:02:52.581Z</time></trkpt><trkpt lat="39.93129079022" lon="18.163167168670086"><ele>84.6</ele><time>2026-04-19T11:02:53.581Z</time></trkpt><trkpt lat="39.93140600126219" lon="18.163166812945583"><ele>84.2</ele><time>2026-04-19T11:02:54.581Z</time></trkpt><trkpt lat="39.93150350778893" lon="18.16318364234875"><ele>83.80000000000001</ele><time>2026-04-19T11:02:55.581Z</time></trkpt><trkpt lat="39.93160148709995" lon="18.163223296925743"><ele>83.4</ele><time>2026-04-19T11:02:56.581Z</time></trkpt><trkpt lat="39.93169391488141" lon="18.163264828826982"><ele>83.0</ele><time>2026-04-19T11:02:57.581Z</time></trkpt><trkpt lat="39.93179470439939" lon="18.16331179539952"><ele>83.0</ele><time>2026-04-19T11:02:58.581Z</time></trkpt><trkpt lat="39.93190498390532" lon="18.163360238865046"><ele>83.0</ele><time>2026-04-19T11:02:59.581Z</time></trkpt><trkpt lat="39.93202538280428" lon="18.16340245006147"><ele>83.0</ele><time>2026-04-19T11:03:00.581Z</time></trkpt><trkpt lat="39.931829201839484" lon="18.1628702628692"><ele>83.0</ele><time>2026-04-19T11:03:01.581Z</time></trkpt><trkpt lat="39.931902235403776" lon="18.16283482763219"><ele>83.0</ele><time>2026-04-19T11:03:02.581Z</time></trkpt><trkpt lat="39.93197001220507" lon="18.162816527340294"><ele>83.0</ele><time>2026-04-19T11:03:03.581Z</time></trkpt><trkpt lat="39.93208306482404" lon="18.16277445034285"><ele>83.0</ele><time>2026-04-19T11:03:05.581Z</time></trkpt><trkpt lat="39.932193717907325" lon="18.162726197064103"><ele>83.0</ele><time>2026-04-19T11:03:07.581Z</time></trkpt><trkpt lat="39.93229375995532" lon="18.162674184835968"><ele>83.0</ele><time>2026-04-19T11:03:09.581Z</time></trkpt><trkpt lat="39.93237092585496" lon="18.16263955776812"><ele>83.0</ele><time>2026-04-19T11:03:10.581Z</time></trkpt><trkpt lat="39.93246520695509" lon="18.162596515026813"><ele>83.0</ele><time>2026-04-19T11:03:11.581Z</time></trkpt><trkpt lat="39.93259163393208" lon="18.162543304903657"><ele>83.0</ele><time>2026-04-19T11:03:12.581Z</time></trkpt><trkpt lat="39.93274131444786" lon="18.162483663851802"><ele>82.75</ele><time>2026-04-19T11:03:13.581Z</time></trkpt><trkpt lat="39.932899748852016" lon="18.16243458668354"><ele>82.5</ele><time>2026-04-19T11:03:14.581Z</time></trkpt><trkpt lat="39.93304120878342" lon="18.16239485354603"><ele>82.25</ele><time>2026-04-19T11:03:15.581Z</time></trkpt><trkpt lat="39.93317162550161" lon="18.162371396185055"><ele>82.0</ele><time>2026-04-19T11:03:16.581Z</time></trkpt><trkpt lat="39.93328113533954" lon="18.162338908488703"><ele>80.66666666666666</ele><time>2026-04-19T11:03:17.581Z</time></trkpt><trkpt lat="39.933412911192576" lon="18.162294973050646"><ele>79.33333333333333</ele><time>2026-04-19T11:03:18.581Z</time></trkpt><trkpt lat="39.93356461925719" lon="18.162245187537714"><ele>78.0</ele><time>2026-04-19T11:03:19.581Z</time></trkpt><trkpt lat="39.933738056503564" lon="18.162185468308884"><ele>78.0</ele><time>2026-04-19T11:03:20.581Z</time></trkpt><trkpt lat="39.933920674270034" lon="18.162112813066756"><ele>78.0</ele><time>2026-04-19T11:03:21.581Z</time></trkpt><trkpt lat="39.93409940525322" lon="18.162046267453803"><ele>78.0</ele><time>2026-04-19T11:03:22.581Z</time></trkpt><trkpt lat="39.93425130625014" lon="18.16198769214052"><ele>78.0</ele><time>2026-04-19T11:03:23.581Z</time></trkpt><trkpt lat="39.93438535494227" lon="18.161931540626387"><ele>78.0</ele><time>2026-04-19T11:03:24.581Z</time></trkpt><trkpt lat="39.934495444798706" lon="18.161887242854426"><ele>78.0</ele><time>2026-04-19T11:03:25.581Z</time></trkpt><trkpt lat="39.93460456143587" lon="18.161846012470065"><ele>78.0</ele><time>2026-04-19T11:03:26.581Z</time></trkpt><trkpt lat="39.93470398320667" lon="18.16182444796007"><ele>78.0</ele><time>2026-04-19T11:03:27.581Z</time></trkpt><trkpt lat="39.934813280607635" lon="18.161778135663624"><ele>78.0</ele><time>2026-04-19T11:03:28.581Z</time></trkpt><trkpt lat="39.93495212790815" lon="18.161736451312347"><ele>78.0</ele><time>2026-04-19T11:03:29.581Z</time></trkpt><trkpt lat="39.935114346259155" lon="18.161677540228858"><ele>78.0</ele><time>2026-04-19T11:03:30.581Z</time></trkpt><trkpt lat="39.935307143873246" lon="18.1616031879054"><ele>77.33333333333333</ele><time>2026-04-19T11:03:31.581Z</time></trkpt><trkpt lat="39.935500107231235" lon="18.161517307388447"><ele>76.66666666666666</ele><time>2026-04-19T11:03:32.581Z</time></trkpt><trkpt lat="39.93570363841081" lon="18.161438421357943"><ele>76.0</ele><time>2026-04-19T11:03:33.581Z</time></trkpt><trkpt lat="39.93589248198015" lon="18.161361019499317"><ele>76.0</ele><time>2026-04-19T11:03:34.581Z</time></trkpt><trkpt lat="39.93609149411079" lon="18.161280345553273"><ele>76.0</ele><time>2026-04-19T11:03:35.581Z</time></trkpt><trkpt lat="39.936285577077626" lon="18.16120570740186"><ele>76.0</ele><time>2026-04-19T11:03:36.581Z</time></trkpt><trkpt lat="39.93646771074612" lon="18.161129642915448"><ele>76.0</ele><time>2026-04-19T11:03:37.581Z</time></trkpt><trkpt lat="39.93663642521319" lon="18.16106479085971"><ele>76.0</ele><time>2026-04-19T11:03:38.581Z</time></trkpt><trkpt lat="39.93680901640621" lon="18.160999013614443"><ele>76.0</ele><time>2026-04-19T11:03:39.581Z</time></trkpt><trkpt lat="39.93699146860752" lon="18.160932879971277"><ele>75.0</ele><time>2026-04-19T11:03:40.581Z</time></trkpt><trkpt lat="39.93717692926147" lon="18.160861556891835"><ele>74.0</ele><time>2026-04-19T11:03:41.581Z</time></trkpt><trkpt lat="39.93736407774532" lon="18.160788799366607"><ele>73.0</ele><time>2026-04-19T11:03:42.581Z</time></trkpt><trkpt lat="39.93755014448256" lon="18.160719139474303"><ele>73.0</ele><time>2026-04-19T11:03:43.581Z</time></trkpt><trkpt lat="39.93774173397199" lon="18.160647984826614"><ele>73.0</ele><time>2026-04-19T11:03:44.581Z</time></trkpt><trkpt lat="39.937933202633744" lon="18.160574878719828"><ele>73.0</ele><time>2026-04-19T11:03:45.581Z</time></trkpt><trkpt lat="39.9381265912413" lon="18.160499687851832"><ele>73.0</ele><time>2026-04-19T11:03:46.581Z</time></trkpt><trkpt lat="39.93832894553322" lon="18.160420870489666"><ele>73.0</ele><time>2026-04-19T11:03:47.581Z</time></trkpt><trkpt lat="39.93853551459494" lon="18.160345694171188"><ele>73.0</ele><time>2026-04-19T11:03:48.581Z</time></trkpt><trkpt lat="39.93874410797992" lon="18.16027253343846"><ele>72.0</ele><time>2026-04-19T11:03:49.581Z</time></trkpt><trkpt lat="39.93895413349747" lon="18.16020747931074"><ele>71.0</ele><time>2026-04-19T11:03:50.581Z</time></trkpt><trkpt lat="39.93916088614142" lon="18.16016246646885"><ele>70.0</ele><time>2026-04-19T11:03:51.581Z</time></trkpt><trkpt lat="39.93937142001237" lon="18.160137835435343"><ele>69.33333333333333</ele><time>2026-04-19T11:03:52.581Z</time></trkpt><trkpt lat="39.939583461473376" lon="18.160135517536684"><ele>68.66666666666667</ele><time>2026-04-19T11:03:53.581Z</time></trkpt><trkpt lat="39.93981233001279" lon="18.160156094658863"><ele>68.0</ele><time>2026-04-19T11:03:54.581Z</time></trkpt><trkpt lat="39.94004622015306" lon="18.160181262719224"><ele>68.0</ele><time>2026-04-19T11:03:55.581Z</time></trkpt><trkpt lat="39.94029508094476" lon="18.16020624314644"><ele>68.0</ele><time>2026-04-19T11:03:56.581Z</time></trkpt><trkpt lat="39.940542010602364" lon="18.160225369271643"><ele>68.0</ele><time>2026-04-19T11:03:57.581Z</time></trkpt><trkpt lat="39.94079481252732" lon="18.160250574359804"><ele>68.0</ele><time>2026-04-19T11:03:58.581Z</time></trkpt><trkpt lat="39.94104900325663" lon="18.160275694923826"><ele>69.0</ele><time>2026-04-19T11:03:59.581Z</time></trkpt><trkpt lat="39.94130454075836" lon="18.1602995685069"><ele>70.0</ele><time>2026-04-19T11:04:00.581Z</time></trkpt><trkpt lat="39.94155762509781" lon="18.160322142582643"><ele>69.0</ele><time>2026-04-19T11:04:01.581Z</time></trkpt><trkpt lat="39.941809288956215" lon="18.16034664583951"><ele>68.0</ele><time>2026-04-19T11:04:02.581Z</time></trkpt><trkpt lat="39.94206231328588" lon="18.160366213191672"><ele>68.0</ele><time>2026-04-19T11:04:03.581Z</time></trkpt><trkpt lat="39.94231176267128" lon="18.16038203796828"><ele>68.0</ele><time>2026-04-19T11:04:04.581Z</time></trkpt><trkpt lat="39.942558509860284" lon="18.160385595970624"><ele>68.5</ele><time>2026-04-19T11:04:05.581Z</time></trkpt><trkpt lat="39.9428025286587" lon="18.160387900793197"><ele>69.0</ele><time>2026-04-19T11:04:06.581Z</time></trkpt><trkpt lat="39.94304998619222" lon="18.160375728953447"><ele>69.0</ele><time>2026-04-19T11:04:07.581Z</time></trkpt><trkpt lat="39.943294042442204" lon="18.160360836635576"><ele>69.0</ele><time>2026-04-19T11:04:08.581Z</time></trkpt><trkpt lat="39.943543393697425" lon="18.160345330763082"><ele>69.5</ele><time>2026-04-19T11:04:09.581Z</time></trkpt><trkpt lat="39.94378909365745" lon="18.160335248302726"><ele>70.0</ele><time>2026-04-19T11:04:10.581Z</time></trkpt><trkpt lat="39.9440314733204" lon="18.160328035894562"><ele>69.0</ele><time>2026-04-19T11:04:11.581Z</time></trkpt><trkpt lat="39.94426783013455" lon="18.160319172545595"><ele>68.0</ele><time>2026-04-19T11:04:12.581Z</time></trkpt><trkpt lat="39.944503388280616" lon="18.160314770963552"><ele>68.0</ele><time>2026-04-19T11:04:13.581Z</time></trkpt><trkpt lat="39.94473578153521" lon="18.16032280829812"><ele>68.0</ele><time>2026-04-19T11:04:14.581Z</time></trkpt><trkpt lat="39.94496639648288" lon="18.16035803780108"><ele>67.5</ele><time>2026-04-19T11:04:15.581Z</time></trkpt><trkpt lat="39.945198135281714" lon="18.160420961993538"><ele>67.0</ele><time>2026-04-19T11:04:16.581Z</time></trkpt><trkpt lat="39.94543067966462" lon="18.16049449607548"><ele>67.0</ele><time>2026-04-19T11:04:17.581Z</time></trkpt><trkpt lat="39.945656356142294" lon="18.160575164936006"><ele>67.0</ele><time>2026-04-19T11:04:18.581Z</time></trkpt><trkpt lat="39.94588528108718" lon="18.16064814565614"><ele>68.5</ele><time>2026-04-19T11:04:19.581Z</time></trkpt><trkpt lat="39.94611593887069" lon="18.16071855472389"><ele>70.0</ele><time>2026-04-19T11:04:20.581Z</time></trkpt><trkpt lat="39.94635151821521" lon="18.160784278716083"><ele>70.0</ele><time>2026-04-19T11:04:21.581Z</time></trkpt><trkpt lat="39.946582376434094" lon="18.16084918195228"><ele>70.0</ele><time>2026-04-19T11:04:22.581Z</time></trkpt><trkpt lat="39.9468135172735" lon="18.16091635305628"><ele>69.0</ele><time>2026-04-19T11:04:23.581Z</time></trkpt><trkpt lat="39.947047127901556" lon="18.16098011614699"><ele>68.0</ele><time>2026-04-19T11:04:24.581Z</time></trkpt><trkpt lat="39.94728839809987" lon="18.16103669652301"><ele>68.0</ele><time>2026-04-19T11:04:25.58Z</time></trkpt><trkpt lat="39.947528511075085" lon="18.161086816956903"><ele>68.0</ele><time>2026-04-19T11:04:26.58Z</time></trkpt><trkpt lat="39.947772514805116" lon="18.16111729513357"><ele>68.0</ele><time>2026-04-19T11:04:27.58Z</time></trkpt><trkpt lat="39.94801723649164" lon="18.161141904935747"><ele>68.0</ele><time>2026-04-19T11:04:28.58Z</time></trkpt><trkpt lat="39.948263817750416" lon="18.161149718714025"><ele>68.5</ele><time>2026-04-19T11:04:29.58Z</time></trkpt><trkpt lat="39.948515598382116" lon="18.16115255870758"><ele>69.0</ele><time>2026-04-19T11:04:30.58Z</time></trkpt><trkpt lat="39.94876281081535" lon="18.161138955014735"><ele>69.0</ele><time>2026-04-19T11:04:31.58Z</time></trkpt><trkpt lat="39.9490102275406" lon="18.16111813989049"><ele>69.0</ele><time>2026-04-19T11:04:32.58Z</time></trkpt><trkpt lat="39.94925653849805" lon="18.161084719816916"><ele>68.5</ele><time>2026-04-19T11:04:33.58Z</time></trkpt><trkpt lat="39.94950482775002" lon="18.16104124035433"><ele>68.0</ele><time>2026-04-19T11:04:34.58Z</time></trkpt><trkpt lat="39.94975269554326" lon="18.160977767943468"><ele>68.0</ele><time>2026-04-19T11:04:35.58Z</time></trkpt><trkpt lat="39.95000002722928" lon="18.160902761310354"><ele>68.0</ele><time>2026-04-19T11:04:36.58Z</time></trkpt><trkpt lat="39.95024789445283" lon="18.160810084852407"><ele>68.0</ele><time>2026-04-19T11:04:37.58Z</time></trkpt><trkpt lat="39.950490339852934" lon="18.16070451447136"><ele>68.0</ele><time>2026-04-19T11:04:38.58Z</time></trkpt><trkpt lat="39.950727638398526" lon="18.16060400568177"><ele>67.5</ele><time>2026-04-19T11:04:39.58Z</time></trkpt><trkpt lat="39.95096808592099" lon="18.16049880512394"><ele>67.0</ele><time>2026-04-19T11:04:40.58Z</time></trkpt><trkpt lat="39.95120405977608" lon="18.16039651483212"><ele>67.0</ele><time>2026-04-19T11:04:41.58Z</time></trkpt><trkpt lat="39.95144014096275" lon="18.16030161740354"><ele>67.0</ele><time>2026-04-19T11:04:42.58Z</time></trkpt><trkpt lat="39.951677642705334" lon="18.160201151459507"><ele>67.0</ele><time>2026-04-19T11:04:43.58Z</time></trkpt><trkpt lat="39.951912515042835" lon="18.160103822364537"><ele>67.0</ele><time>2026-04-19T11:04:44.58Z</time></trkpt><trkpt lat="39.952148287912365" lon="18.160007068883782"><ele>67.0</ele><time>2026-04-19T11:04:45.58Z</time></trkpt><trkpt lat="39.952380078578905" lon="18.15990598844306"><ele>67.0</ele><time>2026-04-19T11:04:46.58Z</time></trkpt><trkpt lat="39.95261091664626" lon="18.159803395897907"><ele>65.0</ele><time>2026-04-19T11:04:47.58Z</time></trkpt><trkpt lat="39.95284830315283" lon="18.159694998704627"><ele>63.0</ele><time>2026-04-19T11:04:48.58Z</time></trkpt><trkpt lat="39.953078751137625" lon="18.159598577220326"><ele>63.0</ele><time>2026-04-19T11:04:49.58Z</time></trkpt><trkpt lat="39.95331414357556" lon="18.159504194552333"><ele>63.0</ele><time>2026-04-19T11:04:50.58Z</time></trkpt><trkpt lat="39.953549880956274" lon="18.15941243203859"><ele>62.5</ele><time>2026-04-19T11:04:51.58Z</time></trkpt><trkpt lat="39.953776641009775" lon="18.15931865080585"><ele>62.0</ele><time>2026-04-19T11:04:52.58Z</time></trkpt><trkpt lat="39.95400726502571" lon="18.159216528173218"><ele>61.5</ele><time>2026-04-19T11:04:53.58Z</time></trkpt><trkpt lat="39.954236283556796" lon="18.159119855931362"><ele>61.0</ele><time>2026-04-19T11:04:54.58Z</time></trkpt><trkpt lat="39.95446329583623" lon="18.159027981831294"><ele>60.5</ele><time>2026-04-19T11:04:55.58Z</time></trkpt><trkpt lat="39.954697366116676" lon="18.15893357084781"><ele>60.0</ele><time>2026-04-19T11:04:56.58Z</time></trkpt><trkpt lat="39.954932750088815" lon="18.15883965452946"><ele>60.5</ele><time>2026-04-19T11:04:57.58Z</time></trkpt><trkpt lat="39.95516136213073" lon="18.158748200905173"><ele>61.0</ele><time>2026-04-19T11:04:58.58Z</time></trkpt><trkpt lat="39.95539769132594" lon="18.15865556730099"><ele>61.0</ele><time>2026-04-19T11:04:59.58Z</time></trkpt><trkpt lat="39.95563351315532" lon="18.1585605915365"><ele>61.0</ele><time>2026-04-19T11:05:00.58Z</time></trkpt><trkpt lat="39.9558642945661" lon="18.158466976418033"><ele>60.5</ele><time>2026-04-19T11:05:01.58Z</time></trkpt><trkpt lat="39.95609303708172" lon="18.158373709559257"><ele>60.0</ele><time>2026-04-19T11:05:02.58Z</time></trkpt><trkpt lat="39.95632456533528" lon="18.158283550158508"><ele>59.5</ele><time>2026-04-19T11:05:03.58Z</time></trkpt><trkpt lat="39.95655176700159" lon="18.15819088973665"><ele>59.0</ele><time>2026-04-19T11:05:04.58Z</time></trkpt><trkpt lat="39.95677744160144" lon="18.158100179183904"><ele>59.0</ele><time>2026-04-19T11:05:05.58Z</time></trkpt><trkpt lat="39.95699088182566" lon="18.158016218641283"><ele>59.0</ele><time>2026-04-19T11:05:06.58Z</time></trkpt><trkpt lat="39.95718426972412" lon="18.1579343523239"><ele>59.0</ele><time>2026-04-19T11:05:07.58Z</time></trkpt><trkpt lat="39.95737112752834" lon="18.157849825485826"><ele>59.0</ele><time>2026-04-19T11:05:08.58Z</time></trkpt><trkpt lat="39.95755370808937" lon="18.157767353916125"><ele>59.0</ele><time>2026-04-19T11:05:09.58Z</time></trkpt><trkpt lat="39.95772932276635" lon="18.15770517803061"><ele>59.0</ele><time>2026-04-19T11:05:10.58Z</time></trkpt><trkpt lat="39.95790201862415" lon="18.157645553561565"><ele>59.0</ele><time>2026-04-19T11:05:11.58Z</time></trkpt><trkpt lat="39.95807659440095" lon="18.157583485109253"><ele>59.0</ele><time>2026-04-19T11:05:12.58Z</time></trkpt><trkpt lat="39.95823808304745" lon="18.157528242419126"><ele>59.0</ele><time>2026-04-19T11:05:13.58Z</time></trkpt><trkpt lat="39.95840161088556" lon="18.157486578985225"><ele>59.333333333333336</ele><time>2026-04-19T11:05:14.58Z</time></trkpt><trkpt lat="39.958564653315065" lon="18.157462566061092"><ele>59.66666666666667</ele><time>2026-04-19T11:05:15.58Z</time></trkpt><trkpt lat="39.95873584387156" lon="18.157460595177923"><ele>60.0</ele><time>2026-04-19T11:05:16.58Z</time></trkpt><trkpt lat="39.95891032527244" lon="18.157477220549573"><ele>60.0</ele><time>2026-04-19T11:05:17.58Z</time></trkpt><trkpt lat="39.95909190990488" lon="18.15750277059901"><ele>60.0</ele><time>2026-04-19T11:05:18.58Z</time></trkpt><trkpt lat="39.959285779298845" lon="18.157534290856542"><ele>60.0</ele><time>2026-04-19T11:05:19.58Z</time></trkpt><trkpt lat="39.959493768202755" lon="18.157566843009757"><ele>60.0</ele><time>2026-04-19T11:05:20.58Z</time></trkpt><trkpt lat="39.9597036677016" lon="18.157599477561394"><ele>60.0</ele><time>2026-04-19T11:05:21.58Z</time></trkpt><trkpt lat="39.95992227322073" lon="18.157619213395545"><ele>60.0</ele><time>2026-04-19T11:05:22.58Z</time></trkpt><trkpt lat="39.96014971179869" lon="18.15763371896979"><ele>59.5</ele><time>2026-04-19T11:05:23.58Z</time></trkpt><trkpt lat="39.960387153429906" lon="18.157658416221985"><ele>59.0</ele><time>2026-04-19T11:05:24.58Z</time></trkpt><trkpt lat="39.96063136721943" lon="18.15767424744431"><ele>59.0</ele><time>2026-04-19T11:05:25.58Z</time></trkpt><trkpt lat="39.960881786062934" lon="18.157699276125992"><ele>59.0</ele><time>2026-04-19T11:05:26.58Z</time></trkpt><trkpt lat="39.96113591946879" lon="18.157740695761703"><ele>59.0</ele><time>2026-04-19T11:05:27.58Z</time></trkpt><trkpt lat="39.961395371504" lon="18.157770484125752"><ele>59.0</ele><time>2026-04-19T11:05:28.58Z</time></trkpt><trkpt lat="39.961656056550815" lon="18.157812446382508"><ele>59.0</ele><time>2026-04-19T11:05:29.58Z</time></trkpt><trkpt lat="39.961917276698635" lon="18.157855180718247"><ele>59.0</ele><time>2026-04-19T11:05:30.58Z</time></trkpt><trkpt lat="39.962177479005284" lon="18.15789824592749"><ele>59.0</ele><time>2026-04-19T11:05:31.58Z</time></trkpt><trkpt lat="39.96244198348026" lon="18.157938847336542"><ele>59.0</ele><time>2026-04-19T11:05:32.58Z</time></trkpt><trkpt lat="39.96270689243376" lon="18.157973012882092"><ele>58.5</ele><time>2026-04-19T11:05:33.58Z</time></trkpt><trkpt lat="39.9629731344773" lon="18.158003980448623"><ele>58.0</ele><time>2026-04-19T11:05:34.58Z</time></trkpt><trkpt lat="39.96323729856092" lon="18.15804131369519"><ele>58.0</ele><time>2026-04-19T11:05:35.58Z</time></trkpt><trkpt lat="39.963501830540764" lon="18.158077300270875"><ele>58.0</ele><time>2026-04-19T11:05:36.58Z</time></trkpt><trkpt lat="39.96376863799855" lon="18.158114856720022"><ele>58.0</ele><time>2026-04-19T11:05:37.58Z</time></trkpt><trkpt lat="39.964028933115415" lon="18.158150315069832"><ele>58.0</ele><time>2026-04-19T11:05:38.58Z</time></trkpt><trkpt lat="39.96429201142012" lon="18.158184879845912"><ele>58.0</ele><time>2026-04-19T11:05:39.58Z</time></trkpt><trkpt lat="39.96455497623551" lon="18.15822073602601"><ele>58.0</ele><time>2026-04-19T11:05:40.58Z</time></trkpt><trkpt lat="39.964814618101364" lon="18.15825583097551"><ele>58.0</ele><time>2026-04-19T11:05:41.58Z</time></trkpt><trkpt lat="39.96508011791852" lon="18.158285805358425"><ele>58.0</ele><time>2026-04-19T11:05:42.58Z</time></trkpt><trkpt lat="39.96534307439706" lon="18.158320173379114"><ele>58.0</ele><time>2026-04-19T11:05:43.58Z</time></trkpt><trkpt lat="39.96560437532356" lon="18.15835342496658"><ele>58.0</ele><time>2026-04-19T11:05:44.58Z</time></trkpt><trkpt lat="39.96586810296046" lon="18.158384423632512"><ele>57.0</ele><time>2026-04-19T11:05:45.58Z</time></trkpt><trkpt lat="39.966132497575934" lon="18.158420368509425"><ele>56.0</ele><time>2026-04-19T11:05:46.58Z</time></trkpt><trkpt lat="39.966399540863776" lon="18.158456531232957"><ele>56.0</ele><time>2026-04-19T11:05:47.58Z</time></trkpt><trkpt lat="39.9666627577858" lon="18.158496030348818"><ele>56.0</ele><time>2026-04-19T11:05:48.58Z</time></trkpt><trkpt lat="39.966923994164716" lon="18.15852804752754"><ele>56.0</ele><time>2026-04-19T11:05:49.58Z</time></trkpt><trkpt lat="39.96718232039207" lon="18.158562028342445"><ele>56.0</ele><time>2026-04-19T11:05:50.58Z</time></trkpt><trkpt lat="39.96743623285022" lon="18.158590252520344"><ele>55.0</ele><time>2026-04-19T11:05:51.58Z</time></trkpt><trkpt lat="39.96769285132995" lon="18.15862266483318"><ele>54.0</ele><time>2026-04-19T11:05:52.58Z</time></trkpt><trkpt lat="39.96794595449344" lon="18.158656841062616"><ele>54.0</ele><time>2026-04-19T11:05:53.58Z</time></trkpt><trkpt lat="39.96820608303262" lon="18.158693473165872"><ele>54.0</ele><time>2026-04-19T11:05:54.58Z</time></trkpt><trkpt lat="39.96846835152204" lon="18.158729230575027"><ele>53.5</ele><time>2026-04-19T11:05:55.58Z</time></trkpt><trkpt lat="39.9687314793855" lon="18.15876711400132"><ele>53.0</ele><time>2026-04-19T11:05:56.58Z</time></trkpt><trkpt lat="39.96899660175873" lon="18.158801074739156"><ele>53.0</ele><time>2026-04-19T11:05:57.58Z</time></trkpt><trkpt lat="39.96925973149883" lon="18.15883300104476"><ele>53.0</ele><time>2026-04-19T11:05:58.58Z</time></trkpt><trkpt lat="39.96951758760648" lon="18.158865067492492"><ele>53.0</ele><time>2026-04-19T11:05:59.58Z</time></trkpt><trkpt lat="39.969773982110965" lon="18.15889643300874"><ele>53.0</ele><time>2026-04-19T11:06:00.58Z</time></trkpt><trkpt lat="39.9700275804609" lon="18.15893135831969"><ele>53.0</ele><time>2026-04-19T11:06:01.58Z</time></trkpt><trkpt lat="39.97028254432739" lon="18.158962836759983"><ele>53.0</ele><time>2026-04-19T11:06:02.58Z</time></trkpt><trkpt lat="39.97054010890526" lon="18.158994056049167"><ele>53.0</ele><time>2026-04-19T11:06:03.58Z</time></trkpt><trkpt lat="39.97079408493624" lon="18.159032511581117"><ele>53.0</ele><time>2026-04-19T11:06:04.58Z</time></trkpt><trkpt lat="39.97104615811804" lon="18.159068147787025"><ele>53.0</ele><time>2026-04-19T11:06:05.58Z</time></trkpt><trkpt lat="39.97129395584695" lon="18.15910036285879"><ele>53.0</ele><time>2026-04-19T11:06:06.58Z</time></trkpt><trkpt lat="39.97153890990067" lon="18.15913420103362"><ele>53.5</ele><time>2026-04-19T11:06:07.58Z</time></trkpt><trkpt lat="39.971781370124575" lon="18.15916512719069"><ele>54.0</ele><time>2026-04-19T11:06:08.58Z</time></trkpt><trkpt lat="39.972024627005" lon="18.159199297208865"><ele>54.0</ele><time>2026-04-19T11:06:09.58Z</time></trkpt><trkpt lat="39.97226303539263" lon="18.15923337883883"><ele>54.0</ele><time>2026-04-19T11:06:10.58Z</time></trkpt><trkpt lat="39.972500416341546" lon="18.159260125032215"><ele>53.5</ele><time>2026-04-19T11:06:11.58Z</time></trkpt><trkpt lat="39.97273779410631" lon="18.159295872862998"><ele>53.0</ele><time>2026-04-19T11:06:12.58Z</time></trkpt><trkpt lat="39.972978454540794" lon="18.15932945552949"><ele>53.0</ele><time>2026-04-19T11:06:13.58Z</time></trkpt><trkpt lat="39.97322425388313" lon="18.159363043801942"><ele>53.0</ele><time>2026-04-19T11:06:14.58Z</time></trkpt><trkpt lat="39.97346875185556" lon="18.159398408714676"><ele>53.0</ele><time>2026-04-19T11:06:15.58Z</time></trkpt><trkpt lat="39.97371423380372" lon="18.15943399688221"><ele>53.0</ele><time>2026-04-19T11:06:16.58Z</time></trkpt><trkpt lat="39.973959656492504" lon="18.159467223459785"><ele>53.0</ele><time>2026-04-19T11:06:17.58Z</time></trkpt><trkpt lat="39.974203796694226" lon="18.159496696794665"><ele>53.0</ele><time>2026-04-19T11:06:18.58Z</time></trkpt><trkpt lat="39.9744479694323" lon="18.15952931350215"><ele>53.0</ele><time>2026-04-19T11:06:19.58Z</time></trkpt><trkpt lat="39.97469614841264" lon="18.159558519182703"><ele>53.0</ele><time>2026-04-19T11:06:20.58Z</time></trkpt><trkpt lat="39.974940688294076" lon="18.15958947668907"><ele>53.0</ele><time>2026-04-19T11:06:21.58Z</time></trkpt><trkpt lat="39.975186453662886" lon="18.1596281502115"><ele>53.0</ele><time>2026-04-19T11:06:22.58Z</time></trkpt><trkpt lat="39.975430221034244" lon="18.15966389853128"><ele>53.0</ele><time>2026-04-19T11:06:23.58Z</time></trkpt><trkpt lat="39.975677212337224" lon="18.159689444606254"><ele>53.0</ele><time>2026-04-19T11:06:24.58Z</time></trkpt><trkpt lat="39.975918622903805" lon="18.159720973298466"><ele>53.5</ele><time>2026-04-19T11:06:25.58Z</time></trkpt><trkpt lat="39.976160158381035" lon="18.159747532471155"><ele>54.0</ele><time>2026-04-19T11:06:26.58Z</time></trkpt><trkpt lat="39.97640454254425" lon="18.1597751205489"><ele>54.0</ele><time>2026-04-19T11:06:27.58Z</time></trkpt><trkpt lat="39.97664068427461" lon="18.159804614500963"><ele>54.0</ele><time>2026-04-19T11:06:28.58Z</time></trkpt><trkpt lat="39.97688012884542" lon="18.159841342931635"><ele>54.5</ele><time>2026-04-19T11:06:29.58Z</time></trkpt><trkpt lat="39.97711365788939" lon="18.159869267774173"><ele>55.0</ele><time>2026-04-19T11:06:30.58Z</time></trkpt><trkpt lat="39.97735259228999" lon="18.159896914645014"><ele>55.5</ele><time>2026-04-19T11:06:31.579Z</time></trkpt><trkpt lat="39.97758396596882" lon="18.15992700366099"><ele>56.0</ele><time>2026-04-19T11:06:32.579Z</time></trkpt><trkpt lat="39.977817167359134" lon="18.15996081437461"><ele>56.0</ele><time>2026-04-19T11:06:33.579Z</time></trkpt><trkpt lat="39.97804911081448" lon="18.159985900247317"><ele>56.0</ele><time>2026-04-19T11:06:34.579Z</time></trkpt><trkpt lat="39.97828455197599" lon="18.1600154191391"><ele>56.0</ele><time>2026-04-19T11:06:35.579Z</time></trkpt><trkpt lat="39.978520979589476" lon="18.160048787013093"><ele>56.0</ele><time>2026-04-19T11:06:36.579Z</time></trkpt><trkpt lat="39.978757736035526" lon="18.160080159111427"><ele>56.0</ele><time>2026-04-19T11:06:37.579Z</time></trkpt><trkpt lat="39.978995623584844" lon="18.16010879509871"><ele>56.0</ele><time>2026-04-19T11:06:38.578Z</time></trkpt><trkpt lat="39.979233305484215" lon="18.16013914462605"><ele>55.0</ele><time>2026-04-19T11:06:39.578Z</time></trkpt><trkpt lat="39.979468789962496" lon="18.16016702427764"><ele>54.0</ele><time>2026-04-19T11:06:40.578Z</time></trkpt><trkpt lat="39.979704130027955" lon="18.160197844657294"><ele>54.0</ele><time>2026-04-19T11:06:41.579Z</time></trkpt><trkpt lat="39.97994060952302" lon="18.16023067373908"><ele>54.0</ele><time>2026-04-19T11:06:42.579Z</time></trkpt><trkpt lat="39.98017514745093" lon="18.160258101425914"><ele>55.0</ele><time>2026-04-19T11:06:43.579Z</time></trkpt><trkpt lat="39.98040882667958" lon="18.160286893146353"><ele>56.0</ele><time>2026-04-19T11:06:44.579Z</time></trkpt><trkpt lat="39.980642598108204" lon="18.160318139606858"><ele>56.5</ele><time>2026-04-19T11:06:45.579Z</time></trkpt><trkpt lat="39.98087597485636" lon="18.160352849510698"><ele>57.0</ele><time>2026-04-19T11:06:46.579Z</time></trkpt><trkpt lat="39.981108144787335" lon="18.160384403368383"><ele>57.0</ele><time>2026-04-19T11:06:47.579Z</time></trkpt><trkpt lat="39.9813373937734" lon="18.160413464416035"><ele>57.0</ele><time>2026-04-19T11:06:48.579Z</time></trkpt><trkpt lat="39.9815685514965" lon="18.160441290694216"><ele>56.5</ele><time>2026-04-19T11:06:49.579Z</time></trkpt><trkpt lat="39.98180056002994" lon="18.160468026552135"><ele>56.0</ele><time>2026-04-19T11:06:50.579Z</time></trkpt><trkpt lat="39.9820342249546" lon="18.160492108647723"><ele>56.0</ele><time>2026-04-19T11:06:51.579Z</time></trkpt><trkpt lat="39.98226630685171" lon="18.16052243372445"><ele>56.0</ele><time>2026-04-19T11:06:52.579Z</time></trkpt><trkpt lat="39.98249562564068" lon="18.16055541664227"><ele>56.0</ele><time>2026-04-19T11:06:53.579Z</time></trkpt><trkpt lat="39.98272417561729" lon="18.160584099779495"><ele>56.0</ele><time>2026-04-19T11:06:54.579Z</time></trkpt><trkpt lat="39.982951494658906" lon="18.160615316279447"><ele>56.0</ele><time>2026-04-19T11:06:55.579Z</time></trkpt><trkpt lat="39.983185305612345" lon="18.160646690660368"><ele>56.0</ele><time>2026-04-19T11:06:56.579Z</time></trkpt><trkpt lat="39.98342142630705" lon="18.16067876464267"><ele>56.0</ele><time>2026-04-19T11:06:57.579Z</time></trkpt><trkpt lat="39.983654704630595" lon="18.160707578059327"><ele>56.0</ele><time>2026-04-19T11:06:58.579Z</time></trkpt><trkpt lat="39.98388555376509" lon="18.160734580068503"><ele>56.0</ele><time>2026-04-19T11:06:59.579Z</time></trkpt><trkpt lat="39.98412316792675" lon="18.16076234364011"><ele>56.0</ele><time>2026-04-19T11:07:00.579Z</time></trkpt><trkpt lat="39.98435761259065" lon="18.16079182350673"><ele>56.5</ele><time>2026-04-19T11:07:01.579Z</time></trkpt><trkpt lat="39.984588777563474" lon="18.160815951720537"><ele>57.0</ele><time>2026-04-19T11:07:02.579Z</time></trkpt><trkpt lat="39.984821478708994" lon="18.160845094114382"><ele>57.0</ele><time>2026-04-19T11:07:03.579Z</time></trkpt><trkpt lat="39.985054577304595" lon="18.16088107643564"><ele>57.0</ele><time>2026-04-19T11:07:04.579Z</time></trkpt><trkpt lat="39.985282523342725" lon="18.160930163658623"><ele>57.0</ele><time>2026-04-19T11:07:05.579Z</time></trkpt><trkpt lat="39.985509346335014" lon="18.160990252034765"><ele>57.0</ele><time>2026-04-19T11:07:06.579Z</time></trkpt><trkpt lat="39.985738097832986" lon="18.16105119959647"><ele>57.0</ele><time>2026-04-19T11:07:07.579Z</time></trkpt><trkpt lat="39.985968824870326" lon="18.161102150317237"><ele>57.0</ele><time>2026-04-19T11:07:08.579Z</time></trkpt><trkpt lat="39.98619862719334" lon="18.161147663307258"><ele>57.0</ele><time>2026-04-19T11:07:09.579Z</time></trkpt><trkpt lat="39.98643408518498" lon="18.16117164077447"><ele>57.0</ele><time>2026-04-19T11:07:10.579Z</time></trkpt><trkpt lat="39.98667214021016" lon="18.161178023038"><ele>57.0</ele><time>2026-04-19T11:07:11.579Z</time></trkpt><trkpt lat="39.98690316086687" lon="18.161182889503653"><ele>57.0</ele><time>2026-04-19T11:07:12.579Z</time></trkpt><trkpt lat="39.98713627567761" lon="18.161189608879443"><ele>57.0</ele><time>2026-04-19T11:07:13.579Z</time></trkpt><trkpt lat="39.98736551627393" lon="18.16120920774214"><ele>57.0</ele><time>2026-04-19T11:07:14.579Z</time></trkpt><trkpt lat="39.987595427747856" lon="18.16122951247911"><ele>57.0</ele><time>2026-04-19T11:07:15.579Z</time></trkpt><trkpt lat="39.98782875925374" lon="18.161252212405376"><ele>57.0</ele><time>2026-04-19T11:07:16.579Z</time></trkpt><trkpt lat="39.98805994619305" lon="18.161281539882925"><ele>57.0</ele><time>2026-04-19T11:07:17.579Z</time></trkpt><trkpt lat="39.98828886030164" lon="18.161313830676743"><ele>57.0</ele><time>2026-04-19T11:07:18.579Z</time></trkpt><trkpt lat="39.988516868446055" lon="18.161350245907403"><ele>57.5</ele><time>2026-04-19T11:07:19.579Z</time></trkpt><trkpt lat="39.98874921749611" lon="18.161383698134728"><ele>58.0</ele><time>2026-04-19T11:07:20.579Z</time></trkpt><trkpt lat="39.98898296409117" lon="18.161405204325067"><ele>58.5</ele><time>2026-04-19T11:07:21.579Z</time></trkpt><trkpt lat="39.98921385673827" lon="18.161424338627025"><ele>59.0</ele><time>2026-04-19T11:07:22.579Z</time></trkpt><trkpt lat="39.98944228357153" lon="18.16143672766733"><ele>59.0</ele><time>2026-04-19T11:07:23.579Z</time></trkpt><trkpt lat="39.98967315374904" lon="18.161448528057655"><ele>59.0</ele><time>2026-04-19T11:07:24.579Z</time></trkpt><trkpt lat="39.98990586223631" lon="18.16146489847327"><ele>59.5</ele><time>2026-04-19T11:07:25.579Z</time></trkpt><trkpt lat="39.990135350709295" lon="18.161476048298425"><ele>60.0</ele><time>2026-04-19T11:07:26.579Z</time></trkpt><trkpt lat="39.990360846906185" lon="18.16148778317854"><ele>60.0</ele><time>2026-04-19T11:07:27.579Z</time></trkpt><trkpt lat="39.99058748452344" lon="18.161489622616465"><ele>60.0</ele><time>2026-04-19T11:07:28.579Z</time></trkpt><trkpt lat="39.990814090992565" lon="18.161481124449786"><ele>60.5</ele><time>2026-04-19T11:07:29.579Z</time></trkpt><trkpt lat="39.99104578532406" lon="18.161460724085124"><ele>61.0</ele><time>2026-04-19T11:07:30.579Z</time></trkpt><trkpt lat="39.9912792983681" lon="18.161438189349674"><ele>61.0</ele><time>2026-04-19T11:07:31.579Z</time></trkpt><trkpt lat="39.99151075013202" lon="18.16141996396953"><ele>61.0</ele><time>2026-04-19T11:07:32.579Z</time></trkpt><trkpt lat="39.99174310696665" lon="18.16140100381614"><ele>60.5</ele><time>2026-04-19T11:07:33.579Z</time></trkpt><trkpt lat="39.99197494838179" lon="18.16138160532283"><ele>60.0</ele><time>2026-04-19T11:07:34.579Z</time></trkpt><trkpt lat="39.992204810621345" lon="18.161363031570247"><ele>60.0</ele><time>2026-04-19T11:07:35.579Z</time></trkpt><trkpt lat="39.992435420733635" lon="18.16134284107143"><ele>60.0</ele><time>2026-04-19T11:07:36.579Z</time></trkpt><trkpt lat="39.992668057712805" lon="18.161317051189503"><ele>60.5</ele><time>2026-04-19T11:07:37.579Z</time></trkpt><trkpt lat="39.992894654143015" lon="18.161293913715003"><ele>61.0</ele><time>2026-04-19T11:07:38.579Z</time></trkpt><trkpt lat="39.993120777899506" lon="18.1612676831561"><ele>61.0</ele><time>2026-04-19T11:07:39.579Z</time></trkpt><trkpt lat="39.993347780811256" lon="18.161240785131497"><ele>61.0</ele><time>2026-04-19T11:07:40.579Z</time></trkpt><trkpt lat="39.99357813599835" lon="18.161223118189554"><ele>61.0</ele><time>2026-04-19T11:07:41.579Z</time></trkpt><trkpt lat="39.993809092864" lon="18.161214560986043"><ele>61.0</ele><time>2026-04-19T11:07:42.579Z</time></trkpt><trkpt lat="39.99404202716943" lon="18.161221122587538"><ele>61.5</ele><time>2026-04-19T11:07:43.579Z</time></trkpt><trkpt lat="39.99427456830504" lon="18.16123955246075"><ele>62.0</ele><time>2026-04-19T11:07:44.579Z</time></trkpt><trkpt lat="39.994508702022536" lon="18.16126360942485"><ele>62.0</ele><time>2026-04-19T11:07:45.579Z</time></trkpt><trkpt lat="39.99474563865794" lon="18.161291827143696"><ele>62.0</ele><time>2026-04-19T11:07:46.579Z</time></trkpt><trkpt lat="39.99497843886366" lon="18.161329878815156"><ele>62.0</ele><time>2026-04-19T11:07:47.579Z</time></trkpt><trkpt lat="39.99520600936172" lon="18.16138733056988"><ele>62.0</ele><time>2026-04-19T11:07:48.579Z</time></trkpt><trkpt lat="39.99541895736567" lon="18.161477353618423"><ele>62.5</ele><time>2026-04-19T11:07:49.579Z</time></trkpt><trkpt lat="39.99563154559295" lon="18.161578798386767"><ele>63.0</ele><time>2026-04-19T11:07:50.579Z</time></trkpt><trkpt lat="39.99584758779788" lon="18.161685158751293"><ele>63.0</ele><time>2026-04-19T11:07:51.579Z</time></trkpt><trkpt lat="39.99606664608034" lon="18.161784413845798"><ele>63.0</ele><time>2026-04-19T11:07:52.579Z</time></trkpt><trkpt lat="39.99628631223339" lon="18.161886677434513"><ele>63.0</ele><time>2026-04-19T11:07:53.579Z</time></trkpt><trkpt lat="39.996504659384904" lon="18.161989254755433"><ele>63.0</ele><time>2026-04-19T11:07:54.579Z</time></trkpt><trkpt lat="39.996723613093494" lon="18.162090826511047"><ele>64.0</ele><time>2026-04-19T11:07:55.579Z</time></trkpt><trkpt lat="39.996933577554906" lon="18.162196455894353"><ele>65.0</ele><time>2026-04-19T11:07:56.579Z</time></trkpt><trkpt lat="39.997147231046604" lon="18.16229429778211"><ele>65.0</ele><time>2026-04-19T11:07:57.579Z</time></trkpt><trkpt lat="39.997355105405134" lon="18.16238957834069"><ele>65.0</ele><time>2026-04-19T11:07:58.579Z</time></trkpt><trkpt lat="39.99756300291942" lon="18.162485051255462"><ele>65.0</ele><time>2026-04-19T11:07:59.579Z</time></trkpt><trkpt lat="39.99776942989446" lon="18.162577016711463"><ele>65.33333333333334</ele><time>2026-04-19T11:08:00.579Z</time></trkpt><trkpt lat="39.99798212906463" lon="18.162676789841445"><ele>65.66666666666667</ele><time>2026-04-19T11:08:01.579Z</time></trkpt><trkpt lat="39.998189972190005" lon="18.162774426635448"><ele>66.0</ele><time>2026-04-19T11:08:02.579Z</time></trkpt><trkpt lat="39.99839456006512" lon="18.162875225231115"><ele>66.33333333333333</ele><time>2026-04-19T11:08:03.579Z</time></trkpt><trkpt lat="39.998598230991405" lon="18.162978840484783"><ele>66.66666666666666</ele><time>2026-04-19T11:08:04.579Z</time></trkpt><trkpt lat="39.998800583130304" lon="18.163082627290777"><ele>67.0</ele><time>2026-04-19T11:08:05.579Z</time></trkpt><trkpt lat="39.99899997675216" lon="18.16318600205448"><ele>68.33333333333333</ele><time>2026-04-19T11:08:06.579Z</time></trkpt><trkpt lat="39.99920099162438" lon="18.163279324735125"><ele>69.66666666666667</ele><time>2026-04-19T11:08:07.579Z</time></trkpt><trkpt lat="39.999402986167624" lon="18.163354963768022"><ele>71.0</ele><time>2026-04-19T11:08:08.579Z</time></trkpt><trkpt lat="39.999612566027004" lon="18.163410396442348"><ele>71.0</ele><time>2026-04-19T11:08:09.579Z</time></trkpt><trkpt lat="39.999824003612716" lon="18.163449609113105"><ele>71.0</ele><time>2026-04-19T11:08:10.579Z</time></trkpt><trkpt lat="40.000023875798604" lon="18.16348506925657"><ele>71.0</ele><time>2026-04-19T11:08:11.579Z</time></trkpt><trkpt lat="40.00020624889349" lon="18.16350455680027"><ele>71.0</ele><time>2026-04-19T11:08:12.579Z</time></trkpt><trkpt lat="40.000372219059734" lon="18.163523154126548"><ele>71.0</ele><time>2026-04-19T11:08:13.579Z</time></trkpt><trkpt lat="40.00052365515625" lon="18.163550778800243"><ele>71.0</ele><time>2026-04-19T11:08:14.579Z</time></trkpt><trkpt lat="40.000664369544225" lon="18.163556289226857"><ele>71.0</ele><time>2026-04-19T11:08:15.579Z</time></trkpt><trkpt lat="40.00078715006595" lon="18.163535357607007"><ele>71.0</ele><time>2026-04-19T11:08:16.579Z</time></trkpt><trkpt lat="40.00091628203686" lon="18.16347046154624"><ele>71.0</ele><time>2026-04-19T11:08:17.579Z</time></trkpt><trkpt lat="40.00105113943479" lon="18.163402715194863"><ele>71.0</ele><time>2026-04-19T11:08:18.579Z</time></trkpt><trkpt lat="40.00117704316426" lon="18.16328142382539"><ele>70.75</ele><time>2026-04-19T11:08:19.579Z</time></trkpt><trkpt lat="40.001298882843045" lon="18.16312059038427"><ele>70.5</ele><time>2026-04-19T11:08:20.579Z</time></trkpt><trkpt lat="40.001400293641915" lon="18.162974331547236"><ele>70.25</ele><time>2026-04-19T11:08:21.579Z</time></trkpt><trkpt lat="40.00148370200752" lon="18.162866875196094"><ele>70.0</ele><time>2026-04-19T11:08:22.579Z</time></trkpt><trkpt lat="40.001549515672814" lon="18.162797537414992"><ele>70.0</ele><time>2026-04-19T11:08:23.579Z</time></trkpt><trkpt lat="40.00160703691553" lon="18.16276345505177"><ele>70.0</ele><time>2026-04-19T11:08:24.579Z</time></trkpt><trkpt lat="40.001730325755254" lon="18.16278671921161"><ele>70.0</ele><time>2026-04-19T11:08:26.579Z</time></trkpt><trkpt lat="40.0017819703918" lon="18.162842379096677"><ele>70.0</ele><time>2026-04-19T11:08:27.579Z</time></trkpt><trkpt lat="40.00184502896478" lon="18.162921731502685"><ele>70.0</ele><time>2026-04-19T11:08:28.579Z</time></trkpt><trkpt lat="40.00192880779311" lon="18.16300169360666"><ele>70.0</ele><time>2026-04-19T11:08:29.579Z</time></trkpt><trkpt lat="40.00205989637052" lon="18.163064551297623"><ele>71.0</ele><time>2026-04-19T11:08:30.579Z</time></trkpt><trkpt lat="40.00222775383297" lon="18.163097682221437"><ele>72.0</ele><time>2026-04-19T11:08:31.579Z</time></trkpt><trkpt lat="40.00241604599329" lon="18.1630870726318"><ele>73.0</ele><time>2026-04-19T11:08:32.579Z</time></trkpt><trkpt lat="40.00262834714787" lon="18.16307629721087"><ele>74.33333333333333</ele><time>2026-04-19T11:08:33.579Z</time></trkpt><trkpt lat="40.002814937336936" lon="18.163024915363316"><ele>75.66666666666667</ele><time>2026-04-19T11:08:34.578Z</time></trkpt><trkpt lat="40.00295771108987" lon="18.16296982061534"><ele>77.0</ele><time>2026-04-19T11:08:35.578Z</time></trkpt><trkpt lat="40.00307199198525" lon="18.162927304902617"><ele>77.0</ele><time>2026-04-19T11:08:36.578Z</time></trkpt><trkpt lat="40.00317665158499" lon="18.162867114368943"><ele>77.0</ele><time>2026-04-19T11:08:37.578Z</time></trkpt><trkpt lat="40.00327273559366" lon="18.16279176376159"><ele>77.0</ele><time>2026-04-19T11:08:38.578Z</time></trkpt><trkpt lat="40.003362479709004" lon="18.162725433006646"><ele>77.0</ele><time>2026-04-19T11:08:39.578Z</time></trkpt><trkpt lat="40.00344572616466" lon="18.162690290795663"><ele>77.0</ele><time>2026-04-19T11:08:40.578Z</time></trkpt><trkpt lat="40.003511040741714" lon="18.16263551951485"><ele>77.4</ele><time>2026-04-19T11:08:41.577Z</time></trkpt><trkpt lat="40.003578651447974" lon="18.162552649382402"><ele>77.80000000000001</ele><time>2026-04-19T11:08:42.577Z</time></trkpt><trkpt lat="40.003660031147675" lon="18.162440434951932"><ele>78.2</ele><time>2026-04-19T11:08:43.578Z</time></trkpt><trkpt lat="40.0037222370361" lon="18.16237033686933"><ele>78.60000000000001</ele><time>2026-04-19T11:08:44.578Z</time></trkpt><trkpt lat="40.00377294708942" lon="18.162267638653496"><ele>79.0</ele><time>2026-04-19T11:08:45.578Z</time></trkpt><trkpt lat="40.00381857794007" lon="18.162355820563207"><ele>79.0</ele><time>2026-04-19T11:08:50.578Z</time></trkpt><trkpt lat="40.003801012113705" lon="18.162440164876838"><ele>79.0</ele><time>2026-04-19T11:08:52.578Z</time></trkpt><trkpt lat="40.00381329566819" lon="18.16257619356875"><ele>79.0</ele><time>2026-04-19T11:08:54.578Z</time></trkpt><trkpt lat="40.004207656048784" lon="18.163236801913037"><ele>79.5</ele><time>2026-04-19T11:08:55.578Z</time></trkpt><trkpt lat="40.004219644175684" lon="18.16334236818157"><ele>80.0</ele><time>2026-04-19T11:08:56.578Z</time></trkpt><trkpt lat="40.00423136199269" lon="18.163426119707786"><ele>80.5</ele><time>2026-04-19T11:08:57.578Z</time></trkpt><trkpt lat="40.004238661496565" lon="18.16351783314996"><ele>81.0</ele><time>2026-04-19T11:08:58.578Z</time></trkpt><trkpt lat="40.004250460132766" lon="18.16360149239291"><ele>81.5</ele><time>2026-04-19T11:08:59.578Z</time></trkpt><trkpt lat="40.0042773281226" lon="18.163735611260417"><ele>82.0</ele><time>2026-04-19T11:09:01.578Z</time></trkpt><trkpt lat="40.00430349710284" lon="18.16384164126955"><ele>82.0</ele><time>2026-04-19T11:09:03.578Z</time></trkpt><trkpt lat="40.00432892619657" lon="18.163976763175253"><ele>82.0</ele><time>2026-04-19T11:09:06.578Z</time></trkpt><trkpt lat="40.00435999891925" lon="18.164071082931013"><ele>82.0</ele><time>2026-04-19T11:09:07.578Z</time></trkpt><trkpt lat="40.00438893291713" lon="18.164175350062738"><ele>82.0</ele><time>2026-04-19T11:09:08.578Z</time></trkpt><trkpt lat="40.00442005330129" lon="18.16431622886787"><ele>82.0</ele><time>2026-04-19T11:09:09.578Z</time></trkpt><trkpt lat="40.00446172747789" lon="18.164484025181835"><ele>81.83333333333333</ele><time>2026-04-19T11:09:10.578Z</time></trkpt><trkpt lat="40.00449194688344" lon="18.164619366868184"><ele>81.66666666666666</ele><time>2026-04-19T11:09:11.578Z</time></trkpt><trkpt lat="40.00451838452149" lon="18.164734476429594"><ele>81.5</ele><time>2026-04-19T11:09:12.578Z</time></trkpt><trkpt lat="40.00453761321533" lon="18.16483885947569"><ele>81.33333333333333</ele><time>2026-04-19T11:09:13.578Z</time></trkpt><trkpt lat="40.004558454990004" lon="18.16492695094754"><ele>81.16666666666667</ele><time>2026-04-19T11:09:14.578Z</time></trkpt><trkpt lat="40.00456824010839" lon="18.165017016184397"><ele>81.0</ele><time>2026-04-19T11:09:15.578Z</time></trkpt><trkpt lat="40.00460522779718" lon="18.165141344888326"><ele>81.33333333333333</ele><time>2026-04-19T11:09:17.578Z</time></trkpt><trkpt lat="40.004609561511906" lon="18.16523351801786"><ele>81.66666666666667</ele><time>2026-04-19T11:09:21.578Z</time></trkpt><trkpt lat="40.004572769094054" lon="18.165311656278"><ele>82.0</ele><time>2026-04-19T11:09:23.578Z</time></trkpt><trkpt lat="40.00452607737864" lon="18.165368551888502"><ele>82.33333333333334</ele><time>2026-04-19T11:09:24.578Z</time></trkpt><trkpt lat="40.00445651715582" lon="18.16545450543561"><ele>82.66666666666667</ele><time>2026-04-19T11:09:25.578Z</time></trkpt><trkpt lat="40.004363025755715" lon="18.165536922904916"><ele>83.0</ele><time>2026-04-19T11:09:26.578Z</time></trkpt><trkpt lat="40.004258301339995" lon="18.165635371256478"><ele>83.2</ele><time>2026-04-19T11:09:27.578Z</time></trkpt><trkpt lat="40.00417095922967" lon="18.165715852544054"><ele>83.4</ele><time>2026-04-19T11:09:28.578Z</time></trkpt><trkpt lat="40.00411498971953" lon="18.165772576103077"><ele>83.60000000000001</ele><time>2026-04-19T11:09:29.578Z</time></trkpt><trkpt lat="40.00410292762616" lon="18.165868086936896"><ele>83.80000000000001</ele><time>2026-04-19T11:09:33.578Z</time></trkpt><trkpt lat="40.00419885504561" lon="18.166008364494836"><ele>84.0</ele><time>2026-04-19T11:09:35.578Z</time></trkpt><trkpt lat="40.00430528994336" lon="18.166171774992506"><ele>84.0</ele><time>2026-04-19T11:09:36.578Z</time></trkpt><trkpt lat="40.004380950839185" lon="18.166318933381504"><ele>84.0</ele><time>2026-04-19T11:09:37.578Z</time></trkpt><trkpt lat="40.00447565499086" lon="18.16647000233197"><ele>84.0</ele><time>2026-04-19T11:09:38.578Z</time></trkpt><trkpt lat="40.004567537511655" lon="18.16664031016613"><ele>84.0</ele><time>2026-04-19T11:09:39.578Z</time></trkpt><trkpt lat="40.00466380259654" lon="18.166804927959227"><ele>83.80000000000001</ele><time>2026-04-19T11:09:40.578Z</time></trkpt><trkpt lat="40.00474742949926" lon="18.166945145147924"><ele>83.60000000000001</ele><time>2026-04-19T11:09:41.578Z</time></trkpt><trkpt lat="40.00480804000965" lon="18.16704630103448"><ele>83.4</ele><time>2026-04-19T11:09:42.578Z</time></trkpt><trkpt lat="40.00485012550909" lon="18.16713735666705"><ele>83.2</ele><time>2026-04-19T11:09:43.578Z</time></trkpt><trkpt lat="40.00489163496478" lon="18.16723556068673"><ele>83.0</ele><time>2026-04-19T11:09:45.578Z</time></trkpt><trkpt lat="40.00485453713299" lon="18.167376690184287"><ele>82.5</ele><time>2026-04-19T11:09:49.578Z</time></trkpt><trkpt lat="40.00479261078165" lon="18.167466180273593"><ele>82.0</ele><time>2026-04-19T11:09:50.578Z</time></trkpt><trkpt lat="40.00470633497077" lon="18.167579852721797"><ele>81.5</ele><time>2026-04-19T11:09:51.578Z</time></trkpt><trkpt lat="40.004601712632386" lon="18.167700120220736"><ele>81.0</ele><time>2026-04-19T11:09:52.578Z</time></trkpt><trkpt lat="40.00449146950738" lon="18.167837999981156"><ele>81.0</ele><time>2026-04-19T11:09:53.578Z</time></trkpt><trkpt lat="40.004413049797996" lon="18.167935076844287"><ele>81.0</ele><time>2026-04-19T11:09:54.578Z</time></trkpt><trkpt lat="40.00437839780631" lon="18.168012407260225"><ele>81.0</ele><time>2026-04-19T11:09:55.578Z</time></trkpt><trkpt lat="40.00435232933993" lon="18.16809425932647"><ele>81.0</ele><time>2026-04-19T11:09:56.578Z</time></trkpt><trkpt lat="40.00434550438654" lon="18.168188944977864"><ele>81.0</ele><time>2026-04-19T11:09:57.578Z</time></trkpt><trkpt lat="40.004357494409845" lon="18.16828282028119"><ele>81.0</ele><time>2026-04-19T11:09:58.578Z</time></trkpt><trkpt lat="40.00438688371636" lon="18.16837275580474"><ele>81.4</ele><time>2026-04-19T11:09:59.578Z</time></trkpt><trkpt lat="40.00442221157184" lon="18.168454202074674"><ele>81.8</ele><time>2026-04-19T11:10:00.578Z</time></trkpt><trkpt lat="40.00447878317296" lon="18.168553687998937"><ele>82.2</ele><time>2026-04-19T11:10:01.578Z</time></trkpt><trkpt lat="40.00453857875558" lon="18.168690189600092"><ele>82.60000000000001</ele><time>2026-04-19T11:10:02.578Z</time></trkpt><trkpt lat="40.004598814256546" lon="18.168850741802082"><ele>83.0</ele><time>2026-04-19T11:10:03.578Z</time></trkpt><trkpt lat="40.004682625350526" lon="18.169023734109906"><ele>83.0</ele><time>2026-04-19T11:10:04.578Z</time></trkpt><trkpt lat="40.00476692790431" lon="18.16919594362281"><ele>83.0</ele><time>2026-04-19T11:10:05.578Z</time></trkpt><trkpt lat="40.004841554250994" lon="18.16932841540993"><ele>83.0</ele><time>2026-04-19T11:10:06.578Z</time></trkpt><trkpt lat="40.00490094909402" lon="18.169437836834078"><ele>83.0</ele><time>2026-04-19T11:10:07.578Z</time></trkpt><trkpt lat="40.0049434718599" lon="18.169536450360223"><ele>83.0</ele><time>2026-04-19T11:10:08.578Z</time></trkpt><trkpt lat="40.004977303968204" lon="18.16961566141037"><ele>83.0</ele><time>2026-04-19T11:10:09.578Z</time></trkpt><trkpt lat="40.00497493616024" lon="18.169746160813474"><ele>83.0</ele><time>2026-04-19T11:10:11.578Z</time></trkpt><trkpt lat="40.00494064930666" lon="18.169846788407572"><ele>83.0</ele><time>2026-04-19T11:10:12.578Z</time></trkpt><trkpt lat="40.00489802284967" lon="18.16995167647867"><ele>83.0</ele><time>2026-04-19T11:10:13.578Z</time></trkpt><trkpt lat="40.004871281008164" lon="18.170077462153436"><ele>83.0</ele><time>2026-04-19T11:10:14.578Z</time></trkpt><trkpt lat="40.00487819082443" lon="18.170188702360207"><ele>83.75</ele><time>2026-04-19T11:10:15.578Z</time></trkpt><trkpt lat="40.004912630076284" lon="18.170318158317734"><ele>84.5</ele><time>2026-04-19T11:10:16.578Z</time></trkpt><trkpt lat="40.00497930181758" lon="18.17046361266266"><ele>85.25</ele><time>2026-04-19T11:10:17.578Z</time></trkpt><trkpt lat="40.005062618098535" lon="18.170636762870615"><ele>86.0</ele><time>2026-04-19T11:10:18.578Z</time></trkpt><trkpt lat="40.005146536717646" lon="18.17079069352318"><ele>87.8</ele><time>2026-04-19T11:10:19.578Z</time></trkpt><trkpt lat="40.005213402525385" lon="18.17091742967242"><ele>89.6</ele><time>2026-04-19T11:10:20.578Z</time></trkpt><trkpt lat="40.005276618084935" lon="18.171019980509058"><ele>91.4</ele><time>2026-04-19T11:10:21.578Z</time></trkpt><trkpt lat="40.00534930523128" lon="18.171120729988306"><ele>93.2</ele><time>2026-04-19T11:10:22.578Z</time></trkpt><trkpt lat="40.005424572743955" lon="18.1712159165497"><ele>95.0</ele><time>2026-04-19T11:10:23.578Z</time></trkpt><trkpt lat="40.00550014718955" lon="18.171337615295567"><ele>95.0</ele><time>2026-04-19T11:10:24.578Z</time></trkpt><trkpt lat="40.00558742514205" lon="18.171472085085718"><ele>95.0</ele><time>2026-04-19T11:10:25.578Z</time></trkpt><trkpt lat="40.0056830667786" lon="18.171608187619636"><ele>95.0</ele><time>2026-04-19T11:10:26.578Z</time></trkpt><trkpt lat="40.00579140035714" lon="18.171718184565783"><ele>95.0</ele><time>2026-04-19T11:10:27.578Z</time></trkpt><trkpt lat="40.00589370136356" lon="18.171856727454703"><ele>96.5</ele><time>2026-04-19T11:10:28.578Z</time></trkpt><trkpt lat="40.00598183171908" lon="18.17201205819386"><ele>98.0</ele><time>2026-04-19T11:10:29.578Z</time></trkpt><trkpt lat="40.00606274893385" lon="18.172144534589716"><ele>99.5</ele><time>2026-04-19T11:10:30.578Z</time></trkpt><trkpt lat="40.00617333155559" lon="18.1722489611743"><ele>101.0</ele><time>2026-04-19T11:10:31.578Z</time></trkpt><trkpt lat="40.00629084485809" lon="18.17237021461822"><ele>102.25</ele><time>2026-04-19T11:10:32.578Z</time></trkpt><trkpt lat="40.006400337540086" lon="18.172520256341485"><ele>103.5</ele><time>2026-04-19T11:10:33.578Z</time></trkpt><trkpt lat="40.00649972044179" lon="18.17268928546084"><ele>104.75</ele><time>2026-04-19T11:10:34.578Z</time></trkpt><trkpt lat="40.006561910242475" lon="18.172826086532712"><ele>106.0</ele><time>2026-04-19T11:10:35.578Z</time></trkpt><trkpt lat="40.0065863492823" lon="18.172928882444587"><ele>106.0</ele><time>2026-04-19T11:10:36.578Z</time></trkpt><trkpt lat="40.00662069748556" lon="18.173017923221014"><ele>106.0</ele><time>2026-04-19T11:10:38.578Z</time></trkpt><trkpt lat="40.00670242152988" lon="18.17304006885346"><ele>106.0</ele><time>2026-04-19T11:10:40.578Z</time></trkpt><trkpt lat="40.006777445805696" lon="18.173028310369315"><ele>106.0</ele><time>2026-04-19T11:10:41.578Z</time></trkpt><trkpt lat="40.00688304546833" lon="18.17303548827572"><ele>106.0</ele><time>2026-04-19T11:10:42.578Z</time></trkpt><trkpt lat="40.007014814848965" lon="18.173021566199587"><ele>107.33333333333334</ele><time>2026-04-19T11:10:43.577Z</time></trkpt><trkpt lat="40.00716620022688" lon="18.17296871213729"><ele>108.66666666666666</ele><time>2026-04-19T11:10:44.576Z</time></trkpt><trkpt lat="40.007338152892416" lon="18.172909117801115"><ele>110.0</ele><time>2026-04-19T11:10:45.576Z</time></trkpt><trkpt lat="40.00750317283112" lon="18.172856030509784"><ele>110.8</ele><time>2026-04-19T11:10:46.577Z</time></trkpt><trkpt lat="40.00765500249676" lon="18.172824460880914"><ele>111.6</ele><time>2026-04-19T11:10:47.576Z</time></trkpt><trkpt lat="40.00775752645234" lon="18.17281666480688"><ele>112.4</ele><time>2026-04-19T11:10:48.576Z</time></trkpt><trkpt lat="40.0078264413961" lon="18.172817334511038"><ele>113.2</ele><time>2026-04-19T11:10:49.576Z</time></trkpt><trkpt lat="40.00792166937733" lon="18.172800488240245"><ele>114.0</ele><time>2026-04-19T11:10:51.576Z</time></trkpt><trkpt lat="40.00797728829617" lon="18.172751302791085"><ele>114.0</ele><time>2026-04-19T11:10:52.576Z</time></trkpt><trkpt lat="40.00805196761944" lon="18.172661307673973"><ele>114.0</ele><time>2026-04-19T11:10:53.576Z</time></trkpt><trkpt lat="40.008153805541276" lon="18.17256211744788"><ele>114.0</ele><time>2026-04-19T11:10:54.576Z</time></trkpt><trkpt lat="40.00827468716609" lon="18.17243337037049"><ele>114.0</ele><time>2026-04-19T11:10:55.577Z</time></trkpt><trkpt lat="40.00840154326614" lon="18.172304200961264"><ele>113.75</ele><time>2026-04-19T11:10:56.576Z</time></trkpt><trkpt lat="40.00853198200412" lon="18.172186268493732"><ele>113.5</ele><time>2026-04-19T11:10:57.576Z</time></trkpt><trkpt lat="40.00865218387115" lon="18.172070561056625"><ele>113.25</ele><time>2026-04-19T11:10:58.576Z</time></trkpt><trkpt lat="40.008759668481794" lon="18.171973770543552"><ele>113.0</ele><time>2026-04-19T11:10:59.576Z</time></trkpt><trkpt lat="40.008860492325255" lon="18.171874323172567"><ele>113.0</ele><time>2026-04-19T11:11:00.576Z</time></trkpt><trkpt lat="40.00895638944865" lon="18.171783184044177"><ele>113.00000000000001</ele><time>2026-04-19T11:11:01.576Z</time></trkpt><trkpt lat="40.00904090894217" lon="18.171703474526122"><ele>113.00000000000001</ele><time>2026-04-19T11:11:02.576Z</time></trkpt><trkpt lat="40.00913042292434" lon="18.171628008762347"><ele>113.0</ele><time>2026-04-19T11:11:03.576Z</time></trkpt><trkpt lat="40.009223492424304" lon="18.17154246850204"><ele>113.0</ele><time>2026-04-19T11:11:04.576Z</time></trkpt><trkpt lat="40.009322603196225" lon="18.171455629888378"><ele>113.2</ele><time>2026-04-19T11:11:05.576Z</time></trkpt><trkpt lat="40.00941639840624" lon="18.17137325123874"><ele>113.4</ele><time>2026-04-19T11:11:06.576Z</time></trkpt><trkpt lat="40.00950083680324" lon="18.17130382522672"><ele>113.60000000000001</ele><time>2026-04-19T11:11:07.576Z</time></trkpt><trkpt lat="40.00958760698576" lon="18.171238399021266"><ele>113.80000000000001</ele><time>2026-04-19T11:11:08.576Z</time></trkpt><trkpt lat="40.00966952792639" lon="18.17116338807362"><ele>114.0</ele><time>2026-04-19T11:11:09.576Z</time></trkpt><trkpt lat="40.00976101444979" lon="18.171095622273295"><ele>114.0</ele><time>2026-04-19T11:11:10.576Z</time></trkpt><trkpt lat="40.00985619876416" lon="18.17103120633625"><ele>114.0</ele><time>2026-04-19T11:11:11.576Z</time></trkpt><trkpt lat="40.00995302903987" lon="18.170959296015575"><ele>114.0</ele><time>2026-04-19T11:11:12.576Z</time></trkpt><trkpt lat="40.0100541505247" lon="18.17087879121042"><ele>114.0</ele><time>2026-04-19T11:11:13.576Z</time></trkpt><trkpt lat="40.01015720737795" lon="18.170786340689617"><ele>113.80000000000001</ele><time>2026-04-19T11:11:14.576Z</time></trkpt><trkpt lat="40.01026071726497" lon="18.170703664869986"><ele>113.60000000000001</ele><time>2026-04-19T11:11:15.576Z</time></trkpt><trkpt lat="40.01036261849971" lon="18.17062919214945"><ele>113.4</ele><time>2026-04-19T11:11:16.576Z</time></trkpt><trkpt lat="40.01045041341923" lon="18.170564353301554"><ele>113.2</ele><time>2026-04-19T11:11:17.576Z</time></trkpt><trkpt lat="40.0105215358888" lon="18.17051223602229"><ele>113.0</ele><time>2026-04-19T11:11:18.576Z</time></trkpt><trkpt lat="40.010630147922676" lon="18.17043521254888"><ele>113.0</ele><time>2026-04-19T11:11:20.576Z</time></trkpt><trkpt lat="40.010764160086595" lon="18.170375374093926"><ele>113.00000000000001</ele><time>2026-04-19T11:11:22.576Z</time></trkpt><trkpt lat="40.01084543159183" lon="18.170331819055164"><ele>113.00000000000001</ele><time>2026-04-19T11:11:23.576Z</time></trkpt><trkpt lat="40.010916393626374" lon="18.17030326297648"><ele>113.0</ele><time>2026-04-19T11:11:24.576Z</time></trkpt><trkpt lat="40.01100118058466" lon="18.170258955106945"><ele>113.0</ele><time>2026-04-19T11:11:26.576Z</time></trkpt><trkpt lat="40.011057884784925" lon="18.170308581681713"><ele>113.80000000000001</ele><time>2026-04-19T11:11:28.576Z</time></trkpt><trkpt lat="40.01109134928324" lon="18.170386279411325"><ele>114.60000000000001</ele><time>2026-04-19T11:11:29.576Z</time></trkpt><trkpt lat="40.01111668701763" lon="18.170489760839438"><ele>115.39999999999999</ele><time>2026-04-19T11:11:30.576Z</time></trkpt><trkpt lat="40.01114424444236" lon="18.170605802404484"><ele>116.19999999999999</ele><time>2026-04-19T11:11:31.576Z</time></trkpt><trkpt lat="40.011177742586504" lon="18.170746755437026"><ele>117.0</ele><time>2026-04-19T11:11:32.576Z</time></trkpt><trkpt lat="40.01121452177921" lon="18.170906936818273"><ele>117.66666666666666</ele><time>2026-04-19T11:11:33.576Z</time></trkpt><trkpt lat="40.01124926867731" lon="18.171085926247844"><ele>118.33333333333333</ele><time>2026-04-19T11:11:34.576Z</time></trkpt><trkpt lat="40.01128685922267" lon="18.171282643454397"><ele>119.0</ele><time>2026-04-19T11:11:35.576Z</time></trkpt><trkpt lat="40.01133619052429" lon="18.17149010421452"><ele>119.33333333333333</ele><time>2026-04-19T11:11:36.576Z</time></trkpt><trkpt lat="40.01138338702172" lon="18.17171195860462"><ele>119.66666666666666</ele><time>2026-04-19T11:11:37.576Z</time></trkpt><trkpt lat="40.01143961632111" lon="18.171928772816024"><ele>120.0</ele><time>2026-04-19T11:11:38.576Z</time></trkpt><trkpt lat="40.01148175243036" lon="18.172138574414742"><ele>120.0</ele><time>2026-04-19T11:11:39.576Z</time></trkpt><trkpt lat="40.01152585454534" lon="18.172325887895656"><ele>120.0</ele><time>2026-04-19T11:11:40.576Z</time></trkpt><trkpt lat="40.011573240693195" lon="18.172485997299496"><ele>120.0</ele><time>2026-04-19T11:11:41.576Z</time></trkpt><trkpt lat="40.01159987561781" lon="18.172656632849588"><ele>120.0</ele><time>2026-04-19T11:11:42.576Z</time></trkpt><trkpt lat="40.011622515614434" lon="18.17281553203716"><ele>120.75</ele><time>2026-04-19T11:11:43.576Z</time></trkpt><trkpt lat="40.01164901120524" lon="18.172972421186063"><ele>121.5</ele><time>2026-04-19T11:11:44.576Z</time></trkpt><trkpt lat="40.01167158644459" lon="18.173126366878833"><ele>122.25</ele><time>2026-04-19T11:11:45.576Z</time></trkpt><trkpt lat="40.011697535458815" lon="18.173271440602793"><ele>123.0</ele><time>2026-04-19T11:11:46.576Z</time></trkpt><trkpt lat="40.01172568189038" lon="18.17341632946712"><ele>123.75</ele><time>2026-04-19T11:11:47.576Z</time></trkpt><trkpt lat="40.01175490860404" lon="18.173566516229428"><ele>124.5</ele><time>2026-04-19T11:11:48.576Z</time></trkpt><trkpt lat="40.011793930417404" lon="18.17372690247305"><ele>125.25</ele><time>2026-04-19T11:11:49.576Z</time></trkpt><trkpt lat="40.0118299928839" lon="18.17387992473149"><ele>126.0</ele><time>2026-04-19T11:11:50.576Z</time></trkpt><trkpt lat="40.01184023820811" lon="18.174036632013653"><ele>128.33333333333334</ele><time>2026-04-19T11:11:51.576Z</time></trkpt><trkpt lat="40.01184010797334" lon="18.174242581801607"><ele>130.66666666666669</ele><time>2026-04-19T11:11:52.576Z</time></trkpt><trkpt lat="40.011839489381146" lon="18.174478131463754"><ele>133.0</ele><time>2026-04-19T11:11:53.576Z</time></trkpt><trkpt lat="40.01182246218055" lon="18.174733580357827"><ele>133.66666666666669</ele><time>2026-04-19T11:11:54.576Z</time></trkpt><trkpt lat="40.01180780777103" lon="18.17497101311783"><ele>134.33333333333334</ele><time>2026-04-19T11:11:55.576Z</time></trkpt><trkpt lat="40.0118002442248" lon="18.175187885390738"><ele>135.0</ele><time>2026-04-19T11:11:56.576Z</time></trkpt><trkpt lat="40.01177219378659" lon="18.175377176716605"><ele>135.0</ele><time>2026-04-19T11:11:57.576Z</time></trkpt><trkpt lat="40.01173902351239" lon="18.17555355577319"><ele>135.0</ele><time>2026-04-19T11:11:58.576Z</time></trkpt><trkpt lat="40.01170103995234" lon="18.1757324619983"><ele>135.0</ele><time>2026-04-19T11:11:59.576Z</time></trkpt><trkpt lat="40.01166524247136" lon="18.175909098509873"><ele>135.0</ele><time>2026-04-19T11:12:00.576Z</time></trkpt><trkpt lat="40.01163066119104" lon="18.176088567735842"><ele>137.0</ele><time>2026-04-19T11:12:01.576Z</time></trkpt><trkpt lat="40.01160155933021" lon="18.17626156481925"><ele>139.0</ele><time>2026-04-19T11:12:02.576Z</time></trkpt><trkpt lat="40.01157595188597" lon="18.176423145863627"><ele>141.0</ele><time>2026-04-19T11:12:03.576Z</time></trkpt><trkpt lat="40.011558898711954" lon="18.17656739342166"><ele>143.0</ele><time>2026-04-19T11:12:04.576Z</time></trkpt><trkpt lat="40.011530430487596" lon="18.176717519096467"><ele>143.0</ele><time>2026-04-19T11:12:05.576Z</time></trkpt><trkpt lat="40.01149716595374" lon="18.176865310976872"><ele>143.0</ele><time>2026-04-19T11:12:06.576Z</time></trkpt><trkpt lat="40.011468972767275" lon="18.177002483057056"><ele>143.0</ele><time>2026-04-19T11:12:07.576Z</time></trkpt><trkpt lat="40.01144897476796" lon="18.177116177174796"><ele>143.0</ele><time>2026-04-19T11:12:08.576Z</time></trkpt><trkpt lat="40.011445359890395" lon="18.177238242145755"><ele>143.0</ele><time>2026-04-19T11:12:10.576Z</time></trkpt><trkpt lat="40.011492847100925" lon="18.17730637910474"><ele>143.0</ele><time>2026-04-19T11:12:12.576Z</time></trkpt><trkpt lat="40.01157972775877" lon="18.177342520228585"><ele>143.0</ele><time>2026-04-19T11:12:14.576Z</time></trkpt><trkpt lat="40.01166771274922" lon="18.17736158279133"><ele>143.0</ele><time>2026-04-19T11:12:16.576Z</time></trkpt><trkpt lat="40.011737760479264" lon="18.17738803658393"><ele>143.0</ele><time>2026-04-19T11:12:18.576Z</time></trkpt><trkpt lat="40.01181583520681" lon="18.177417306364877"><ele>143.0</ele><time>2026-04-19T11:12:20.576Z</time></trkpt><trkpt lat="40.01189497748812" lon="18.177436207303018"><ele>143.0</ele><time>2026-04-19T11:12:22.576Z</time></trkpt><trkpt lat="40.011982131630845" lon="18.177434771968695"><ele>144.0</ele><time>2026-04-19T11:12:25.576Z</time></trkpt><trkpt lat="40.012055189275436" lon="18.177473359586013"><ele>144.0</ele><time>2026-04-19T11:12:28.576Z</time></trkpt><trkpt lat="40.01209171759372" lon="18.177557969634275"><ele>144.0</ele><time>2026-04-19T11:12:32.576Z</time></trkpt><trkpt lat="40.01211930575882" lon="18.177647330380747"><ele>144.0</ele><time>2026-04-19T11:12:34.576Z</time></trkpt><trkpt lat="40.01213127140753" lon="18.177732191725784"><ele>144.0</ele><time>2026-04-19T11:12:36.576Z</time></trkpt></trkseg></trk></gpx>